<?xml version='1.0' encoding='UTF-8'?><gpx version="1.1" creator="JPX - https://github.com/jenetics/jpx" xmlns="http://www.topografix.com/GPX/1/1"><trk><trkseg><trkpt lat="42.45771936760054" lon="14.136121456095173"><ele>158.0</ele><time>2026-04-18T15:10:47Z</time></trkpt><trkpt lat="42.457595903243806" lon="14.136137461505912"><ele>158.0</ele><time>2026-04-18T15:10:50Z</time></trkpt><trkpt lat="42.45752855048074" lon="14.136161496586892"><ele>158.0</ele><time>2026-04-18T15:10:51Z</time></trkpt><trkpt lat="42.45745216065905" lon="14.136159978644294"><ele>158.0</ele><time>2026-04-18T15:10:52Z</time></trkpt><trkpt lat="42.4573787910408" lon="14.136171292991461"><ele>158.0</ele><time>2026-04-18T15:10:53Z</time></trkpt><trkpt lat="42.457301847398156" lon="14.13617570882456"><ele>158.0</ele><time>2026-04-18T15:10:54Z</time></trkpt><trkpt lat="42.45722690340377" lon="14.136177990378224"><ele>158.0</ele><time>2026-04-18T15:10:55Z</time></trkpt><trkpt lat="42.457138822307236" lon="14.136179492831102"><ele>158.0</ele><time>2026-04-18T15:10:56Z</time></trkpt><trkpt lat="42.45703709318153" lon="14.136181228084823"><ele>158.0</ele><time>2026-04-18T15:10:57Z</time></trkpt><trkpt lat="42.45695221029387" lon="14.136204021603792"><ele>158.0</ele><time>2026-04-18T15:10:58Z</time></trkpt><trkpt lat="42.456858159093414" lon="14.13621892721945"><ele>158.0</ele><time>2026-04-18T15:10:59Z</time></trkpt><trkpt lat="42.45675545882936" lon="14.136226270650285"><ele>159.8</ele><time>2026-04-18T15:11:00Z</time></trkpt><trkpt lat="42.45665772379184" lon="14.136244761077998"><ele>161.60000000000002</ele><time>2026-04-18T15:11:01Z</time></trkpt><trkpt lat="42.45655904448834" lon="14.136239585610888"><ele>163.39999999999998</ele><time>2026-04-18T15:11:02Z</time></trkpt><trkpt lat="42.45646877552312" lon="14.136218811444188"><ele>165.2</ele><time>2026-04-18T15:11:03Z</time></trkpt><trkpt lat="42.45638577446774" lon="14.136196603006958"><ele>167.0</ele><time>2026-04-18T15:11:04Z</time></trkpt><trkpt lat="42.456301668329274" lon="14.136168469712773"><ele>169.6</ele><time>2026-04-18T15:11:05Z</time></trkpt><trkpt lat="42.45620691933479" lon="14.136135772702588"><ele>172.2</ele><time>2026-04-18T15:11:06Z</time></trkpt><trkpt lat="42.45613424745826" lon="14.136100108079125"><ele>174.8</ele><time>2026-04-18T15:11:07Z</time></trkpt><trkpt lat="42.456071768493416" lon="14.13606801489489"><ele>177.4</ele><time>2026-04-18T15:11:08Z</time></trkpt><trkpt lat="42.45597499614517" lon="14.136023462210908"><ele>180.0</ele><time>2026-04-18T15:11:10Z</time></trkpt><trkpt lat="42.456016646722155" lon="14.135832790663237"><ele>180.0</ele><time>2026-04-18T15:11:12.999Z</time></trkpt><trkpt lat="42.45607389985396" lon="14.135723775824719"><ele>180.0</ele><time>2026-04-18T15:11:13.999Z</time></trkpt><trkpt lat="42.45613731623714" lon="14.13558825215034"><ele>180.0</ele><time>2026-04-18T15:11:14.999Z</time></trkpt><trkpt lat="42.45619993302866" lon="14.135432694184624"><ele>180.0</ele><time>2026-04-18T15:11:15.999Z</time></trkpt><trkpt lat="42.4562518932731" lon="14.135249766145447"><ele>177.0</ele><time>2026-04-18T15:11:16.999Z</time></trkpt><trkpt lat="42.45632381449979" lon="14.135073941734706"><ele>174.0</ele><time>2026-04-18T15:11:17.999Z</time></trkpt><trkpt lat="42.45638071686371" lon="14.134888474994101"><ele>171.0</ele><time>2026-04-18T15:11:18.999Z</time></trkpt><trkpt lat="42.45643552688361" lon="14.13471069102301"><ele>168.0</ele><time>2026-04-18T15:11:19.999Z</time></trkpt><trkpt lat="42.45648661649499" lon="14.134547571133869"><ele>168.0</ele><time>2026-04-18T15:11:20.999Z</time></trkpt><trkpt lat="42.45654143677743" lon="14.134372955318717"><ele>168.0</ele><time>2026-04-18T15:11:21.999Z</time></trkpt><trkpt lat="42.45660254932858" lon="14.134174118218239"><ele>168.0</ele><time>2026-04-18T15:11:22.999Z</time></trkpt><trkpt lat="42.45666321549372" lon="14.133956858152223"><ele>168.0</ele><time>2026-04-18T15:11:23.999Z</time></trkpt><trkpt lat="42.45670411468186" lon="14.133721142684053"><ele>168.0</ele><time>2026-04-18T15:11:24.999Z</time></trkpt><trkpt lat="42.456762907155145" lon="14.13349509309618"><ele>168.0</ele><time>2026-04-18T15:11:25.999Z</time></trkpt><trkpt lat="42.45679863360621" lon="14.133248715920146"><ele>167.33333333333334</ele><time>2026-04-18T15:11:26.999Z</time></trkpt><trkpt lat="42.456826836163565" lon="14.133025030925168"><ele>166.66666666666669</ele><time>2026-04-18T15:11:27.999Z</time></trkpt><trkpt lat="42.45684901236883" lon="14.13281543785003"><ele>166.0</ele><time>2026-04-18T15:11:28.999Z</time></trkpt><trkpt lat="42.456879859786994" lon="14.132631346237305"><ele>166.0</ele><time>2026-04-18T15:11:29.999Z</time></trkpt><trkpt lat="42.45692439259616" lon="14.132456984462276"><ele>166.0</ele><time>2026-04-18T15:11:30.999Z</time></trkpt><trkpt lat="42.456985016836406" lon="14.132287227617631"><ele>166.0</ele><time>2026-04-18T15:11:31.999Z</time></trkpt><trkpt lat="42.457055775286186" lon="14.132113031806618"><ele>166.0</ele><time>2026-04-18T15:11:32.999Z</time></trkpt><trkpt lat="42.45712875294041" lon="14.131935964161803"><ele>164.5</ele><time>2026-04-18T15:11:33.999Z</time></trkpt><trkpt lat="42.457198371212286" lon="14.13175001339107"><ele>163.0</ele><time>2026-04-18T15:11:34.999Z</time></trkpt><trkpt lat="42.45726802339355" lon="14.131583505361862"><ele>161.5</ele><time>2026-04-18T15:11:35.999Z</time></trkpt><trkpt lat="42.457338259090996" lon="14.131406612610808"><ele>160.0</ele><time>2026-04-18T15:11:36.999Z</time></trkpt><trkpt lat="42.457412628620254" lon="14.131227079376794"><ele>160.0</ele><time>2026-04-18T15:11:37.999Z</time></trkpt><trkpt lat="42.457489524821824" lon="14.131049859923353"><ele>160.0</ele><time>2026-04-18T15:11:38.999Z</time></trkpt><trkpt lat="42.45758598820715" lon="14.130884253544695"><ele>160.0</ele><time>2026-04-18T15:11:39.999Z</time></trkpt><trkpt lat="42.45767376794969" lon="14.13072636078093"><ele>160.33333333333334</ele><time>2026-04-18T15:11:40.999Z</time></trkpt><trkpt lat="42.45777912766183" lon="14.130578154803983"><ele>160.66666666666666</ele><time>2026-04-18T15:11:41.999Z</time></trkpt><trkpt lat="42.45790010619723" lon="14.130450568554505"><ele>161.0</ele><time>2026-04-18T15:11:42.999Z</time></trkpt><trkpt lat="42.45801689369637" lon="14.130306573261688"><ele>160.75</ele><time>2026-04-18T15:11:43.999Z</time></trkpt><trkpt lat="42.45814260479214" lon="14.13018848356138"><ele>160.5</ele><time>2026-04-18T15:11:44.999Z</time></trkpt><trkpt lat="42.45825579507302" lon="14.130061868700949"><ele>160.25</ele><time>2026-04-18T15:11:45.999Z</time></trkpt><trkpt lat="42.458359869100995" lon="14.129919534606007"><ele>160.0</ele><time>2026-04-18T15:11:46.999Z</time></trkpt><trkpt lat="42.4584544763138" lon="14.129760699507129"><ele>160.0</ele><time>2026-04-18T15:11:47.999Z</time></trkpt><trkpt lat="42.45853742377122" lon="14.129588016894665"><ele>160.0</ele><time>2026-04-18T15:11:48.999Z</time></trkpt><trkpt lat="42.45860407430806" lon="14.129410893232356"><ele>160.0</ele><time>2026-04-18T15:11:49.999Z</time></trkpt><trkpt lat="42.45866580470214" lon="14.129223585651074"><ele>158.75</ele><time>2026-04-18T15:11:50.999Z</time></trkpt><trkpt lat="42.45870420889379" lon="14.12903243348661"><ele>157.5</ele><time>2026-04-18T15:11:51.999Z</time></trkpt><trkpt lat="42.45872531539498" lon="14.128852061413534"><ele>156.25</ele><time>2026-04-18T15:11:52.999Z</time></trkpt><trkpt lat="42.45872181350155" lon="14.12867962958534"><ele>155.0</ele><time>2026-04-18T15:11:53.999Z</time></trkpt><trkpt lat="42.458708144787266" lon="14.1285167380873"><ele>155.0</ele><time>2026-04-18T15:11:54.999Z</time></trkpt><trkpt lat="42.458677206195176" lon="14.128366747842772"><ele>155.0</ele><time>2026-04-18T15:11:55.999Z</time></trkpt><trkpt lat="42.458638215549136" lon="14.128223746358865"><ele>155.0</ele><time>2026-04-18T15:11:56.999Z</time></trkpt><trkpt lat="42.45858659092147" lon="14.12809667871936"><ele>155.0</ele><time>2026-04-18T15:11:57.999Z</time></trkpt><trkpt lat="42.4585377563532" lon="14.127974907869833"><ele>155.0</ele><time>2026-04-18T15:11:58.999Z</time></trkpt><trkpt lat="42.45849310373535" lon="14.127850714968156"><ele>156.6</ele><time>2026-04-18T15:11:59.999Z</time></trkpt><trkpt lat="42.45844607671088" lon="14.127732788141396"><ele>158.2</ele><time>2026-04-18T15:12:00.999Z</time></trkpt><trkpt lat="42.458399510197395" lon="14.127616508178946"><ele>159.8</ele><time>2026-04-18T15:12:01.999Z</time></trkpt><trkpt lat="42.45835125628743" lon="14.127495655824626"><ele>161.4</ele><time>2026-04-18T15:12:02.999Z</time></trkpt><trkpt lat="42.45829718043635" lon="14.127365691006268"><ele>163.0</ele><time>2026-04-18T15:12:03.999Z</time></trkpt><trkpt lat="42.458220591502766" lon="14.127250177756979"><ele>161.25</ele><time>2026-04-18T15:12:04.999Z</time></trkpt><trkpt lat="42.458121136954844" lon="14.127151430683485"><ele>159.5</ele><time>2026-04-18T15:12:05.999Z</time></trkpt><trkpt lat="42.458018654189395" lon="14.12706304620964"><ele>157.75</ele><time>2026-04-18T15:12:06.999Z</time></trkpt><trkpt lat="42.45792555608067" lon="14.126967890774598"><ele>156.0</ele><time>2026-04-18T15:12:07.999Z</time></trkpt><trkpt lat="42.457867738071315" lon="14.126834502108528"><ele>156.0</ele><time>2026-04-18T15:12:08.999Z</time></trkpt><trkpt lat="42.45779871872065" lon="14.12670422427006"><ele>156.0</ele><time>2026-04-18T15:12:09.999Z</time></trkpt><trkpt lat="42.457719971923844" lon="14.126574036412663"><ele>156.0</ele><time>2026-04-18T15:12:10.999Z</time></trkpt><trkpt lat="42.4576477517233" lon="14.12643560780692"><ele>156.0</ele><time>2026-04-18T15:12:11.999Z</time></trkpt><trkpt lat="42.4575765449097" lon="14.126292750236281"><ele>158.75</ele><time>2026-04-18T15:12:12.998Z</time></trkpt><trkpt lat="42.45750345417547" lon="14.12615053651136"><ele>161.5</ele><time>2026-04-18T15:12:13.998Z</time></trkpt><trkpt lat="42.4574318295088" lon="14.125998111007426"><ele>164.25</ele><time>2026-04-18T15:12:14.998Z</time></trkpt><trkpt lat="42.457370062731826" lon="14.125843913314373"><ele>167.0</ele><time>2026-04-18T15:12:15.998Z</time></trkpt><trkpt lat="42.45732498271183" lon="14.125697838352675"><ele>168.39999999999998</ele><time>2026-04-18T15:12:16.998Z</time></trkpt><trkpt lat="42.45729496559352" lon="14.125560903429257"><ele>169.79999999999998</ele><time>2026-04-18T15:12:17.998Z</time></trkpt><trkpt lat="42.45726704192639" lon="14.125428248250541"><ele>171.2</ele><time>2026-04-18T15:12:18.998Z</time></trkpt><trkpt lat="42.45723980234778" lon="14.12530751894227"><ele>172.6</ele><time>2026-04-18T15:12:19.998Z</time></trkpt><trkpt lat="42.457212051794535" lon="14.125195278110601"><ele>174.0</ele><time>2026-04-18T15:12:20.998Z</time></trkpt><trkpt lat="42.457194871668655" lon="14.125087138258792"><ele>174.0</ele><time>2026-04-18T15:12:21.999Z</time></trkpt><trkpt lat="42.45719956205465" lon="14.124952948606067"><ele>174.0</ele><time>2026-04-18T15:12:23.999Z</time></trkpt><trkpt lat="42.457106269823875" lon="14.124887724045355"><ele>174.0</ele><time>2026-04-18T15:12:27.999Z</time></trkpt><trkpt lat="42.457142440165555" lon="14.125156773279318"><ele>174.0</ele><time>2026-04-18T15:12:29.999Z</time></trkpt><trkpt lat="42.45716420363465" lon="14.125275678686318"><ele>174.0</ele><time>2026-04-18T15:12:30.999Z</time></trkpt><trkpt lat="42.45719584134751" lon="14.125386615186239"><ele>174.0</ele><time>2026-04-18T15:12:31.999Z</time></trkpt><trkpt lat="42.45723509986598" lon="14.125517332479902"><ele>174.0</ele><time>2026-04-18T15:12:32.999Z</time></trkpt><trkpt lat="42.45727139875475" lon="14.125654594292135"><ele>174.0</ele><time>2026-04-18T15:12:33.999Z</time></trkpt><trkpt lat="42.45732585634973" lon="14.12581499742678"><ele>174.0</ele><time>2026-04-18T15:12:34.999Z</time></trkpt><trkpt lat="42.45738505844611" lon="14.125980422871555"><ele>171.66666666666666</ele><time>2026-04-18T15:12:35.999Z</time></trkpt><trkpt lat="42.45746284510498" lon="14.126153275426926"><ele>169.33333333333331</ele><time>2026-04-18T15:12:36.999Z</time></trkpt><trkpt lat="42.45755195273054" lon="14.126322118231107"><ele>167.0</ele><time>2026-04-18T15:12:37.999Z</time></trkpt><trkpt lat="42.45763991965931" lon="14.126493865803004"><ele>163.33333333333331</ele><time>2026-04-18T15:12:38.999Z</time></trkpt><trkpt lat="42.45772780786429" lon="14.126655306991285"><ele>159.66666666666666</ele><time>2026-04-18T15:12:39.999Z</time></trkpt><trkpt lat="42.45780886941942" lon="14.126826571189364"><ele>156.0</ele><time>2026-04-18T15:12:40.999Z</time></trkpt><trkpt lat="42.45790702456773" lon="14.126984695552721"><ele>157.75</ele><time>2026-04-18T15:12:42Z</time></trkpt><trkpt lat="42.45801812767401" lon="14.127123601178583"><ele>159.5</ele><time>2026-04-18T15:12:43Z</time></trkpt><trkpt lat="42.458134945095566" lon="14.127230395520696"><ele>161.25</ele><time>2026-04-18T15:12:44Z</time></trkpt><trkpt lat="42.45824287927833" lon="14.127347671264964"><ele>163.0</ele><time>2026-04-18T15:12:45Z</time></trkpt><trkpt lat="42.45833120237464" lon="14.127489959103315"><ele>163.0</ele><time>2026-04-18T15:12:46Z</time></trkpt><trkpt lat="42.45840459320666" lon="14.127674928469643"><ele>163.0</ele><time>2026-04-18T15:12:47Z</time></trkpt><trkpt lat="42.45847287878321" lon="14.127877893121749"><ele>163.0</ele><time>2026-04-18T15:12:48Z</time></trkpt><trkpt lat="42.45853997925736" lon="14.128070626666947"><ele>160.33333333333334</ele><time>2026-04-18T15:12:49Z</time></trkpt><trkpt lat="42.45860881110812" lon="14.128249857800979"><ele>157.66666666666666</ele><time>2026-04-18T15:12:50Z</time></trkpt><trkpt lat="42.45866166816203" lon="14.12843944745239"><ele>155.0</ele><time>2026-04-18T15:12:51Z</time></trkpt><trkpt lat="42.458693857838185" lon="14.128645716831885"><ele>155.0</ele><time>2026-04-18T15:12:52Z</time></trkpt><trkpt lat="42.45870101920376" lon="14.128848058469817"><ele>155.0</ele><time>2026-04-18T15:12:53Z</time></trkpt><trkpt lat="42.458681699380435" lon="14.129032498273967"><ele>155.0</ele><time>2026-04-18T15:12:54Z</time></trkpt><trkpt lat="42.45864331263608" lon="14.129217282191165"><ele>155.0</ele><time>2026-04-18T15:12:55Z</time></trkpt><trkpt lat="42.45858076216775" lon="14.129413652754657"><ele>156.0</ele><time>2026-04-18T15:12:56Z</time></trkpt><trkpt lat="42.458501595155546" lon="14.129601249232326"><ele>157.0</ele><time>2026-04-18T15:12:57Z</time></trkpt><trkpt lat="42.4584165626082" lon="14.129779265216202"><ele>158.0</ele><time>2026-04-18T15:12:58Z</time></trkpt><trkpt lat="42.45830962785723" lon="14.129930417198771"><ele>158.0</ele><time>2026-04-18T15:12:59Z</time></trkpt><trkpt lat="42.45818876918542" lon="14.1300831373071"><ele>158.0</ele><time>2026-04-18T15:13:00Z</time></trkpt><trkpt lat="42.45806165856924" lon="14.13024671706266"><ele>158.0</ele><time>2026-04-18T15:13:01Z</time></trkpt><trkpt lat="42.457912494077" lon="14.130383354718452"><ele>158.66666666666666</ele><time>2026-04-18T15:13:02Z</time></trkpt><trkpt lat="42.45777419302482" lon="14.130526395963505"><ele>159.33333333333334</ele><time>2026-04-18T15:13:03Z</time></trkpt><trkpt lat="42.45765179282161" lon="14.130687719331885"><ele>160.0</ele><time>2026-04-18T15:13:04Z</time></trkpt><trkpt lat="42.457544979024654" lon="14.13087204770623"><ele>160.0</ele><time>2026-04-18T15:13:05Z</time></trkpt><trkpt lat="42.457446390453306" lon="14.131081901826263"><ele>160.0</ele><time>2026-04-18T15:13:06Z</time></trkpt><trkpt lat="42.457360239696094" lon="14.131295249217779"><ele>160.0</ele><time>2026-04-18T15:13:07Z</time></trkpt><trkpt lat="42.4572723972276" lon="14.131521060351368"><ele>158.0</ele><time>2026-04-18T15:13:08Z</time></trkpt><trkpt lat="42.457188194224244" lon="14.13173303650472"><ele>156.0</ele><time>2026-04-18T15:13:09Z</time></trkpt><trkpt lat="42.45709507653773" lon="14.131951478801525"><ele>154.0</ele><time>2026-04-18T15:13:10Z</time></trkpt><trkpt lat="42.45700470391838" lon="14.13216163838974"><ele>158.0</ele><time>2026-04-18T15:13:10.999Z</time></trkpt><trkpt lat="42.456924780465116" lon="14.13235969036358"><ele>162.0</ele><time>2026-04-18T15:13:11.999Z</time></trkpt><trkpt lat="42.45686125685711" lon="14.132564631406675"><ele>166.0</ele><time>2026-04-18T15:13:12.999Z</time></trkpt><trkpt lat="42.45681365922153" lon="14.132784815866618"><ele>166.0</ele><time>2026-04-18T15:13:13.999Z</time></trkpt><trkpt lat="42.45677904608532" lon="14.13301228763276"><ele>166.0</ele><time>2026-04-18T15:13:14.999Z</time></trkpt><trkpt lat="42.45675286839066" lon="14.133247069484604"><ele>166.0</ele><time>2026-04-18T15:13:15.999Z</time></trkpt><trkpt lat="42.45672868470213" lon="14.133464508552663"><ele>166.66666666666669</ele><time>2026-04-18T15:13:16.999Z</time></trkpt><trkpt lat="42.45669583811853" lon="14.133679295950447"><ele>167.33333333333334</ele><time>2026-04-18T15:13:17.999Z</time></trkpt><trkpt lat="42.456651594817906" lon="14.133890377199393"><ele>168.0</ele><time>2026-04-18T15:13:18.999Z</time></trkpt><trkpt lat="42.45660219675844" lon="14.134087323651215"><ele>168.0</ele><time>2026-04-18T15:13:19.999Z</time></trkpt><trkpt lat="42.45654763899486" lon="14.134276962924485"><ele>168.0</ele><time>2026-04-18T15:13:20.999Z</time></trkpt><trkpt lat="42.45648447794526" lon="14.134464252823982"><ele>168.0</ele><time>2026-04-18T15:13:21.999Z</time></trkpt><trkpt lat="42.45642541287139" lon="14.134637038287295"><ele>168.0</ele><time>2026-04-18T15:13:22.999Z</time></trkpt><trkpt lat="42.45637284656947" lon="14.134798884419085"><ele>167.60000000000002</ele><time>2026-04-18T15:13:23.999Z</time></trkpt><trkpt lat="42.45632915047954" lon="14.134943577315752"><ele>167.20000000000002</ele><time>2026-04-18T15:13:24.999Z</time></trkpt><trkpt lat="42.45628884252936" lon="14.135079269044832"><ele>166.8</ele><time>2026-04-18T15:13:25.999Z</time></trkpt><trkpt lat="42.45625225987273" lon="14.13520570632174"><ele>166.4</ele><time>2026-04-18T15:13:26.999Z</time></trkpt><trkpt lat="42.45621591893921" lon="14.135335699609126"><ele>166.0</ele><time>2026-04-18T15:13:27.999Z</time></trkpt><trkpt lat="42.45617629101812" lon="14.135459195970475"><ele>168.8</ele><time>2026-04-18T15:13:28.999Z</time></trkpt><trkpt lat="42.45612852159357" lon="14.135586977990496"><ele>171.60000000000002</ele><time>2026-04-18T15:13:29.999Z</time></trkpt><trkpt lat="42.45606823927264" lon="14.135686876837417"><ele>174.4</ele><time>2026-04-18T15:13:30.999Z</time></trkpt><trkpt lat="42.4560211576516" lon="14.135771081512186"><ele>177.2</ele><time>2026-04-18T15:13:31.999Z</time></trkpt><trkpt lat="42.45598523859505" lon="14.135856466776369"><ele>180.0</ele><time>2026-04-18T15:13:32.999Z</time></trkpt><trkpt lat="42.455893742289284" lon="14.135942707758119"><ele>180.0</ele><time>2026-04-18T15:13:34.999Z</time></trkpt><trkpt lat="42.45601090961381" lon="14.136105921966127"><ele>180.0</ele><time>2026-04-18T15:13:37.999Z</time></trkpt><trkpt lat="42.456092179789174" lon="14.136127524072693"><ele>180.0</ele><time>2026-04-18T15:13:38.999Z</time></trkpt><trkpt lat="42.456193050320145" lon="14.13616574477729"><ele>180.0</ele><time>2026-04-18T15:13:39.999Z</time></trkpt><trkpt lat="42.45629644370893" lon="14.136210084593262"><ele>176.75</ele><time>2026-04-18T15:13:40.999Z</time></trkpt><trkpt lat="42.456408723291034" lon="14.13625989107289"><ele>173.5</ele><time>2026-04-18T15:13:41.999Z</time></trkpt><trkpt lat="42.456524712083485" lon="14.136295954621012"><ele>170.25</ele><time>2026-04-18T15:13:42.999Z</time></trkpt><trkpt lat="42.45663240924393" lon="14.136298750911655"><ele>167.0</ele><time>2026-04-18T15:13:43.999Z</time></trkpt><trkpt lat="42.456740096410215" lon="14.136290634109606"><ele>167.0</ele><time>2026-04-18T15:13:44.999Z</time></trkpt><trkpt lat="42.4568357942762" lon="14.136259579436219"><ele>167.0</ele><time>2026-04-18T15:13:45.999Z</time></trkpt><trkpt lat="42.45692595458848" lon="14.136222443764145"><ele>167.0</ele><time>2026-04-18T15:13:46.999Z</time></trkpt><trkpt lat="42.457021632257806" lon="14.136203936628604"><ele>167.0</ele><time>2026-04-18T15:13:47.999Z</time></trkpt><trkpt lat="42.45711222609257" lon="14.136205852427624"><ele>167.0</ele><time>2026-04-18T15:13:48.999Z</time></trkpt><trkpt lat="42.457198275214616" lon="14.136213241361311"><ele>165.5</ele><time>2026-04-18T15:13:49.999Z</time></trkpt><trkpt lat="42.457272396527244" lon="14.13621708869331"><ele>164.0</ele><time>2026-04-18T15:13:50.999Z</time></trkpt><trkpt lat="42.45734220042106" lon="14.136212657847906"><ele>162.5</ele><time>2026-04-18T15:13:51.999Z</time></trkpt><trkpt lat="42.45741027914162" lon="14.136208368203949"><ele>161.0</ele><time>2026-04-18T15:13:52.999Z</time></trkpt><trkpt lat="42.45747457801605" lon="14.13618769649985"><ele>159.5</ele><time>2026-04-18T15:13:53.999Z</time></trkpt><trkpt lat="42.45758384790895" lon="14.136152900660719"><ele>158.0</ele><time>2026-04-18T15:13:55.999Z</time></trkpt><trkpt lat="42.457677889761044" lon="14.13613419344298"><ele>158.0</ele><time>2026-04-18T15:13:57.999Z</time></trkpt><trkpt lat="42.457744708337394" lon="14.136136368397793"><ele>158.0</ele><time>2026-04-18T15:14:00.999Z</time></trkpt><trkpt lat="42.45763519104274" lon="14.13605288565822"><ele>158.0</ele><time>2026-04-18T15:17:27.999Z</time></trkpt><trkpt lat="42.45754533087658" lon="14.136077536172532"><ele>158.0</ele><time>2026-04-18T15:17:28.999Z</time></trkpt><trkpt lat="42.45745857101687" lon="14.136111722656185"><ele>158.0</ele><time>2026-04-18T15:17:29.999Z</time></trkpt><trkpt lat="42.457371188893546" lon="14.136139533543812"><ele>158.0</ele><time>2026-04-18T15:17:30.999Z</time></trkpt><trkpt lat="42.45727033161998" lon="14.136151279340613"><ele>158.0</ele><time>2026-04-18T15:17:31.999Z</time></trkpt><trkpt lat="42.457168178430486" lon="14.13616614422055"><ele>158.0</ele><time>2026-04-18T15:17:32.999Z</time></trkpt><trkpt lat="42.45707583169323" lon="14.136176856566742"><ele>158.0</ele><time>2026-04-18T15:17:33.999Z</time></trkpt><trkpt lat="42.45698145875381" lon="14.13618610150142"><ele>158.0</ele><time>2026-04-18T15:17:34.999Z</time></trkpt><trkpt lat="42.45688412157575" lon="14.13620858249983"><ele>159.8</ele><time>2026-04-18T15:17:35.999Z</time></trkpt><trkpt lat="42.4567876668056" lon="14.13624214964105"><ele>161.60000000000002</ele><time>2026-04-18T15:17:36.999Z</time></trkpt><trkpt lat="42.456672176665236" lon="14.136242026748446"><ele>163.39999999999998</ele><time>2026-04-18T15:17:37.999Z</time></trkpt><trkpt lat="42.45656128390559" lon="14.136239647693698"><ele>165.2</ele><time>2026-04-18T15:17:38.999Z</time></trkpt><trkpt lat="42.45645629314115" lon="14.136216116536108"><ele>167.0</ele><time>2026-04-18T15:17:39.999Z</time></trkpt><trkpt lat="42.4563364656199" lon="14.136180477929107"><ele>169.16666666666666</ele><time>2026-04-18T15:17:40.999Z</time></trkpt><trkpt lat="42.456219979078455" lon="14.136140279499447"><ele>171.33333333333331</ele><time>2026-04-18T15:17:41.999Z</time></trkpt><trkpt lat="42.45613348597361" lon="14.136099756621388"><ele>173.5</ele><time>2026-04-18T15:17:42.999Z</time></trkpt><trkpt lat="42.45605658154259" lon="14.13605971921744"><ele>175.66666666666666</ele><time>2026-04-18T15:17:43.999Z</time></trkpt><trkpt lat="42.45599741218588" lon="14.13602201118221"><ele>177.83333333333334</ele><time>2026-04-18T15:17:44.999Z</time></trkpt><trkpt lat="42.455954599524915" lon="14.135951627187955"><ele>180.0</ele><time>2026-04-18T15:17:47.999Z</time></trkpt><trkpt lat="42.45606093052891" lon="14.135775861490515"><ele>183.5</ele><time>2026-04-18T15:17:48.999Z</time></trkpt><trkpt lat="42.45611472193189" lon="14.135635495719706"><ele>187.0</ele><time>2026-04-18T15:17:49.999Z</time></trkpt><trkpt lat="42.4561750229082" lon="14.13549838595454"><ele>190.5</ele><time>2026-04-18T15:17:50.999Z</time></trkpt><trkpt lat="42.45622742720816" lon="14.135341454386216"><ele>194.0</ele><time>2026-04-18T15:17:51.999Z</time></trkpt><trkpt lat="42.4563006897964" lon="14.135149314061238"><ele>185.33333333333334</ele><time>2026-04-18T15:17:52.999Z</time></trkpt><trkpt lat="42.45636111099899" lon="14.13495237806508"><ele>176.66666666666669</ele><time>2026-04-18T15:17:53.999Z</time></trkpt><trkpt lat="42.45642436729743" lon="14.1347463215682"><ele>168.0</ele><time>2026-04-18T15:17:54.999Z</time></trkpt><trkpt lat="42.45649134205624" lon="14.134532483283586"><ele>168.0</ele><time>2026-04-18T15:17:55.999Z</time></trkpt><trkpt lat="42.45654670129312" lon="14.134301181125092"><ele>168.0</ele><time>2026-04-18T15:17:56.999Z</time></trkpt><trkpt lat="42.45661132321683" lon="14.134093470819927"><ele>168.0</ele><time>2026-04-18T15:17:57.999Z</time></trkpt><trkpt lat="42.456672733890066" lon="14.133884244296164"><ele>168.0</ele><time>2026-04-18T15:17:58.999Z</time></trkpt><trkpt lat="42.4567236601537" lon="14.133653778379045"><ele>168.0</ele><time>2026-04-18T15:17:59.999Z</time></trkpt><trkpt lat="42.45676199189601" lon="14.133429566355677"><ele>168.0</ele><time>2026-04-18T15:18:00.999Z</time></trkpt><trkpt lat="42.456788785205134" lon="14.133213599010661"><ele>167.33333333333334</ele><time>2026-04-18T15:18:01.999Z</time></trkpt><trkpt lat="42.45682860880434" lon="14.133004619015875"><ele>166.66666666666669</ele><time>2026-04-18T15:18:02.999Z</time></trkpt><trkpt lat="42.45683696241514" lon="14.13279217654671"><ele>166.0</ele><time>2026-04-18T15:18:03.999Z</time></trkpt><trkpt lat="42.4568781112392" lon="14.132580003400703"><ele>166.0</ele><time>2026-04-18T15:18:04.999Z</time></trkpt><trkpt lat="42.456935028775966" lon="14.132374912653317"><ele>166.0</ele><time>2026-04-18T15:18:05.999Z</time></trkpt><trkpt lat="42.45701351975684" lon="14.132173128437945"><ele>166.0</ele><time>2026-04-18T15:18:06.999Z</time></trkpt><trkpt lat="42.45711174466836" lon="14.131977231784841"><ele>164.0</ele><time>2026-04-18T15:18:07.999Z</time></trkpt><trkpt lat="42.45719412802405" lon="14.131777342828782"><ele>162.0</ele><time>2026-04-18T15:18:08.999Z</time></trkpt><trkpt lat="42.45726797820316" lon="14.131567673599815"><ele>160.0</ele><time>2026-04-18T15:18:09.999Z</time></trkpt><trkpt lat="42.457365750818525" lon="14.131376816675425"><ele>160.0</ele><time>2026-04-18T15:18:10.999Z</time></trkpt><trkpt lat="42.45745061622671" lon="14.1311818851229"><ele>160.0</ele><time>2026-04-18T15:18:11.999Z</time></trkpt><trkpt lat="42.45753496547371" lon="14.13099191019131"><ele>160.0</ele><time>2026-04-18T15:18:12.999Z</time></trkpt><trkpt lat="42.457611766140516" lon="14.130791288478783"><ele>160.33333333333334</ele><time>2026-04-18T15:18:13.999Z</time></trkpt><trkpt lat="42.457736823334315" lon="14.13063231701511"><ele>160.66666666666666</ele><time>2026-04-18T15:18:14.999Z</time></trkpt><trkpt lat="42.45787348602603" lon="14.130477761699842"><ele>161.0</ele><time>2026-04-18T15:18:15.999Z</time></trkpt><trkpt lat="42.45801811430925" lon="14.130332471535281"><ele>160.0</ele><time>2026-04-18T15:18:16.999Z</time></trkpt><trkpt lat="42.45814038753986" lon="14.13018428307012"><ele>159.0</ele><time>2026-04-18T15:18:17.999Z</time></trkpt><trkpt lat="42.45826215072954" lon="14.130044166027648"><ele>158.0</ele><time>2026-04-18T15:18:18.999Z</time></trkpt><trkpt lat="42.45837341196115" lon="14.129893327705425"><ele>158.66666666666666</ele><time>2026-04-18T15:18:19.999Z</time></trkpt><trkpt lat="42.45846874998571" lon="14.129729572118812"><ele>159.33333333333334</ele><time>2026-04-18T15:18:20.999Z</time></trkpt><trkpt lat="42.458548203130846" lon="14.12955424111343"><ele>160.0</ele><time>2026-04-18T15:18:21.999Z</time></trkpt><trkpt lat="42.4586187811535" lon="14.129358578875374"><ele>160.0</ele><time>2026-04-18T15:18:22.999Z</time></trkpt><trkpt lat="42.45867669399597" lon="14.129158033166874"><ele>160.0</ele><time>2026-04-18T15:18:23.999Z</time></trkpt><trkpt lat="42.45871393909117" lon="14.12895125711905"><ele>160.0</ele><time>2026-04-18T15:18:24.999Z</time></trkpt><trkpt lat="42.45872296213523" lon="14.128752642854131"><ele>161.0</ele><time>2026-04-18T15:18:25.999Z</time></trkpt><trkpt lat="42.45870689451092" lon="14.128539622636518"><ele>162.0</ele><time>2026-04-18T15:18:26.999Z</time></trkpt><trkpt lat="42.45866654185284" lon="14.12831758449111"><ele>163.0</ele><time>2026-04-18T15:18:27.999Z</time></trkpt><trkpt lat="42.45860147105138" lon="14.128103018012446"><ele>163.0</ele><time>2026-04-18T15:18:28.999Z</time></trkpt><trkpt lat="42.458519863142534" lon="14.12791745422921"><ele>163.0</ele><time>2026-04-18T15:18:29.999Z</time></trkpt><trkpt lat="42.45844239415548" lon="14.127742664307622"><ele>163.0</ele><time>2026-04-18T15:18:30.999Z</time></trkpt><trkpt lat="42.458390591649064" lon="14.127563963285377"><ele>163.0</ele><time>2026-04-18T15:18:31.999Z</time></trkpt><trkpt lat="42.45831052019235" lon="14.127416578913857"><ele>163.0</ele><time>2026-04-18T15:18:32.999Z</time></trkpt><trkpt lat="42.458237769601965" lon="14.127271601221693"><ele>163.0</ele><time>2026-04-18T15:18:33.999Z</time></trkpt><trkpt lat="42.45814247095014" lon="14.127160592065856"><ele>163.0</ele><time>2026-04-18T15:18:34.999Z</time></trkpt><trkpt lat="42.45804354009947" lon="14.127071942303957"><ele>163.8</ele><time>2026-04-18T15:18:35.999Z</time></trkpt><trkpt lat="42.457953218272884" lon="14.126987808520282"><ele>164.60000000000002</ele><time>2026-04-18T15:18:36.999Z</time></trkpt><trkpt lat="42.4578866316781" lon="14.126868772195335"><ele>165.39999999999998</ele><time>2026-04-18T15:18:37.999Z</time></trkpt><trkpt lat="42.45781860374117" lon="14.126744952121733"><ele>166.2</ele><time>2026-04-18T15:18:38.999Z</time></trkpt><trkpt lat="42.45774590984414" lon="14.12662598533205"><ele>167.0</ele><time>2026-04-18T15:18:39.999Z</time></trkpt><trkpt lat="42.4576862517237" lon="14.126503738130289"><ele>167.0</ele><time>2026-04-18T15:18:40.999Z</time></trkpt><trkpt lat="42.45762574584396" lon="14.126383092835486"><ele>167.0</ele><time>2026-04-18T15:18:41.999Z</time></trkpt><trkpt lat="42.45755857810323" lon="14.126249173670022"><ele>167.0</ele><time>2026-04-18T15:18:42.999Z</time></trkpt><trkpt lat="42.45748948390512" lon="14.126114917367019"><ele>167.0</ele><time>2026-04-18T15:18:43.999Z</time></trkpt><trkpt lat="42.45742374892003" lon="14.125973143842922"><ele>167.0</ele><time>2026-04-18T15:18:44.999Z</time></trkpt><trkpt lat="42.4573701683605" lon="14.12584193899977"><ele>167.0</ele><time>2026-04-18T15:18:45.999Z</time></trkpt><trkpt lat="42.45732527018122" lon="14.125704100374595"><ele>167.0</ele><time>2026-04-18T15:18:46.999Z</time></trkpt><trkpt lat="42.457286545538366" lon="14.12555765047097"><ele>167.0</ele><time>2026-04-18T15:18:47.999Z</time></trkpt><trkpt lat="42.45725381984583" lon="14.125389386153172"><ele>168.0</ele><time>2026-04-18T15:18:48.999Z</time></trkpt><trkpt lat="42.457229095468804" lon="14.125209241091596"><ele>169.0</ele><time>2026-04-18T15:18:49.999Z</time></trkpt><trkpt lat="42.4572179088149" lon="14.125021331036107"><ele>170.0</ele><time>2026-04-18T15:18:50.999Z</time></trkpt><trkpt lat="42.45722016515861" lon="14.124825422621809"><ele>171.0</ele><time>2026-04-18T15:18:51.999Z</time></trkpt><trkpt lat="42.457240792512216" lon="14.124612761117136"><ele>171.0</ele><time>2026-04-18T15:18:52.999Z</time></trkpt><trkpt lat="42.45727184337089" lon="14.124403382929946"><ele>171.0</ele><time>2026-04-18T15:18:53.999Z</time></trkpt><trkpt lat="42.45730838855091" lon="14.124210258193687"><ele>171.0</ele><time>2026-04-18T15:18:54.999Z</time></trkpt><trkpt lat="42.45735970416393" lon="14.124018144161754"><ele>168.66666666666666</ele><time>2026-04-18T15:18:55.999Z</time></trkpt><trkpt lat="42.45741553746569" lon="14.123812404311186"><ele>166.33333333333331</ele><time>2026-04-18T15:18:56.999Z</time></trkpt><trkpt lat="42.45748096959986" lon="14.123597073033885"><ele>164.0</ele><time>2026-04-18T15:18:57.999Z</time></trkpt><trkpt lat="42.457540915838706" lon="14.123391680244202"><ele>163.33333333333331</ele><time>2026-04-18T15:18:58.999Z</time></trkpt><trkpt lat="42.45759801296449" lon="14.123197132430947"><ele>162.66666666666666</ele><time>2026-04-18T15:18:59.999Z</time></trkpt><trkpt lat="42.45765410445544" lon="14.123007520121648"><ele>162.0</ele><time>2026-04-18T15:19:00.999Z</time></trkpt><trkpt lat="42.45770987519854" lon="14.122820366585788"><ele>162.0</ele><time>2026-04-18T15:19:01.999Z</time></trkpt><trkpt lat="42.45776626755005" lon="14.122642565111601"><ele>162.0</ele><time>2026-04-18T15:19:02.999Z</time></trkpt><trkpt lat="42.45782501677019" lon="14.122471386716224"><ele>162.0</ele><time>2026-04-18T15:19:03.999Z</time></trkpt><trkpt lat="42.457890409841205" lon="14.12229853173256"><ele>162.0</ele><time>2026-04-18T15:19:04.999Z</time></trkpt><trkpt lat="42.45796821477867" lon="14.122129092279046"><ele>161.5</ele><time>2026-04-18T15:19:05.999Z</time></trkpt><trkpt lat="42.458062192567816" lon="14.121967813278735"><ele>161.0</ele><time>2026-04-18T15:19:06.999Z</time></trkpt><trkpt lat="42.45818499482094" lon="14.121840420273092"><ele>160.5</ele><time>2026-04-18T15:19:07.999Z</time></trkpt><trkpt lat="42.458293083626096" lon="14.121717169962162"><ele>160.0</ele><time>2026-04-18T15:19:08.999Z</time></trkpt><trkpt lat="42.458395160421" lon="14.121575040724853"><ele>160.33333333333334</ele><time>2026-04-18T15:19:09.999Z</time></trkpt><trkpt lat="42.45851481111239" lon="14.121453149564935"><ele>160.66666666666666</ele><time>2026-04-18T15:19:10.999Z</time></trkpt><trkpt lat="42.45863785186216" lon="14.121327777210647"><ele>161.0</ele><time>2026-04-18T15:19:11.999Z</time></trkpt><trkpt lat="42.45875650143737" lon="14.12120479426567"><ele>160.66666666666666</ele><time>2026-04-18T15:19:12.999Z</time></trkpt><trkpt lat="42.458877698085686" lon="14.12107526959514"><ele>160.33333333333334</ele><time>2026-04-18T15:19:13.999Z</time></trkpt><trkpt lat="42.459005042305634" lon="14.12094434050877"><ele>160.0</ele><time>2026-04-18T15:19:14.999Z</time></trkpt><trkpt lat="42.45913506228954" lon="14.120809836735992"><ele>159.66666666666669</ele><time>2026-04-18T15:19:15.999Z</time></trkpt><trkpt lat="42.45926419972717" lon="14.120659680209446"><ele>159.33333333333334</ele><time>2026-04-18T15:19:16.999Z</time></trkpt><trkpt lat="42.45938680129081" lon="14.120531886434224"><ele>159.0</ele><time>2026-04-18T15:19:17.999Z</time></trkpt><trkpt lat="42.45950760094489" lon="14.120410289243102"><ele>159.25</ele><time>2026-04-18T15:19:18.999Z</time></trkpt><trkpt lat="42.459622684391626" lon="14.120304231051461"><ele>159.5</ele><time>2026-04-18T15:19:19.999Z</time></trkpt><trkpt lat="42.45971884096355" lon="14.120199495131098"><ele>159.75</ele><time>2026-04-18T15:19:20.999Z</time></trkpt><trkpt lat="42.45980474938895" lon="14.120121428372116"><ele>160.0</ele><time>2026-04-18T15:19:21.999Z</time></trkpt><trkpt lat="42.4598957635498" lon="14.12006265377983"><ele>160.0</ele><time>2026-04-18T15:19:22.999Z</time></trkpt><trkpt lat="42.459984813980626" lon="14.120051723652992"><ele>160.0</ele><time>2026-04-18T15:19:23.999Z</time></trkpt><trkpt lat="42.46006691211681" lon="14.120033012270055"><ele>160.0</ele><time>2026-04-18T15:19:24.999Z</time></trkpt><trkpt lat="42.46012927449427" lon="14.119968113513119"><ele>160.0</ele><time>2026-04-18T15:19:25.999Z</time></trkpt><trkpt lat="42.46016525147624" lon="14.11987854404154"><ele>160.0</ele><time>2026-04-18T15:19:26.999Z</time></trkpt><trkpt lat="42.46017558549964" lon="14.119776684848567"><ele>160.0</ele><time>2026-04-18T15:19:27.999Z</time></trkpt><trkpt lat="42.46017275549749" lon="14.11966327904085"><ele>160.0</ele><time>2026-04-18T15:19:28.999Z</time></trkpt><trkpt lat="42.46019271343796" lon="14.119513021212258"><ele>160.0</ele><time>2026-04-18T15:19:29.999Z</time></trkpt><trkpt lat="42.460262370198926" lon="14.119386180785265"><ele>160.0</ele><time>2026-04-18T15:19:30.999Z</time></trkpt><trkpt lat="42.46031476235897" lon="14.119222454593558"><ele>160.0</ele><time>2026-04-18T15:19:31.999Z</time></trkpt><trkpt lat="42.46037053924927" lon="14.119068328795183"><ele>160.25</ele><time>2026-04-18T15:19:32.999Z</time></trkpt><trkpt lat="42.46042171628281" lon="14.118906548124393"><ele>160.5</ele><time>2026-04-18T15:19:33.999Z</time></trkpt><trkpt lat="42.46046825010986" lon="14.11873287925945"><ele>160.75</ele><time>2026-04-18T15:19:34.999Z</time></trkpt><trkpt lat="42.46050303110206" lon="14.118546245288606"><ele>161.0</ele><time>2026-04-18T15:19:35.999Z</time></trkpt><trkpt lat="42.46051867574379" lon="14.118363840186266"><ele>160.75</ele><time>2026-04-18T15:19:36.999Z</time></trkpt><trkpt lat="42.4605053878959" lon="14.118189473956757"><ele>160.5</ele><time>2026-04-18T15:19:37.999Z</time></trkpt><trkpt lat="42.46046703626092" lon="14.1180154116668"><ele>160.25</ele><time>2026-04-18T15:19:38.999Z</time></trkpt><trkpt lat="42.4603908442253" lon="14.117870376355022"><ele>160.0</ele><time>2026-04-18T15:19:39.999Z</time></trkpt><trkpt lat="42.460289615219466" lon="14.1177555550215"><ele>160.0</ele><time>2026-04-18T15:19:40.999Z</time></trkpt><trkpt lat="42.46016186553957" lon="14.117656219828453"><ele>160.0</ele><time>2026-04-18T15:19:41.999Z</time></trkpt><trkpt lat="42.460017705880446" lon="14.117556394743577"><ele>160.0</ele><time>2026-04-18T15:19:42.999Z</time></trkpt><trkpt lat="42.45986431919358" lon="14.1174432280294"><ele>160.33333333333334</ele><time>2026-04-18T15:19:43.999Z</time></trkpt><trkpt lat="42.459711098018865" lon="14.117317647093069"><ele>160.66666666666666</ele><time>2026-04-18T15:19:44.999Z</time></trkpt><trkpt lat="42.459569632955244" lon="14.117191504358166"><ele>161.0</ele><time>2026-04-18T15:19:45.999Z</time></trkpt><trkpt lat="42.45945197263221" lon="14.11709049787152"><ele>161.5</ele><time>2026-04-18T15:19:46.999Z</time></trkpt><trkpt lat="42.45935004520447" lon="14.117009512925627"><ele>162.0</ele><time>2026-04-18T15:19:47.999Z</time></trkpt><trkpt lat="42.45924553285325" lon="14.116924564535866"><ele>162.5</ele><time>2026-04-18T15:19:48.999Z</time></trkpt><trkpt lat="42.45914529369447" lon="14.116839351846918"><ele>163.0</ele><time>2026-04-18T15:19:49.999Z</time></trkpt><trkpt lat="42.45904812043601" lon="14.116753256733"><ele>163.0</ele><time>2026-04-18T15:19:50.999Z</time></trkpt><trkpt lat="42.458945248011396" lon="14.116660238040836"><ele>163.0</ele><time>2026-04-18T15:19:51.999Z</time></trkpt><trkpt lat="42.45884870067897" lon="14.116572231705806"><ele>163.0</ele><time>2026-04-18T15:19:52.999Z</time></trkpt><trkpt lat="42.458762287828854" lon="14.11648389864955"><ele>163.0</ele><time>2026-04-18T15:19:53.999Z</time></trkpt><trkpt lat="42.458681406716835" lon="14.116389316873384"><ele>164.0</ele><time>2026-04-18T15:19:54.999Z</time></trkpt><trkpt lat="42.45859841372172" lon="14.11629286836798"><ele>165.0</ele><time>2026-04-18T15:19:55.999Z</time></trkpt><trkpt lat="42.4585114299783" lon="14.116196204891589"><ele>166.0</ele><time>2026-04-18T15:19:56.999Z</time></trkpt><trkpt lat="42.45841926301522" lon="14.116093780823935"><ele>167.0</ele><time>2026-04-18T15:19:57.999Z</time></trkpt><trkpt lat="42.458329800760076" lon="14.115990607961157"><ele>167.0</ele><time>2026-04-18T15:19:58.999Z</time></trkpt><trkpt lat="42.45823700817674" lon="14.115883019324974"><ele>167.0</ele><time>2026-04-18T15:19:59.999Z</time></trkpt><trkpt lat="42.45814775134287" lon="14.115781124935848"><ele>167.0</ele><time>2026-04-18T15:20:00.999Z</time></trkpt><trkpt lat="42.45805778876267" lon="14.115690176860516"><ele>167.0</ele><time>2026-04-18T15:20:01.999Z</time></trkpt><trkpt lat="42.45796943752196" lon="14.115602306136505"><ele>167.0</ele><time>2026-04-18T15:20:02.999Z</time></trkpt><trkpt lat="42.457890119818465" lon="14.115507899187982"><ele>167.0</ele><time>2026-04-18T15:20:03.999Z</time></trkpt><trkpt lat="42.45784259672029" lon="14.115384435712615"><ele>167.0</ele><time>2026-04-18T15:20:04.999Z</time></trkpt><trkpt lat="42.457812028261166" lon="14.11525135994783"><ele>167.0</ele><time>2026-04-18T15:20:05.999Z</time></trkpt><trkpt lat="42.457809554323326" lon="14.1151117989805"><ele>167.0</ele><time>2026-04-18T15:20:06.999Z</time></trkpt><trkpt lat="42.45783889798865" lon="14.114972443465692"><ele>167.25</ele><time>2026-04-18T15:20:07.999Z</time></trkpt><trkpt lat="42.45786033965262" lon="14.114828009695705"><ele>167.5</ele><time>2026-04-18T15:20:08.999Z</time></trkpt><trkpt lat="42.45789868443835" lon="14.114682483474713"><ele>167.75</ele><time>2026-04-18T15:20:09.999Z</time></trkpt><trkpt lat="42.457926475920274" lon="14.114531284913825"><ele>168.0</ele><time>2026-04-18T15:20:10.999Z</time></trkpt><trkpt lat="42.45793982490588" lon="14.114375096111704"><ele>168.0</ele><time>2026-04-18T15:20:11.999Z</time></trkpt><trkpt lat="42.457936081736236" lon="14.114232257736965"><ele>168.0</ele><time>2026-04-18T15:20:12.999Z</time></trkpt><trkpt lat="42.457927632161194" lon="14.114097031855762"><ele>168.0</ele><time>2026-04-18T15:20:13.999Z</time></trkpt><trkpt lat="42.45792035577594" lon="14.113971846530925"><ele>168.0</ele><time>2026-04-18T15:20:14.999Z</time></trkpt><trkpt lat="42.4579137629032" lon="14.113860506380991"><ele>168.0</ele><time>2026-04-18T15:20:15.999Z</time></trkpt><trkpt lat="42.457932548351174" lon="14.113773077148903"><ele>168.0</ele><time>2026-04-18T15:20:16.999Z</time></trkpt><trkpt lat="42.457943664945354" lon="14.113651153285211"><ele>170.4</ele><time>2026-04-18T15:20:18.999Z</time></trkpt><trkpt lat="42.457836614602655" lon="14.11358445249896"><ele>172.8</ele><time>2026-04-18T15:20:19.999Z</time></trkpt><trkpt lat="42.45777010870993" lon="14.113538852795847"><ele>175.2</ele><time>2026-04-18T15:20:20.999Z</time></trkpt><trkpt lat="42.457694324250205" lon="14.113490683390593"><ele>177.6</ele><time>2026-04-18T15:20:21.999Z</time></trkpt><trkpt lat="42.45762093709038" lon="14.11340296797289"><ele>180.0</ele><time>2026-04-18T15:20:22.999Z</time></trkpt><trkpt lat="42.45752853426299" lon="14.11331803623417"><ele>180.5</ele><time>2026-04-18T15:20:23.999Z</time></trkpt><trkpt lat="42.457418992524424" lon="14.113235629782434"><ele>181.0</ele><time>2026-04-18T15:20:24.999Z</time></trkpt><trkpt lat="42.45730787495438" lon="14.113147293682564"><ele>181.5</ele><time>2026-04-18T15:20:25.999Z</time></trkpt><trkpt lat="42.45718696839523" lon="14.113055598205875"><ele>182.0</ele><time>2026-04-18T15:20:26.999Z</time></trkpt><trkpt lat="42.45706826663324" lon="14.112970461185684"><ele>180.25</ele><time>2026-04-18T15:20:27.999Z</time></trkpt><trkpt lat="42.45695522343682" lon="14.112896250242464"><ele>178.5</ele><time>2026-04-18T15:20:28.999Z</time></trkpt><trkpt lat="42.45684848914634" lon="14.112832354936703"><ele>176.75</ele><time>2026-04-18T15:20:29.999Z</time></trkpt><trkpt lat="42.456744025685545" lon="14.112770508168381"><ele>175.0</ele><time>2026-04-18T15:20:30.999Z</time></trkpt><trkpt lat="42.45664143526902" lon="14.112717293489254"><ele>175.0</ele><time>2026-04-18T15:20:31.999Z</time></trkpt><trkpt lat="42.45653628485873" lon="14.112677174128581"><ele>175.0</ele><time>2026-04-18T15:20:32.999Z</time></trkpt><trkpt lat="42.456422121620584" lon="14.112647927625575"><ele>175.0</ele><time>2026-04-18T15:20:33.999Z</time></trkpt><trkpt lat="42.456303599432545" lon="14.112632457983647"><ele>175.0</ele><time>2026-04-18T15:20:34.999Z</time></trkpt><trkpt lat="42.45617945966915" lon="14.112616623817331"><ele>174.5</ele><time>2026-04-18T15:20:35.999Z</time></trkpt><trkpt lat="42.45605345697397" lon="14.112599880940632"><ele>174.0</ele><time>2026-04-18T15:20:36.999Z</time></trkpt><trkpt lat="42.45593181436412" lon="14.11258118884754"><ele>173.5</ele><time>2026-04-18T15:20:37.999Z</time></trkpt><trkpt lat="42.45581759656012" lon="14.112560735579452"><ele>173.0</ele><time>2026-04-18T15:20:38.999Z</time></trkpt><trkpt lat="42.455706045705114" lon="14.112525811478541"><ele>173.0</ele><time>2026-04-18T15:20:39.999Z</time></trkpt><trkpt lat="42.45558717719874" lon="14.11250903532324"><ele>173.0</ele><time>2026-04-18T15:20:40.999Z</time></trkpt><trkpt lat="42.45546563924305" lon="14.112516956870012"><ele>173.0</ele><time>2026-04-18T15:20:41.999Z</time></trkpt><trkpt lat="42.455344025786076" lon="14.112527028188016"><ele>173.0</ele><time>2026-04-18T15:20:42.999Z</time></trkpt><trkpt lat="42.455227101573726" lon="14.112560358040932"><ele>172.8</ele><time>2026-04-18T15:20:43.999Z</time></trkpt><trkpt lat="42.45511440949259" lon="14.112603215592353"><ele>172.60000000000002</ele><time>2026-04-18T15:20:44.999Z</time></trkpt><trkpt lat="42.45500614127316" lon="14.112647686598688"><ele>172.39999999999998</ele><time>2026-04-18T15:20:45.999Z</time></trkpt><trkpt lat="42.45490226606998" lon="14.112690455739095"><ele>172.2</ele><time>2026-04-18T15:20:46.999Z</time></trkpt><trkpt lat="42.45479751362156" lon="14.112720320753668"><ele>172.0</ele><time>2026-04-18T15:20:47.999Z</time></trkpt><trkpt lat="42.454683085986446" lon="14.112743565003163"><ele>170.75</ele><time>2026-04-18T15:20:48.999Z</time></trkpt><trkpt lat="42.45456317517565" lon="14.112755704011619"><ele>169.5</ele><time>2026-04-18T15:20:49.999Z</time></trkpt><trkpt lat="42.454441368813804" lon="14.112764002818944"><ele>168.25</ele><time>2026-04-18T15:20:50.999Z</time></trkpt><trkpt lat="42.454324743040345" lon="14.112777356617508"><ele>167.0</ele><time>2026-04-18T15:20:51.999Z</time></trkpt><trkpt lat="42.45420774640596" lon="14.112781550075422"><ele>167.0</ele><time>2026-04-18T15:20:52.999Z</time></trkpt><trkpt lat="42.454085664171224" lon="14.112774995543568"><ele>167.0</ele><time>2026-04-18T15:20:53.999Z</time></trkpt><trkpt lat="42.45396934545616" lon="14.112756843144528"><ele>167.0</ele><time>2026-04-18T15:20:54.999Z</time></trkpt><trkpt lat="42.453854271756825" lon="14.112716074621316"><ele>167.0</ele><time>2026-04-18T15:20:55.999Z</time></trkpt><trkpt lat="42.45374589745494" lon="14.112653494294515"><ele>167.25</ele><time>2026-04-18T15:20:56.999Z</time></trkpt><trkpt lat="42.45363727391335" lon="14.11256127340146"><ele>167.5</ele><time>2026-04-18T15:20:57.999Z</time></trkpt><trkpt lat="42.45354908758848" lon="14.112443503000542"><ele>167.75</ele><time>2026-04-18T15:20:58.999Z</time></trkpt><trkpt lat="42.45344381253547" lon="14.112362431690837"><ele>168.0</ele><time>2026-04-18T15:20:59.999Z</time></trkpt><trkpt lat="42.45334852819915" lon="14.112267226441775"><ele>165.25</ele><time>2026-04-18T15:21:00.999Z</time></trkpt><trkpt lat="42.453252651215536" lon="14.112174572691382"><ele>162.5</ele><time>2026-04-18T15:21:01.999Z</time></trkpt><trkpt lat="42.453160374410764" lon="14.11208027889608"><ele>159.75</ele><time>2026-04-18T15:21:02.999Z</time></trkpt><trkpt lat="42.45306604626239" lon="14.111998245521125"><ele>157.0</ele><time>2026-04-18T15:21:03.999Z</time></trkpt><trkpt lat="42.45296913355932" lon="14.11192841970703"><ele>158.6</ele><time>2026-04-18T15:21:04.999Z</time></trkpt><trkpt lat="42.452885914904854" lon="14.111854963862273"><ele>160.2</ele><time>2026-04-18T15:21:05.999Z</time></trkpt><trkpt lat="42.452792017161336" lon="14.11180406883453"><ele>161.8</ele><time>2026-04-18T15:21:06.999Z</time></trkpt><trkpt lat="42.45266719852618" lon="14.111752090687826"><ele>163.4</ele><time>2026-04-18T15:21:07.999Z</time></trkpt><trkpt lat="42.45255921454455" lon="14.111699329073796"><ele>165.0</ele><time>2026-04-18T15:21:08.999Z</time></trkpt><trkpt lat="42.45245295160613" lon="14.111655822233946"><ele>165.0</ele><time>2026-04-18T15:21:09.999Z</time></trkpt><trkpt lat="42.452346644160386" lon="14.111624991469355"><ele>165.0</ele><time>2026-04-18T15:21:10.999Z</time></trkpt><trkpt lat="42.45223739138899" lon="14.11161100508213"><ele>165.0</ele><time>2026-04-18T15:21:11.999Z</time></trkpt><trkpt lat="42.452127506657256" lon="14.11161145273762"><ele>165.0</ele><time>2026-04-18T15:21:12.999Z</time></trkpt><trkpt lat="42.45201690150621" lon="14.111615972767419"><ele>165.0</ele><time>2026-04-18T15:21:13.999Z</time></trkpt><trkpt lat="42.45190359585853" lon="14.11162301096489"><ele>164.0</ele><time>2026-04-18T15:21:15Z</time></trkpt><trkpt lat="42.451793996769126" lon="14.111632840895657"><ele>163.0</ele><time>2026-04-18T15:21:15.999Z</time></trkpt><trkpt lat="42.45168672766833" lon="14.111641110390359"><ele>162.0</ele><time>2026-04-18T15:21:16.999Z</time></trkpt><trkpt lat="42.451571855347424" lon="14.111650631122055"><ele>161.0</ele><time>2026-04-18T15:21:17.999Z</time></trkpt><trkpt lat="42.45145242258215" lon="14.11166638273821"><ele>161.0</ele><time>2026-04-18T15:21:18.999Z</time></trkpt><trkpt lat="42.45133718609945" lon="14.111696275721679"><ele>161.0</ele><time>2026-04-18T15:21:19.999Z</time></trkpt><trkpt lat="42.45122174309099" lon="14.111731100137588"><ele>161.0</ele><time>2026-04-18T15:21:20.999Z</time></trkpt><trkpt lat="42.45110075908937" lon="14.111755431655633"><ele>161.0</ele><time>2026-04-18T15:21:21.999Z</time></trkpt><trkpt lat="42.45098888633585" lon="14.111792384574402"><ele>160.75</ele><time>2026-04-18T15:21:22.999Z</time></trkpt><trkpt lat="42.45087891438825" lon="14.111839681214505"><ele>160.5</ele><time>2026-04-18T15:21:23.999Z</time></trkpt><trkpt lat="42.45077045535503" lon="14.111880009950543"><ele>160.25</ele><time>2026-04-18T15:21:24.999Z</time></trkpt><trkpt lat="42.45065854763186" lon="14.111893925318029"><ele>160.0</ele><time>2026-04-18T15:21:25.999Z</time></trkpt><trkpt lat="42.450551597202924" lon="14.111951854743923"><ele>159.0</ele><time>2026-04-18T15:21:26.999Z</time></trkpt><trkpt lat="42.45044010295744" lon="14.111984698139196"><ele>158.0</ele><time>2026-04-18T15:21:27.999Z</time></trkpt><trkpt lat="42.45033521251582" lon="14.112016635130866"><ele>157.0</ele><time>2026-04-18T15:21:28.999Z</time></trkpt><trkpt lat="42.4502370412441" lon="14.112051463485919"><ele>156.0</ele><time>2026-04-18T15:21:29.999Z</time></trkpt><trkpt lat="42.45013261845643" lon="14.112090335717312"><ele>155.0</ele><time>2026-04-18T15:21:30.999Z</time></trkpt><trkpt lat="42.45002089498595" lon="14.112129222199849"><ele>155.0</ele><time>2026-04-18T15:21:31.999Z</time></trkpt><trkpt lat="42.449903664278864" lon="14.112171736750494"><ele>155.0</ele><time>2026-04-18T15:21:32.999Z</time></trkpt><trkpt lat="42.44978840747118" lon="14.112219283362666"><ele>155.0</ele><time>2026-04-18T15:21:33.999Z</time></trkpt><trkpt lat="42.4496849673495" lon="14.112252468915322"><ele>155.0</ele><time>2026-04-18T15:21:34.999Z</time></trkpt><trkpt lat="42.44958346219009" lon="14.112286740420839"><ele>154.6</ele><time>2026-04-18T15:21:35.999Z</time></trkpt><trkpt lat="42.44948175138749" lon="14.112320965717606"><ele>154.2</ele><time>2026-04-18T15:21:36.999Z</time></trkpt><trkpt lat="42.44937840469451" lon="14.11232187424649"><ele>153.8</ele><time>2026-04-18T15:21:37.999Z</time></trkpt><trkpt lat="42.4492823107019" lon="14.112331000207714"><ele>153.4</ele><time>2026-04-18T15:21:38.999Z</time></trkpt><trkpt lat="42.44918437295364" lon="14.112319479754602"><ele>153.0</ele><time>2026-04-18T15:21:39.999Z</time></trkpt><trkpt lat="42.449094940984324" lon="14.112271461301072"><ele>153.0</ele><time>2026-04-18T15:21:40.999Z</time></trkpt><trkpt lat="42.44900694559125" lon="14.112207998289646"><ele>153.0</ele><time>2026-04-18T15:21:41.999Z</time></trkpt><trkpt lat="42.448920060797064" lon="14.112123149560832"><ele>153.0</ele><time>2026-04-18T15:21:42.999Z</time></trkpt><trkpt lat="42.44882862419577" lon="14.112025409213636"><ele>153.0</ele><time>2026-04-18T15:21:43.999Z</time></trkpt><trkpt lat="42.4487462451094" lon="14.111933010902609"><ele>153.0</ele><time>2026-04-18T15:21:44.999Z</time></trkpt><trkpt lat="42.4486668085681" lon="14.111838200065668"><ele>153.0</ele><time>2026-04-18T15:21:45.999Z</time></trkpt><trkpt lat="42.44858398198763" lon="14.111752853223535"><ele>153.0</ele><time>2026-04-18T15:21:46.999Z</time></trkpt><trkpt lat="42.4485194592137" lon="14.111657218962497"><ele>153.0</ele><time>2026-04-18T15:21:47.999Z</time></trkpt><trkpt lat="42.44846392659202" lon="14.11156427561395"><ele>153.0</ele><time>2026-04-18T15:21:48.999Z</time></trkpt><trkpt lat="42.44841733724154" lon="14.111484300781758"><ele>153.0</ele><time>2026-04-18T15:21:49.999Z</time></trkpt><trkpt lat="42.44838785183363" lon="14.111391610301665"><ele>153.0</ele><time>2026-04-18T15:21:50.999Z</time></trkpt><trkpt lat="42.44835253762435" lon="14.111292256495023"><ele>151.83333333333334</ele><time>2026-04-18T15:21:51.999Z</time></trkpt><trkpt lat="42.44832023925145" lon="14.11118086491251"><ele>150.66666666666666</ele><time>2026-04-18T15:21:52.999Z</time></trkpt><trkpt lat="42.448293164954684" lon="14.111085752487881"><ele>149.5</ele><time>2026-04-18T15:21:53.999Z</time></trkpt><trkpt lat="42.44826484919742" lon="14.110986794705243"><ele>148.33333333333331</ele><time>2026-04-18T15:21:54.999Z</time></trkpt><trkpt lat="42.44823082255284" lon="14.110882493370875"><ele>147.16666666666666</ele><time>2026-04-18T15:21:55.999Z</time></trkpt><trkpt lat="42.448189440552014" lon="14.110780640203554"><ele>146.0</ele><time>2026-04-18T15:21:56.999Z</time></trkpt><trkpt lat="42.44814423269438" lon="14.110683882912976"><ele>146.0</ele><time>2026-04-18T15:21:57.999Z</time></trkpt><trkpt lat="42.44809243013761" lon="14.110587207873849"><ele>146.0</ele><time>2026-04-18T15:21:58.999Z</time></trkpt><trkpt lat="42.44802038043321" lon="14.110500881514279"><ele>146.0</ele><time>2026-04-18T15:21:59.999Z</time></trkpt><trkpt lat="42.447955316895744" lon="14.110416461248995"><ele>146.0</ele><time>2026-04-18T15:22:00.999Z</time></trkpt><trkpt lat="42.447879905817935" lon="14.110344135465398"><ele>146.0</ele><time>2026-04-18T15:22:01.999Z</time></trkpt><trkpt lat="42.44779333945784" lon="14.110285572323194"><ele>146.0</ele><time>2026-04-18T15:22:02.999Z</time></trkpt><trkpt lat="42.44771704055222" lon="14.110207683284267"><ele>146.0</ele><time>2026-04-18T15:22:03.999Z</time></trkpt><trkpt lat="42.44763296413597" lon="14.110153009312551"><ele>146.0</ele><time>2026-04-18T15:22:04.999Z</time></trkpt><trkpt lat="42.44754941805075" lon="14.110102695879824"><ele>146.0</ele><time>2026-04-18T15:22:05.999Z</time></trkpt><trkpt lat="42.447455384275294" lon="14.110089467282743"><ele>146.0</ele><time>2026-04-18T15:22:06.999Z</time></trkpt><trkpt lat="42.44736944151851" lon="14.110049708176067"><ele>146.0</ele><time>2026-04-18T15:22:07.999Z</time></trkpt><trkpt lat="42.447282312099446" lon="14.110016235684494"><ele>146.0</ele><time>2026-04-18T15:22:08.999Z</time></trkpt><trkpt lat="42.44719480042266" lon="14.10998111990476"><ele>146.0</ele><time>2026-04-18T15:22:09.999Z</time></trkpt><trkpt lat="42.44711776705349" lon="14.109905910211177"><ele>146.0</ele><time>2026-04-18T15:22:10.999Z</time></trkpt><trkpt lat="42.447049613017484" lon="14.109882761877449"><ele>146.0</ele><time>2026-04-18T15:22:11.999Z</time></trkpt><trkpt lat="42.44693728727074" lon="14.109873621239347"><ele>144.6</ele><time>2026-04-18T15:22:13.999Z</time></trkpt><trkpt lat="42.446822512293245" lon="14.109853478536156"><ele>143.2</ele><time>2026-04-18T15:22:15.999Z</time></trkpt><trkpt lat="42.44675365286039" lon="14.109863455905982"><ele>141.8</ele><time>2026-04-18T15:22:16.999Z</time></trkpt><trkpt lat="42.446621268332564" lon="14.109891984232178"><ele>140.4</ele><time>2026-04-18T15:22:18.999Z</time></trkpt><trkpt lat="42.44656230831853" lon="14.10992489293863"><ele>139.0</ele><time>2026-04-18T15:22:19.999Z</time></trkpt><trkpt lat="42.44648377286328" lon="14.109949881531438"><ele>139.0</ele><time>2026-04-18T15:22:21.999Z</time></trkpt><trkpt lat="42.446634886717845" lon="14.109929199004851"><ele>139.0</ele><time>2026-04-18T15:22:31.999Z</time></trkpt><trkpt lat="42.446709208881174" lon="14.109919607621967"><ele>139.0</ele><time>2026-04-18T15:22:32.999Z</time></trkpt><trkpt lat="42.44678499573769" lon="14.109904252892688"><ele>139.0</ele><time>2026-04-18T15:22:33.999Z</time></trkpt><trkpt lat="42.44685470397554" lon="14.109891390833857"><ele>139.0</ele><time>2026-04-18T15:22:34.999Z</time></trkpt><trkpt lat="42.44692251899555" lon="14.109878935970801"><ele>139.0</ele><time>2026-04-18T15:22:35.999Z</time></trkpt><trkpt lat="42.44705089441511" lon="14.109923749600739"><ele>140.4</ele><time>2026-04-18T15:22:37.999Z</time></trkpt><trkpt lat="42.44713260469704" lon="14.10994429525476"><ele>141.8</ele><time>2026-04-18T15:22:38.999Z</time></trkpt><trkpt lat="42.447227042564506" lon="14.109987325970677"><ele>143.2</ele><time>2026-04-18T15:22:39.999Z</time></trkpt><trkpt lat="42.44731743403095" lon="14.110031509632432"><ele>144.6</ele><time>2026-04-18T15:22:40.999Z</time></trkpt><trkpt lat="42.44740389256331" lon="14.11006890711297"><ele>146.0</ele><time>2026-04-18T15:22:41.999Z</time></trkpt><trkpt lat="42.44748540698938" lon="14.110109156443338"><ele>146.0</ele><time>2026-04-18T15:22:42.999Z</time></trkpt><trkpt lat="42.44756968961529" lon="14.110153422569724"><ele>146.0</ele><time>2026-04-18T15:22:43.999Z</time></trkpt><trkpt lat="42.44765402581084" lon="14.110208032387362"><ele>146.0</ele><time>2026-04-18T15:22:44.999Z</time></trkpt><trkpt lat="42.44773719964587" lon="14.110267939369866"><ele>146.0</ele><time>2026-04-18T15:22:45.999Z</time></trkpt><trkpt lat="42.44781384076205" lon="14.11032122383181"><ele>146.0</ele><time>2026-04-18T15:22:46.999Z</time></trkpt><trkpt lat="42.44788396451858" lon="14.110370543614568"><ele>146.0</ele><time>2026-04-18T15:22:47.999Z</time></trkpt><trkpt lat="42.44794923117264" lon="14.110431421571793"><ele>146.0</ele><time>2026-04-18T15:22:48.999Z</time></trkpt><trkpt lat="42.44801398662956" lon="14.110504653635571"><ele>146.0</ele><time>2026-04-18T15:22:49.999Z</time></trkpt><trkpt lat="42.44806866545689" lon="14.11058995961283"><ele>146.0</ele><time>2026-04-18T15:22:50.999Z</time></trkpt><trkpt lat="42.44811927660358" lon="14.110684499564128"><ele>146.0</ele><time>2026-04-18T15:22:52Z</time></trkpt><trkpt lat="42.448167967212804" lon="14.110792946727452"><ele>146.0</ele><time>2026-04-18T15:22:53Z</time></trkpt><trkpt lat="42.44820759385769" lon="14.110901211691406"><ele>146.0</ele><time>2026-04-18T15:22:54Z</time></trkpt><trkpt lat="42.448244223452264" lon="14.11100313729713"><ele>146.0</ele><time>2026-04-18T15:22:55Z</time></trkpt><trkpt lat="42.448270661859475" lon="14.111107487787669"><ele>146.0</ele><time>2026-04-18T15:22:56Z</time></trkpt><trkpt lat="42.448299030731526" lon="14.111215301527977"><ele>146.0</ele><time>2026-04-18T15:22:57Z</time></trkpt><trkpt lat="42.448324663578894" lon="14.111311420490505"><ele>146.0</ele><time>2026-04-18T15:22:58Z</time></trkpt><trkpt lat="42.448315915688404" lon="14.111396647918003"><ele>146.0</ele><time>2026-04-18T15:22:59Z</time></trkpt><trkpt lat="42.44825330626224" lon="14.111599820109577"><ele>147.16666666666666</ele><time>2026-04-18T15:23:01Z</time></trkpt><trkpt lat="42.44823949280142" lon="14.111720092880683"><ele>148.33333333333331</ele><time>2026-04-18T15:23:02Z</time></trkpt><trkpt lat="42.448242300216585" lon="14.11183766112826"><ele>149.5</ele><time>2026-04-18T15:23:03Z</time></trkpt><trkpt lat="42.44824067994517" lon="14.111952523990574"><ele>150.66666666666666</ele><time>2026-04-18T15:23:04Z</time></trkpt><trkpt lat="42.44823169297922" lon="14.112073859574002"><ele>151.83333333333334</ele><time>2026-04-18T15:23:05Z</time></trkpt><trkpt lat="42.44822307301784" lon="14.112185755252895"><ele>153.0</ele><time>2026-04-18T15:23:06Z</time></trkpt><trkpt lat="42.448209832782446" lon="14.112302756812058"><ele>152.8</ele><time>2026-04-18T15:23:07Z</time></trkpt><trkpt lat="42.44819210844697" lon="14.112422052110128"><ele>152.60000000000002</ele><time>2026-04-18T15:23:08Z</time></trkpt><trkpt lat="42.448179138601304" lon="14.112553393483179"><ele>152.39999999999998</ele><time>2026-04-18T15:23:09Z</time></trkpt><trkpt lat="42.44816929440768" lon="14.112693068431536"><ele>152.2</ele><time>2026-04-18T15:23:10Z</time></trkpt><trkpt lat="42.44815187985058" lon="14.112827100640843"><ele>152.0</ele><time>2026-04-18T15:23:11Z</time></trkpt><trkpt lat="42.44814845510688" lon="14.112962700093291"><ele>152.0</ele><time>2026-04-18T15:23:12Z</time></trkpt><trkpt lat="42.448140576341494" lon="14.11307744192819"><ele>152.0</ele><time>2026-04-18T15:23:13Z</time></trkpt><trkpt lat="42.4481396714653" lon="14.113177833156243"><ele>152.0</ele><time>2026-04-18T15:23:14Z</time></trkpt><trkpt lat="42.44813395222456" lon="14.113283544616504"><ele>152.0</ele><time>2026-04-18T15:23:15Z</time></trkpt><trkpt lat="42.44812633465214" lon="14.113386901809163"><ele>152.0</ele><time>2026-04-18T15:23:16Z</time></trkpt><trkpt lat="42.44810312063176" lon="14.11348786683836"><ele>152.0</ele><time>2026-04-18T15:23:17Z</time></trkpt><trkpt lat="42.44806225085161" lon="14.113579488463945"><ele>150.6</ele><time>2026-04-18T15:23:18Z</time></trkpt><trkpt lat="42.44799150524601" lon="14.113657621804501"><ele>149.2</ele><time>2026-04-18T15:23:19Z</time></trkpt><trkpt lat="42.447904515206226" lon="14.113735656138395"><ele>147.8</ele><time>2026-04-18T15:23:20Z</time></trkpt><trkpt lat="42.44779959040086" lon="14.113782440869338"><ele>146.4</ele><time>2026-04-18T15:23:21Z</time></trkpt><trkpt lat="42.44770161958052" lon="14.113828938285389"><ele>145.0</ele><time>2026-04-18T15:23:22Z</time></trkpt><trkpt lat="42.447599323165605" lon="14.113876667267794"><ele>142.25</ele><time>2026-04-18T15:23:23Z</time></trkpt><trkpt lat="42.44748631854881" lon="14.113891709198768"><ele>139.5</ele><time>2026-04-18T15:23:24Z</time></trkpt><trkpt lat="42.44736483911774" lon="14.113902566772975"><ele>136.75</ele><time>2026-04-18T15:23:25Z</time></trkpt><trkpt lat="42.447249862210455" lon="14.11391459303747"><ele>134.0</ele><time>2026-04-18T15:23:26Z</time></trkpt><trkpt lat="42.44713192791743" lon="14.113923047247443"><ele>132.2</ele><time>2026-04-18T15:23:27Z</time></trkpt><trkpt lat="42.44701102874002" lon="14.11393174849318"><ele>130.4</ele><time>2026-04-18T15:23:28Z</time></trkpt><trkpt lat="42.44689552083055" lon="14.113945440067745"><ele>128.6</ele><time>2026-04-18T15:23:29Z</time></trkpt><trkpt lat="42.44679556214305" lon="14.113960689689193"><ele>126.8</ele><time>2026-04-18T15:23:30Z</time></trkpt><trkpt lat="42.44669884079626" lon="14.113991842201724"><ele>125.0</ele><time>2026-04-18T15:23:31Z</time></trkpt><trkpt lat="42.44660985311117" lon="14.114045240655633"><ele>126.4</ele><time>2026-04-18T15:23:32Z</time></trkpt><trkpt lat="42.44653291914705" lon="14.11412066542378"><ele>127.8</ele><time>2026-04-18T15:23:33Z</time></trkpt><trkpt lat="42.44646451707306" lon="14.11420970903049"><ele>129.2</ele><time>2026-04-18T15:23:34Z</time></trkpt><trkpt lat="42.44640977712053" lon="14.11430719819805"><ele>130.6</ele><time>2026-04-18T15:23:35Z</time></trkpt><trkpt lat="42.44637305668554" lon="14.11441445881484"><ele>132.0</ele><time>2026-04-18T15:23:36Z</time></trkpt><trkpt lat="42.44633044199378" lon="14.114520351567464"><ele>131.6</ele><time>2026-04-18T15:23:37Z</time></trkpt><trkpt lat="42.446285046322" lon="14.11463118070988"><ele>131.2</ele><time>2026-04-18T15:23:38Z</time></trkpt><trkpt lat="42.446233571941164" lon="14.114736745867491"><ele>130.8</ele><time>2026-04-18T15:23:39Z</time></trkpt><trkpt lat="42.44617977480366" lon="14.11484623666542"><ele>130.4</ele><time>2026-04-18T15:23:40Z</time></trkpt><trkpt lat="42.446128328580734" lon="14.114964641763402"><ele>130.0</ele><time>2026-04-18T15:23:41Z</time></trkpt><trkpt lat="42.446074858350755" lon="14.115089205868385"><ele>129.2</ele><time>2026-04-18T15:23:42Z</time></trkpt><trkpt lat="42.446018136675306" lon="14.115204618824116"><ele>128.4</ele><time>2026-04-18T15:23:43Z</time></trkpt><trkpt lat="42.44597167495333" lon="14.11530022872634"><ele>127.6</ele><time>2026-04-18T15:23:44Z</time></trkpt><trkpt lat="42.44592032101378" lon="14.115384597000855"><ele>126.8</ele><time>2026-04-18T15:23:45Z</time></trkpt><trkpt lat="42.44584390090396" lon="14.115463952332481"><ele>126.0</ele><time>2026-04-18T15:23:46Z</time></trkpt><trkpt lat="42.445763451434615" lon="14.115534713653439"><ele>126.0</ele><time>2026-04-18T15:23:47Z</time></trkpt><trkpt lat="42.44567491153172" lon="14.115597946882634"><ele>126.0</ele><time>2026-04-18T15:23:48Z</time></trkpt><trkpt lat="42.445583486315606" lon="14.11565985231539"><ele>126.0</ele><time>2026-04-18T15:23:49Z</time></trkpt><trkpt lat="42.445487780751634" lon="14.11572143002093"><ele>126.0</ele><time>2026-04-18T15:23:50Z</time></trkpt><trkpt lat="42.445403599503855" lon="14.11575877685712"><ele>126.0</ele><time>2026-04-18T15:23:51Z</time></trkpt><trkpt lat="42.44532939229637" lon="14.115784034671684"><ele>123.8</ele><time>2026-04-18T15:23:52Z</time></trkpt><trkpt lat="42.44520569558901" lon="14.115759313153823"><ele>121.6</ele><time>2026-04-18T15:23:54Z</time></trkpt><trkpt lat="42.44513003800451" lon="14.115634204268181"><ele>119.4</ele><time>2026-04-18T15:23:56Z</time></trkpt><trkpt lat="42.44507262110103" lon="14.11556834508842"><ele>117.2</ele><time>2026-04-18T15:23:57Z</time></trkpt><trkpt lat="42.445005437441885" lon="14.11546833594736"><ele>115.0</ele><time>2026-04-18T15:23:58Z</time></trkpt><trkpt lat="42.4449278615258" lon="14.115363161694072"><ele>115.0</ele><time>2026-04-18T15:23:59Z</time></trkpt><trkpt lat="42.44484310812746" lon="14.11524984970023"><ele>115.0</ele><time>2026-04-18T15:24:00Z</time></trkpt><trkpt lat="42.44475496094519" lon="14.115123127556025"><ele>115.0</ele><time>2026-04-18T15:24:01Z</time></trkpt><trkpt lat="42.44466659753179" lon="14.114999149222594"><ele>115.0</ele><time>2026-04-18T15:24:02Z</time></trkpt><trkpt lat="42.44457695363357" lon="14.114875605659869"><ele>111.75</ele><time>2026-04-18T15:24:02.999Z</time></trkpt><trkpt lat="42.44448664841612" lon="14.114752996786521"><ele>108.5</ele><time>2026-04-18T15:24:03.999Z</time></trkpt><trkpt lat="42.444396001756985" lon="14.114640922339811"><ele>105.25</ele><time>2026-04-18T15:24:04.999Z</time></trkpt><trkpt lat="42.4443126473161" lon="14.11452578470067"><ele>102.0</ele><time>2026-04-18T15:24:05.999Z</time></trkpt><trkpt lat="42.44422827128787" lon="14.114416889562293"><ele>102.0</ele><time>2026-04-18T15:24:06.999Z</time></trkpt><trkpt lat="42.44414577623918" lon="14.114300968023299"><ele>102.0</ele><time>2026-04-18T15:24:07.999Z</time></trkpt><trkpt lat="42.44405964873404" lon="14.114183937133703"><ele>102.0</ele><time>2026-04-18T15:24:08.999Z</time></trkpt><trkpt lat="42.44397071610282" lon="14.114062625615183"><ele>102.0</ele><time>2026-04-18T15:24:09.999Z</time></trkpt><trkpt lat="42.44388033384237" lon="14.113932654883707"><ele>98.0</ele><time>2026-04-18T15:24:10.999Z</time></trkpt><trkpt lat="42.443789355335504" lon="14.113795602077268"><ele>94.0</ele><time>2026-04-18T15:24:11.999Z</time></trkpt><trkpt lat="42.443692453103154" lon="14.113632329039005"><ele>90.0</ele><time>2026-04-18T15:24:12.999Z</time></trkpt><trkpt lat="42.443585474201925" lon="14.113430412080007"><ele>90.0</ele><time>2026-04-18T15:24:13.999Z</time></trkpt><trkpt lat="42.44348367493756" lon="14.113245342515699"><ele>90.0</ele><time>2026-04-18T15:24:14.999Z</time></trkpt><trkpt lat="42.44338634767291" lon="14.113046009318229"><ele>90.0</ele><time>2026-04-18T15:24:15.999Z</time></trkpt><trkpt lat="42.4433039135972" lon="14.11285834304509"><ele>89.25</ele><time>2026-04-18T15:24:16.999Z</time></trkpt><trkpt lat="42.44323574868409" lon="14.112688057280348"><ele>88.5</ele><time>2026-04-18T15:24:17.999Z</time></trkpt><trkpt lat="42.4431808308905" lon="14.112537909340979"><ele>87.75</ele><time>2026-04-18T15:24:18.999Z</time></trkpt><trkpt lat="42.44315660117484" lon="14.11239510332437"><ele>87.0</ele><time>2026-04-18T15:24:19.999Z</time></trkpt><trkpt lat="42.443138684187" lon="14.112248144943372"><ele>86.0</ele><time>2026-04-18T15:24:20.999Z</time></trkpt><trkpt lat="42.44313032701988" lon="14.112080549272205"><ele>85.0</ele><time>2026-04-18T15:24:21.999Z</time></trkpt><trkpt lat="42.44311087116283" lon="14.11192279276841"><ele>84.0</ele><time>2026-04-18T15:24:22.999Z</time></trkpt><trkpt lat="42.44309822312029" lon="14.111770567080915"><ele>83.0</ele><time>2026-04-18T15:24:23.999Z</time></trkpt><trkpt lat="42.44306696686618" lon="14.111632535746768"><ele>83.0</ele><time>2026-04-18T15:24:24.999Z</time></trkpt><trkpt lat="42.44302531925328" lon="14.111505251214947"><ele>83.0</ele><time>2026-04-18T15:24:25.999Z</time></trkpt><trkpt lat="42.44297497010638" lon="14.111388456458947"><ele>83.0</ele><time>2026-04-18T15:24:26.999Z</time></trkpt><trkpt lat="42.44291325748081" lon="14.11129874766479"><ele>83.0</ele><time>2026-04-18T15:24:27.999Z</time></trkpt><trkpt lat="42.44283365567517" lon="14.111224093064301"><ele>83.0</ele><time>2026-04-18T15:24:28.999Z</time></trkpt><trkpt lat="42.44273907471455" lon="14.111152584382069"><ele>83.0</ele><time>2026-04-18T15:24:29.999Z</time></trkpt><trkpt lat="42.44264721497342" lon="14.111069001166934"><ele>83.0</ele><time>2026-04-18T15:24:30.999Z</time></trkpt><trkpt lat="42.44258344078113" lon="14.110963710065551"><ele>83.0</ele><time>2026-04-18T15:24:31.999Z</time></trkpt><trkpt lat="42.4425379780828" lon="14.11088066041448"><ele>83.0</ele><time>2026-04-18T15:24:32.999Z</time></trkpt><trkpt lat="42.44250467678949" lon="14.110778952431547"><ele>83.0</ele><time>2026-04-18T15:24:33.999Z</time></trkpt><trkpt lat="42.44248132134669" lon="14.110664020583402"><ele>83.0</ele><time>2026-04-18T15:24:34.999Z</time></trkpt><trkpt lat="42.44245267795609" lon="14.110538973438228"><ele>83.0</ele><time>2026-04-18T15:24:35.999Z</time></trkpt><trkpt lat="42.44240875221874" lon="14.110435020082004"><ele>83.0</ele><time>2026-04-18T15:24:36.999Z</time></trkpt><trkpt lat="42.44237464276511" lon="14.110333338924248"><ele>83.0</ele><time>2026-04-18T15:24:37.999Z</time></trkpt><trkpt lat="42.44232050643539" lon="14.110243336735602"><ele>83.0</ele><time>2026-04-18T15:24:38.999Z</time></trkpt><trkpt lat="42.44228580497764" lon="14.110142731090257"><ele>83.0</ele><time>2026-04-18T15:24:39.999Z</time></trkpt><trkpt lat="42.44223897377111" lon="14.110063094576871"><ele>83.0</ele><time>2026-04-18T15:24:40.999Z</time></trkpt><trkpt lat="42.44219185127891" lon="14.109986374443425"><ele>83.0</ele><time>2026-04-18T15:24:41.999Z</time></trkpt><trkpt lat="42.44214481362567" lon="14.109912281330791"><ele>83.0</ele><time>2026-04-18T15:24:42.999Z</time></trkpt><trkpt lat="42.4420499258216" lon="14.109798443767133"><ele>83.0</ele><time>2026-04-18T15:24:44.999Z</time></trkpt><trkpt lat="42.44200414797802" lon="14.109729579838506"><ele>83.0</ele><time>2026-04-18T15:24:45.999Z</time></trkpt><trkpt lat="42.441949269038275" lon="14.109662492109308"><ele>83.0</ele><time>2026-04-18T15:24:46.999Z</time></trkpt><trkpt lat="42.441889792572496" lon="14.109598463040939"><ele>82.16666666666667</ele><time>2026-04-18T15:24:47.999Z</time></trkpt><trkpt lat="42.44182426596012" lon="14.109533845489796"><ele>81.33333333333334</ele><time>2026-04-18T15:24:48.999Z</time></trkpt><trkpt lat="42.441761377530696" lon="14.109460111830636"><ele>80.5</ele><time>2026-04-18T15:24:49.999Z</time></trkpt><trkpt lat="42.44169855374183" lon="14.109387528338774"><ele>79.66666666666667</ele><time>2026-04-18T15:24:50.999Z</time></trkpt><trkpt lat="42.44163248743267" lon="14.109308513153387"><ele>78.83333333333333</ele><time>2026-04-18T15:24:51.999Z</time></trkpt><trkpt lat="42.4415661349692" lon="14.109229192951657"><ele>78.0</ele><time>2026-04-18T15:24:52.999Z</time></trkpt><trkpt lat="42.44149533296447" lon="14.109149034602734"><ele>78.0</ele><time>2026-04-18T15:24:53.999Z</time></trkpt><trkpt lat="42.44142269883168" lon="14.109072596874412"><ele>78.0</ele><time>2026-04-18T15:24:54.999Z</time></trkpt><trkpt lat="42.44134614744379" lon="14.108987665141647"><ele>78.0</ele><time>2026-04-18T15:24:55.999Z</time></trkpt><trkpt lat="42.441272198612836" lon="14.10890404382321"><ele>78.0</ele><time>2026-04-18T15:24:56.999Z</time></trkpt><trkpt lat="42.441193995211776" lon="14.10882054819973"><ele>78.0</ele><time>2026-04-18T15:24:58Z</time></trkpt><trkpt lat="42.44110904483674" lon="14.108751941737342"><ele>75.25</ele><time>2026-04-18T15:24:59Z</time></trkpt><trkpt lat="42.44100749945411" lon="14.10869793723133"><ele>72.5</ele><time>2026-04-18T15:25:00Z</time></trkpt><trkpt lat="42.44088715096887" lon="14.108654186699061"><ele>69.75</ele><time>2026-04-18T15:25:01Z</time></trkpt><trkpt lat="42.440758693547274" lon="14.108601431315341"><ele>67.0</ele><time>2026-04-18T15:25:02Z</time></trkpt><trkpt lat="42.440622777331726" lon="14.108583224708772"><ele>67.0</ele><time>2026-04-18T15:25:03Z</time></trkpt><trkpt lat="42.44049235848618" lon="14.108601257245233"><ele>67.0</ele><time>2026-04-18T15:25:04Z</time></trkpt><trkpt lat="42.44034337030776" lon="14.108628924690668"><ele>67.0</ele><time>2026-04-18T15:25:05Z</time></trkpt><trkpt lat="42.44018616233786" lon="14.108682593930128"><ele>67.0</ele><time>2026-04-18T15:25:06Z</time></trkpt><trkpt lat="42.440032433267106" lon="14.108750427752062"><ele>67.75</ele><time>2026-04-18T15:25:07Z</time></trkpt><trkpt lat="42.43989050655215" lon="14.108822055206078"><ele>68.5</ele><time>2026-04-18T15:25:08Z</time></trkpt><trkpt lat="42.43975265352115" lon="14.108870806306205"><ele>69.25</ele><time>2026-04-18T15:25:09Z</time></trkpt><trkpt lat="42.439623856596036" lon="14.10894639755441"><ele>70.0</ele><time>2026-04-18T15:25:10Z</time></trkpt><trkpt lat="42.43948723313745" lon="14.108984593482562"><ele>72.2</ele><time>2026-04-18T15:25:11Z</time></trkpt><trkpt lat="42.43936710867471" lon="14.109010489293556"><ele>74.4</ele><time>2026-04-18T15:25:12Z</time></trkpt><trkpt lat="42.43926624102179" lon="14.108984333745026"><ele>76.6</ele><time>2026-04-18T15:25:13Z</time></trkpt><trkpt lat="42.43917301108896" lon="14.108961890620046"><ele>78.8</ele><time>2026-04-18T15:25:14Z</time></trkpt><trkpt lat="42.43906146285689" lon="14.108920522764206"><ele>81.0</ele><time>2026-04-18T15:25:15Z</time></trkpt><trkpt lat="42.43894050162702" lon="14.108861021419527"><ele>81.0</ele><time>2026-04-18T15:25:16Z</time></trkpt><trkpt lat="42.43882986932071" lon="14.108795851442776"><ele>81.0</ele><time>2026-04-18T15:25:17Z</time></trkpt><trkpt lat="42.43871759859487" lon="14.108729790681414"><ele>81.0</ele><time>2026-04-18T15:25:18Z</time></trkpt><trkpt lat="42.43858993063597" lon="14.108678009248472"><ele>81.0</ele><time>2026-04-18T15:25:19Z</time></trkpt><trkpt lat="42.438457750064345" lon="14.108659692493685"><ele>83.75</ele><time>2026-04-18T15:25:20Z</time></trkpt><trkpt lat="42.43832935739332" lon="14.108658577818012"><ele>86.5</ele><time>2026-04-18T15:25:21Z</time></trkpt><trkpt lat="42.43819778188763" lon="14.108676616871394"><ele>89.25</ele><time>2026-04-18T15:25:22Z</time></trkpt><trkpt lat="42.438063916987055" lon="14.108711157271832"><ele>92.0</ele><time>2026-04-18T15:25:23Z</time></trkpt><trkpt lat="42.43793253084196" lon="14.10876869293088"><ele>95.25</ele><time>2026-04-18T15:25:24Z</time></trkpt><trkpt lat="42.437813355383156" lon="14.108824577601037"><ele>98.5</ele><time>2026-04-18T15:25:25Z</time></trkpt><trkpt lat="42.43771198108446" lon="14.10888241429118"><ele>101.75</ele><time>2026-04-18T15:25:26Z</time></trkpt><trkpt lat="42.4376166170486" lon="14.108954592541485"><ele>105.0</ele><time>2026-04-18T15:25:27Z</time></trkpt><trkpt lat="42.43751819831029" lon="14.109040406475255"><ele>106.5</ele><time>2026-04-18T15:25:28Z</time></trkpt><trkpt lat="42.437413679282486" lon="14.109152242861285"><ele>108.0</ele><time>2026-04-18T15:25:29Z</time></trkpt><trkpt lat="42.43730211468339" lon="14.109267143365608"><ele>109.5</ele><time>2026-04-18T15:25:30Z</time></trkpt><trkpt lat="42.43720615241294" lon="14.109383211150734"><ele>111.0</ele><time>2026-04-18T15:25:31Z</time></trkpt><trkpt lat="42.437118024443016" lon="14.109495267322538"><ele>111.0</ele><time>2026-04-18T15:25:32Z</time></trkpt><trkpt lat="42.43704295302174" lon="14.109607818827014"><ele>111.0</ele><time>2026-04-18T15:25:33Z</time></trkpt><trkpt lat="42.43696893345975" lon="14.109706503552008"><ele>111.0</ele><time>2026-04-18T15:25:34Z</time></trkpt><trkpt lat="42.43690525644969" lon="14.109824047776065"><ele>111.0</ele><time>2026-04-18T15:25:35Z</time></trkpt><trkpt lat="42.43684432144475" lon="14.109930134652"><ele>111.0</ele><time>2026-04-18T15:25:36Z</time></trkpt><trkpt lat="42.4367799178321" lon="14.110006420603327"><ele>109.33333333333333</ele><time>2026-04-18T15:25:37Z</time></trkpt><trkpt lat="42.43671979342645" lon="14.110070910015395"><ele>107.66666666666666</ele><time>2026-04-18T15:25:38Z</time></trkpt><trkpt lat="42.43661169364282" lon="14.110113356976198"><ele>106.0</ele><time>2026-04-18T15:25:40Z</time></trkpt><trkpt lat="42.43652462716048" lon="14.110067200819808"><ele>104.33333333333333</ele><time>2026-04-18T15:25:42Z</time></trkpt><trkpt lat="42.436461126835106" lon="14.110028012432046"><ele>102.66666666666666</ele><time>2026-04-18T15:25:43Z</time></trkpt><trkpt lat="42.436374147359615" lon="14.109972165976675"><ele>101.0</ele><time>2026-04-18T15:25:44Z</time></trkpt><trkpt lat="42.4362935395915" lon="14.10990625155839"><ele>105.19999999999999</ele><time>2026-04-18T15:25:45Z</time></trkpt><trkpt lat="42.43621351856991" lon="14.109833967286566"><ele>109.39999999999999</ele><time>2026-04-18T15:25:46Z</time></trkpt><trkpt lat="42.436122768858695" lon="14.109779287768886"><ele>113.6</ele><time>2026-04-18T15:25:47Z</time></trkpt><trkpt lat="42.43605344283556" lon="14.109699350413864"><ele>117.8</ele><time>2026-04-18T15:25:48Z</time></trkpt><trkpt lat="42.43596746874608" lon="14.1096563016898"><ele>122.0</ele><time>2026-04-18T15:25:49Z</time></trkpt><trkpt lat="42.43587411574888" lon="14.109601267280967"><ele>122.0</ele><time>2026-04-18T15:25:50Z</time></trkpt><trkpt lat="42.43577416188828" lon="14.109564572747415"><ele>121.99999999999999</ele><time>2026-04-18T15:25:51Z</time></trkpt><trkpt lat="42.435687664112635" lon="14.109532408673834"><ele>121.99999999999999</ele><time>2026-04-18T15:25:52Z</time></trkpt><trkpt lat="42.435616397529266" lon="14.109475534600115"><ele>122.0</ele><time>2026-04-18T15:25:53Z</time></trkpt><trkpt lat="42.43553331222518" lon="14.109402031283762"><ele>122.0</ele><time>2026-04-18T15:25:54Z</time></trkpt><trkpt lat="42.43545126822874" lon="14.109324509130504"><ele>124.8</ele><time>2026-04-18T15:25:55Z</time></trkpt><trkpt lat="42.43536969595459" lon="14.109262091944363"><ele>127.6</ele><time>2026-04-18T15:25:56Z</time></trkpt><trkpt lat="42.43530180731345" lon="14.109185858728674"><ele>130.39999999999998</ele><time>2026-04-18T15:25:57Z</time></trkpt><trkpt lat="42.43522304167733" lon="14.109125053547977"><ele>133.2</ele><time>2026-04-18T15:25:58Z</time></trkpt><trkpt lat="42.43513613514053" lon="14.109043332659871"><ele>136.0</ele><time>2026-04-18T15:25:59Z</time></trkpt><trkpt lat="42.43504261835344" lon="14.108987909070699"><ele>136.0</ele><time>2026-04-18T15:26:00Z</time></trkpt><trkpt lat="42.43498406548074" lon="14.10895411374286"><ele>136.0</ele><time>2026-04-18T15:26:01Z</time></trkpt><trkpt lat="42.434898257355556" lon="14.108904587499206"><ele>136.0</ele><time>2026-04-18T15:26:03Z</time></trkpt><trkpt lat="42.4348182304618" lon="14.109043638178017"><ele>136.0</ele><time>2026-04-18T15:26:05Z</time></trkpt><trkpt lat="42.43474982290237" lon="14.109121112069323"><ele>136.0</ele><time>2026-04-18T15:26:06Z</time></trkpt><trkpt lat="42.434694695499935" lon="14.109208853928427"><ele>135.83333333333334</ele><time>2026-04-18T15:26:07Z</time></trkpt><trkpt lat="42.434637542787925" lon="14.109296636194866"><ele>135.66666666666669</ele><time>2026-04-18T15:26:08Z</time></trkpt><trkpt lat="42.43457145702579" lon="14.109393784866207"><ele>135.5</ele><time>2026-04-18T15:26:09Z</time></trkpt><trkpt lat="42.43450646975285" lon="14.109486532390155"><ele>135.33333333333334</ele><time>2026-04-18T15:26:10Z</time></trkpt><trkpt lat="42.43444897959262" lon="14.109563590128289"><ele>135.16666666666666</ele><time>2026-04-18T15:26:11Z</time></trkpt><trkpt lat="42.434401900798306" lon="14.109622911327019"><ele>135.0</ele><time>2026-04-18T15:26:12Z</time></trkpt><trkpt lat="42.43430068681289" lon="14.109757647503104"><ele>135.0</ele><time>2026-04-18T15:26:14Z</time></trkpt><trkpt lat="42.43423387165175" lon="14.10986306098078"><ele>135.0</ele><time>2026-04-18T15:26:15Z</time></trkpt><trkpt lat="42.434156331414876" lon="14.1099698006922"><ele>135.0</ele><time>2026-04-18T15:26:16Z</time></trkpt><trkpt lat="42.43406881709383" lon="14.110081078736192"><ele>135.0</ele><time>2026-04-18T15:26:17Z</time></trkpt><trkpt lat="42.43398085386947" lon="14.110188191701178"><ele>135.0</ele><time>2026-04-18T15:26:18Z</time></trkpt><trkpt lat="42.433900755722185" lon="14.11027664835049"><ele>135.0</ele><time>2026-04-18T15:26:19Z</time></trkpt><trkpt lat="42.43381774946324" lon="14.11036277514244"><ele>135.0</ele><time>2026-04-18T15:26:20Z</time></trkpt><trkpt lat="42.433739002197065" lon="14.110433099069757"><ele>135.0</ele><time>2026-04-18T15:26:21Z</time></trkpt><trkpt lat="42.433662601288475" lon="14.110489695860997"><ele>135.0</ele><time>2026-04-18T15:26:22Z</time></trkpt><trkpt lat="42.433572721043404" lon="14.110572040944222"><ele>134.2</ele><time>2026-04-18T15:26:23Z</time></trkpt><trkpt lat="42.43346252193905" lon="14.110572017681365"><ele>133.4</ele><time>2026-04-18T15:26:24Z</time></trkpt><trkpt lat="42.4333337455531" lon="14.110621406877462"><ele>132.6</ele><time>2026-04-18T15:26:25Z</time></trkpt><trkpt lat="42.43326112149949" lon="14.110683936227476"><ele>131.8</ele><time>2026-04-18T15:26:26Z</time></trkpt><trkpt lat="42.43319111651477" lon="14.110727549496724"><ele>131.0</ele><time>2026-04-18T15:26:27Z</time></trkpt><trkpt lat="42.43310956169787" lon="14.110770398009365"><ele>131.0</ele><time>2026-04-18T15:26:28Z</time></trkpt><trkpt lat="42.433038338805765" lon="14.110836103869797"><ele>131.0</ele><time>2026-04-18T15:26:29Z</time></trkpt><trkpt lat="42.43296784859404" lon="14.11088908327863"><ele>131.0</ele><time>2026-04-18T15:26:30Z</time></trkpt><trkpt lat="42.43290006390414" lon="14.110936805840085"><ele>131.0</ele><time>2026-04-18T15:26:31Z</time></trkpt><trkpt lat="42.43284007758944" lon="14.110978488586312"><ele>131.0</ele><time>2026-04-18T15:26:32Z</time></trkpt><trkpt lat="42.43278497988521" lon="14.111027278701243"><ele>131.0</ele><time>2026-04-18T15:26:33Z</time></trkpt><trkpt lat="42.432686846648735" lon="14.11093633046713"><ele>129.4</ele><time>2026-04-18T15:26:35Z</time></trkpt><trkpt lat="42.432665688697604" lon="14.110841238328668"><ele>127.8</ele><time>2026-04-18T15:26:36Z</time></trkpt><trkpt lat="42.43267142766106" lon="14.110702091513962"><ele>126.20000000000002</ele><time>2026-04-18T15:26:37Z</time></trkpt><trkpt lat="42.4326565043047" lon="14.110547235872104"><ele>124.60000000000001</ele><time>2026-04-18T15:26:38Z</time></trkpt><trkpt lat="42.43259653276951" lon="14.110411906072928"><ele>123.0</ele><time>2026-04-18T15:26:39Z</time></trkpt><trkpt lat="42.43253492482808" lon="14.110292003245013"><ele>123.0</ele><time>2026-04-18T15:26:40Z</time></trkpt><trkpt lat="42.432462936917716" lon="14.110186460775207"><ele>123.0</ele><time>2026-04-18T15:26:41Z</time></trkpt><trkpt lat="42.43236541004031" lon="14.110072185929832"><ele>123.0</ele><time>2026-04-18T15:26:42Z</time></trkpt><trkpt lat="42.432273106303214" lon="14.10991337723348"><ele>123.0</ele><time>2026-04-18T15:26:43Z</time></trkpt><trkpt lat="42.43219500191019" lon="14.109770296693746"><ele>120.5</ele><time>2026-04-18T15:26:44Z</time></trkpt><trkpt lat="42.43213301905466" lon="14.109616883630554"><ele>118.0</ele><time>2026-04-18T15:26:45Z</time></trkpt><trkpt lat="42.43209371843152" lon="14.109461545681446"><ele>115.5</ele><time>2026-04-18T15:26:46Z</time></trkpt><trkpt lat="42.432065234927215" lon="14.109305874591401"><ele>113.0</ele><time>2026-04-18T15:26:47Z</time></trkpt><trkpt lat="42.43203491262212" lon="14.10915862983888"><ele>112.4</ele><time>2026-04-18T15:26:48Z</time></trkpt><trkpt lat="42.43205893204427" lon="14.109013910095282"><ele>111.80000000000001</ele><time>2026-04-18T15:26:49Z</time></trkpt><trkpt lat="42.43207313471824" lon="14.10887241542622"><ele>111.2</ele><time>2026-04-18T15:26:50Z</time></trkpt><trkpt lat="42.43214787875757" lon="14.108756256868526"><ele>110.6</ele><time>2026-04-18T15:26:51Z</time></trkpt><trkpt lat="42.43222201596138" lon="14.108636412473453"><ele>110.0</ele><time>2026-04-18T15:26:52Z</time></trkpt><trkpt lat="42.43230837155309" lon="14.108508778428334"><ele>109.4</ele><time>2026-04-18T15:26:53Z</time></trkpt><trkpt lat="42.43240833074762" lon="14.108405726491087"><ele>108.8</ele><time>2026-04-18T15:26:54Z</time></trkpt><trkpt lat="42.43249488940781" lon="14.108303046097447"><ele>108.19999999999999</ele><time>2026-04-18T15:26:55Z</time></trkpt><trkpt lat="42.432561522603415" lon="14.108203914335459"><ele>107.6</ele><time>2026-04-18T15:26:56Z</time></trkpt><trkpt lat="42.43259636410544" lon="14.108084492094886"><ele>107.0</ele><time>2026-04-18T15:26:56.999Z</time></trkpt><trkpt lat="42.43260034215399" lon="14.107954617732593"><ele>106.99999999999999</ele><time>2026-04-18T15:26:57.999Z</time></trkpt><trkpt lat="42.432566344060966" lon="14.107833704577962"><ele>107.0</ele><time>2026-04-18T15:26:58.999Z</time></trkpt><trkpt lat="42.432507407444646" lon="14.107742135167893"><ele>107.0</ele><time>2026-04-18T15:26:59.999Z</time></trkpt><trkpt lat="42.43245045283781" lon="14.107682788254566"><ele>107.0</ele><time>2026-04-18T15:27:00.999Z</time></trkpt><trkpt lat="42.432475289027735" lon="14.107565040061756"><ele>106.99999999999999</ele><time>2026-04-18T15:27:06.001Z</time></trkpt><trkpt lat="42.43250473649707" lon="14.107476033837733"><ele>107.0</ele><time>2026-04-18T15:27:09.001Z</time></trkpt><trkpt lat="42.432417518380575" lon="14.107388734874132"><ele>104.0</ele><time>2026-04-18T15:27:11.001Z</time></trkpt><trkpt lat="42.43230189730821" lon="14.107355293680227"><ele>100.99999999999999</ele><time>2026-04-18T15:27:12.001Z</time></trkpt><trkpt lat="42.43219363990158" lon="14.107329099908542"><ele>98.0</ele><time>2026-04-18T15:27:13.001Z</time></trkpt><trkpt lat="42.43211128060747" lon="14.10726211255761"><ele>95.0</ele><time>2026-04-18T15:27:14.001Z</time></trkpt><trkpt lat="42.432019464204544" lon="14.107208930715114"><ele>92.0</ele><time>2026-04-18T15:27:15.001Z</time></trkpt><trkpt lat="42.431923135789305" lon="14.107151993952797"><ele>91.5</ele><time>2026-04-18T15:27:16.001Z</time></trkpt><trkpt lat="42.43181586623896" lon="14.107093434202826"><ele>91.0</ele><time>2026-04-18T15:27:17.001Z</time></trkpt><trkpt lat="42.431699612568735" lon="14.107056013894772"><ele>90.5</ele><time>2026-04-18T15:27:18.001Z</time></trkpt><trkpt lat="42.431589798137274" lon="14.106996530676941"><ele>90.0</ele><time>2026-04-18T15:27:19.001Z</time></trkpt><trkpt lat="42.43147755343504" lon="14.106925444619915"><ele>90.0</ele><time>2026-04-18T15:27:20.001Z</time></trkpt><trkpt lat="42.431370038545055" lon="14.106875272050866"><ele>90.0</ele><time>2026-04-18T15:27:21.001Z</time></trkpt><trkpt lat="42.43126924342278" lon="14.10683602729339"><ele>90.0</ele><time>2026-04-18T15:27:22.001Z</time></trkpt><trkpt lat="42.431168742833336" lon="14.106801825766516"><ele>90.0</ele><time>2026-04-18T15:27:23.001Z</time></trkpt><trkpt lat="42.431081398042345" lon="14.106776395568412"><ele>90.0</ele><time>2026-04-18T15:27:24.001Z</time></trkpt><trkpt lat="42.43098504620106" lon="14.106769765849668"><ele>88.8</ele><time>2026-04-18T15:27:25Z</time></trkpt><trkpt lat="42.43088933997361" lon="14.106788646042727"><ele>87.6</ele><time>2026-04-18T15:27:26Z</time></trkpt><trkpt lat="42.4308098260113" lon="14.106821697805481"><ele>86.4</ele><time>2026-04-18T15:27:27Z</time></trkpt><trkpt lat="42.43073076243625" lon="14.10688985467716"><ele>85.2</ele><time>2026-04-18T15:27:28Z</time></trkpt><trkpt lat="42.4306592139824" lon="14.106994926550078"><ele>84.0</ele><time>2026-04-18T15:27:29Z</time></trkpt><trkpt lat="42.43058784607958" lon="14.107123351205315"><ele>84.0</ele><time>2026-04-18T15:27:30Z</time></trkpt><trkpt lat="42.43050577907602" lon="14.107251201111492"><ele>84.0</ele><time>2026-04-18T15:27:31Z</time></trkpt><trkpt lat="42.430394782468" lon="14.107346579698758"><ele>84.0</ele><time>2026-04-18T15:27:32Z</time></trkpt><trkpt lat="42.43026246262821" lon="14.107441714764912"><ele>84.0</ele><time>2026-04-18T15:27:33Z</time></trkpt><trkpt lat="42.43016962981723" lon="14.107543201665987"><ele>84.0</ele><time>2026-04-18T15:27:34Z</time></trkpt><trkpt lat="42.43007311709017" lon="14.107634695325467"><ele>84.0</ele><time>2026-04-18T15:27:35Z</time></trkpt><trkpt lat="42.42998997387132" lon="14.107720927481092"><ele>84.0</ele><time>2026-04-18T15:27:36Z</time></trkpt><trkpt lat="42.42991559563293" lon="14.107805002103808"><ele>84.0</ele><time>2026-04-18T15:27:37Z</time></trkpt><trkpt lat="42.429840031905535" lon="14.107899062833553"><ele>84.0</ele><time>2026-04-18T15:27:38Z</time></trkpt><trkpt lat="42.42976425381255" lon="14.107989090725473"><ele>84.0</ele><time>2026-04-18T15:27:39Z</time></trkpt><trkpt lat="42.42969226609739" lon="14.108086935265204"><ele>84.0</ele><time>2026-04-18T15:27:40Z</time></trkpt><trkpt lat="42.42962447952676" lon="14.108185498555427"><ele>84.0</ele><time>2026-04-18T15:27:41Z</time></trkpt><trkpt lat="42.42957020290894" lon="14.108293234770482"><ele>84.0</ele><time>2026-04-18T15:27:42Z</time></trkpt><trkpt lat="42.42950894160977" lon="14.108433356472377"><ele>84.0</ele><time>2026-04-18T15:27:43Z</time></trkpt><trkpt lat="42.42946060404694" lon="14.108592253889832"><ele>81.8</ele><time>2026-04-18T15:27:44Z</time></trkpt><trkpt lat="42.4294130225451" lon="14.108718570684163"><ele>79.60000000000001</ele><time>2026-04-18T15:27:45Z</time></trkpt><trkpt lat="42.42936275479493" lon="14.108823898762967"><ele>77.4</ele><time>2026-04-18T15:27:46Z</time></trkpt><trkpt lat="42.429299775298446" lon="14.108907671225245"><ele>75.2</ele><time>2026-04-18T15:27:47Z</time></trkpt><trkpt lat="42.429222753547286" lon="14.108963758436682"><ele>73.0</ele><time>2026-04-18T15:27:48Z</time></trkpt><trkpt lat="42.42914189286757" lon="14.109034687761168"><ele>72.75</ele><time>2026-04-18T15:27:49Z</time></trkpt><trkpt lat="42.42905610678563" lon="14.10913690502337"><ele>72.5</ele><time>2026-04-18T15:27:50Z</time></trkpt><trkpt lat="42.42894943220798" lon="14.109234455622508"><ele>72.25</ele><time>2026-04-18T15:27:51Z</time></trkpt><trkpt lat="42.428862688502356" lon="14.10935322092131"><ele>72.0</ele><time>2026-04-18T15:27:52Z</time></trkpt><trkpt lat="42.428775335721205" lon="14.109470581600043"><ele>71.2</ele><time>2026-04-18T15:27:53Z</time></trkpt><trkpt lat="42.42868374876679" lon="14.109561415746109"><ele>70.4</ele><time>2026-04-18T15:27:54Z</time></trkpt><trkpt lat="42.428608714686185" lon="14.109642340992965"><ele>69.6</ele><time>2026-04-18T15:27:55Z</time></trkpt><trkpt lat="42.428528714427806" lon="14.10972174727633"><ele>68.8</ele><time>2026-04-18T15:27:56Z</time></trkpt><trkpt lat="42.428456392965074" lon="14.109803650506521"><ele>68.0</ele><time>2026-04-18T15:27:57Z</time></trkpt><trkpt lat="42.42835696747892" lon="14.109852465165693"><ele>68.0</ele><time>2026-04-18T15:27:58Z</time></trkpt><trkpt lat="42.428221075650136" lon="14.109896940375172"><ele>68.0</ele><time>2026-04-18T15:27:59Z</time></trkpt><trkpt lat="42.42806935398281" lon="14.109932027766611"><ele>68.0</ele><time>2026-04-18T15:28:00Z</time></trkpt><trkpt lat="42.42792731463531" lon="14.10995920351141"><ele>68.0</ele><time>2026-04-18T15:28:01Z</time></trkpt><trkpt lat="42.42779360794008" lon="14.109976622841547"><ele>64.5</ele><time>2026-04-18T15:28:02Z</time></trkpt><trkpt lat="42.42765802421933" lon="14.109977867357472"><ele>61.0</ele><time>2026-04-18T15:28:03Z</time></trkpt><trkpt lat="42.42753123516076" lon="14.11001504605193"><ele>57.5</ele><time>2026-04-18T15:28:04Z</time></trkpt><trkpt lat="42.42743368374638" lon="14.110058702684208"><ele>54.0</ele><time>2026-04-18T15:28:05Z</time></trkpt><trkpt lat="42.427348373572755" lon="14.110094180255194"><ele>54.0</ele><time>2026-04-18T15:28:06Z</time></trkpt><trkpt lat="42.42725683700282" lon="14.110149813468109"><ele>54.00000000000001</ele><time>2026-04-18T15:28:07Z</time></trkpt><trkpt lat="42.427157349025606" lon="14.110224550201913"><ele>54.00000000000001</ele><time>2026-04-18T15:28:08Z</time></trkpt><trkpt lat="42.42705397033213" lon="14.110308139174355"><ele>54.0</ele><time>2026-04-18T15:28:09Z</time></trkpt><trkpt lat="42.42695730122887" lon="14.110384063586267"><ele>54.0</ele><time>2026-04-18T15:28:10Z</time></trkpt><trkpt lat="42.426857783770586" lon="14.11045330969456"><ele>52.0</ele><time>2026-04-18T15:28:11Z</time></trkpt><trkpt lat="42.426767780984946" lon="14.110514367465036"><ele>50.00000000000001</ele><time>2026-04-18T15:28:12Z</time></trkpt><trkpt lat="42.4266637850273" lon="14.110556285520996"><ele>48.0</ele><time>2026-04-18T15:28:13Z</time></trkpt><trkpt lat="42.4265758190256" lon="14.110611865795573"><ele>46.0</ele><time>2026-04-18T15:28:14Z</time></trkpt><trkpt lat="42.4264857242024" lon="14.110665708636692"><ele>44.0</ele><time>2026-04-18T15:28:15Z</time></trkpt><trkpt lat="42.42640034656323" lon="14.110727008298179"><ele>44.800000000000004</ele><time>2026-04-18T15:28:16Z</time></trkpt><trkpt lat="42.42631020804496" lon="14.110760408684484"><ele>45.6</ele><time>2026-04-18T15:28:17Z</time></trkpt><trkpt lat="42.426218279868614" lon="14.110806374327712"><ele>46.4</ele><time>2026-04-18T15:28:18Z</time></trkpt><trkpt lat="42.426111160211306" lon="14.110866734377716"><ele>47.2</ele><time>2026-04-18T15:28:19Z</time></trkpt><trkpt lat="42.425985524419055" lon="14.110914794603286"><ele>48.0</ele><time>2026-04-18T15:28:20Z</time></trkpt><trkpt lat="42.42587755753416" lon="14.110966254947373"><ele>48.0</ele><time>2026-04-18T15:28:21Z</time></trkpt><trkpt lat="42.42577900043147" lon="14.111011092320332"><ele>48.0</ele><time>2026-04-18T15:28:22Z</time></trkpt><trkpt lat="42.42569500487576" lon="14.111057560309085"><ele>48.0</ele><time>2026-04-18T15:28:23Z</time></trkpt><trkpt lat="42.425628789300475" lon="14.111084305729383"><ele>48.0</ele><time>2026-04-18T15:28:24Z</time></trkpt><trkpt lat="42.42554843106551" lon="14.111128629915454"><ele>48.0</ele><time>2026-04-18T15:28:26Z</time></trkpt><trkpt lat="42.42560716939855" lon="14.110927070562088"><ele>48.0</ele><time>2026-04-18T15:28:33Z</time></trkpt><trkpt lat="42.42569420958389" lon="14.110824592191522"><ele>48.0</ele><time>2026-04-18T15:28:34Z</time></trkpt><trkpt lat="42.42577292856427" lon="14.110740689322226"><ele>48.0</ele><time>2026-04-18T15:28:35Z</time></trkpt><trkpt lat="42.42585620289257" lon="14.110635842906254"><ele>48.0</ele><time>2026-04-18T15:28:36Z</time></trkpt><trkpt lat="42.425943407422935" lon="14.110505483505372"><ele>47.0</ele><time>2026-04-18T15:28:37Z</time></trkpt><trkpt lat="42.426017645523984" lon="14.110359022522937"><ele>46.0</ele><time>2026-04-18T15:28:38Z</time></trkpt><trkpt lat="42.426077546158744" lon="14.110188762088631"><ele>45.0</ele><time>2026-04-18T15:28:39Z</time></trkpt><trkpt lat="42.42611960539458" lon="14.110003601649067"><ele>44.0</ele><time>2026-04-18T15:28:40Z</time></trkpt><trkpt lat="42.426148181597874" lon="14.109820367325685"><ele>44.0</ele><time>2026-04-18T15:28:41Z</time></trkpt><trkpt lat="42.426167471896655" lon="14.109643778584603"><ele>44.0</ele><time>2026-04-18T15:28:42Z</time></trkpt><trkpt lat="42.426181783388344" lon="14.109471831937267"><ele>44.0</ele><time>2026-04-18T15:28:43Z</time></trkpt><trkpt lat="42.42619263589231" lon="14.109307269550815"><ele>44.0</ele><time>2026-04-18T15:28:44Z</time></trkpt><trkpt lat="42.42620435936887" lon="14.109163113811016"><ele>44.6</ele><time>2026-04-18T15:28:45Z</time></trkpt><trkpt lat="42.42621855691985" lon="14.109041634346317"><ele>45.2</ele><time>2026-04-18T15:28:46Z</time></trkpt><trkpt lat="42.42624581572965" lon="14.108931241983095"><ele>45.800000000000004</ele><time>2026-04-18T15:28:48Z</time></trkpt><trkpt lat="42.426250161671454" lon="14.108824122918449"><ele>46.400000000000006</ele><time>2026-04-18T15:28:52Z</time></trkpt><trkpt lat="42.42611242711009" lon="14.108805746310065"><ele>47.0</ele><time>2026-04-18T15:28:53Z</time></trkpt><trkpt lat="42.426034660257926" lon="14.10880119823916"><ele>47.0</ele><time>2026-04-18T15:28:54Z</time></trkpt><trkpt lat="42.42594982025173" lon="14.108776070898637"><ele>47.0</ele><time>2026-04-18T15:28:55Z</time></trkpt><trkpt lat="42.42585965098783" lon="14.108727726227741"><ele>47.0</ele><time>2026-04-18T15:28:56Z</time></trkpt><trkpt lat="42.425768455159634" lon="14.108683479487055"><ele>47.0</ele><time>2026-04-18T15:28:57Z</time></trkpt><trkpt lat="42.4256789475827" lon="14.108622555036213"><ele>47.0</ele><time>2026-04-18T15:28:58Z</time></trkpt><trkpt lat="42.42558738015878" lon="14.108607347165169"><ele>47.0</ele><time>2026-04-18T15:28:59Z</time></trkpt><trkpt lat="42.425504360875294" lon="14.108575172540375"><ele>47.0</ele><time>2026-04-18T15:29:00Z</time></trkpt><trkpt lat="42.42542715265827" lon="14.108547706269864"><ele>47.0</ele><time>2026-04-18T15:29:01Z</time></trkpt><trkpt lat="42.425356005078775" lon="14.108486148047911"><ele>47.0</ele><time>2026-04-18T15:29:02Z</time></trkpt><trkpt lat="42.42528772002028" lon="14.108436426301889"><ele>47.0</ele><time>2026-04-18T15:29:03Z</time></trkpt><trkpt lat="42.425200304095554" lon="14.108390000799362"><ele>47.0</ele><time>2026-04-18T15:29:04Z</time></trkpt><trkpt lat="42.42513844930889" lon="14.10829660474114"><ele>47.6</ele><time>2026-04-18T15:29:05Z</time></trkpt><trkpt lat="42.42506986919976" lon="14.108218374609224"><ele>48.2</ele><time>2026-04-18T15:29:06Z</time></trkpt><trkpt lat="42.42501431708778" lon="14.108139070651047"><ele>48.8</ele><time>2026-04-18T15:29:07Z</time></trkpt><trkpt lat="42.424968063788405" lon="14.108046180293707"><ele>49.4</ele><time>2026-04-18T15:29:08Z</time></trkpt><trkpt lat="42.424921277526686" lon="14.107933523147338"><ele>50.0</ele><time>2026-04-18T15:29:09Z</time></trkpt><trkpt lat="42.42486349537636" lon="14.107784767090315"><ele>50.0</ele><time>2026-04-18T15:29:10.001Z</time></trkpt><trkpt lat="42.42479188375883" lon="14.107626811725144"><ele>50.0</ele><time>2026-04-18T15:29:11.001Z</time></trkpt><trkpt lat="42.42473881057065" lon="14.107446314094977"><ele>50.0</ele><time>2026-04-18T15:29:12.001Z</time></trkpt><trkpt lat="42.424682411216814" lon="14.107291306434046"><ele>50.0</ele><time>2026-04-18T15:29:13.001Z</time></trkpt><trkpt lat="42.42461411548367" lon="14.107153437980678"><ele>49.5</ele><time>2026-04-18T15:29:14.001Z</time></trkpt><trkpt lat="42.424565447987405" lon="14.106998630723302"><ele>49.0</ele><time>2026-04-18T15:29:15.001Z</time></trkpt><trkpt lat="42.42450504384829" lon="14.106842691584976"><ele>48.5</ele><time>2026-04-18T15:29:16.001Z</time></trkpt><trkpt lat="42.42446064485189" lon="14.106683640147956"><ele>48.0</ele><time>2026-04-18T15:29:17.001Z</time></trkpt><trkpt lat="42.42440441388447" lon="14.10653057014791"><ele>48.0</ele><time>2026-04-18T15:29:18.001Z</time></trkpt><trkpt lat="42.424329076754816" lon="14.10636254649216"><ele>48.0</ele><time>2026-04-18T15:29:19.001Z</time></trkpt><trkpt lat="42.42427490635145" lon="14.106177061115234"><ele>48.0</ele><time>2026-04-18T15:29:20.001Z</time></trkpt><trkpt lat="42.424214097422116" lon="14.10601090573648"><ele>48.0</ele><time>2026-04-18T15:29:21.001Z</time></trkpt><trkpt lat="42.42415481979105" lon="14.105848934677493"><ele>49.5</ele><time>2026-04-18T15:29:22.001Z</time></trkpt><trkpt lat="42.424100730867075" lon="14.105699790272762"><ele>51.0</ele><time>2026-04-18T15:29:23.001Z</time></trkpt><trkpt lat="42.42402558479062" lon="14.105540129859131"><ele>52.5</ele><time>2026-04-18T15:29:24.001Z</time></trkpt><trkpt lat="42.42397580153702" lon="14.105353872308523"><ele>54.0</ele><time>2026-04-18T15:29:25.001Z</time></trkpt><trkpt lat="42.42391020022747" lon="14.105172228565964"><ele>54.0</ele><time>2026-04-18T15:29:26.001Z</time></trkpt><trkpt lat="42.42385014438533" lon="14.10500594019904"><ele>54.0</ele><time>2026-04-18T15:29:27.001Z</time></trkpt><trkpt lat="42.42379482519001" lon="14.104852766415995"><ele>54.0</ele><time>2026-04-18T15:29:28Z</time></trkpt><trkpt lat="42.42374098706701" lon="14.10470369353888"><ele>54.0</ele><time>2026-04-18T15:29:29Z</time></trkpt><trkpt lat="42.423687378059945" lon="14.104556674278303"><ele>54.0</ele><time>2026-04-18T15:29:30Z</time></trkpt><trkpt lat="42.42362605953281" lon="14.104427879688018"><ele>54.0</ele><time>2026-04-18T15:29:31Z</time></trkpt><trkpt lat="42.42357605450079" lon="14.104290560581893"><ele>54.0</ele><time>2026-04-18T15:29:32Z</time></trkpt><trkpt lat="42.42352328892771" lon="14.10415545652206"><ele>54.0</ele><time>2026-04-18T15:29:33Z</time></trkpt><trkpt lat="42.42346434250982" lon="14.104013116137052"><ele>54.0</ele><time>2026-04-18T15:29:34Z</time></trkpt><trkpt lat="42.42340814862716" lon="14.103878786731386"><ele>54.00000000000001</ele><time>2026-04-18T15:29:35Z</time></trkpt><trkpt lat="42.423357961984735" lon="14.103748050215511"><ele>54.00000000000001</ele><time>2026-04-18T15:29:36Z</time></trkpt><trkpt lat="42.4233226965821" lon="14.10360424843913"><ele>54.0</ele><time>2026-04-18T15:29:37Z</time></trkpt><trkpt lat="42.42327504169895" lon="14.103472285235453"><ele>54.0</ele><time>2026-04-18T15:29:38Z</time></trkpt><trkpt lat="42.42321503527999" lon="14.103356198655874"><ele>56.2</ele><time>2026-04-18T15:29:39Z</time></trkpt><trkpt lat="42.423166083220366" lon="14.103233436814842"><ele>58.400000000000006</ele><time>2026-04-18T15:29:40Z</time></trkpt><trkpt lat="42.423134488151064" lon="14.10311345562212"><ele>60.6</ele><time>2026-04-18T15:29:41Z</time></trkpt><trkpt lat="42.4230790811415" lon="14.103025984401134"><ele>62.8</ele><time>2026-04-18T15:29:42Z</time></trkpt><trkpt lat="42.42303540174218" lon="14.10291864407993"><ele>65.0</ele><time>2026-04-18T15:29:43Z</time></trkpt><trkpt lat="42.422982917607726" lon="14.102813282810317"><ele>62.6</ele><time>2026-04-18T15:29:44Z</time></trkpt><trkpt lat="42.42291935363625" lon="14.102724295736655"><ele>60.2</ele><time>2026-04-18T15:29:45Z</time></trkpt><trkpt lat="42.42284036254689" lon="14.102660710640123"><ele>57.8</ele><time>2026-04-18T15:29:46Z</time></trkpt><trkpt lat="42.42276321078438" lon="14.102596057607128"><ele>55.4</ele><time>2026-04-18T15:29:47Z</time></trkpt><trkpt lat="42.42268789604155" lon="14.102510231199766"><ele>53.0</ele><time>2026-04-18T15:29:48Z</time></trkpt><trkpt lat="42.42261409861429" lon="14.102442814092926"><ele>53.599999999999994</ele><time>2026-04-18T15:29:49Z</time></trkpt><trkpt lat="42.42254265477811" lon="14.102377637495044"><ele>54.199999999999996</ele><time>2026-04-18T15:29:50Z</time></trkpt><trkpt lat="42.42245046852186" lon="14.102312621050459"><ele>54.8</ele><time>2026-04-18T15:29:51Z</time></trkpt><trkpt lat="42.422357704919364" lon="14.102209085921452"><ele>55.4</ele><time>2026-04-18T15:29:52Z</time></trkpt><trkpt lat="42.42224621391678" lon="14.102134185455887"><ele>56.0</ele><time>2026-04-18T15:29:53Z</time></trkpt><trkpt lat="42.42214082111343" lon="14.102040260309103"><ele>56.0</ele><time>2026-04-18T15:29:54Z</time></trkpt><trkpt lat="42.42204715079492" lon="14.101932931395055"><ele>56.0</ele><time>2026-04-18T15:29:55Z</time></trkpt><trkpt lat="42.421951296676035" lon="14.10185020467367"><ele>56.0</ele><time>2026-04-18T15:29:56Z</time></trkpt><trkpt lat="42.42185951331072" lon="14.101771458048889"><ele>56.0</ele><time>2026-04-18T15:29:57Z</time></trkpt><trkpt lat="42.42175890605699" lon="14.10171191003269"><ele>56.0</ele><time>2026-04-18T15:29:58Z</time></trkpt><trkpt lat="42.421663663511985" lon="14.101605377259256"><ele>55.99999999999999</ele><time>2026-04-18T15:29:59Z</time></trkpt><trkpt lat="42.42155704145946" lon="14.101538281813461"><ele>55.99999999999999</ele><time>2026-04-18T15:30:00Z</time></trkpt><trkpt lat="42.42146909829834" lon="14.101467949738288"><ele>56.0</ele><time>2026-04-18T15:30:01Z</time></trkpt><trkpt lat="42.42139483266992" lon="14.101403248948928"><ele>56.0</ele><time>2026-04-18T15:30:02Z</time></trkpt><trkpt lat="42.42133108623345" lon="14.101349354649354"><ele>56.333333333333336</ele><time>2026-04-18T15:30:03Z</time></trkpt><trkpt lat="42.421270694602356" lon="14.101292255835638"><ele>56.66666666666667</ele><time>2026-04-18T15:30:04Z</time></trkpt><trkpt lat="42.421207062952014" lon="14.101236237381334"><ele>57.0</ele><time>2026-04-18T15:30:05Z</time></trkpt><trkpt lat="42.42113599882314" lon="14.101174500272027"><ele>57.33333333333333</ele><time>2026-04-18T15:30:06Z</time></trkpt><trkpt lat="42.42106853908278" lon="14.101119355554719"><ele>57.666666666666664</ele><time>2026-04-18T15:30:07Z</time></trkpt><trkpt lat="42.42099556771456" lon="14.101034849182055"><ele>58.0</ele><time>2026-04-18T15:30:08Z</time></trkpt><trkpt lat="42.420911942747146" lon="14.10096086769021"><ele>57.99999999999999</ele><time>2026-04-18T15:30:09Z</time></trkpt><trkpt lat="42.42082939863372" lon="14.100885853659754"><ele>58.0</ele><time>2026-04-18T15:30:10Z</time></trkpt><trkpt lat="42.4207605333462" lon="14.10082054111149"><ele>58.0</ele><time>2026-04-18T15:30:11Z</time></trkpt><trkpt lat="42.42069780975483" lon="14.100758954429665"><ele>58.0</ele><time>2026-04-18T15:30:12Z</time></trkpt><trkpt lat="42.42062093678874" lon="14.10070396707657"><ele>57.99999999999999</ele><time>2026-04-18T15:30:13Z</time></trkpt><trkpt lat="42.42055330824411" lon="14.10061964228943"><ele>58.0</ele><time>2026-04-18T15:30:14Z</time></trkpt><trkpt lat="42.42047850775704" lon="14.100531080960963"><ele>57.4</ele><time>2026-04-18T15:30:15Z</time></trkpt><trkpt lat="42.42040641840671" lon="14.10042755502925"><ele>56.8</ele><time>2026-04-18T15:30:16Z</time></trkpt><trkpt lat="42.42033697582357" lon="14.100330863852344"><ele>56.2</ele><time>2026-04-18T15:30:17Z</time></trkpt><trkpt lat="42.42026421284666" lon="14.100249089366534"><ele>55.6</ele><time>2026-04-18T15:30:18Z</time></trkpt><trkpt lat="42.42019927731792" lon="14.100141909024975"><ele>55.0</ele><time>2026-04-18T15:30:19Z</time></trkpt><trkpt lat="42.42012937164271" lon="14.100052246027065"><ele>55.0</ele><time>2026-04-18T15:30:20Z</time></trkpt><trkpt lat="42.420060924277614" lon="14.099964320134363"><ele>55.0</ele><time>2026-04-18T15:30:21Z</time></trkpt><trkpt lat="42.41998574858651" lon="14.099867751160476"><ele>55.0</ele><time>2026-04-18T15:30:22Z</time></trkpt><trkpt lat="42.419909817671446" lon="14.099770212082943"><ele>55.0</ele><time>2026-04-18T15:30:23Z</time></trkpt><trkpt lat="42.41982744155415" lon="14.099693928499544"><ele>55.0</ele><time>2026-04-18T15:30:24Z</time></trkpt><trkpt lat="42.419764132600925" lon="14.099609182980986"><ele>54.83333333333333</ele><time>2026-04-18T15:30:25Z</time></trkpt><trkpt lat="42.41969682976066" lon="14.09952340207795"><ele>54.666666666666664</ele><time>2026-04-18T15:30:26Z</time></trkpt><trkpt lat="42.41963444973132" lon="14.099455448411657"><ele>54.5</ele><time>2026-04-18T15:30:27Z</time></trkpt><trkpt lat="42.419573032313906" lon="14.09937902148128"><ele>54.33333333333333</ele><time>2026-04-18T15:30:28Z</time></trkpt><trkpt lat="42.41948526081007" lon="14.099364563065958"><ele>54.166666666666664</ele><time>2026-04-18T15:30:29Z</time></trkpt><trkpt lat="42.4194089993812" lon="14.099352735973548"><ele>54.0</ele><time>2026-04-18T15:30:30Z</time></trkpt><trkpt lat="42.41934012066193" lon="14.099366827307325"><ele>54.0</ele><time>2026-04-18T15:30:31Z</time></trkpt><trkpt lat="42.41925417283002" lon="14.099385111961718"><ele>54.0</ele><time>2026-04-18T15:30:33Z</time></trkpt><trkpt lat="42.41918350542235" lon="14.099413127236485"><ele>54.0</ele><time>2026-04-18T15:32:45Z</time></trkpt><trkpt lat="42.41911759707289" lon="14.09943406177702"><ele>54.0</ele><time>2026-04-18T15:32:50Z</time></trkpt><trkpt lat="42.41903964059292" lon="14.099440693476113"><ele>54.0</ele><time>2026-04-18T15:32:55Z</time></trkpt><trkpt lat="42.41897571867146" lon="14.099472473740239"><ele>54.0</ele><time>2026-04-18T15:33:01Z</time></trkpt><trkpt lat="42.41890992686317" lon="14.09950442927939"><ele>54.0</ele><time>2026-04-18T15:33:06Z</time></trkpt><trkpt lat="42.41884313181304" lon="14.09953349086211"><ele>54.5</ele><time>2026-04-18T15:33:13Z</time></trkpt><trkpt lat="42.418770357282156" lon="14.099553572628123"><ele>55.0</ele><time>2026-04-18T15:33:20Z</time></trkpt><trkpt lat="42.41870680049033" lon="14.099579085516915"><ele>55.5</ele><time>2026-04-18T15:40:31.999Z</time></trkpt><trkpt lat="42.418627281544374" lon="14.099543314245885"><ele>56.0</ele><time>2026-04-18T15:40:37.999Z</time></trkpt><trkpt lat="42.418551378666585" lon="14.099496713508568"><ele>56.5</ele><time>2026-04-18T15:40:42.999Z</time></trkpt><trkpt lat="42.418491851686206" lon="14.099438008266715"><ele>57.0</ele><time>2026-04-18T15:40:46.999Z</time></trkpt><trkpt lat="42.41845092841268" lon="14.099359653286573"><ele>57.0</ele><time>2026-04-18T15:41:16.999Z</time></trkpt><trkpt lat="42.41839651116659" lon="14.099234951970068"><ele>57.0</ele><time>2026-04-18T15:41:18.999Z</time></trkpt><trkpt lat="42.418369128590804" lon="14.099132741425372"><ele>57.0</ele><time>2026-04-18T15:41:20.999Z</time></trkpt><trkpt lat="42.41831040848159" lon="14.099036047653337"><ele>57.0</ele><time>2026-04-18T15:41:22.999Z</time></trkpt><trkpt lat="42.418273461546605" lon="14.098965866117286"><ele>57.0</ele><time>2026-04-18T15:41:23.999Z</time></trkpt><trkpt lat="42.418225767359736" lon="14.098841072545468"><ele>57.0</ele><time>2026-04-18T15:41:25.999Z</time></trkpt><trkpt lat="42.418201437199755" lon="14.098761482471817"><ele>57.5</ele><time>2026-04-18T15:41:26.999Z</time></trkpt><trkpt lat="42.418176040938015" lon="14.098640035633926"><ele>58.0</ele><time>2026-04-18T15:41:28.999Z</time></trkpt><trkpt lat="42.41814368108527" lon="14.098562963803941"><ele>58.5</ele><time>2026-04-18T15:41:31.999Z</time></trkpt><trkpt lat="42.41810412319125" lon="14.098471884476213"><ele>59.0</ele><time>2026-04-18T15:41:36.999Z</time></trkpt><trkpt lat="42.418062706337324" lon="14.098376416630966"><ele>59.5</ele><time>2026-04-18T15:41:38.999Z</time></trkpt><trkpt lat="42.418022051551176" lon="14.098284174380254"><ele>60.0</ele><time>2026-04-18T15:41:42.999Z</time></trkpt><trkpt lat="42.41798958321848" lon="14.098210934894839"><ele>61.166666666666664</ele><time>2026-04-18T15:41:44.999Z</time></trkpt><trkpt lat="42.41795481600759" lon="14.098132509763104"><ele>62.33333333333333</ele><time>2026-04-18T15:41:46.999Z</time></trkpt><trkpt lat="42.417903660096805" lon="14.09801711630594"><ele>63.5</ele><time>2026-04-18T15:41:48.999Z</time></trkpt><trkpt lat="42.41785524684468" lon="14.097907909526247"><ele>64.66666666666666</ele><time>2026-04-18T15:41:50.999Z</time></trkpt><trkpt lat="42.41781406976191" lon="14.097815025517505"><ele>65.83333333333333</ele><time>2026-04-18T15:41:53Z</time></trkpt><trkpt lat="42.41776201448169" lon="14.097698652451141"><ele>67.0</ele><time>2026-04-18T15:41:55Z</time></trkpt><trkpt lat="42.417693214029356" lon="14.097634356378224"><ele>67.0</ele><time>2026-04-18T15:41:57Z</time></trkpt><trkpt lat="42.41765090949389" lon="14.09754608972356"><ele>67.0</ele><time>2026-04-18T15:41:59Z</time></trkpt><trkpt lat="42.41760558572554" lon="14.097471515264925"><ele>67.0</ele><time>2026-04-18T15:42:31Z</time></trkpt><trkpt lat="42.41758314399264" lon="14.097322876448128"><ele>67.0</ele><time>2026-04-18T15:42:33Z</time></trkpt><trkpt lat="42.41754356470473" lon="14.09724589473805"><ele>67.0</ele><time>2026-04-18T15:42:35Z</time></trkpt><trkpt lat="42.41749585693045" lon="14.09715626104828"><ele>67.0</ele><time>2026-04-18T15:42:37Z</time></trkpt><trkpt lat="42.417433307997115" lon="14.097041560071991"><ele>68.66666666666666</ele><time>2026-04-18T15:42:39Z</time></trkpt><trkpt lat="42.41738782155911" lon="14.0969604112985"><ele>70.33333333333333</ele><time>2026-04-18T15:42:41Z</time></trkpt><trkpt lat="42.41734420420637" lon="14.096884494687814"><ele>72.0</ele><time>2026-04-18T15:42:44Z</time></trkpt><trkpt lat="42.417277741027576" lon="14.096796229698354"><ele>73.66666666666667</ele><time>2026-04-18T15:42:46Z</time></trkpt><trkpt lat="42.4172306343224" lon="14.096717674761708"><ele>75.33333333333334</ele><time>2026-04-18T15:42:48Z</time></trkpt><trkpt lat="42.41717436703884" lon="14.096632037893635"><ele>77.0</ele><time>2026-04-18T15:42:49.999Z</time></trkpt><trkpt lat="42.417122094354774" lon="14.096526025882016"><ele>80.4</ele><time>2026-04-18T15:42:52Z</time></trkpt><trkpt lat="42.41704861121611" lon="14.096416453729626"><ele>83.80000000000001</ele><time>2026-04-18T15:42:53.999Z</time></trkpt><trkpt lat="42.41699732456681" lon="14.096330540194627"><ele>87.2</ele><time>2026-04-18T15:42:55.999Z</time></trkpt><trkpt lat="42.416950634254356" lon="14.096220043656794"><ele>90.60000000000001</ele><time>2026-04-18T15:42:57.999Z</time></trkpt><trkpt lat="42.41688560447241" lon="14.096097713965777"><ele>94.0</ele><time>2026-04-18T15:42:59.999Z</time></trkpt><trkpt lat="42.41683731528229" lon="14.096003435243718"><ele>94.0</ele><time>2026-04-18T15:43:01.999Z</time></trkpt><trkpt lat="42.416806440000705" lon="14.09591018980281"><ele>94.0</ele><time>2026-04-18T15:43:03.999Z</time></trkpt><trkpt lat="42.41677124123071" lon="14.095822015325085"><ele>94.0</ele><time>2026-04-18T15:43:05.999Z</time></trkpt><trkpt lat="42.416461603447786" lon="14.095930634684542"><ele>94.0</ele><time>2026-04-18T15:43:08.999Z</time></trkpt><trkpt lat="42.416386198474704" lon="14.09594599872681"><ele>94.0</ele><time>2026-04-18T15:43:10.999Z</time></trkpt><trkpt lat="42.416320087748446" lon="14.09597221262941"><ele>94.0</ele><time>2026-04-18T15:43:12.999Z</time></trkpt><trkpt lat="42.416237487698154" lon="14.095983750234687"><ele>94.0</ele><time>2026-04-18T15:43:14.999Z</time></trkpt><trkpt lat="42.41613779802533" lon="14.095978924674139"><ele>94.0</ele><time>2026-04-18T15:43:16.999Z</time></trkpt><trkpt lat="42.41605067243508" lon="14.09595942057838"><ele>94.0</ele><time>2026-04-18T15:43:18.999Z</time></trkpt><trkpt lat="42.41598658992709" lon="14.09591762766194"><ele>93.16666666666666</ele><time>2026-04-18T15:43:20.999Z</time></trkpt><trkpt lat="42.41591575444344" lon="14.095879303938805"><ele>92.33333333333333</ele><time>2026-04-18T15:43:23.999Z</time></trkpt><trkpt lat="42.41590149623608" lon="14.095789850197225"><ele>91.5</ele><time>2026-04-18T15:43:25.999Z</time></trkpt><trkpt lat="42.415964921603305" lon="14.095746563386262"><ele>90.66666666666667</ele><time>2026-04-18T15:43:27.999Z</time></trkpt><trkpt lat="42.41603395889553" lon="14.095777835877687"><ele>89.83333333333334</ele><time>2026-04-18T15:43:29.999Z</time></trkpt><trkpt lat="42.41610138529652" lon="14.095814664948012"><ele>89.0</ele><time>2026-04-18T15:43:31.999Z</time></trkpt><trkpt lat="42.41619739490481" lon="14.095814936355534"><ele>89.0</ele><time>2026-04-18T15:43:33.999Z</time></trkpt><trkpt lat="42.41627790389383" lon="14.095764164011271"><ele>89.0</ele><time>2026-04-18T15:43:35.999Z</time></trkpt><trkpt lat="42.416348824466965" lon="14.095673232239477"><ele>89.0</ele><time>2026-04-18T15:43:37.999Z</time></trkpt><trkpt lat="42.41639425981965" lon="14.09560614192843"><ele>89.0</ele><time>2026-04-18T15:43:39.999Z</time></trkpt><trkpt lat="42.41645751910618" lon="14.095538393252387"><ele>89.0</ele><time>2026-04-18T15:43:41.999Z</time></trkpt><trkpt lat="42.41650688656771" lon="14.095481225629465"><ele>89.0</ele><time>2026-04-18T15:43:43.999Z</time></trkpt><trkpt lat="42.416583075232516" lon="14.095488296748744"><ele>92.16666666666667</ele><time>2026-04-18T15:44:48Z</time></trkpt><trkpt lat="42.41665337896048" lon="14.095494074116376"><ele>95.33333333333334</ele><time>2026-04-18T15:44:58Z</time></trkpt><trkpt lat="42.41672394049508" lon="14.095508774095718"><ele>98.5</ele><time>2026-04-18T15:45:01Z</time></trkpt><trkpt lat="42.41683038776364" lon="14.095639298538062"><ele>101.66666666666667</ele><time>2026-04-18T15:45:03Z</time></trkpt><trkpt lat="42.41689876482081" lon="14.095663281476112"><ele>104.83333333333333</ele><time>2026-04-18T15:45:04Z</time></trkpt><trkpt lat="42.416983928714494" lon="14.095693640242116"><ele>108.0</ele><time>2026-04-18T15:45:06Z</time></trkpt><trkpt lat="42.41706519633367" lon="14.09571915425803"><ele>108.0</ele><time>2026-04-18T15:45:08Z</time></trkpt><trkpt lat="42.417172653998726" lon="14.095690889123182"><ele>108.0</ele><time>2026-04-18T15:45:10Z</time></trkpt><trkpt lat="42.417217484953376" lon="14.095619900619775"><ele>108.0</ele><time>2026-04-18T15:45:11Z</time></trkpt><trkpt lat="42.41715016381051" lon="14.095442327982553"><ele>108.0</ele><time>2026-04-18T15:45:13Z</time></trkpt><trkpt lat="42.41707654544742" lon="14.095303569628001"><ele>108.0</ele><time>2026-04-18T15:45:15Z</time></trkpt><trkpt lat="42.41703047951047" lon="14.095243164003445"><ele>108.0</ele><time>2026-04-18T15:45:16Z</time></trkpt><trkpt lat="42.41697034300612" lon="14.095195650357395"><ele>108.0</ele><time>2026-04-18T15:45:17Z</time></trkpt><trkpt lat="42.41692113390745" lon="14.095136928974904"><ele>108.0</ele><time>2026-04-18T15:45:18Z</time></trkpt><trkpt lat="42.416871518681916" lon="14.095074361911948"><ele>108.0</ele><time>2026-04-18T15:45:19Z</time></trkpt><trkpt lat="42.41682794648819" lon="14.09500953906919"><ele>108.0</ele><time>2026-04-18T15:45:20Z</time></trkpt><trkpt lat="42.416742559304666" lon="14.09488832500705"><ele>108.33333333333333</ele><time>2026-04-18T15:45:22Z</time></trkpt><trkpt lat="42.416691085433534" lon="14.094824033182014"><ele>108.66666666666666</ele><time>2026-04-18T15:45:23Z</time></trkpt><trkpt lat="42.41663736046793" lon="14.094750495055763"><ele>109.0</ele><time>2026-04-18T15:45:24Z</time></trkpt><trkpt lat="42.41658874272272" lon="14.094685099816969"><ele>109.33333333333333</ele><time>2026-04-18T15:45:25Z</time></trkpt><trkpt lat="42.4165243655924" lon="14.094631326702904"><ele>109.66666666666666</ele><time>2026-04-18T15:45:26Z</time></trkpt><trkpt lat="42.41646812850002" lon="14.094563731602847"><ele>110.0</ele><time>2026-04-18T15:45:27Z</time></trkpt><trkpt lat="42.416364692946445" lon="14.094450881240567"><ele>112.2</ele><time>2026-04-18T15:45:29Z</time></trkpt><trkpt lat="42.41629931919708" lon="14.09442333584775"><ele>114.4</ele><time>2026-04-18T15:45:30Z</time></trkpt><trkpt lat="42.416196119465376" lon="14.09436212853981"><ele>116.6</ele><time>2026-04-18T15:45:32Z</time></trkpt><trkpt lat="42.41612697802683" lon="14.094256010115114"><ele>118.8</ele><time>2026-04-18T15:45:34Z</time></trkpt><trkpt lat="42.416128540963946" lon="14.094098806944723"><ele>121.0</ele><time>2026-04-18T15:45:36Z</time></trkpt><trkpt lat="42.41613578735697" lon="14.094002747608448"><ele>122.0</ele><time>2026-04-18T15:45:37Z</time></trkpt><trkpt lat="42.41614255841013" lon="14.093910005799396"><ele>123.0</ele><time>2026-04-18T15:45:38Z</time></trkpt><trkpt lat="42.41615528923251" lon="14.093753117738261"><ele>124.0</ele><time>2026-04-18T15:45:40Z</time></trkpt><trkpt lat="42.41617405122083" lon="14.09359008899611"><ele>125.0</ele><time>2026-04-18T15:45:42Z</time></trkpt><trkpt lat="42.41619032396292" lon="14.093494114268061"><ele>126.0</ele><time>2026-04-18T15:45:43Z</time></trkpt><trkpt lat="42.41621993284235" lon="14.09339098020854"><ele>126.0</ele><time>2026-04-18T15:45:44Z</time></trkpt><trkpt lat="42.416256417630265" lon="14.09329420334846"><ele>126.0</ele><time>2026-04-18T15:45:45Z</time></trkpt><trkpt lat="42.416304848096246" lon="14.093203418307711"><ele>126.0</ele><time>2026-04-18T15:45:46Z</time></trkpt><trkpt lat="42.41636164928858" lon="14.093094136236875"><ele>126.0</ele><time>2026-04-18T15:45:47Z</time></trkpt><trkpt lat="42.41639473542943" lon="14.092985204439739"><ele>126.0</ele><time>2026-04-18T15:45:48Z</time></trkpt><trkpt lat="42.41645252589518" lon="14.092900159433853"><ele>126.0</ele><time>2026-04-18T15:45:49Z</time></trkpt><trkpt lat="42.41648138259716" lon="14.092797140595565"><ele>126.16666666666667</ele><time>2026-04-18T15:45:50Z</time></trkpt><trkpt lat="42.416520126892046" lon="14.092715060490518"><ele>126.33333333333334</ele><time>2026-04-18T15:45:51Z</time></trkpt><trkpt lat="42.41655943975256" lon="14.092635735795325"><ele>126.5</ele><time>2026-04-18T15:45:52Z</time></trkpt><trkpt lat="42.41660695390297" lon="14.092568151264196"><ele>126.66666666666667</ele><time>2026-04-18T15:45:53Z</time></trkpt><trkpt lat="42.416648875934754" lon="14.092413776051611"><ele>126.83333333333334</ele><time>2026-04-18T15:45:55Z</time></trkpt><trkpt lat="42.41664331771385" lon="14.092301909548453"><ele>127.0</ele><time>2026-04-18T15:45:56Z</time></trkpt><trkpt lat="42.4166226463024" lon="14.092176169957998"><ele>127.0</ele><time>2026-04-18T15:45:57.001Z</time></trkpt><trkpt lat="42.41659880830763" lon="14.09203491452776"><ele>126.99999999999999</ele><time>2026-04-18T15:45:58.001Z</time></trkpt><trkpt lat="42.41656733743328" lon="14.091889135780798"><ele>126.99999999999999</ele><time>2026-04-18T15:45:59.001Z</time></trkpt><trkpt lat="42.41653859026428" lon="14.091750600539351"><ele>127.0</ele><time>2026-04-18T15:46:00.001Z</time></trkpt><trkpt lat="42.41652458391347" lon="14.091616616061364"><ele>127.0</ele><time>2026-04-18T15:46:01.001Z</time></trkpt><trkpt lat="42.41649644270825" lon="14.091478616690141"><ele>128.2</ele><time>2026-04-18T15:46:02.001Z</time></trkpt><trkpt lat="42.416456017229564" lon="14.091345948919132"><ele>129.39999999999998</ele><time>2026-04-18T15:46:03.001Z</time></trkpt><trkpt lat="42.4164261833629" lon="14.091219641111975"><ele>130.60000000000002</ele><time>2026-04-18T15:46:04.001Z</time></trkpt><trkpt lat="42.4163986714202" lon="14.091095777958477"><ele>131.8</ele><time>2026-04-18T15:46:05.001Z</time></trkpt><trkpt lat="42.416372046646146" lon="14.090975078775397"><ele>133.0</ele><time>2026-04-18T15:46:06.001Z</time></trkpt><trkpt lat="42.41636492605118" lon="14.090856045603612"><ele>134.0</ele><time>2026-04-18T15:46:07.001Z</time></trkpt><trkpt lat="42.416344742740186" lon="14.090736890060576"><ele>135.0</ele><time>2026-04-18T15:46:08.001Z</time></trkpt><trkpt lat="42.41633221068958" lon="14.090611581941838"><ele>136.0</ele><time>2026-04-18T15:46:09.001Z</time></trkpt><trkpt lat="42.41631924424435" lon="14.090480185816181"><ele>137.0</ele><time>2026-04-18T15:46:10.001Z</time></trkpt><trkpt lat="42.41630515077316" lon="14.090334742470331"><ele>138.0</ele><time>2026-04-18T15:46:11.001Z</time></trkpt><trkpt lat="42.416292721007416" lon="14.090193760572612"><ele>138.0</ele><time>2026-04-18T15:46:12.001Z</time></trkpt><trkpt lat="42.41626379546956" lon="14.090063812219377"><ele>138.0</ele><time>2026-04-18T15:46:13.001Z</time></trkpt><trkpt lat="42.41625291664369" lon="14.089923823314047"><ele>138.0</ele><time>2026-04-18T15:46:14.001Z</time></trkpt><trkpt lat="42.41623500910341" lon="14.089786565731194"><ele>138.0</ele><time>2026-04-18T15:46:15.001Z</time></trkpt><trkpt lat="42.41622010234061" lon="14.08965057725518"><ele>138.0</ele><time>2026-04-18T15:46:16Z</time></trkpt><trkpt lat="42.41622969384354" lon="14.08952146338023"><ele>138.0</ele><time>2026-04-18T15:46:17Z</time></trkpt><trkpt lat="42.41620900234195" lon="14.08938989995705"><ele>138.0</ele><time>2026-04-18T15:46:18Z</time></trkpt><trkpt lat="42.416162578631216" lon="14.089274715684473"><ele>138.0</ele><time>2026-04-18T15:46:19Z</time></trkpt><trkpt lat="42.416112193896126" lon="14.089151549538217"><ele>138.0</ele><time>2026-04-18T15:46:20Z</time></trkpt><trkpt lat="42.416053920994194" lon="14.089045365845127"><ele>138.0</ele><time>2026-04-18T15:46:21Z</time></trkpt><trkpt lat="42.4159908068612" lon="14.088956449362211"><ele>139.6</ele><time>2026-04-18T15:46:22Z</time></trkpt><trkpt lat="42.41592145516266" lon="14.088872945509678"><ele>141.20000000000002</ele><time>2026-04-18T15:46:23Z</time></trkpt><trkpt lat="42.41584819859641" lon="14.088774980869019"><ele>142.8</ele><time>2026-04-18T15:46:24Z</time></trkpt><trkpt lat="42.41576044758049" lon="14.088683879001895"><ele>144.4</ele><time>2026-04-18T15:46:25Z</time></trkpt><trkpt lat="42.415677089912336" lon="14.088577733818104"><ele>146.0</ele><time>2026-04-18T15:46:26Z</time></trkpt><trkpt lat="42.41558432725702" lon="14.088477027910429"><ele>146.0</ele><time>2026-04-18T15:46:27Z</time></trkpt><trkpt lat="42.415497059845755" lon="14.08836552919"><ele>146.0</ele><time>2026-04-18T15:46:28Z</time></trkpt><trkpt lat="42.415408231125994" lon="14.088264282870604"><ele>146.0</ele><time>2026-04-18T15:46:29Z</time></trkpt><trkpt lat="42.415320069178165" lon="14.088160486129135"><ele>146.0</ele><time>2026-04-18T15:46:30Z</time></trkpt><trkpt lat="42.415234258206155" lon="14.088051418255715"><ele>146.2</ele><time>2026-04-18T15:46:31Z</time></trkpt><trkpt lat="42.41515433571766" lon="14.087935871665998"><ele>146.39999999999998</ele><time>2026-04-18T15:46:32Z</time></trkpt><trkpt lat="42.4150729727427" lon="14.08783750295411"><ele>146.6</ele><time>2026-04-18T15:46:33Z</time></trkpt><trkpt lat="42.41499149176735" lon="14.087740172403372"><ele>146.79999999999998</ele><time>2026-04-18T15:46:34Z</time></trkpt><trkpt lat="42.41491759458146" lon="14.08765161471856"><ele>147.0</ele><time>2026-04-18T15:46:35Z</time></trkpt><trkpt lat="42.41484627103591" lon="14.087566141239252"><ele>147.0</ele><time>2026-04-18T15:46:36Z</time></trkpt><trkpt lat="42.41478194863224" lon="14.087489057873984"><ele>147.0</ele><time>2026-04-18T15:46:37Z</time></trkpt><trkpt lat="42.41471738625338" lon="14.087411140518245"><ele>147.0</ele><time>2026-04-18T15:46:38Z</time></trkpt><trkpt lat="42.41465626458005" lon="14.087336553079377"><ele>147.0</ele><time>2026-04-18T15:46:39Z</time></trkpt><trkpt lat="42.414592420361" lon="14.087258643297927"><ele>147.0</ele><time>2026-04-18T15:46:40Z</time></trkpt><trkpt lat="42.41451305291816" lon="14.08719384449039"><ele>147.0</ele><time>2026-04-18T15:46:41Z</time></trkpt><trkpt lat="42.41445135349795" lon="14.087101813024317"><ele>147.4</ele><time>2026-04-18T15:46:42Z</time></trkpt><trkpt lat="42.41438757841939" lon="14.087026044856419"><ele>147.79999999999998</ele><time>2026-04-18T15:46:43Z</time></trkpt><trkpt lat="42.41435612947812" lon="14.086934700572476"><ele>148.2</ele><time>2026-04-18T15:46:44Z</time></trkpt><trkpt lat="42.41434259441545" lon="14.086772959439651"><ele>148.6</ele><time>2026-04-18T15:46:46Z</time></trkpt><trkpt lat="42.414357411015" lon="14.086655659595852"><ele>149.0</ele><time>2026-04-18T15:46:47Z</time></trkpt><trkpt lat="42.4143831672358" lon="14.086507976757108"><ele>149.25</ele><time>2026-04-18T15:46:48Z</time></trkpt><trkpt lat="42.414411357203946" lon="14.086344684249504"><ele>149.5</ele><time>2026-04-18T15:46:49Z</time></trkpt><trkpt lat="42.41443730497353" lon="14.086192010715848"><ele>149.75</ele><time>2026-04-18T15:46:50Z</time></trkpt><trkpt lat="42.41446406024034" lon="14.086039120356425"><ele>150.0</ele><time>2026-04-18T15:46:51Z</time></trkpt><trkpt lat="42.414495324677176" lon="14.085861425320141"><ele>149.25</ele><time>2026-04-18T15:46:52Z</time></trkpt><trkpt lat="42.4145282785669" lon="14.085674128085465"><ele>148.5</ele><time>2026-04-18T15:46:53Z</time></trkpt><trkpt lat="42.41456056366301" lon="14.08549063201139"><ele>147.75</ele><time>2026-04-18T15:46:54Z</time></trkpt><trkpt lat="42.41459265342916" lon="14.085308446342495"><ele>147.0</ele><time>2026-04-18T15:46:55Z</time></trkpt><trkpt lat="42.41462517121323" lon="14.085124302361539"><ele>145.75</ele><time>2026-04-18T15:46:56Z</time></trkpt><trkpt lat="42.41465839766064" lon="14.084936145311532"><ele>144.5</ele><time>2026-04-18T15:46:57Z</time></trkpt><trkpt lat="42.41469230466749" lon="14.084744134336063"><ele>143.25</ele><time>2026-04-18T15:46:58Z</time></trkpt><trkpt lat="42.4147267250044" lon="14.08454688320051"><ele>142.0</ele><time>2026-04-18T15:46:59Z</time></trkpt><trkpt lat="42.4147600769352" lon="14.084354330326187"><ele>142.0</ele><time>2026-04-18T15:47:00Z</time></trkpt><trkpt lat="42.414796098290005" lon="14.084159940738687"><ele>142.0</ele><time>2026-04-18T15:47:01Z</time></trkpt><trkpt lat="42.414831893822615" lon="14.083974293095174"><ele>142.0</ele><time>2026-04-18T15:47:02Z</time></trkpt><trkpt lat="42.41486580594567" lon="14.083792040958004"><ele>142.0</ele><time>2026-04-18T15:47:03Z</time></trkpt><trkpt lat="42.414894984337536" lon="14.083629362306697"><ele>143.4</ele><time>2026-04-18T15:47:04Z</time></trkpt><trkpt lat="42.41491985307432" lon="14.08347908088855"><ele>144.79999999999998</ele><time>2026-04-18T15:47:05Z</time></trkpt><trkpt lat="42.41492746453102" lon="14.08334258390231"><ele>146.2</ele><time>2026-04-18T15:47:06Z</time></trkpt><trkpt lat="42.41494494639845" lon="14.08323166170649"><ele>147.6</ele><time>2026-04-18T15:47:07Z</time></trkpt><trkpt lat="42.41495010454581" lon="14.08311679311904"><ele>149.0</ele><time>2026-04-18T15:47:08Z</time></trkpt><trkpt lat="42.414933972662496" lon="14.082998956943314"><ele>150.2</ele><time>2026-04-18T15:47:09Z</time></trkpt><trkpt lat="42.4148923629582" lon="14.082890896851668"><ele>151.4</ele><time>2026-04-18T15:47:10Z</time></trkpt><trkpt lat="42.41482286161202" lon="14.082787270589845"><ele>152.6</ele><time>2026-04-18T15:47:11Z</time></trkpt><trkpt lat="42.414731348328395" lon="14.082696863434695"><ele>153.8</ele><time>2026-04-18T15:47:12Z</time></trkpt><trkpt lat="42.41463096421978" lon="14.082614785752897"><ele>155.0</ele><time>2026-04-18T15:47:13Z</time></trkpt><trkpt lat="42.41453813962008" lon="14.082510944074473"><ele>157.0</ele><time>2026-04-18T15:47:14Z</time></trkpt><trkpt lat="42.41444182979935" lon="14.082407023299988"><ele>159.0</ele><time>2026-04-18T15:47:15Z</time></trkpt><trkpt lat="42.41434339015375" lon="14.082310005855758"><ele>161.0</ele><time>2026-04-18T15:47:16Z</time></trkpt><trkpt lat="42.41424156382471" lon="14.082201377487928"><ele>163.0</ele><time>2026-04-18T15:47:17Z</time></trkpt><trkpt lat="42.41415350329463" lon="14.082107622613492"><ele>163.0</ele><time>2026-04-18T15:47:18Z</time></trkpt><trkpt lat="42.41409220854693" lon="14.082014889621528"><ele>163.0</ele><time>2026-04-18T15:47:19Z</time></trkpt><trkpt lat="42.41403173216321" lon="14.08193154706689"><ele>163.0</ele><time>2026-04-18T15:47:20Z</time></trkpt><trkpt lat="42.41398955181178" lon="14.08184991583495"><ele>163.0</ele><time>2026-04-18T15:47:21Z</time></trkpt><trkpt lat="42.41393197892071" lon="14.081735970040537"><ele>163.0</ele><time>2026-04-18T15:47:22Z</time></trkpt><trkpt lat="42.41386395976278" lon="14.081623693609773"><ele>162.4</ele><time>2026-04-18T15:47:23Z</time></trkpt><trkpt lat="42.413796760867534" lon="14.081516122063274"><ele>161.8</ele><time>2026-04-18T15:47:24Z</time></trkpt><trkpt lat="42.41372751669122" lon="14.081405276443128"><ele>161.2</ele><time>2026-04-18T15:47:25Z</time></trkpt><trkpt lat="42.41365773485476" lon="14.081293570138712"><ele>160.6</ele><time>2026-04-18T15:47:26Z</time></trkpt><trkpt lat="42.413591935345345" lon="14.081188238720692"><ele>160.0</ele><time>2026-04-18T15:47:27Z</time></trkpt><trkpt lat="42.41353063876701" lon="14.081078114129362"><ele>160.0</ele><time>2026-04-18T15:47:28Z</time></trkpt><trkpt lat="42.41347480239679" lon="14.08096364482432"><ele>160.0</ele><time>2026-04-18T15:47:29Z</time></trkpt><trkpt lat="42.4134229773779" lon="14.080836881920177"><ele>160.0</ele><time>2026-04-18T15:47:30Z</time></trkpt><trkpt lat="42.41337806224521" lon="14.080697004481586"><ele>160.0</ele><time>2026-04-18T15:47:31Z</time></trkpt><trkpt lat="42.41334055456155" lon="14.080557674077065"><ele>160.0</ele><time>2026-04-18T15:47:32Z</time></trkpt><trkpt lat="42.413309708780645" lon="14.080410190873945"><ele>159.25</ele><time>2026-04-18T15:47:33Z</time></trkpt><trkpt lat="42.413283938706336" lon="14.080258853327873"><ele>158.5</ele><time>2026-04-18T15:47:34Z</time></trkpt><trkpt lat="42.413268503067094" lon="14.080102715957256"><ele>157.75</ele><time>2026-04-18T15:47:35Z</time></trkpt><trkpt lat="42.413251116736824" lon="14.079940102632692"><ele>157.0</ele><time>2026-04-18T15:47:36Z</time></trkpt><trkpt lat="42.41323264226599" lon="14.079781277497604"><ele>157.0</ele><time>2026-04-18T15:47:37Z</time></trkpt><trkpt lat="42.4132100508921" lon="14.079633156907512"><ele>157.0</ele><time>2026-04-18T15:47:38Z</time></trkpt><trkpt lat="42.413194467167195" lon="14.079494443672015"><ele>157.0</ele><time>2026-04-18T15:47:39Z</time></trkpt><trkpt lat="42.41320605404777" lon="14.079352565928916"><ele>157.0</ele><time>2026-04-18T15:47:40Z</time></trkpt><trkpt lat="42.413217730187306" lon="14.079210261078856"><ele>157.0</ele><time>2026-04-18T15:47:41Z</time></trkpt><trkpt lat="42.41323540121446" lon="14.079059085005134"><ele>157.0</ele><time>2026-04-18T15:47:42Z</time></trkpt><trkpt lat="42.41324724034036" lon="14.078904795828198"><ele>157.0</ele><time>2026-04-18T15:47:43Z</time></trkpt><trkpt lat="42.41328897870352" lon="14.078766092653504"><ele>157.0</ele><time>2026-04-18T15:47:44Z</time></trkpt><trkpt lat="42.41331510909034" lon="14.078626951440926"><ele>157.0</ele><time>2026-04-18T15:47:45Z</time></trkpt><trkpt lat="42.41332630001163" lon="14.078486496641167"><ele>157.0</ele><time>2026-04-18T15:47:46Z</time></trkpt><trkpt lat="42.41331961497297" lon="14.078332910503123"><ele>155.75</ele><time>2026-04-18T15:47:47Z</time></trkpt><trkpt lat="42.41327944786873" lon="14.078174694439918"><ele>154.5</ele><time>2026-04-18T15:47:48Z</time></trkpt><trkpt lat="42.41325171606999" lon="14.078007128838475"><ele>153.25</ele><time>2026-04-18T15:47:49Z</time></trkpt><trkpt lat="42.41321612731816" lon="14.077839052620712"><ele>152.0</ele><time>2026-04-18T15:47:50Z</time></trkpt><trkpt lat="42.413198827728664" lon="14.077672626105988"><ele>152.0</ele><time>2026-04-18T15:47:51Z</time></trkpt><trkpt lat="42.41315173883258" lon="14.077525104411167"><ele>152.0</ele><time>2026-04-18T15:47:52Z</time></trkpt><trkpt lat="42.41313069656088" lon="14.077373744459422"><ele>152.0</ele><time>2026-04-18T15:47:53Z</time></trkpt><trkpt lat="42.41310238500716" lon="14.077224218520042"><ele>152.0</ele><time>2026-04-18T15:47:54Z</time></trkpt><trkpt lat="42.41306950800156" lon="14.077080628152801"><ele>152.25</ele><time>2026-04-18T15:47:55Z</time></trkpt><trkpt lat="42.41303534656658" lon="14.076939110087842"><ele>152.5</ele><time>2026-04-18T15:47:56Z</time></trkpt><trkpt lat="42.412995926675706" lon="14.076793331112151"><ele>152.75</ele><time>2026-04-18T15:47:57Z</time></trkpt><trkpt lat="42.41297041945778" lon="14.076640319233416"><ele>153.0</ele><time>2026-04-18T15:47:58Z</time></trkpt><trkpt lat="42.412937966519635" lon="14.076491678721961"><ele>153.0</ele><time>2026-04-18T15:47:59Z</time></trkpt><trkpt lat="42.412907346218155" lon="14.07634636643588"><ele>153.0</ele><time>2026-04-18T15:48:00Z</time></trkpt><trkpt lat="42.412882300209105" lon="14.076213783321714"><ele>153.0</ele><time>2026-04-18T15:48:01Z</time></trkpt><trkpt lat="42.412860242571504" lon="14.076064175216942"><ele>153.0</ele><time>2026-04-18T15:48:02Z</time></trkpt><trkpt lat="42.41284330591914" lon="14.075882171798348"><ele>153.75</ele><time>2026-04-18T15:48:03.001Z</time></trkpt><trkpt lat="42.41284912957074" lon="14.075682615248782"><ele>154.5</ele><time>2026-04-18T15:48:04.001Z</time></trkpt><trkpt lat="42.41283823156627" lon="14.075504739083737"><ele>155.25</ele><time>2026-04-18T15:48:05.001Z</time></trkpt><trkpt lat="42.41282041094925" lon="14.075327916128078"><ele>156.0</ele><time>2026-04-18T15:48:06.001Z</time></trkpt><trkpt lat="42.41279937565615" lon="14.075153343511232"><ele>156.0</ele><time>2026-04-18T15:48:07.001Z</time></trkpt><trkpt lat="42.41277937888063" lon="14.074976337600337"><ele>156.0</ele><time>2026-04-18T15:48:08.001Z</time></trkpt><trkpt lat="42.41275728486538" lon="14.074806710966813"><ele>156.0</ele><time>2026-04-18T15:48:09.001Z</time></trkpt><trkpt lat="42.412734821313094" lon="14.074644963539317"><ele>156.0</ele><time>2026-04-18T15:48:10.001Z</time></trkpt><trkpt lat="42.41272172992618" lon="14.074481622931481"><ele>156.75</ele><time>2026-04-18T15:48:11.001Z</time></trkpt><trkpt lat="42.41269507910832" lon="14.074324806051411"><ele>157.5</ele><time>2026-04-18T15:48:12.001Z</time></trkpt><trkpt lat="42.41266506612393" lon="14.07417374133558"><ele>158.25</ele><time>2026-04-18T15:48:13.001Z</time></trkpt><trkpt lat="42.412655531525466" lon="14.074018778963845"><ele>159.0</ele><time>2026-04-18T15:48:14.001Z</time></trkpt><trkpt lat="42.412629959672564" lon="14.073866105077313"><ele>160.0</ele><time>2026-04-18T15:48:15.001Z</time></trkpt><trkpt lat="42.41260148642234" lon="14.073715466789386"><ele>161.0</ele><time>2026-04-18T15:48:16.001Z</time></trkpt><trkpt lat="42.41255429495329" lon="14.073569121844548"><ele>162.0</ele><time>2026-04-18T15:48:17.001Z</time></trkpt><trkpt lat="42.41250843171786" lon="14.07341812301407"><ele>163.0</ele><time>2026-04-18T15:48:18.001Z</time></trkpt><trkpt lat="42.41245166042795" lon="14.073272477239135"><ele>164.75</ele><time>2026-04-18T15:48:19.001Z</time></trkpt><trkpt lat="42.41240840533612" lon="14.073117220730026"><ele>166.5</ele><time>2026-04-18T15:48:20.001Z</time></trkpt><trkpt lat="42.41234315522136" lon="14.07295833565146"><ele>168.25</ele><time>2026-04-18T15:48:21.001Z</time></trkpt><trkpt lat="42.412271951016116" lon="14.072800518946062"><ele>170.0</ele><time>2026-04-18T15:48:22.001Z</time></trkpt><trkpt lat="42.41221295263473" lon="14.072640719782308"><ele>170.0</ele><time>2026-04-18T15:48:23.001Z</time></trkpt><trkpt lat="42.41218111796273" lon="14.07248661464462"><ele>170.0</ele><time>2026-04-18T15:48:24.001Z</time></trkpt><trkpt lat="42.41215113414259" lon="14.072360006658018"><ele>170.0</ele><time>2026-04-18T15:48:25.001Z</time></trkpt><trkpt lat="42.412128626361635" lon="14.072249527057481"><ele>170.0</ele><time>2026-04-18T15:48:26Z</time></trkpt><trkpt lat="42.41209901605801" lon="14.07216833619881"><ele>170.0</ele><time>2026-04-18T15:48:27Z</time></trkpt><trkpt lat="42.412100319182244" lon="14.072044210556443"><ele>170.2</ele><time>2026-04-18T15:48:29Z</time></trkpt><trkpt lat="42.41209459845078" lon="14.071868254324611"><ele>170.4</ele><time>2026-04-18T15:48:32Z</time></trkpt><trkpt lat="42.41201438887609" lon="14.071764561584066"><ele>170.60000000000002</ele><time>2026-04-18T15:48:33Z</time></trkpt><trkpt lat="42.41195590418602" lon="14.071671280170865"><ele>170.8</ele><time>2026-04-18T15:48:34Z</time></trkpt><trkpt lat="42.41188961969521" lon="14.07157182061705"><ele>171.0</ele><time>2026-04-18T15:48:35Z</time></trkpt><trkpt lat="42.41182223034097" lon="14.071463822489514"><ele>171.8</ele><time>2026-04-18T15:48:36Z</time></trkpt><trkpt lat="42.41175924584545" lon="14.07136747513455"><ele>172.60000000000002</ele><time>2026-04-18T15:48:37Z</time></trkpt><trkpt lat="42.41169505382316" lon="14.071271483283919"><ele>173.4</ele><time>2026-04-18T15:48:38Z</time></trkpt><trkpt lat="42.41161877334427" lon="14.07116850699556"><ele>174.2</ele><time>2026-04-18T15:48:39Z</time></trkpt><trkpt lat="42.41153364772916" lon="14.071066112634409"><ele>175.0</ele><time>2026-04-18T15:48:40Z</time></trkpt><trkpt lat="42.41144364943606" lon="14.070976680679726"><ele>175.0</ele><time>2026-04-18T15:48:41Z</time></trkpt><trkpt lat="42.41134673722628" lon="14.070884163860537"><ele>175.0</ele><time>2026-04-18T15:48:42Z</time></trkpt><trkpt lat="42.41123891503986" lon="14.07077718188717"><ele>175.0</ele><time>2026-04-18T15:48:43Z</time></trkpt><trkpt lat="42.41113030769035" lon="14.070670265724617"><ele>175.0</ele><time>2026-04-18T15:48:44Z</time></trkpt><trkpt lat="42.411030567768755" lon="14.07057093623573"><ele>174.75</ele><time>2026-04-18T15:48:45Z</time></trkpt><trkpt lat="42.410936188412265" lon="14.070473391239911"><ele>174.5</ele><time>2026-04-18T15:48:46Z</time></trkpt><trkpt lat="42.41084516119867" lon="14.07038230272775"><ele>174.25</ele><time>2026-04-18T15:48:47Z</time></trkpt><trkpt lat="42.41074994564981" lon="14.070295224019894"><ele>174.0</ele><time>2026-04-18T15:48:48Z</time></trkpt><trkpt lat="42.41065859625675" lon="14.070205002254234"><ele>174.0</ele><time>2026-04-18T15:48:49Z</time></trkpt><trkpt lat="42.41056491195575" lon="14.0701029638061"><ele>174.0</ele><time>2026-04-18T15:48:50Z</time></trkpt><trkpt lat="42.41046788212394" lon="14.069987127204111"><ele>174.0</ele><time>2026-04-18T15:48:51Z</time></trkpt><trkpt lat="42.410369697627495" lon="14.069855786904277"><ele>174.0</ele><time>2026-04-18T15:48:52Z</time></trkpt><trkpt lat="42.410270187090354" lon="14.069717906059905"><ele>173.0</ele><time>2026-04-18T15:48:53Z</time></trkpt><trkpt lat="42.41017936118138" lon="14.069558766974813"><ele>172.0</ele><time>2026-04-18T15:48:54Z</time></trkpt><trkpt lat="42.410075178045616" lon="14.069405335826602"><ele>171.0</ele><time>2026-04-18T15:48:55Z</time></trkpt><trkpt lat="42.40997380469281" lon="14.06925690081062"><ele>171.0</ele><time>2026-04-18T15:48:56Z</time></trkpt><trkpt lat="42.4098750631955" lon="14.06911184836871"><ele>171.0</ele><time>2026-04-18T15:48:57Z</time></trkpt><trkpt lat="42.409752596402804" lon="14.06896533321592"><ele>171.0</ele><time>2026-04-18T15:48:58Z</time></trkpt><trkpt lat="42.40964525234813" lon="14.068813243077846"><ele>172.25</ele><time>2026-04-18T15:48:59Z</time></trkpt><trkpt lat="42.409545031109815" lon="14.068664346331348"><ele>173.5</ele><time>2026-04-18T15:49:00Z</time></trkpt><trkpt lat="42.40944524110144" lon="14.068520316704776"><ele>174.75</ele><time>2026-04-18T15:49:01Z</time></trkpt><trkpt lat="42.40934441661238" lon="14.068367648967909"><ele>176.0</ele><time>2026-04-18T15:49:02Z</time></trkpt><trkpt lat="42.40924185794381" lon="14.068213488249459"><ele>177.25</ele><time>2026-04-18T15:49:03Z</time></trkpt><trkpt lat="42.40914320514731" lon="14.06806333446389"><ele>178.5</ele><time>2026-04-18T15:49:04Z</time></trkpt><trkpt lat="42.409049812516194" lon="14.06792289191171"><ele>179.75</ele><time>2026-04-18T15:49:05Z</time></trkpt><trkpt lat="42.40895471263758" lon="14.067771881847174"><ele>181.0</ele><time>2026-04-18T15:49:06Z</time></trkpt><trkpt lat="42.408862449913336" lon="14.067619427562596"><ele>180.0</ele><time>2026-04-18T15:49:07Z</time></trkpt><trkpt lat="42.40877173196486" lon="14.067463529474399"><ele>179.0</ele><time>2026-04-18T15:49:08Z</time></trkpt><trkpt lat="42.40869061143889" lon="14.06729885275367"><ele>178.0</ele><time>2026-04-18T15:49:09Z</time></trkpt><trkpt lat="42.40861766166565" lon="14.067143128017708"><ele>177.0</ele><time>2026-04-18T15:49:10Z</time></trkpt><trkpt lat="42.408548508723335" lon="14.06697882509882"><ele>177.0</ele><time>2026-04-18T15:49:11Z</time></trkpt><trkpt lat="42.40847618802272" lon="14.066805065174991"><ele>177.0</ele><time>2026-04-18T15:49:12Z</time></trkpt><trkpt lat="42.408404439617144" lon="14.066632702434115"><ele>177.0</ele><time>2026-04-18T15:49:13Z</time></trkpt><trkpt lat="42.40834099312822" lon="14.066468140815664"><ele>177.0</ele><time>2026-04-18T15:49:14Z</time></trkpt><trkpt lat="42.40827971680222" lon="14.066311004873956"><ele>177.25</ele><time>2026-04-18T15:49:15Z</time></trkpt><trkpt lat="42.408215874387345" lon="14.066158047913124"><ele>177.5</ele><time>2026-04-18T15:49:16Z</time></trkpt><trkpt lat="42.40814474128754" lon="14.066004420699805"><ele>177.75</ele><time>2026-04-18T15:49:17Z</time></trkpt><trkpt lat="42.40805896139595" lon="14.065855859750995"><ele>178.0</ele><time>2026-04-18T15:49:18Z</time></trkpt><trkpt lat="42.40795341041187" lon="14.065721411966493"><ele>179.0</ele><time>2026-04-18T15:49:19Z</time></trkpt><trkpt lat="42.40783216871964" lon="14.065597740105028"><ele>180.0</ele><time>2026-04-18T15:49:20Z</time></trkpt><trkpt lat="42.40770919145651" lon="14.065467709910644"><ele>181.0</ele><time>2026-04-18T15:49:21Z</time></trkpt><trkpt lat="42.40758068750012" lon="14.065343901838983"><ele>181.0</ele><time>2026-04-18T15:49:22Z</time></trkpt><trkpt lat="42.40745953397825" lon="14.06520638782574"><ele>181.0</ele><time>2026-04-18T15:49:23Z</time></trkpt><trkpt lat="42.40731782161801" lon="14.065098591367056"><ele>181.0</ele><time>2026-04-18T15:49:24Z</time></trkpt><trkpt lat="42.40719708330935" lon="14.064970035981613"><ele>183.33333333333334</ele><time>2026-04-18T15:49:25Z</time></trkpt><trkpt lat="42.40707675822976" lon="14.064848775274598"><ele>185.66666666666666</ele><time>2026-04-18T15:49:26Z</time></trkpt><trkpt lat="42.40695441600247" lon="14.064721661381256"><ele>188.0</ele><time>2026-04-18T15:49:27Z</time></trkpt><trkpt lat="42.40683365592285" lon="14.064575374962184"><ele>188.0</ele><time>2026-04-18T15:49:28Z</time></trkpt><trkpt lat="42.40672031126762" lon="14.064432753867923"><ele>188.0</ele><time>2026-04-18T15:49:29Z</time></trkpt><trkpt lat="42.406613154099745" lon="14.064297633306161"><ele>188.0</ele><time>2026-04-18T15:49:30Z</time></trkpt><trkpt lat="42.40650945841576" lon="14.064168745084157"><ele>188.0</ele><time>2026-04-18T15:49:31Z</time></trkpt><trkpt lat="42.406401404271286" lon="14.064036099994796"><ele>190.0</ele><time>2026-04-18T15:49:32Z</time></trkpt><trkpt lat="42.40628861026993" lon="14.063907045617524"><ele>192.0</ele><time>2026-04-18T15:49:33Z</time></trkpt><trkpt lat="42.40617051435147" lon="14.063771615360299"><ele>194.0</ele><time>2026-04-18T15:49:34Z</time></trkpt><trkpt lat="42.40604762476943" lon="14.063641679517387"><ele>194.0</ele><time>2026-04-18T15:49:35Z</time></trkpt><trkpt lat="42.40592083354911" lon="14.063512124818077"><ele>194.0</ele><time>2026-04-18T15:49:36Z</time></trkpt><trkpt lat="42.40580320692084" lon="14.063385231264101"><ele>194.0</ele><time>2026-04-18T15:49:37Z</time></trkpt><trkpt lat="42.40569826205024" lon="14.063248428381115"><ele>195.33333333333334</ele><time>2026-04-18T15:49:38Z</time></trkpt><trkpt lat="42.405591237414185" lon="14.063089604344267"><ele>196.66666666666669</ele><time>2026-04-18T15:49:39Z</time></trkpt><trkpt lat="42.40548789786455" lon="14.062917728559858"><ele>198.0</ele><time>2026-04-18T15:49:40Z</time></trkpt><trkpt lat="42.405380310168994" lon="14.062743394068747"><ele>198.33333333333331</ele><time>2026-04-18T15:49:41Z</time></trkpt><trkpt lat="42.40527309862368" lon="14.06256531868147"><ele>198.66666666666666</ele><time>2026-04-18T15:49:42Z</time></trkpt><trkpt lat="42.405170158700734" lon="14.062405773987958"><ele>199.0</ele><time>2026-04-18T15:49:43Z</time></trkpt><trkpt lat="42.40507188506397" lon="14.062245782941643"><ele>200.0</ele><time>2026-04-18T15:49:44Z</time></trkpt><trkpt lat="42.40497445299429" lon="14.062088175200346"><ele>201.0</ele><time>2026-04-18T15:49:45Z</time></trkpt><trkpt lat="42.40487578598954" lon="14.061912150153592"><ele>202.0</ele><time>2026-04-18T15:49:46Z</time></trkpt><trkpt lat="42.404776247302514" lon="14.061739618920365"><ele>202.0</ele><time>2026-04-18T15:49:47Z</time></trkpt><trkpt lat="42.40467364886489" lon="14.061570337130616"><ele>202.0</ele><time>2026-04-18T15:49:48Z</time></trkpt><trkpt lat="42.404571098251964" lon="14.061403408989246"><ele>202.0</ele><time>2026-04-18T15:49:49Z</time></trkpt><trkpt lat="42.40447277852763" lon="14.061229701066615"><ele>203.33333333333331</ele><time>2026-04-18T15:49:50Z</time></trkpt><trkpt lat="42.404381427057096" lon="14.061048805853332"><ele>204.66666666666669</ele><time>2026-04-18T15:49:51Z</time></trkpt><trkpt lat="42.40429817830593" lon="14.060853175887278"><ele>206.0</ele><time>2026-04-18T15:49:52Z</time></trkpt><trkpt lat="42.404227797351226" lon="14.060642697405864"><ele>207.0</ele><time>2026-04-18T15:49:53Z</time></trkpt><trkpt lat="42.40416322528523" lon="14.060422981410548"><ele>208.0</ele><time>2026-04-18T15:49:54Z</time></trkpt><trkpt lat="42.40409737112499" lon="14.060212360688062"><ele>209.0</ele><time>2026-04-18T15:49:55Z</time></trkpt><trkpt lat="42.40402846554704" lon="14.060008077816168"><ele>210.0</ele><time>2026-04-18T15:49:56Z</time></trkpt><trkpt lat="42.40396492557565" lon="14.059804759118954"><ele>211.0</ele><time>2026-04-18T15:49:57Z</time></trkpt><trkpt lat="42.40390825082094" lon="14.059612328399677"><ele>212.0</ele><time>2026-04-18T15:49:58Z</time></trkpt><trkpt lat="42.403849579562824" lon="14.059403582682748"><ele>211.66666666666669</ele><time>2026-04-18T15:49:59Z</time></trkpt><trkpt lat="42.40378736131414" lon="14.059208995837267"><ele>211.33333333333331</ele><time>2026-04-18T15:50:00Z</time></trkpt><trkpt lat="42.403726551908406" lon="14.059026167830849"><ele>211.0</ele><time>2026-04-18T15:50:01Z</time></trkpt><trkpt lat="42.40366743138897" lon="14.058833749934633"><ele>211.0</ele><time>2026-04-18T15:50:02Z</time></trkpt><trkpt lat="42.403612001416136" lon="14.058646314711028"><ele>211.0</ele><time>2026-04-18T15:50:03Z</time></trkpt><trkpt lat="42.40355453915462" lon="14.058459965058399"><ele>211.0</ele><time>2026-04-18T15:50:04Z</time></trkpt><trkpt lat="42.403489698369064" lon="14.058276812178017"><ele>211.0</ele><time>2026-04-18T15:50:05Z</time></trkpt><trkpt lat="42.403420397987894" lon="14.05810216301783"><ele>211.5</ele><time>2026-04-18T15:50:06Z</time></trkpt><trkpt lat="42.40335049662404" lon="14.057946541867276"><ele>212.0</ele><time>2026-04-18T15:50:07Z</time></trkpt><trkpt lat="42.40328276881338" lon="14.057791771162448"><ele>212.5</ele><time>2026-04-18T15:50:08Z</time></trkpt><trkpt lat="42.40324806884704" lon="14.057630265783091"><ele>213.0</ele><time>2026-04-18T15:50:09.001Z</time></trkpt><trkpt lat="42.40321153097856" lon="14.057480320486459"><ele>212.8</ele><time>2026-04-18T15:50:10.001Z</time></trkpt><trkpt lat="42.40318672747626" lon="14.057331293032705"><ele>212.60000000000002</ele><time>2026-04-18T15:50:11.001Z</time></trkpt><trkpt lat="42.403181406963604" lon="14.057200738264482"><ele>212.39999999999998</ele><time>2026-04-18T15:50:12.001Z</time></trkpt><trkpt lat="42.40318085393206" lon="14.057105953221178"><ele>212.2</ele><time>2026-04-18T15:50:13.001Z</time></trkpt><trkpt lat="42.40318294152939" lon="14.057008987590386"><ele>212.0</ele><time>2026-04-18T15:50:15.001Z</time></trkpt><trkpt lat="42.403047746995" lon="14.05700741621032"><ele>210.8</ele><time>2026-04-18T15:50:18.001Z</time></trkpt><trkpt lat="42.402971066472865" lon="14.05704249435516"><ele>209.6</ele><time>2026-04-18T15:50:20.001Z</time></trkpt><trkpt lat="42.4028637674029" lon="14.057067774779014"><ele>208.4</ele><time>2026-04-18T15:50:22.001Z</time></trkpt><trkpt lat="42.40274586688743" lon="14.057009968737908"><ele>207.20000000000002</ele><time>2026-04-18T15:50:24.001Z</time></trkpt><trkpt lat="42.40269801356175" lon="14.056948770400313"><ele>206.0</ele><time>2026-04-18T15:50:25.001Z</time></trkpt><trkpt lat="42.40265611525788" lon="14.056870137173998"><ele>206.00000000000003</ele><time>2026-04-18T15:50:26.001Z</time></trkpt><trkpt lat="42.40259266023578" lon="14.056787299597381"><ele>206.0</ele><time>2026-04-18T15:50:27.001Z</time></trkpt><trkpt lat="42.40254410547049" lon="14.056681248683756"><ele>206.0</ele><time>2026-04-18T15:50:28.001Z</time></trkpt><trkpt lat="42.40249548420467" lon="14.056575130860946"><ele>206.0</ele><time>2026-04-18T15:50:29.001Z</time></trkpt><trkpt lat="42.40245705513479" lon="14.056481735366969"><ele>206.00000000000003</ele><time>2026-04-18T15:50:30.001Z</time></trkpt><trkpt lat="42.40243244393459" lon="14.056364512477977"><ele>206.0</ele><time>2026-04-18T15:50:31.001Z</time></trkpt><trkpt lat="42.402402524497155" lon="14.056285652671384"><ele>205.66666666666669</ele><time>2026-04-18T15:50:32.001Z</time></trkpt><trkpt lat="42.402364632414624" lon="14.056191630477993"><ele>205.33333333333334</ele><time>2026-04-18T15:50:33.001Z</time></trkpt><trkpt lat="42.402324912724985" lon="14.056109538343017"><ele>205.0</ele><time>2026-04-18T15:50:34.001Z</time></trkpt><trkpt lat="42.40228036155236" lon="14.056020568235569"><ele>204.66666666666669</ele><time>2026-04-18T15:50:35.001Z</time></trkpt><trkpt lat="42.40221184573812" lon="14.055957000050888"><ele>204.33333333333334</ele><time>2026-04-18T15:50:36.001Z</time></trkpt><trkpt lat="42.40212930160725" lon="14.055860438103947"><ele>204.0</ele><time>2026-04-18T15:50:38.001Z</time></trkpt><trkpt lat="42.40204532537951" lon="14.055871159453105"><ele>204.0</ele><time>2026-04-18T15:50:40.001Z</time></trkpt><trkpt lat="42.402072584612164" lon="14.056098260195089"><ele>204.0</ele><time>2026-04-18T15:50:46Z</time></trkpt><trkpt lat="42.40211921308006" lon="14.056171820877058"><ele>204.0</ele><time>2026-04-18T15:50:47Z</time></trkpt><trkpt lat="42.40216425106126" lon="14.056241216703034"><ele>204.0</ele><time>2026-04-18T15:50:48Z</time></trkpt><trkpt lat="42.40220608265928" lon="14.05631038112712"><ele>204.0</ele><time>2026-04-18T15:50:49Z</time></trkpt><trkpt lat="42.40223254818352" lon="14.056390233838119"><ele>204.0</ele><time>2026-04-18T15:50:50Z</time></trkpt><trkpt lat="42.40224826553137" lon="14.056484638398803"><ele>204.33333333333334</ele><time>2026-04-18T15:50:51Z</time></trkpt><trkpt lat="42.40226198950119" lon="14.056581121200846"><ele>204.66666666666669</ele><time>2026-04-18T15:50:52Z</time></trkpt><trkpt lat="42.40228817196859" lon="14.056690034317082"><ele>205.0</ele><time>2026-04-18T15:50:53Z</time></trkpt><trkpt lat="42.40231891973987" lon="14.056800045483818"><ele>205.33333333333334</ele><time>2026-04-18T15:50:54Z</time></trkpt><trkpt lat="42.4023462711953" lon="14.056920024737003"><ele>205.66666666666669</ele><time>2026-04-18T15:50:55Z</time></trkpt><trkpt lat="42.402377885355236" lon="14.057052324342976"><ele>206.0</ele><time>2026-04-18T15:50:56Z</time></trkpt><trkpt lat="42.40240618562999" lon="14.057189314698405"><ele>206.0</ele><time>2026-04-18T15:50:57Z</time></trkpt><trkpt lat="42.40243689275866" lon="14.057326134318261"><ele>206.0</ele><time>2026-04-18T15:50:58Z</time></trkpt><trkpt lat="42.40246431989679" lon="14.05746127927335"><ele>206.0</ele><time>2026-04-18T15:50:59Z</time></trkpt><trkpt lat="42.40248876964722" lon="14.057607741778298"><ele>206.0</ele><time>2026-04-18T15:51:00Z</time></trkpt><trkpt lat="42.40251708759017" lon="14.057754886896534"><ele>206.0</ele><time>2026-04-18T15:51:01Z</time></trkpt><trkpt lat="42.402551110597614" lon="14.05790668729872"><ele>204.0</ele><time>2026-04-18T15:51:02Z</time></trkpt><trkpt lat="42.40257339536361" lon="14.058075561116524"><ele>202.0</ele><time>2026-04-18T15:51:03Z</time></trkpt><trkpt lat="42.40259573631847" lon="14.058249287230446"><ele>200.0</ele><time>2026-04-18T15:51:04Z</time></trkpt><trkpt lat="42.402602708800806" lon="14.05844296987859"><ele>198.0</ele><time>2026-04-18T15:51:06Z</time></trkpt><trkpt lat="42.40255953830233" lon="14.05858378689226"><ele>196.5</ele><time>2026-04-18T15:51:07Z</time></trkpt><trkpt lat="42.40252893529224" lon="14.058772864734044"><ele>195.0</ele><time>2026-04-18T15:51:08Z</time></trkpt><trkpt lat="42.402464360601556" lon="14.058891739110726"><ele>193.5</ele><time>2026-04-18T15:51:09Z</time></trkpt><trkpt lat="42.402384686083714" lon="14.058985925442766"><ele>192.0</ele><time>2026-04-18T15:51:10Z</time></trkpt><trkpt lat="42.40230841056328" lon="14.059072200386746"><ele>192.16666666666666</ele><time>2026-04-18T15:51:11Z</time></trkpt><trkpt lat="42.402241299615085" lon="14.059154522604425"><ele>192.33333333333331</ele><time>2026-04-18T15:51:12Z</time></trkpt><trkpt lat="42.40218034434207" lon="14.059239073430271"><ele>192.5</ele><time>2026-04-18T15:51:13Z</time></trkpt><trkpt lat="42.402122436825174" lon="14.059320117072627"><ele>192.66666666666666</ele><time>2026-04-18T15:51:14Z</time></trkpt><trkpt lat="42.40207444814948" lon="14.059393078359"><ele>192.83333333333331</ele><time>2026-04-18T15:51:15Z</time></trkpt><trkpt lat="42.402025662842455" lon="14.059449517558443"><ele>193.0</ele><time>2026-04-18T15:51:16Z</time></trkpt><trkpt lat="42.40197378524225" lon="14.059510628706732"><ele>189.0</ele><time>2026-04-18T15:51:18Z</time></trkpt><trkpt lat="42.40194244970832" lon="14.059593659261628"><ele>185.0</ele><time>2026-04-18T15:51:23Z</time></trkpt><trkpt lat="42.40208018456564" lon="14.059949762846102"><ele>181.0</ele><time>2026-04-18T15:51:26Z</time></trkpt><trkpt lat="42.40209827544619" lon="14.060091008164678"><ele>181.0</ele><time>2026-04-18T15:51:28Z</time></trkpt><trkpt lat="42.402126245325796" lon="14.060234753102689"><ele>181.0</ele><time>2026-04-18T15:51:30Z</time></trkpt><trkpt lat="42.40214793767988" lon="14.060358689573468"><ele>181.0</ele><time>2026-04-18T15:51:32Z</time></trkpt><trkpt lat="42.40217278661352" lon="14.06049811399501"><ele>181.0</ele><time>2026-04-18T15:51:34Z</time></trkpt><trkpt lat="42.402211260920666" lon="14.06063874279122"><ele>181.0</ele><time>2026-04-18T15:51:36Z</time></trkpt><trkpt lat="42.40225878649593" lon="14.060770073871385"><ele>180.8</ele><time>2026-04-18T15:51:38Z</time></trkpt><trkpt lat="42.40231093369975" lon="14.060905350366118"><ele>180.60000000000002</ele><time>2026-04-18T15:51:40Z</time></trkpt><trkpt lat="42.402363436112125" lon="14.06103931791455"><ele>180.4</ele><time>2026-04-18T15:51:42Z</time></trkpt><trkpt lat="42.4024092581984" lon="14.061168474257473"><ele>180.2</ele><time>2026-04-18T15:51:44Z</time></trkpt><trkpt lat="42.402452594255884" lon="14.06127068293659"><ele>180.0</ele><time>2026-04-18T15:51:46Z</time></trkpt><trkpt lat="42.40249024401402" lon="14.061350286132567"><ele>180.0</ele><time>2026-04-18T15:51:48Z</time></trkpt><trkpt lat="42.40251936535219" lon="14.061437310949302"><ele>180.0</ele><time>2026-04-18T15:51:50Z</time></trkpt><trkpt lat="42.40253802625202" lon="14.061593806333097"><ele>180.0</ele><time>2026-04-18T15:51:52Z</time></trkpt><trkpt lat="42.40254158755446" lon="14.061680426951892"><ele>180.0</ele><time>2026-04-18T15:51:53Z</time></trkpt><trkpt lat="42.402569782151595" lon="14.061806407431437"><ele>180.0</ele><time>2026-04-18T15:51:54Z</time></trkpt><trkpt lat="42.402580774019725" lon="14.061893797883819"><ele>180.0</ele><time>2026-04-18T15:51:55Z</time></trkpt><trkpt lat="42.40259252412531" lon="14.062050231152437"><ele>177.33333333333334</ele><time>2026-04-18T15:51:57Z</time></trkpt><trkpt lat="42.402608349760726" lon="14.062141319558384"><ele>174.66666666666666</ele><time>2026-04-18T15:51:58Z</time></trkpt><trkpt lat="42.40266288839448" lon="14.062305436066985"><ele>172.0</ele><time>2026-04-18T15:52:00Z</time></trkpt><trkpt lat="42.402688807433044" lon="14.062385881456633"><ele>169.33333333333331</ele><time>2026-04-18T15:52:01Z</time></trkpt><trkpt lat="42.40270912092861" lon="14.062466782503302"><ele>166.66666666666666</ele><time>2026-04-18T15:52:02Z</time></trkpt><trkpt lat="42.40272852706905" lon="14.062552595366993"><ele>164.0</ele><time>2026-04-18T15:52:03Z</time></trkpt><trkpt lat="42.40275960453537" lon="14.062712694325167"><ele>161.0</ele><time>2026-04-18T15:52:05Z</time></trkpt><trkpt lat="42.40278009674753" lon="14.062869346668416"><ele>158.0</ele><time>2026-04-18T15:52:07Z</time></trkpt><trkpt lat="42.402811515832106" lon="14.06302889444221"><ele>155.0</ele><time>2026-04-18T15:52:09Z</time></trkpt><trkpt lat="42.402852881357035" lon="14.063174834902522"><ele>152.0</ele><time>2026-04-18T15:52:11Z</time></trkpt><trkpt lat="42.402871703857436" lon="14.06327397425799"><ele>149.0</ele><time>2026-04-18T15:52:12Z</time></trkpt><trkpt lat="42.402896196570644" lon="14.06337378576182"><ele>149.5</ele><time>2026-04-18T15:52:13Z</time></trkpt><trkpt lat="42.40292590862633" lon="14.063462487201177"><ele>150.0</ele><time>2026-04-18T15:52:14Z</time></trkpt><trkpt lat="42.402958477639416" lon="14.063552302314797"><ele>150.5</ele><time>2026-04-18T15:52:15.001Z</time></trkpt><trkpt lat="42.40299808849992" lon="14.063630827812732"><ele>151.0</ele><time>2026-04-18T15:52:16.001Z</time></trkpt><trkpt lat="42.40303108061232" lon="14.063704492817976"><ele>151.5</ele><time>2026-04-18T15:52:17.001Z</time></trkpt><trkpt lat="42.403098318551066" lon="14.063847542797955"><ele>152.0</ele><time>2026-04-18T15:52:19.001Z</time></trkpt><trkpt lat="42.403151278731755" lon="14.063962230965673"><ele>152.0</ele><time>2026-04-18T15:52:21.001Z</time></trkpt><trkpt lat="42.40320704032839" lon="14.064066941349605"><ele>152.0</ele><time>2026-04-18T15:52:23.001Z</time></trkpt><trkpt lat="42.40327385494308" lon="14.064191803877746"><ele>152.0</ele><time>2026-04-18T15:52:25.001Z</time></trkpt><trkpt lat="42.40334578635891" lon="14.06431509598982"><ele>152.0</ele><time>2026-04-18T15:52:27.001Z</time></trkpt><trkpt lat="42.40342109973396" lon="14.06443621213744"><ele>152.0</ele><time>2026-04-18T15:52:29.001Z</time></trkpt><trkpt lat="42.4034665077685" lon="14.064573164859599"><ele>148.4</ele><time>2026-04-18T15:52:31.001Z</time></trkpt><trkpt lat="42.403485209258385" lon="14.064654815029186"><ele>144.79999999999998</ele><time>2026-04-18T15:52:32.001Z</time></trkpt><trkpt lat="42.4035332698818" lon="14.064800278729114"><ele>141.2</ele><time>2026-04-18T15:52:34.001Z</time></trkpt><trkpt lat="42.403585413420956" lon="14.064921756325765"><ele>137.6</ele><time>2026-04-18T15:52:36.001Z</time></trkpt><trkpt lat="42.403637819144066" lon="14.065039923302818"><ele>134.0</ele><time>2026-04-18T15:52:38.001Z</time></trkpt><trkpt lat="42.40368000113191" lon="14.065192391905521"><ele>134.4</ele><time>2026-04-18T15:52:40.001Z</time></trkpt><trkpt lat="42.40373338586947" lon="14.065339162990798"><ele>134.8</ele><time>2026-04-18T15:52:42.001Z</time></trkpt><trkpt lat="42.40378727770682" lon="14.065490975913614"><ele>135.2</ele><time>2026-04-18T15:52:44.001Z</time></trkpt><trkpt lat="42.40383594356218" lon="14.06564287524685"><ele>135.6</ele><time>2026-04-18T15:52:46.001Z</time></trkpt><trkpt lat="42.40386506642147" lon="14.065719110015637"><ele>136.0</ele><time>2026-04-18T15:52:47.001Z</time></trkpt><trkpt lat="42.403895471373005" lon="14.065796466053811"><ele>133.83333333333334</ele><time>2026-04-18T15:52:48.001Z</time></trkpt><trkpt lat="42.403925397847736" lon="14.06587508497039"><ele>131.66666666666669</ele><time>2026-04-18T15:52:49.001Z</time></trkpt><trkpt lat="42.40396085493616" lon="14.065950298239835"><ele>129.5</ele><time>2026-04-18T15:52:50.001Z</time></trkpt><trkpt lat="42.40401670055857" lon="14.066110183733816"><ele>127.33333333333334</ele><time>2026-04-18T15:52:52.001Z</time></trkpt><trkpt lat="42.404057338791404" lon="14.066198222748133"><ele>125.16666666666667</ele><time>2026-04-18T15:52:53.001Z</time></trkpt><trkpt lat="42.40409934496776" lon="14.066286006989051"><ele>123.0</ele><time>2026-04-18T15:52:54.001Z</time></trkpt><trkpt lat="42.404138152272566" lon="14.066382237947282"><ele>123.0</ele><time>2026-04-18T15:52:55.001Z</time></trkpt><trkpt lat="42.4041734310916" lon="14.066473106123768"><ele>123.0</ele><time>2026-04-18T15:52:56.001Z</time></trkpt><trkpt lat="42.40418677446249" lon="14.066571268885825"><ele>123.0</ele><time>2026-04-18T15:52:57.001Z</time></trkpt><trkpt lat="42.404209387411484" lon="14.066655714524604"><ele>123.0</ele><time>2026-04-18T15:52:58.001Z</time></trkpt><trkpt lat="42.40421711332279" lon="14.066811371154472"><ele>123.0</ele><time>2026-04-18T15:53:00Z</time></trkpt><trkpt lat="42.40423998922237" lon="14.066953487947146"><ele>123.0</ele><time>2026-04-18T15:53:02Z</time></trkpt><trkpt lat="42.404252294090085" lon="14.067040451114735"><ele>120.5</ele><time>2026-04-18T15:53:03Z</time></trkpt><trkpt lat="42.404274877871586" lon="14.067201632293521"><ele>118.0</ele><time>2026-04-18T15:53:05Z</time></trkpt><trkpt lat="42.40431395447305" lon="14.067355725905902"><ele>115.5</ele><time>2026-04-18T15:53:07Z</time></trkpt><trkpt lat="42.40435200988714" lon="14.067507841076848"><ele>113.0</ele><time>2026-04-18T15:53:09Z</time></trkpt><trkpt lat="42.40439642557583" lon="14.067650446147093"><ele>111.80000000000001</ele><time>2026-04-18T15:53:10.999Z</time></trkpt><trkpt lat="42.40442784149271" lon="14.067786227558507"><ele>110.60000000000001</ele><time>2026-04-18T15:53:12.999Z</time></trkpt><trkpt lat="42.40445319992166" lon="14.0679518561697"><ele>109.39999999999999</ele><time>2026-04-18T15:53:14.999Z</time></trkpt><trkpt lat="42.40447477608877" lon="14.068113602352229"><ele>108.19999999999999</ele><time>2026-04-18T15:53:16.999Z</time></trkpt><trkpt lat="42.40448663905955" lon="14.068204309887966"><ele>107.0</ele><time>2026-04-18T15:53:17.999Z</time></trkpt><trkpt lat="42.404498735326044" lon="14.06829869487281"><ele>106.0</ele><time>2026-04-18T15:53:18.999Z</time></trkpt><trkpt lat="42.404511573886886" lon="14.068384740184465"><ele>104.99999999999999</ele><time>2026-04-18T15:53:19.999Z</time></trkpt><trkpt lat="42.40453071658136" lon="14.06854071484127"><ele>104.0</ele><time>2026-04-18T15:53:21.999Z</time></trkpt><trkpt lat="42.40454325860371" lon="14.068683384362979"><ele>103.0</ele><time>2026-04-18T15:53:23.999Z</time></trkpt><trkpt lat="42.4045645081574" lon="14.068832890557324"><ele>102.0</ele><time>2026-04-18T15:53:25.999Z</time></trkpt><trkpt lat="42.40454605197797" lon="14.068988306588809"><ele>102.0</ele><time>2026-04-18T15:53:27.999Z</time></trkpt><trkpt lat="42.40453859157235" lon="14.06907532488215"><ele>102.0</ele><time>2026-04-18T15:53:28.999Z</time></trkpt><trkpt lat="42.404524828692615" lon="14.069216439974902"><ele>102.0</ele><time>2026-04-18T15:53:30.999Z</time></trkpt><trkpt lat="42.404518779766946" lon="14.069351850059313"><ele>102.0</ele><time>2026-04-18T15:53:32.999Z</time></trkpt><trkpt lat="42.40451768819267" lon="14.069497864312376"><ele>102.0</ele><time>2026-04-18T15:53:34.999Z</time></trkpt><trkpt lat="42.404525367314534" lon="14.06964551273072"><ele>102.0</ele><time>2026-04-18T15:53:36.999Z</time></trkpt><trkpt lat="42.40453769772699" lon="14.069791588145687"><ele>102.0</ele><time>2026-04-18T15:53:38.999Z</time></trkpt><trkpt lat="42.40454967237038" lon="14.069933532730564"><ele>102.0</ele><time>2026-04-18T15:53:40.999Z</time></trkpt><trkpt lat="42.404562445900154" lon="14.070069529411784"><ele>102.0</ele><time>2026-04-18T15:53:42.999Z</time></trkpt><trkpt lat="42.40456076153891" lon="14.070200251440381"><ele>102.0</ele><time>2026-04-18T15:53:44.999Z</time></trkpt><trkpt lat="42.404547140743965" lon="14.070314416568847"><ele>102.0</ele><time>2026-04-18T15:53:46.999Z</time></trkpt><trkpt lat="42.40450156494465" lon="14.070430101036983"><ele>102.0</ele><time>2026-04-18T15:53:48.999Z</time></trkpt><trkpt lat="42.40446561183892" lon="14.07054381511107"><ele>102.0</ele><time>2026-04-18T15:53:50.999Z</time></trkpt><trkpt lat="42.40442869454208" lon="14.070669410620797"><ele>102.0</ele><time>2026-04-18T15:53:52.999Z</time></trkpt><trkpt lat="42.404393974074836" lon="14.070791148399259"><ele>102.0</ele><time>2026-04-18T15:53:54.999Z</time></trkpt><trkpt lat="42.40435800691141" lon="14.070908611577636"><ele>101.19999999999999</ele><time>2026-04-18T15:53:56.999Z</time></trkpt><trkpt lat="42.40432715349918" lon="14.071030458772222"><ele>100.4</ele><time>2026-04-18T15:53:58.999Z</time></trkpt><trkpt lat="42.40429766562476" lon="14.07114595975258"><ele>99.6</ele><time>2026-04-18T15:54:00.999Z</time></trkpt><trkpt lat="42.40427532963721" lon="14.071257640165385"><ele>98.80000000000001</ele><time>2026-04-18T15:54:02.999Z</time></trkpt><trkpt lat="42.404238561381604" lon="14.071377498955872"><ele>98.0</ele><time>2026-04-18T15:54:04.999Z</time></trkpt><trkpt lat="42.404212485014334" lon="14.07149383439915"><ele>98.0</ele><time>2026-04-18T15:54:06.999Z</time></trkpt><trkpt lat="42.4041792789776" lon="14.071605020495644"><ele>98.0</ele><time>2026-04-18T15:54:08.999Z</time></trkpt><trkpt lat="42.404146274803374" lon="14.071705175603274"><ele>98.0</ele><time>2026-04-18T15:54:10.999Z</time></trkpt><trkpt lat="42.40411612891298" lon="14.071827862446288"><ele>98.0</ele><time>2026-04-18T15:54:12.999Z</time></trkpt><trkpt lat="42.404087371223426" lon="14.071965895003107"><ele>98.0</ele><time>2026-04-18T15:54:14.999Z</time></trkpt><trkpt lat="42.40405288579517" lon="14.072081376967429"><ele>96.99999999999999</ele><time>2026-04-18T15:54:16.999Z</time></trkpt><trkpt lat="42.404010204619325" lon="14.07217926700014"><ele>96.0</ele><time>2026-04-18T15:54:18.999Z</time></trkpt><trkpt lat="42.40396396841003" lon="14.072274494934163"><ele>95.0</ele><time>2026-04-18T15:54:28Z</time></trkpt><trkpt lat="42.403928839766806" lon="14.072396131503146"><ele>94.0</ele><time>2026-04-18T15:54:31Z</time></trkpt><trkpt lat="42.403903120338384" lon="14.072495892728034"><ele>93.0</ele><time>2026-04-18T15:54:33Z</time></trkpt><trkpt lat="42.40387415687662" lon="14.072598536534992"><ele>92.0</ele><time>2026-04-18T15:54:35Z</time></trkpt><trkpt lat="42.40383202516572" lon="14.072740926720014"><ele>92.0</ele><time>2026-04-18T15:54:37Z</time></trkpt><trkpt lat="42.403783294245514" lon="14.07288423966096"><ele>92.0</ele><time>2026-04-18T15:54:39Z</time></trkpt><trkpt lat="42.40373797173852" lon="14.073019431720525"><ele>92.0</ele><time>2026-04-18T15:54:41Z</time></trkpt><trkpt lat="42.40369801055393" lon="14.073159107986443"><ele>92.0</ele><time>2026-04-18T15:54:43Z</time></trkpt><trkpt lat="42.40364371300511" lon="14.073308105258628"><ele>92.0</ele><time>2026-04-18T15:54:45Z</time></trkpt><trkpt lat="42.40360073402116" lon="14.073442853844469"><ele>92.0</ele><time>2026-04-18T15:54:47Z</time></trkpt><trkpt lat="42.4035574351004" lon="14.073598297278377"><ele>92.0</ele><time>2026-04-18T15:54:49Z</time></trkpt><trkpt lat="42.40351506118866" lon="14.073740985464337"><ele>92.0</ele><time>2026-04-18T15:54:51Z</time></trkpt><trkpt lat="42.40347129109355" lon="14.073902428478638"><ele>92.0</ele><time>2026-04-18T15:54:53Z</time></trkpt><trkpt lat="42.40343743341333" lon="14.074052959657134"><ele>92.0</ele><time>2026-04-18T15:54:55Z</time></trkpt><trkpt lat="42.403408283035304" lon="14.074206872876143"><ele>92.0</ele><time>2026-04-18T15:54:57Z</time></trkpt><trkpt lat="42.40338443065403" lon="14.074365788022545"><ele>92.0</ele><time>2026-04-18T15:54:59Z</time></trkpt><trkpt lat="42.403350500080315" lon="14.074521849702306"><ele>90.6</ele><time>2026-04-18T15:55:01Z</time></trkpt><trkpt lat="42.403311830025" lon="14.0746591890023"><ele>89.19999999999999</ele><time>2026-04-18T15:55:03Z</time></trkpt><trkpt lat="42.40326928648587" lon="14.074787450293016"><ele>87.8</ele><time>2026-04-18T15:55:05Z</time></trkpt><trkpt lat="42.40322914229128" lon="14.07485915811743"><ele>86.4</ele><time>2026-04-18T15:55:22.999Z</time></trkpt><trkpt lat="42.4031181741066" lon="14.074837020678869"><ele>85.0</ele><time>2026-04-18T15:55:24.999Z</time></trkpt><trkpt lat="42.40303889585384" lon="14.07486926273897"><ele>86.33333333333333</ele><time>2026-04-18T15:55:25.999Z</time></trkpt><trkpt lat="42.40294727347143" lon="14.07487632712132"><ele>87.66666666666666</ele><time>2026-04-18T15:55:26.999Z</time></trkpt><trkpt lat="42.402867214726186" lon="14.074893417935387"><ele>89.0</ele><time>2026-04-18T15:55:27.999Z</time></trkpt><trkpt lat="42.40278166482787" lon="14.074911767491004"><ele>90.33333333333333</ele><time>2026-04-18T15:55:28.999Z</time></trkpt><trkpt lat="42.402715415591715" lon="14.0749439899415"><ele>91.66666666666667</ele><time>2026-04-18T15:55:29.999Z</time></trkpt><trkpt lat="42.40262865696691" lon="14.074958677739799"><ele>93.0</ele><time>2026-04-18T15:55:30.999Z</time></trkpt><trkpt lat="42.40255552851108" lon="14.074966514297"><ele>93.0</ele><time>2026-04-18T15:55:31.999Z</time></trkpt><trkpt lat="42.40246871386782" lon="14.07496357267819"><ele>93.0</ele><time>2026-04-18T15:55:33.999Z</time></trkpt><trkpt lat="42.40243556224" lon="14.074886652947235"><ele>93.0</ele><time>2026-04-18T15:55:36.999Z</time></trkpt><trkpt lat="42.40239159277913" lon="14.074815178305617"><ele>93.0</ele><time>2026-04-18T15:58:13.999Z</time></trkpt><trkpt lat="42.40238775925031" lon="14.074908381800126"><ele>93.0</ele><time>2026-04-18T15:58:35.999Z</time></trkpt><trkpt lat="42.402345501966664" lon="14.0748174429975"><ele>93.0</ele><time>2026-04-18T15:59:59.999Z</time></trkpt><trkpt lat="42.402257748665384" lon="14.07475942156587"><ele>92.0</ele><time>2026-04-18T16:00:01.999Z</time></trkpt><trkpt lat="42.4021424447069" lon="14.074734946609945"><ele>91.0</ele><time>2026-04-18T16:00:03.999Z</time></trkpt><trkpt lat="42.402036102520704" lon="14.0747720723623"><ele>90.0</ele><time>2026-04-18T16:00:05.999Z</time></trkpt><trkpt lat="42.401977718292834" lon="14.074909483376281"><ele>89.0</ele><time>2026-04-18T16:00:07.999Z</time></trkpt><trkpt lat="42.40197678286528" lon="14.075003020815982"><ele>88.0</ele><time>2026-04-18T16:00:08.999Z</time></trkpt><trkpt lat="42.401993357215986" lon="14.075117432261209"><ele>88.0</ele><time>2026-04-18T16:00:09.999Z</time></trkpt><trkpt lat="42.402028803834376" lon="14.07526328823529"><ele>88.0</ele><time>2026-04-18T16:00:10.999Z</time></trkpt><trkpt lat="42.40208189496087" lon="14.075419711784615"><ele>88.0</ele><time>2026-04-18T16:00:11.999Z</time></trkpt><trkpt lat="42.40213308770404" lon="14.075564785253537"><ele>88.0</ele><time>2026-04-18T16:00:12.999Z</time></trkpt><trkpt lat="42.40218385295044" lon="14.07569825885844"><ele>87.33333333333333</ele><time>2026-04-18T16:00:13.999Z</time></trkpt><trkpt lat="42.40223017866003" lon="14.075815753425202"><ele>86.66666666666666</ele><time>2026-04-18T16:00:14.999Z</time></trkpt><trkpt lat="42.40227660916799" lon="14.075919197618582"><ele>86.0</ele><time>2026-04-18T16:00:15.999Z</time></trkpt><trkpt lat="42.40232029100916" lon="14.076012684810767"><ele>85.33333333333333</ele><time>2026-04-18T16:00:16.999Z</time></trkpt><trkpt lat="42.40235472645838" lon="14.076102988889287"><ele>84.66666666666667</ele><time>2026-04-18T16:00:17.999Z</time></trkpt><trkpt lat="42.40239396774848" lon="14.076196993614364"><ele>84.0</ele><time>2026-04-18T16:00:18.999Z</time></trkpt><trkpt lat="42.40242332908769" lon="14.076302451367148"><ele>84.0</ele><time>2026-04-18T16:00:19.999Z</time></trkpt><trkpt lat="42.40244522983583" lon="14.076405779924778"><ele>84.0</ele><time>2026-04-18T16:00:20.999Z</time></trkpt><trkpt lat="42.40246250594463" lon="14.076505701129621"><ele>84.0</ele><time>2026-04-18T16:00:21.999Z</time></trkpt><trkpt lat="42.40245975397039" lon="14.076625924008386"><ele>84.0</ele><time>2026-04-18T16:00:22.999Z</time></trkpt><trkpt lat="42.40243982440854" lon="14.076728789770176"><ele>84.0</ele><time>2026-04-18T16:00:23.999Z</time></trkpt><trkpt lat="42.402405068669815" lon="14.076827665102192"><ele>84.0</ele><time>2026-04-18T16:00:24.999Z</time></trkpt><trkpt lat="42.4023535615137" lon="14.076910709752491"><ele>82.4</ele><time>2026-04-18T16:00:25.999Z</time></trkpt><trkpt lat="42.40228897553742" lon="14.076983432885466"><ele>80.80000000000001</ele><time>2026-04-18T16:00:26.999Z</time></trkpt><trkpt lat="42.40221415387355" lon="14.077061622755885"><ele>79.19999999999999</ele><time>2026-04-18T16:00:27.999Z</time></trkpt><trkpt lat="42.40212973352531" lon="14.077133698937425"><ele>77.6</ele><time>2026-04-18T16:00:28.999Z</time></trkpt><trkpt lat="42.402042360923666" lon="14.077207658486568"><ele>76.0</ele><time>2026-04-18T16:00:29.999Z</time></trkpt><trkpt lat="42.40196263185789" lon="14.077277658744814"><ele>76.0</ele><time>2026-04-18T16:00:30.999Z</time></trkpt><trkpt lat="42.40190333090018" lon="14.077348906593038"><ele>76.0</ele><time>2026-04-18T16:00:31.999Z</time></trkpt><trkpt lat="42.401861993104546" lon="14.077441893443446"><ele>76.0</ele><time>2026-04-18T16:00:32.999Z</time></trkpt><trkpt lat="42.40184683944075" lon="14.077552737637683"><ele>76.0</ele><time>2026-04-18T16:00:33.999Z</time></trkpt><trkpt lat="42.4018384905153" lon="14.077687973449477"><ele>76.0</ele><time>2026-04-18T16:00:34.999Z</time></trkpt><trkpt lat="42.401850885196055" lon="14.077822496625512"><ele>76.0</ele><time>2026-04-18T16:00:35.999Z</time></trkpt><trkpt lat="42.401878412073316" lon="14.077970887366964"><ele>77.25</ele><time>2026-04-18T16:00:36.999Z</time></trkpt><trkpt lat="42.401904335917195" lon="14.078135409734012"><ele>78.5</ele><time>2026-04-18T16:00:37.999Z</time></trkpt><trkpt lat="42.40192854180185" lon="14.07831306761692"><ele>79.75</ele><time>2026-04-18T16:00:38.999Z</time></trkpt><trkpt lat="42.40195117577159" lon="14.078493599037042"><ele>81.0</ele><time>2026-04-18T16:00:39.999Z</time></trkpt><trkpt lat="42.401977314592315" lon="14.078684785423777"><ele>82.25</ele><time>2026-04-18T16:00:40.999Z</time></trkpt><trkpt lat="42.40200760652536" lon="14.078881456577466"><ele>83.5</ele><time>2026-04-18T16:00:41.999Z</time></trkpt><trkpt lat="42.40203496436829" lon="14.079062234632866"><ele>84.75</ele><time>2026-04-18T16:00:42.999Z</time></trkpt><trkpt lat="42.402068251641026" lon="14.079237009495884"><ele>86.0</ele><time>2026-04-18T16:00:43.999Z</time></trkpt><trkpt lat="42.40212122591458" lon="14.079431900602808"><ele>86.0</ele><time>2026-04-18T16:00:44.999Z</time></trkpt><trkpt lat="42.402176547410974" lon="14.079654289479855"><ele>86.0</ele><time>2026-04-18T16:00:45.999Z</time></trkpt><trkpt lat="42.40222890807051" lon="14.079888386844377"><ele>86.0</ele><time>2026-04-18T16:00:46.999Z</time></trkpt><trkpt lat="42.40227784203396" lon="14.080089046540028"><ele>86.0</ele><time>2026-04-18T16:00:47.999Z</time></trkpt><trkpt lat="42.40232613550344" lon="14.080267780667695"><ele>86.0</ele><time>2026-04-18T16:00:48.999Z</time></trkpt><trkpt lat="42.40236982602022" lon="14.080437024415938"><ele>86.0</ele><time>2026-04-18T16:00:49.999Z</time></trkpt><trkpt lat="42.40240212966303" lon="14.080601422646597"><ele>86.0</ele><time>2026-04-18T16:00:50.999Z</time></trkpt><trkpt lat="42.402393417716816" lon="14.080772288221345"><ele>87.25</ele><time>2026-04-18T16:00:51.999Z</time></trkpt><trkpt lat="42.40236538646331" lon="14.080943901099186"><ele>88.5</ele><time>2026-04-18T16:00:52.999Z</time></trkpt><trkpt lat="42.4023173192159" lon="14.081127072191606"><ele>89.75</ele><time>2026-04-18T16:00:53.999Z</time></trkpt><trkpt lat="42.40226171271698" lon="14.081319934129889"><ele>91.0</ele><time>2026-04-18T16:00:54.999Z</time></trkpt><trkpt lat="42.40218631175189" lon="14.081507888622967"><ele>97.66666666666666</ele><time>2026-04-18T16:00:55.999Z</time></trkpt><trkpt lat="42.402106676432034" lon="14.081690952830913"><ele>104.33333333333333</ele><time>2026-04-18T16:00:56.999Z</time></trkpt><trkpt lat="42.40200105636469" lon="14.081864149900843"><ele>111.0</ele><time>2026-04-18T16:00:57.999Z</time></trkpt><trkpt lat="42.401910722188816" lon="14.082057375491285"><ele>111.0</ele><time>2026-04-18T16:00:58.999Z</time></trkpt><trkpt lat="42.40179977282171" lon="14.082238575560709"><ele>111.0</ele><time>2026-04-18T16:00:59.999Z</time></trkpt><trkpt lat="42.40169505852187" lon="14.082416242523873"><ele>111.0</ele><time>2026-04-18T16:01:00.999Z</time></trkpt><trkpt lat="42.40160888394513" lon="14.082574623037289"><ele>109.25</ele><time>2026-04-18T16:01:01.999Z</time></trkpt><trkpt lat="42.40153606108429" lon="14.082713137340372"><ele>107.5</ele><time>2026-04-18T16:01:02.999Z</time></trkpt><trkpt lat="42.40146724852143" lon="14.082848692720642"><ele>105.75</ele><time>2026-04-18T16:01:03.999Z</time></trkpt><trkpt lat="42.401405317152346" lon="14.082982033992309"><ele>104.0</ele><time>2026-04-18T16:01:04.999Z</time></trkpt><trkpt lat="42.40134163290674" lon="14.08311741698158"><ele>108.25</ele><time>2026-04-18T16:01:05.999Z</time></trkpt><trkpt lat="42.40127652182482" lon="14.083266991798423"><ele>112.5</ele><time>2026-04-18T16:01:06.999Z</time></trkpt><trkpt lat="42.40121029273961" lon="14.083429876535824"><ele>116.75</ele><time>2026-04-18T16:01:07.999Z</time></trkpt><trkpt lat="42.40114283801019" lon="14.083582603555303"><ele>121.0</ele><time>2026-04-18T16:01:08.999Z</time></trkpt><trkpt lat="42.40108298984466" lon="14.083727421860637"><ele>121.0</ele><time>2026-04-18T16:01:09.999Z</time></trkpt><trkpt lat="42.4009949162508" lon="14.083855220257025"><ele>121.0</ele><time>2026-04-18T16:01:10.999Z</time></trkpt><trkpt lat="42.400905185066684" lon="14.083996310190619"><ele>121.0</ele><time>2026-04-18T16:01:11.999Z</time></trkpt><trkpt lat="42.400815700578505" lon="14.084146161212876"><ele>121.0</ele><time>2026-04-18T16:01:12.999Z</time></trkpt><trkpt lat="42.400721419836906" lon="14.084270943602055"><ele>119.75</ele><time>2026-04-18T16:01:13.999Z</time></trkpt><trkpt lat="42.40062771393676" lon="14.08439293887117"><ele>118.5</ele><time>2026-04-18T16:01:14.999Z</time></trkpt><trkpt lat="42.400552164078476" lon="14.08454416141255"><ele>117.25</ele><time>2026-04-18T16:01:15.999Z</time></trkpt><trkpt lat="42.40047529657045" lon="14.084700717299846"><ele>116.0</ele><time>2026-04-18T16:01:16.999Z</time></trkpt><trkpt lat="42.40040889402383" lon="14.084854040957024"><ele>120.0</ele><time>2026-04-18T16:01:17.999Z</time></trkpt><trkpt lat="42.40035151254691" lon="14.085010086228094"><ele>124.0</ele><time>2026-04-18T16:01:18.999Z</time></trkpt><trkpt lat="42.40030963526259" lon="14.085186005846946"><ele>128.0</ele><time>2026-04-18T16:01:19.999Z</time></trkpt><trkpt lat="42.4002904685075" lon="14.085385552457224"><ele>132.0</ele><time>2026-04-18T16:01:20.999Z</time></trkpt><trkpt lat="42.40029246806344" lon="14.085572602986455"><ele>132.0</ele><time>2026-04-18T16:01:21.999Z</time></trkpt><trkpt lat="42.40029834803307" lon="14.085736162119893"><ele>132.0</ele><time>2026-04-18T16:01:22.999Z</time></trkpt><trkpt lat="42.40029546506256" lon="14.085896187985103"><ele>132.0</ele><time>2026-04-18T16:01:23.999Z</time></trkpt><trkpt lat="42.40029428148014" lon="14.086045633914265"><ele>132.0</ele><time>2026-04-18T16:01:24.999Z</time></trkpt><trkpt lat="42.40028059216551" lon="14.08620291023738"><ele>133.5</ele><time>2026-04-18T16:01:25.999Z</time></trkpt><trkpt lat="42.400297708050466" lon="14.086365028165538"><ele>135.0</ele><time>2026-04-18T16:01:26.999Z</time></trkpt><trkpt lat="42.40030172618359" lon="14.086513453741528"><ele>136.5</ele><time>2026-04-18T16:01:27.999Z</time></trkpt><trkpt lat="42.40031773951204" lon="14.08668453510011"><ele>138.0</ele><time>2026-04-18T16:01:28.999Z</time></trkpt><trkpt lat="42.40035006362321" lon="14.086880817548971"><ele>138.0</ele><time>2026-04-18T16:01:29.999Z</time></trkpt><trkpt lat="42.400397089039906" lon="14.08707759772047"><ele>138.0</ele><time>2026-04-18T16:01:30.999Z</time></trkpt><trkpt lat="42.4004454648915" lon="14.087251253724162"><ele>138.0</ele><time>2026-04-18T16:01:31.999Z</time></trkpt><trkpt lat="42.40049295316148" lon="14.087401967797982"><ele>138.0</ele><time>2026-04-18T16:01:32.999Z</time></trkpt><trkpt lat="42.400533298715324" lon="14.087534077447776"><ele>135.8</ele><time>2026-04-18T16:01:33.999Z</time></trkpt><trkpt lat="42.400575190217054" lon="14.087652410884145"><ele>133.60000000000002</ele><time>2026-04-18T16:01:34.999Z</time></trkpt><trkpt lat="42.40062989267793" lon="14.087746231047362"><ele>131.39999999999998</ele><time>2026-04-18T16:01:35.999Z</time></trkpt><trkpt lat="42.40070201903511" lon="14.087824405088417"><ele>129.2</ele><time>2026-04-18T16:01:36.999Z</time></trkpt><trkpt lat="42.40079737058022" lon="14.087881348590333"><ele>127.0</ele><time>2026-04-18T16:01:37.999Z</time></trkpt><trkpt lat="42.400908430859836" lon="14.087911747177309"><ele>127.0</ele><time>2026-04-18T16:01:38.999Z</time></trkpt><trkpt lat="42.40101716600677" lon="14.087928196380975"><ele>126.99999999999999</ele><time>2026-04-18T16:01:39.999Z</time></trkpt><trkpt lat="42.401114711980114" lon="14.087943928110159"><ele>126.99999999999999</ele><time>2026-04-18T16:01:40.999Z</time></trkpt><trkpt lat="42.4012141459799" lon="14.087965197534512"><ele>127.0</ele><time>2026-04-18T16:01:41.999Z</time></trkpt><trkpt lat="42.40130947759434" lon="14.087996442218548"><ele>127.0</ele><time>2026-04-18T16:01:42.999Z</time></trkpt><trkpt lat="42.401394619593134" lon="14.088076027159234"><ele>128.25</ele><time>2026-04-18T16:01:43.999Z</time></trkpt><trkpt lat="42.40147795844336" lon="14.088166417655625"><ele>129.5</ele><time>2026-04-18T16:01:44.999Z</time></trkpt><trkpt lat="42.401544929906855" lon="14.088298267195269"><ele>130.75</ele><time>2026-04-18T16:01:45.999Z</time></trkpt><trkpt lat="42.40162180468387" lon="14.08842936752563"><ele>132.0</ele><time>2026-04-18T16:01:46.999Z</time></trkpt><trkpt lat="42.40169076387897" lon="14.088581068809685"><ele>132.0</ele><time>2026-04-18T16:01:47.999Z</time></trkpt><trkpt lat="42.40176699804881" lon="14.08872617888786"><ele>132.0</ele><time>2026-04-18T16:01:48.999Z</time></trkpt><trkpt lat="42.40183826526891" lon="14.088859712057358"><ele>132.0</ele><time>2026-04-18T16:01:49.999Z</time></trkpt><trkpt lat="42.4018984189112" lon="14.088989848140272"><ele>132.0</ele><time>2026-04-18T16:01:50.999Z</time></trkpt><trkpt lat="42.40196263002882" lon="14.08912223018998"><ele>130.79999999999998</ele><time>2026-04-18T16:01:51.999Z</time></trkpt><trkpt lat="42.4020251159363" lon="14.089247353133812"><ele>129.6</ele><time>2026-04-18T16:01:52.999Z</time></trkpt><trkpt lat="42.402093160688565" lon="14.089354379184119"><ele>128.39999999999998</ele><time>2026-04-18T16:01:53.999Z</time></trkpt><trkpt lat="42.402148129375036" lon="14.089462001363822"><ele>127.19999999999999</ele><time>2026-04-18T16:01:54.999Z</time></trkpt><trkpt lat="42.40220778678935" lon="14.089557849598705"><ele>126.0</ele><time>2026-04-18T16:01:55.999Z</time></trkpt><trkpt lat="42.40227020497274" lon="14.08967685125473"><ele>126.0</ele><time>2026-04-18T16:01:56.999Z</time></trkpt><trkpt lat="42.402339690139875" lon="14.089795322985395"><ele>126.0</ele><time>2026-04-18T16:01:57.999Z</time></trkpt><trkpt lat="42.402412618327546" lon="14.089925264502403"><ele>126.0</ele><time>2026-04-18T16:01:58.999Z</time></trkpt><trkpt lat="42.40249000865045" lon="14.090064179379082"><ele>126.0</ele><time>2026-04-18T16:01:59.999Z</time></trkpt><trkpt lat="42.40254735903855" lon="14.090173020662268"><ele>128.5</ele><time>2026-04-18T16:02:00.999Z</time></trkpt><trkpt lat="42.40261861774169" lon="14.090308566093587"><ele>131.0</ele><time>2026-04-18T16:02:01.999Z</time></trkpt><trkpt lat="42.40268926631661" lon="14.090433156804119"><ele>133.5</ele><time>2026-04-18T16:02:02.999Z</time></trkpt><trkpt lat="42.40275455598752" lon="14.090542394266386"><ele>136.0</ele><time>2026-04-18T16:02:03.999Z</time></trkpt><trkpt lat="42.402820142244366" lon="14.090658568242679"><ele>136.0</ele><time>2026-04-18T16:02:04.999Z</time></trkpt><trkpt lat="42.40288193785244" lon="14.090790370997775"><ele>136.0</ele><time>2026-04-18T16:02:05.999Z</time></trkpt><trkpt lat="42.402946092931515" lon="14.090910298399113"><ele>136.0</ele><time>2026-04-18T16:02:06.999Z</time></trkpt><trkpt lat="42.4029993726356" lon="14.091019884015813"><ele>136.0</ele><time>2026-04-18T16:02:07.999Z</time></trkpt><trkpt lat="42.403027263527434" lon="14.091150962102642"><ele>136.0</ele><time>2026-04-18T16:02:08.999Z</time></trkpt><trkpt lat="42.40305863038028" lon="14.091290699263771"><ele>136.0</ele><time>2026-04-18T16:02:09.999Z</time></trkpt><trkpt lat="42.40307613427044" lon="14.09143970388459"><ele>136.0</ele><time>2026-04-18T16:02:10.999Z</time></trkpt><trkpt lat="42.40309574711183" lon="14.09159198869131"><ele>136.0</ele><time>2026-04-18T16:02:11.999Z</time></trkpt><trkpt lat="42.40307096467087" lon="14.091729732316235"><ele>136.0</ele><time>2026-04-18T16:02:12.999Z</time></trkpt><trkpt lat="42.40307229647613" lon="14.091843163357817"><ele>136.0</ele><time>2026-04-18T16:02:13.999Z</time></trkpt><trkpt lat="42.40304099137579" lon="14.09192022133425"><ele>136.4</ele><time>2026-04-18T16:02:15.999Z</time></trkpt><trkpt lat="42.403012586194855" lon="14.092022679121852"><ele>136.8</ele><time>2026-04-18T16:02:20.999Z</time></trkpt><trkpt lat="42.403086641823" lon="14.09212299307112"><ele>137.20000000000002</ele><time>2026-04-18T16:02:56.999Z</time></trkpt><trkpt lat="42.40312520270381" lon="14.092198794547551"><ele>137.6</ele><time>2026-04-18T16:02:57.999Z</time></trkpt><trkpt lat="42.403181636098694" lon="14.092320904662682"><ele>138.0</ele><time>2026-04-18T16:02:58.999Z</time></trkpt><trkpt lat="42.403236261444725" lon="14.092438907901958"><ele>138.75</ele><time>2026-04-18T16:02:59.999Z</time></trkpt><trkpt lat="42.40329708852303" lon="14.092567196787765"><ele>139.5</ele><time>2026-04-18T16:03:00.999Z</time></trkpt><trkpt lat="42.403361829954676" lon="14.092706050700697"><ele>140.25</ele><time>2026-04-18T16:03:01.999Z</time></trkpt><trkpt lat="42.403424180600425" lon="14.092839879766577"><ele>141.0</ele><time>2026-04-18T16:03:02.999Z</time></trkpt><trkpt lat="42.40348941329702" lon="14.09298437634763"><ele>141.0</ele><time>2026-04-18T16:03:03.999Z</time></trkpt><trkpt lat="42.40355397252" lon="14.093131428193486"><ele>141.0</ele><time>2026-04-18T16:03:04.999Z</time></trkpt><trkpt lat="42.40361908823019" lon="14.093291070274303"><ele>141.0</ele><time>2026-04-18T16:03:05.999Z</time></trkpt><trkpt lat="42.40367180999497" lon="14.093455307500328"><ele>141.0</ele><time>2026-04-18T16:03:06.999Z</time></trkpt><trkpt lat="42.403708614603524" lon="14.093613951388614"><ele>141.5</ele><time>2026-04-18T16:03:07.999Z</time></trkpt><trkpt lat="42.4037294400551" lon="14.093786931703695"><ele>142.0</ele><time>2026-04-18T16:03:08.999Z</time></trkpt><trkpt lat="42.403736498670796" lon="14.093959494041298"><ele>142.5</ele><time>2026-04-18T16:03:09.999Z</time></trkpt><trkpt lat="42.403737475430795" lon="14.094145527921098"><ele>143.0</ele><time>2026-04-18T16:03:10.999Z</time></trkpt><trkpt lat="42.403733600909625" lon="14.094332056686827"><ele>143.0</ele><time>2026-04-18T16:03:11.999Z</time></trkpt><trkpt lat="42.40372387612692" lon="14.094507428232125"><ele>143.0</ele><time>2026-04-18T16:03:12.999Z</time></trkpt><trkpt lat="42.40371607580133" lon="14.094680572574246"><ele>143.0</ele><time>2026-04-18T16:03:13.999Z</time></trkpt><trkpt lat="42.40370872818797" lon="14.094858729963425"><ele>143.0</ele><time>2026-04-18T16:03:14.999Z</time></trkpt><trkpt lat="42.40369813923185" lon="14.095038730088314"><ele>144.0</ele><time>2026-04-18T16:03:15.999Z</time></trkpt><trkpt lat="42.40368819998157" lon="14.095209052315822"><ele>145.0</ele><time>2026-04-18T16:03:16.999Z</time></trkpt><trkpt lat="42.403675043676344" lon="14.095373480663602"><ele>146.0</ele><time>2026-04-18T16:03:17.999Z</time></trkpt><trkpt lat="42.40366393601977" lon="14.095537551533944"><ele>147.0</ele><time>2026-04-18T16:03:18.999Z</time></trkpt><trkpt lat="42.40365817180693" lon="14.09570100094322"><ele>145.75</ele><time>2026-04-18T16:03:19.999Z</time></trkpt><trkpt lat="42.40365380788571" lon="14.095866561555432"><ele>144.5</ele><time>2026-04-18T16:03:20.999Z</time></trkpt><trkpt lat="42.40364742052647" lon="14.096034096112612"><ele>143.25</ele><time>2026-04-18T16:03:21.999Z</time></trkpt><trkpt lat="42.40364394195769" lon="14.096211587237404"><ele>142.0</ele><time>2026-04-18T16:03:22.999Z</time></trkpt><trkpt lat="42.40364417022224" lon="14.096391005343374"><ele>142.0</ele><time>2026-04-18T16:03:23.999Z</time></trkpt><trkpt lat="42.40364683197341" lon="14.096569214294561"><ele>142.0</ele><time>2026-04-18T16:03:24.999Z</time></trkpt><trkpt lat="42.4036490805985" lon="14.096751974588564"><ele>142.0</ele><time>2026-04-18T16:03:25.999Z</time></trkpt><trkpt lat="42.403651477323585" lon="14.096931234260204"><ele>142.0</ele><time>2026-04-18T16:03:26.999Z</time></trkpt><trkpt lat="42.403646174304654" lon="14.097102181269713"><ele>139.5</ele><time>2026-04-18T16:03:27.999Z</time></trkpt><trkpt lat="42.403636185723066" lon="14.097273769724724"><ele>137.0</ele><time>2026-04-18T16:03:28.999Z</time></trkpt><trkpt lat="42.40361081927675" lon="14.097445117582417"><ele>134.5</ele><time>2026-04-18T16:03:29.999Z</time></trkpt><trkpt lat="42.40356819749793" lon="14.097617147800998"><ele>132.0</ele><time>2026-04-18T16:03:30.999Z</time></trkpt><trkpt lat="42.40350995491117" lon="14.097786652966834"><ele>131.25</ele><time>2026-04-18T16:03:31.999Z</time></trkpt><trkpt lat="42.40343526186314" lon="14.097943853665928"><ele>130.5</ele><time>2026-04-18T16:03:32.999Z</time></trkpt><trkpt lat="42.40334694064384" lon="14.098089993405228"><ele>129.75</ele><time>2026-04-18T16:03:33.999Z</time></trkpt><trkpt lat="42.40324881450579" lon="14.098228638992234"><ele>129.0</ele><time>2026-04-18T16:03:34.999Z</time></trkpt><trkpt lat="42.403156127130394" lon="14.098365954069605"><ele>129.0</ele><time>2026-04-18T16:03:35.999Z</time></trkpt><trkpt lat="42.403065664038344" lon="14.09850031397339"><ele>129.0</ele><time>2026-04-18T16:03:36.999Z</time></trkpt><trkpt lat="42.40297849390116" lon="14.098627434814139"><ele>129.0</ele><time>2026-04-18T16:03:37.999Z</time></trkpt><trkpt lat="42.402892747953466" lon="14.09875179380234"><ele>129.0</ele><time>2026-04-18T16:03:38.999Z</time></trkpt><trkpt lat="42.402809285909825" lon="14.098870099283332"><ele>129.0</ele><time>2026-04-18T16:03:39.999Z</time></trkpt><trkpt lat="42.40273214285021" lon="14.098989664207467"><ele>129.0</ele><time>2026-04-18T16:03:40.999Z</time></trkpt><trkpt lat="42.402657480972074" lon="14.09911724942602"><ele>129.0</ele><time>2026-04-18T16:03:41.999Z</time></trkpt><trkpt lat="42.40258228585424" lon="14.099244801767922"><ele>129.0</ele><time>2026-04-18T16:03:42.999Z</time></trkpt><trkpt lat="42.40250688290961" lon="14.099372986198928"><ele>129.0</ele><time>2026-04-18T16:03:43.999Z</time></trkpt><trkpt lat="42.40243033301385" lon="14.099503898996803"><ele>129.0</ele><time>2026-04-18T16:03:44.999Z</time></trkpt><trkpt lat="42.40235680591921" lon="14.099634264552165"><ele>129.0</ele><time>2026-04-18T16:03:45.999Z</time></trkpt><trkpt lat="42.40228658592685" lon="14.099763394992697"><ele>129.0</ele><time>2026-04-18T16:03:46.999Z</time></trkpt><trkpt lat="42.402219794902955" lon="14.099886409489818"><ele>128.4</ele><time>2026-04-18T16:03:47.999Z</time></trkpt><trkpt lat="42.40215174857723" lon="14.100007544394696"><ele>127.80000000000001</ele><time>2026-04-18T16:03:48.999Z</time></trkpt><trkpt lat="42.40208777540028" lon="14.10012065288549"><ele>127.19999999999999</ele><time>2026-04-18T16:03:49.999Z</time></trkpt><trkpt lat="42.40202339456469" lon="14.100230834746256"><ele>126.6</ele><time>2026-04-18T16:03:50.999Z</time></trkpt><trkpt lat="42.401964927527224" lon="14.100344208262888"><ele>126.0</ele><time>2026-04-18T16:03:51.999Z</time></trkpt><trkpt lat="42.40190399151241" lon="14.100454464578785"><ele>126.0</ele><time>2026-04-18T16:03:52.999Z</time></trkpt><trkpt lat="42.40185009297998" lon="14.10057104283311"><ele>126.0</ele><time>2026-04-18T16:03:53.999Z</time></trkpt><trkpt lat="42.40180078030696" lon="14.100692655180934"><ele>126.0</ele><time>2026-04-18T16:03:54.999Z</time></trkpt><trkpt lat="42.40175071214281" lon="14.100807064837822"><ele>126.0</ele><time>2026-04-18T16:03:55.999Z</time></trkpt><trkpt lat="42.40170182308438" lon="14.10091726084517"><ele>126.0</ele><time>2026-04-18T16:03:56.999Z</time></trkpt><trkpt lat="42.40165327070566" lon="14.101020135606145"><ele>126.19999999999999</ele><time>2026-04-18T16:03:57.999Z</time></trkpt><trkpt lat="42.401608510387156" lon="14.101125211162138"><ele>126.39999999999999</ele><time>2026-04-18T16:03:58.999Z</time></trkpt><trkpt lat="42.40156369705823" lon="14.1012379039532"><ele>126.6</ele><time>2026-04-18T16:03:59.999Z</time></trkpt><trkpt lat="42.401522827632185" lon="14.101345094336736"><ele>126.8</ele><time>2026-04-18T16:04:00.999Z</time></trkpt><trkpt lat="42.401480209418885" lon="14.101452863912046"><ele>127.0</ele><time>2026-04-18T16:04:01.999Z</time></trkpt><trkpt lat="42.40143842093561" lon="14.101555543773538"><ele>126.83333333333334</ele><time>2026-04-18T16:04:02.999Z</time></trkpt><trkpt lat="42.40139286926561" lon="14.101655940290177"><ele>126.66666666666667</ele><time>2026-04-18T16:04:03.999Z</time></trkpt><trkpt lat="42.40134584890333" lon="14.101755702517346"><ele>126.5</ele><time>2026-04-18T16:04:04.999Z</time></trkpt><trkpt lat="42.40129579731436" lon="14.101850758719323"><ele>126.33333333333334</ele><time>2026-04-18T16:04:05.999Z</time></trkpt><trkpt lat="42.401258881978364" lon="14.101938371069446"><ele>126.16666666666667</ele><time>2026-04-18T16:04:06.999Z</time></trkpt><trkpt lat="42.401226413631214" lon="14.102012740670107"><ele>126.0</ele><time>2026-04-18T16:04:07.999Z</time></trkpt><trkpt lat="42.40116606179342" lon="14.102110972303608"><ele>125.16666666666667</ele><time>2026-04-18T16:04:09.999Z</time></trkpt><trkpt lat="42.4012278214249" lon="14.102237800905627"><ele>124.33333333333334</ele><time>2026-04-18T16:04:11.999Z</time></trkpt><trkpt lat="42.40128199800898" lon="14.10230648849895"><ele>123.5</ele><time>2026-04-18T16:04:12.999Z</time></trkpt><trkpt lat="42.4013105777837" lon="14.10241000368355"><ele>122.66666666666667</ele><time>2026-04-18T16:04:13.999Z</time></trkpt><trkpt lat="42.401349933873135" lon="14.102500129557656"><ele>121.83333333333334</ele><time>2026-04-18T16:04:14.999Z</time></trkpt><trkpt lat="42.40139620845845" lon="14.102588996090478"><ele>121.0</ele><time>2026-04-18T16:04:15.999Z</time></trkpt><trkpt lat="42.40143629731815" lon="14.102684391400198"><ele>121.00000000000001</ele><time>2026-04-18T16:04:16.999Z</time></trkpt><trkpt lat="42.40147987674913" lon="14.102767730138911"><ele>121.0</ele><time>2026-04-18T16:04:17.999Z</time></trkpt><trkpt lat="42.401536648832035" lon="14.102885116224757"><ele>121.0</ele><time>2026-04-18T16:04:19.999Z</time></trkpt><trkpt lat="42.40157174425658" lon="14.103000120459921"><ele>121.0</ele><time>2026-04-18T16:04:21.999Z</time></trkpt><trkpt lat="42.401603781690916" lon="14.103079961114725"><ele>121.00000000000001</ele><time>2026-04-18T16:04:25.999Z</time></trkpt><trkpt lat="42.40154263610958" lon="14.103003264579119"><ele>121.0</ele><time>2026-04-18T16:04:29.999Z</time></trkpt><trkpt lat="42.40150053562037" lon="14.10282240344237"><ele>121.00000000000001</ele><time>2026-04-18T16:04:30.999Z</time></trkpt><trkpt lat="42.40146049837229" lon="14.102722381393082"><ele>121.0</ele><time>2026-04-18T16:04:31.999Z</time></trkpt><trkpt lat="42.40141227495127" lon="14.102615977857864"><ele>121.0</ele><time>2026-04-18T16:04:32.999Z</time></trkpt><trkpt lat="42.40137107737658" lon="14.102500032818787"><ele>121.0</ele><time>2026-04-18T16:04:33.999Z</time></trkpt><trkpt lat="42.40132856743976" lon="14.102401661464649"><ele>121.00000000000001</ele><time>2026-04-18T16:04:34.999Z</time></trkpt><trkpt lat="42.40129350368403" lon="14.10232071589051"><ele>121.0</ele><time>2026-04-18T16:04:35.999Z</time></trkpt><trkpt lat="42.401267476441426" lon="14.102238797342341"><ele>120.8</ele><time>2026-04-18T16:04:36.999Z</time></trkpt><trkpt lat="42.401222861728485" lon="14.1021329237921"><ele>120.6</ele><time>2026-04-18T16:04:38.999Z</time></trkpt><trkpt lat="42.401132950252624" lon="14.102150995313568"><ele>120.4</ele><time>2026-04-18T16:04:42.999Z</time></trkpt><trkpt lat="42.40106632082824" lon="14.102328742607819"><ele>120.2</ele><time>2026-04-18T16:04:44.999Z</time></trkpt><trkpt lat="42.40102527243847" lon="14.102443230966117"><ele>120.0</ele><time>2026-04-18T16:04:45.999Z</time></trkpt><trkpt lat="42.40097563802119" lon="14.102566786235599"><ele>120.0</ele><time>2026-04-18T16:04:46.999Z</time></trkpt><trkpt lat="42.400910782297835" lon="14.102693817411465"><ele>120.0</ele><time>2026-04-18T16:04:47.999Z</time></trkpt><trkpt lat="42.400848032844" lon="14.102836450748539"><ele>120.0</ele><time>2026-04-18T16:04:48.999Z</time></trkpt><trkpt lat="42.40077782819227" lon="14.102972442217684"><ele>120.0</ele><time>2026-04-18T16:04:50Z</time></trkpt><trkpt lat="42.40071689376533" lon="14.103103674231686"><ele>120.0</ele><time>2026-04-18T16:04:51Z</time></trkpt><trkpt lat="42.40065810845653" lon="14.103228521257009"><ele>120.0</ele><time>2026-04-18T16:04:52Z</time></trkpt><trkpt lat="42.400590634496325" lon="14.10338128201958"><ele>120.0</ele><time>2026-04-18T16:04:53Z</time></trkpt><trkpt lat="42.40052019645097" lon="14.103530463406422"><ele>120.0</ele><time>2026-04-18T16:04:54Z</time></trkpt><trkpt lat="42.40045327683921" lon="14.103676251170862"><ele>118.5</ele><time>2026-04-18T16:04:55Z</time></trkpt><trkpt lat="42.40038961737862" lon="14.103814769650223"><ele>117.0</ele><time>2026-04-18T16:04:56Z</time></trkpt><trkpt lat="42.4003254913991" lon="14.10394684693432"><ele>115.5</ele><time>2026-04-18T16:04:57Z</time></trkpt><trkpt lat="42.400257168203716" lon="14.104087055927094"><ele>114.0</ele><time>2026-04-18T16:04:58Z</time></trkpt><trkpt lat="42.40019019089194" lon="14.104233960954032"><ele>113.5</ele><time>2026-04-18T16:04:59Z</time></trkpt><trkpt lat="42.400124054076485" lon="14.104374577036976"><ele>113.0</ele><time>2026-04-18T16:05:00Z</time></trkpt><trkpt lat="42.400061500062954" lon="14.10450892926581"><ele>112.5</ele><time>2026-04-18T16:05:01Z</time></trkpt><trkpt lat="42.400001113330816" lon="14.104637625465706"><ele>112.0</ele><time>2026-04-18T16:05:02Z</time></trkpt><trkpt lat="42.39994106872047" lon="14.104766182923262"><ele>112.0</ele><time>2026-04-18T16:05:03Z</time></trkpt><trkpt lat="42.3998840026639" lon="14.104894339607617"><ele>111.99999999999999</ele><time>2026-04-18T16:05:04Z</time></trkpt><trkpt lat="42.39982451535291" lon="14.105027370107793"><ele>111.99999999999999</ele><time>2026-04-18T16:05:05Z</time></trkpt><trkpt lat="42.399754874752254" lon="14.105168208521345"><ele>112.0</ele><time>2026-04-18T16:05:06Z</time></trkpt><trkpt lat="42.39971801651538" lon="14.105268426653856"><ele>112.0</ele><time>2026-04-18T16:05:07Z</time></trkpt><trkpt lat="42.3996608658334" lon="14.105386603322259"><ele>112.0</ele><time>2026-04-18T16:05:08Z</time></trkpt><trkpt lat="42.39960568393543" lon="14.105504117614949"><ele>111.99999999999999</ele><time>2026-04-18T16:05:09Z</time></trkpt><trkpt lat="42.39954896120019" lon="14.10561759333216"><ele>111.99999999999999</ele><time>2026-04-18T16:05:10Z</time></trkpt><trkpt lat="42.39948754685716" lon="14.10572814275168"><ele>112.0</ele><time>2026-04-18T16:05:11Z</time></trkpt><trkpt lat="42.399416279859906" lon="14.105804605406936"><ele>112.0</ele><time>2026-04-18T16:05:12Z</time></trkpt><trkpt lat="42.39937409153862" lon="14.105886630924672"><ele>112.00000000000001</ele><time>2026-04-18T16:05:13Z</time></trkpt><trkpt lat="42.39931080481005" lon="14.105937541925222"><ele>112.0</ele><time>2026-04-18T16:05:14Z</time></trkpt><trkpt lat="42.399241322502874" lon="14.105981149649118"><ele>112.0</ele><time>2026-04-18T16:05:15Z</time></trkpt><trkpt lat="42.39917187838188" lon="14.106012018322284"><ele>112.0</ele><time>2026-04-18T16:05:16Z</time></trkpt><trkpt lat="42.399100484815364" lon="14.106030660444839"><ele>112.00000000000001</ele><time>2026-04-18T16:05:17Z</time></trkpt><trkpt lat="42.39902450031292" lon="14.106044959502318"><ele>112.0</ele><time>2026-04-18T16:05:18Z</time></trkpt><trkpt lat="42.39893845127812" lon="14.106057434607356"><ele>112.00000000000001</ele><time>2026-04-18T16:05:19Z</time></trkpt><trkpt lat="42.39885620927822" lon="14.106077812747854"><ele>112.0</ele><time>2026-04-18T16:05:20Z</time></trkpt><trkpt lat="42.39877480901436" lon="14.10610217174898"><ele>112.0</ele><time>2026-04-18T16:05:21Z</time></trkpt><trkpt lat="42.398701756464234" lon="14.106127202101849"><ele>112.0</ele><time>2026-04-18T16:05:22Z</time></trkpt><trkpt lat="42.39863343968311" lon="14.106152355394432"><ele>112.00000000000001</ele><time>2026-04-18T16:05:23Z</time></trkpt><trkpt lat="42.398564522326055" lon="14.106186854124267"><ele>112.0</ele><time>2026-04-18T16:05:24Z</time></trkpt><trkpt lat="42.39849721383858" lon="14.106227618359771"><ele>111.16666666666667</ele><time>2026-04-18T16:05:25Z</time></trkpt><trkpt lat="42.39841920532496" lon="14.106276715296003"><ele>110.33333333333334</ele><time>2026-04-18T16:05:26Z</time></trkpt><trkpt lat="42.3983339196477" lon="14.106325962190928"><ele>109.5</ele><time>2026-04-18T16:05:27Z</time></trkpt><trkpt lat="42.398254711601" lon="14.106369883523485"><ele>108.66666666666666</ele><time>2026-04-18T16:05:28Z</time></trkpt><trkpt lat="42.39818348033108" lon="14.106416288648015"><ele>107.83333333333333</ele><time>2026-04-18T16:05:29Z</time></trkpt><trkpt lat="42.398109901844585" lon="14.106456732953422"><ele>107.0</ele><time>2026-04-18T16:05:30Z</time></trkpt><trkpt lat="42.39803202598296" lon="14.106498214374316"><ele>107.33333333333333</ele><time>2026-04-18T16:05:31Z</time></trkpt><trkpt lat="42.39795875596768" lon="14.106551168582625"><ele>107.66666666666666</ele><time>2026-04-18T16:05:32Z</time></trkpt><trkpt lat="42.39787459360151" lon="14.106618997796557"><ele>108.0</ele><time>2026-04-18T16:05:33Z</time></trkpt><trkpt lat="42.39780099907923" lon="14.10667797833859"><ele>108.33333333333334</ele><time>2026-04-18T16:05:34Z</time></trkpt><trkpt lat="42.397726572136314" lon="14.106740963792538"><ele>108.66666666666667</ele><time>2026-04-18T16:05:35Z</time></trkpt><trkpt lat="42.39766227908614" lon="14.106807098370272"><ele>109.0</ele><time>2026-04-18T16:05:36Z</time></trkpt><trkpt lat="42.39760186878801" lon="14.106876990018137"><ele>109.00000000000001</ele><time>2026-04-18T16:05:37Z</time></trkpt><trkpt lat="42.39753893537298" lon="14.106944748257431"><ele>109.0</ele><time>2026-04-18T16:05:38Z</time></trkpt><trkpt lat="42.3974721079572" lon="14.107018630699844"><ele>109.0</ele><time>2026-04-18T16:05:39Z</time></trkpt><trkpt lat="42.397404093341656" lon="14.107090841404899"><ele>109.0</ele><time>2026-04-18T16:05:40Z</time></trkpt><trkpt lat="42.39734154339342" lon="14.107160883552504"><ele>109.00000000000001</ele><time>2026-04-18T16:05:41Z</time></trkpt><trkpt lat="42.39727523779571" lon="14.107232598132418"><ele>109.0</ele><time>2026-04-18T16:05:42Z</time></trkpt><trkpt lat="42.397206832013154" lon="14.107311919481491"><ele>109.50000000000001</ele><time>2026-04-18T16:05:43Z</time></trkpt><trkpt lat="42.39714177794099" lon="14.107394555484241"><ele>110.0</ele><time>2026-04-18T16:05:44Z</time></trkpt><trkpt lat="42.397081858195065" lon="14.107470563151777"><ele>110.5</ele><time>2026-04-18T16:05:45Z</time></trkpt><trkpt lat="42.39702221554915" lon="14.107539058567117"><ele>111.0</ele><time>2026-04-18T16:05:46Z</time></trkpt><trkpt lat="42.396972863680915" lon="14.10760718085204"><ele>111.50000000000001</ele><time>2026-04-18T16:05:47Z</time></trkpt><trkpt lat="42.396926516477436" lon="14.107674127919543"><ele>112.0</ele><time>2026-04-18T16:05:48Z</time></trkpt><trkpt lat="42.39687519339867" lon="14.107742775225264"><ele>112.00000000000001</ele><time>2026-04-18T16:05:49Z</time></trkpt><trkpt lat="42.39682806432582" lon="14.107812451254848"><ele>112.0</ele><time>2026-04-18T16:05:50Z</time></trkpt><trkpt lat="42.396747248667886" lon="14.107945794038907"><ele>112.0</ele><time>2026-04-18T16:05:52Z</time></trkpt><trkpt lat="42.39670022609161" lon="14.108031840368858"><ele>112.0</ele><time>2026-04-18T16:05:53Z</time></trkpt><trkpt lat="42.39665771930179" lon="14.10812076718497"><ele>112.00000000000001</ele><time>2026-04-18T16:05:54Z</time></trkpt><trkpt lat="42.39662705745303" lon="14.108214700621039"><ele>112.0</ele><time>2026-04-18T16:05:55Z</time></trkpt><trkpt lat="42.396609381026494" lon="14.108314904621848"><ele>112.39999999999999</ele><time>2026-04-18T16:05:56Z</time></trkpt><trkpt lat="42.396601595894055" lon="14.108428961407538"><ele>112.79999999999998</ele><time>2026-04-18T16:05:57Z</time></trkpt><trkpt lat="42.396601414296114" lon="14.108559626772712"><ele>113.2</ele><time>2026-04-18T16:05:58Z</time></trkpt><trkpt lat="42.39660472094086" lon="14.108718019271793"><ele>113.6</ele><time>2026-04-18T16:05:59Z</time></trkpt><trkpt lat="42.39659625105697" lon="14.10886810283003"><ele>114.0</ele><time>2026-04-18T16:06:00Z</time></trkpt><trkpt lat="42.39659212957684" lon="14.10903151277639"><ele>112.0</ele><time>2026-04-18T16:06:01Z</time></trkpt><trkpt lat="42.39659254399216" lon="14.109204379906584"><ele>110.0</ele><time>2026-04-18T16:06:02Z</time></trkpt><trkpt lat="42.39659895562803" lon="14.109373011673657"><ele>108.0</ele><time>2026-04-18T16:06:03Z</time></trkpt><trkpt lat="42.396604945044544" lon="14.10954563732947"><ele>106.0</ele><time>2026-04-18T16:06:04Z</time></trkpt><trkpt lat="42.396609391181165" lon="14.109712418235068"><ele>106.0</ele><time>2026-04-18T16:06:05Z</time></trkpt><trkpt lat="42.396616585953375" lon="14.109883137474304"><ele>106.0</ele><time>2026-04-18T16:06:06Z</time></trkpt><trkpt lat="42.3966296455974" lon="14.11005198383248"><ele>106.0</ele><time>2026-04-18T16:06:07Z</time></trkpt><trkpt lat="42.39663499792969" lon="14.11021990143342"><ele>106.0</ele><time>2026-04-18T16:06:08Z</time></trkpt><trkpt lat="42.396642441158704" lon="14.110382971865901"><ele>104.25</ele><time>2026-04-18T16:06:09Z</time></trkpt><trkpt lat="42.39665168365348" lon="14.110549441996177"><ele>102.5</ele><time>2026-04-18T16:06:10Z</time></trkpt><trkpt lat="42.39665569116963" lon="14.110718413705468"><ele>100.75</ele><time>2026-04-18T16:06:11Z</time></trkpt><trkpt lat="42.39665844149883" lon="14.110884539057434"><ele>99.0</ele><time>2026-04-18T16:06:12Z</time></trkpt><trkpt lat="42.3966549815495" lon="14.111048053068922"><ele>98.0</ele><time>2026-04-18T16:06:13Z</time></trkpt><trkpt lat="42.396646408733595" lon="14.111212969831163"><ele>97.0</ele><time>2026-04-18T16:06:14Z</time></trkpt><trkpt lat="42.39662700031127" lon="14.111373115744138"><ele>96.0</ele><time>2026-04-18T16:06:15Z</time></trkpt><trkpt lat="42.39659163275634" lon="14.111523062633847"><ele>95.0</ele><time>2026-04-18T16:06:16Z</time></trkpt><trkpt lat="42.39654309368041" lon="14.111668917803353"><ele>95.0</ele><time>2026-04-18T16:06:17Z</time></trkpt><trkpt lat="42.396489099155644" lon="14.11180983832663"><ele>95.0</ele><time>2026-04-18T16:06:18Z</time></trkpt><trkpt lat="42.39643372264805" lon="14.11194699437407"><ele>95.0</ele><time>2026-04-18T16:06:19Z</time></trkpt><trkpt lat="42.39637768580394" lon="14.112078213252895"><ele>95.0</ele><time>2026-04-18T16:06:20Z</time></trkpt><trkpt lat="42.39632690808876" lon="14.112201811410968"><ele>95.0</ele><time>2026-04-18T16:06:21Z</time></trkpt><trkpt lat="42.39629531705708" lon="14.11232152232703"><ele>94.83333333333334</ele><time>2026-04-18T16:06:22Z</time></trkpt><trkpt lat="42.396274049405584" lon="14.112440357784328"><ele>94.66666666666667</ele><time>2026-04-18T16:06:23Z</time></trkpt><trkpt lat="42.39627049194127" lon="14.112567065597021"><ele>94.5</ele><time>2026-04-18T16:06:24Z</time></trkpt><trkpt lat="42.396288432632936" lon="14.112688515041501"><ele>94.33333333333333</ele><time>2026-04-18T16:06:25Z</time></trkpt><trkpt lat="42.396315399151064" lon="14.112802681431564"><ele>94.16666666666666</ele><time>2026-04-18T16:06:26Z</time></trkpt><trkpt lat="42.39634303087717" lon="14.11291174685423"><ele>94.0</ele><time>2026-04-18T16:06:27Z</time></trkpt><trkpt lat="42.39633876367776" lon="14.113043243069205"><ele>94.0</ele><time>2026-04-18T16:06:29Z</time></trkpt><trkpt lat="42.3965298247205" lon="14.113025074813686"><ele>94.0</ele><time>2026-04-18T16:06:32Z</time></trkpt><trkpt lat="42.39659840781204" lon="14.112979425886694"><ele>94.0</ele><time>2026-04-18T16:06:33Z</time></trkpt><trkpt lat="42.3966704641164" lon="14.112938276697953"><ele>94.0</ele><time>2026-04-18T16:06:34Z</time></trkpt><trkpt lat="42.39673834784025" lon="14.112890949079834"><ele>94.0</ele><time>2026-04-18T16:06:35Z</time></trkpt><trkpt lat="42.39681060469779" lon="14.112848864785132"><ele>94.0</ele><time>2026-04-18T16:06:36Z</time></trkpt><trkpt lat="42.39689534006549" lon="14.112792761220492"><ele>94.0</ele><time>2026-04-18T16:06:37Z</time></trkpt><trkpt lat="42.3969750301181" lon="14.112738550337294"><ele>94.0</ele><time>2026-04-18T16:06:38Z</time></trkpt><trkpt lat="42.397067464927986" lon="14.112675512562918"><ele>94.0</ele><time>2026-04-18T16:06:39Z</time></trkpt><trkpt lat="42.39716732221057" lon="14.112612427156742"><ele>94.0</ele><time>2026-04-18T16:06:40Z</time></trkpt><trkpt lat="42.39726018867247" lon="14.11255343819157"><ele>91.80000000000001</ele><time>2026-04-18T16:06:41Z</time></trkpt><trkpt lat="42.397357869487415" lon="14.112500182278657"><ele>89.60000000000001</ele><time>2026-04-18T16:06:42Z</time></trkpt><trkpt lat="42.39744852487782" lon="14.112450206905665"><ele>87.4</ele><time>2026-04-18T16:06:43Z</time></trkpt><trkpt lat="42.397538871328344" lon="14.112395492127447"><ele>85.2</ele><time>2026-04-18T16:06:44Z</time></trkpt><trkpt lat="42.39764673139945" lon="14.112333925174159"><ele>83.0</ele><time>2026-04-18T16:06:45Z</time></trkpt><trkpt lat="42.39777872376736" lon="14.11228474395751"><ele>83.0</ele><time>2026-04-18T16:06:46Z</time></trkpt><trkpt lat="42.39792722553032" lon="14.112255620869147"><ele>83.0</ele><time>2026-04-18T16:06:47Z</time></trkpt><trkpt lat="42.39808348940211" lon="14.112269148599067"><ele>83.0</ele><time>2026-04-18T16:06:48Z</time></trkpt><trkpt lat="42.39824170352029" lon="14.11229355644068"><ele>79.0</ele><time>2026-04-18T16:06:49Z</time></trkpt><trkpt lat="42.398397344223746" lon="14.112313276581814"><ele>75.0</ele><time>2026-04-18T16:06:50Z</time></trkpt><trkpt lat="42.39854230087938" lon="14.11235556200674"><ele>71.0</ele><time>2026-04-18T16:06:51Z</time></trkpt><trkpt lat="42.39867593241674" lon="14.112391033458623"><ele>67.0</ele><time>2026-04-18T16:06:52Z</time></trkpt><trkpt lat="42.398771772121826" lon="14.112434426761808"><ele>66.8</ele><time>2026-04-18T16:06:53Z</time></trkpt><trkpt lat="42.39885523651673" lon="14.11245502750506"><ele>66.6</ele><time>2026-04-18T16:06:54Z</time></trkpt><trkpt lat="42.398960281153" lon="14.112458233536445"><ele>66.39999999999999</ele><time>2026-04-18T16:06:56.001Z</time></trkpt><trkpt lat="42.3990543701994" lon="14.112408707310882"><ele>66.2</ele><time>2026-04-18T16:06:58.001Z</time></trkpt><trkpt lat="42.399188615601815" lon="14.112342671519565"><ele>66.0</ele><time>2026-04-18T16:07:00.001Z</time></trkpt><trkpt lat="42.39928321293227" lon="14.112305673789503"><ele>65.75</ele><time>2026-04-18T16:07:01.001Z</time></trkpt><trkpt lat="42.39937894186231" lon="14.112225761282792"><ele>65.5</ele><time>2026-04-18T16:07:02.001Z</time></trkpt><trkpt lat="42.39948722402946" lon="14.11216344466402"><ele>65.25</ele><time>2026-04-18T16:07:03.001Z</time></trkpt><trkpt lat="42.39959490967252" lon="14.11211505627892"><ele>65.0</ele><time>2026-04-18T16:07:04.001Z</time></trkpt><trkpt lat="42.39971453184657" lon="14.112103685125712"><ele>65.4</ele><time>2026-04-18T16:07:05.001Z</time></trkpt><trkpt lat="42.39984033146152" lon="14.112078360575797"><ele>65.8</ele><time>2026-04-18T16:07:06.001Z</time></trkpt><trkpt lat="42.3999537485773" lon="14.11205813768048"><ele>66.2</ele><time>2026-04-18T16:07:07.001Z</time></trkpt><trkpt lat="42.40005379182983" lon="14.112007551916022"><ele>66.6</ele><time>2026-04-18T16:07:08.001Z</time></trkpt><trkpt lat="42.400143033818516" lon="14.111953862750381"><ele>67.0</ele><time>2026-04-18T16:07:09.001Z</time></trkpt><trkpt lat="42.40022824228228" lon="14.111877530952647"><ele>67.0</ele><time>2026-04-18T16:07:10Z</time></trkpt><trkpt lat="42.400293101162106" lon="14.111809901396132"><ele>67.0</ele><time>2026-04-18T16:07:11Z</time></trkpt><trkpt lat="42.400363473126816" lon="14.111736974414542"><ele>67.0</ele><time>2026-04-18T16:07:12Z</time></trkpt><trkpt lat="42.400423682792386" lon="14.111666790408762"><ele>67.0</ele><time>2026-04-18T16:07:13Z</time></trkpt><trkpt lat="42.400499679850796" lon="14.111582930156251"><ele>67.0</ele><time>2026-04-18T16:07:14Z</time></trkpt><trkpt lat="42.40057721491449" lon="14.111497463775182"><ele>67.0</ele><time>2026-04-18T16:07:15Z</time></trkpt><trkpt lat="42.40066242394581" lon="14.11141504912331"><ele>68.2</ele><time>2026-04-18T16:07:16Z</time></trkpt><trkpt lat="42.40075051532775" lon="14.111348229640878"><ele>69.4</ele><time>2026-04-18T16:07:17Z</time></trkpt><trkpt lat="42.400843214074314" lon="14.111292368405373"><ele>70.6</ele><time>2026-04-18T16:07:18Z</time></trkpt><trkpt lat="42.400932498670045" lon="14.111276436718269"><ele>71.8</ele><time>2026-04-18T16:07:19Z</time></trkpt><trkpt lat="42.401020230681574" lon="14.111272584113173"><ele>73.0</ele><time>2026-04-18T16:07:20Z</time></trkpt><trkpt lat="42.40110761700464" lon="14.111289280209192"><ele>73.0</ele><time>2026-04-18T16:07:21Z</time></trkpt><trkpt lat="42.40118225240584" lon="14.111381241022857"><ele>73.0</ele><time>2026-04-18T16:07:22Z</time></trkpt><trkpt lat="42.40127450513057" lon="14.111442385458233"><ele>73.0</ele><time>2026-04-18T16:07:23Z</time></trkpt><trkpt lat="42.401361622970654" lon="14.111513800516315"><ele>73.0</ele><time>2026-04-18T16:07:24Z</time></trkpt><trkpt lat="42.401436044040736" lon="14.111566089900371"><ele>73.0</ele><time>2026-04-18T16:07:25Z</time></trkpt><trkpt lat="42.40149520931301" lon="14.111598640490142"><ele>75.0</ele><time>2026-04-18T16:07:26Z</time></trkpt><trkpt lat="42.40159143739245" lon="14.111671249999645"><ele>77.0</ele><time>2026-04-18T16:07:28Z</time></trkpt><trkpt lat="42.401664873965224" lon="14.111729461262668"><ele>79.0</ele><time>2026-04-18T16:07:30Z</time></trkpt><trkpt lat="42.40171777354244" lon="14.111783560851336"><ele>81.0</ele><time>2026-04-18T16:07:32Z</time></trkpt><trkpt lat="42.40177803638312" lon="14.111855617511269"><ele>83.0</ele><time>2026-04-18T16:07:35Z</time></trkpt><trkpt lat="42.4018325758721" lon="14.111920429658237"><ele>85.0</ele><time>2026-04-18T16:07:50Z</time></trkpt><trkpt lat="42.401897007513995" lon="14.111988114809963"><ele>81.0</ele><time>2026-04-18T16:07:53Z</time></trkpt><trkpt lat="42.40225550203145" lon="14.112363255148118"><ele>81.71428571428572</ele><time>2026-04-18T16:07:55Z</time></trkpt><trkpt lat="42.40231772551736" lon="14.11242667308546"><ele>82.42857142857143</ele><time>2026-04-18T16:07:56Z</time></trkpt><trkpt lat="42.402372106298515" lon="14.11247504824498"><ele>83.14285714285714</ele><time>2026-04-18T16:07:57Z</time></trkpt><trkpt lat="42.40242256182546" lon="14.112531787359808"><ele>83.85714285714286</ele><time>2026-04-18T16:07:58Z</time></trkpt><trkpt lat="42.402481105177635" lon="14.112592188345905"><ele>84.57142857142857</ele><time>2026-04-18T16:07:59Z</time></trkpt><trkpt lat="42.4025475111287" lon="14.112645921715965"><ele>85.28571428571429</ele><time>2026-04-18T16:08:00Z</time></trkpt><trkpt lat="42.40259740299458" lon="14.112726917365656"><ele>86.0</ele><time>2026-04-18T16:08:01Z</time></trkpt><trkpt lat="42.40265551890422" lon="14.112796715522359"><ele>86.00000000000001</ele><time>2026-04-18T16:08:02Z</time></trkpt><trkpt lat="42.40271795017638" lon="14.112854859341958"><ele>86.0</ele><time>2026-04-18T16:08:03Z</time></trkpt><trkpt lat="42.40276719021435" lon="14.112921335416608"><ele>86.0</ele><time>2026-04-18T16:08:04Z</time></trkpt><trkpt lat="42.40282232573216" lon="14.112983870332169"><ele>86.0</ele><time>2026-04-18T16:08:05Z</time></trkpt><trkpt lat="42.40288099492285" lon="14.113055187820233"><ele>86.0</ele><time>2026-04-18T16:08:06Z</time></trkpt><trkpt lat="42.4029413652891" lon="14.11311868992845"><ele>86.00000000000001</ele><time>2026-04-18T16:08:07Z</time></trkpt><trkpt lat="42.40299607088518" lon="14.113175768000952"><ele>86.0</ele><time>2026-04-18T16:08:08Z</time></trkpt><trkpt lat="42.40308650554447" lon="14.113274212571957"><ele>87.16666666666667</ele><time>2026-04-18T16:08:10Z</time></trkpt><trkpt lat="42.403142848573765" lon="14.11337513765301"><ele>88.33333333333334</ele><time>2026-04-18T16:08:12Z</time></trkpt><trkpt lat="42.40320402836696" lon="14.113456720060505"><ele>89.5</ele><time>2026-04-18T16:08:14Z</time></trkpt><trkpt lat="42.40325219641855" lon="14.113521302665575"><ele>90.66666666666667</ele><time>2026-04-18T16:08:16Z</time></trkpt><trkpt lat="42.403300793673864" lon="14.113589960366554"><ele>91.83333333333333</ele><time>2026-04-18T16:08:18Z</time></trkpt><trkpt lat="42.40336753612096" lon="14.113663746599114"><ele>93.0</ele><time>2026-04-18T16:08:20Z</time></trkpt><trkpt lat="42.40341851414918" lon="14.113768276762293"><ele>93.0</ele><time>2026-04-18T16:08:22Z</time></trkpt><trkpt lat="42.403460897181844" lon="14.113844600238028"><ele>93.0</ele><time>2026-04-18T16:08:24Z</time></trkpt><trkpt lat="42.40350500887354" lon="14.11391312039616"><ele>93.0</ele><time>2026-04-18T16:08:26Z</time></trkpt><trkpt lat="42.40346085058467" lon="14.113839536688234"><ele>93.0</ele><time>2026-04-18T16:08:35Z</time></trkpt><trkpt lat="42.4034456700989" lon="14.113753958586932"><ele>93.0</ele><time>2026-04-18T16:08:36Z</time></trkpt><trkpt lat="42.40339080223402" lon="14.113658333911989"><ele>93.0</ele><time>2026-04-18T16:08:38Z</time></trkpt><trkpt lat="42.4033223187481" lon="14.113572233849544"><ele>93.0</ele><time>2026-04-18T16:08:41Z</time></trkpt><trkpt lat="42.4032790826745" lon="14.11350294192609"><ele>93.0</ele><time>2026-04-18T16:08:43Z</time></trkpt><trkpt lat="42.40322689637481" lon="14.113440426690884"><ele>93.0</ele><time>2026-04-18T16:08:45Z</time></trkpt><trkpt lat="42.40316896945304" lon="14.113389303497058"><ele>93.0</ele><time>2026-04-18T16:08:47Z</time></trkpt><trkpt lat="42.40312631193188" lon="14.113308588982006"><ele>93.0</ele><time>2026-04-18T16:08:49Z</time></trkpt><trkpt lat="42.40304240624677" lon="14.113208231098179"><ele>93.0</ele><time>2026-04-18T16:08:52Z</time></trkpt><trkpt lat="42.402977382694395" lon="14.113175492729516"><ele>93.0</ele><time>2026-04-18T16:08:54Z</time></trkpt><trkpt lat="42.40303347984568" lon="14.113235790065724"><ele>93.0</ele><time>2026-04-18T16:09:08.001Z</time></trkpt><trkpt lat="42.403015926353284" lon="14.113145811342372"><ele>93.0</ele><time>2026-04-18T16:11:40Z</time></trkpt><trkpt lat="42.40308498266467" lon="14.113273653917703"><ele>93.0</ele><time>2026-04-18T16:22:54Z</time></trkpt><trkpt lat="42.40317476391433" lon="14.113376171145296"><ele>93.0</ele><time>2026-04-18T16:22:55Z</time></trkpt><trkpt lat="42.403255835995786" lon="14.113526182299696"><ele>93.0</ele><time>2026-04-18T16:22:56Z</time></trkpt><trkpt lat="42.40337675374144" lon="14.113668462008377"><ele>93.0</ele><time>2026-04-18T16:22:57Z</time></trkpt><trkpt lat="42.40345766716142" lon="14.113838720653625"><ele>93.0</ele><time>2026-04-18T16:22:58Z</time></trkpt><trkpt lat="42.403531695463776" lon="14.11400044580511"><ele>93.66666666666667</ele><time>2026-04-18T16:22:59Z</time></trkpt><trkpt lat="42.4036165182257" lon="14.11419174419395"><ele>94.33333333333334</ele><time>2026-04-18T16:23:00Z</time></trkpt><trkpt lat="42.40371716130672" lon="14.114348140427671"><ele>95.0</ele><time>2026-04-18T16:23:01Z</time></trkpt><trkpt lat="42.40383152353712" lon="14.114504067411294"><ele>95.0</ele><time>2026-04-18T16:23:02Z</time></trkpt><trkpt lat="42.403949807698865" lon="14.114637844128202"><ele>95.0</ele><time>2026-04-18T16:23:03Z</time></trkpt><trkpt lat="42.40406383510308" lon="14.114751516932179"><ele>95.0</ele><time>2026-04-18T16:23:04Z</time></trkpt><trkpt lat="42.404179552300484" lon="14.114859802205954"><ele>95.0</ele><time>2026-04-18T16:23:05Z</time></trkpt><trkpt lat="42.40429920207567" lon="14.114956079355597"><ele>95.75</ele><time>2026-04-18T16:23:06Z</time></trkpt><trkpt lat="42.40440757425289" lon="14.115049797942987"><ele>96.5</ele><time>2026-04-18T16:23:07Z</time></trkpt><trkpt lat="42.40450914034696" lon="14.115142137338456"><ele>97.25</ele><time>2026-04-18T16:23:08Z</time></trkpt><trkpt lat="42.40460594685976" lon="14.115230978792363"><ele>98.0</ele><time>2026-04-18T16:23:09Z</time></trkpt><trkpt lat="42.40470671980934" lon="14.11531032566029"><ele>98.80000000000001</ele><time>2026-04-18T16:23:10Z</time></trkpt><trkpt lat="42.404808347035804" lon="14.11538965122121"><ele>99.6</ele><time>2026-04-18T16:23:11Z</time></trkpt><trkpt lat="42.40490930652591" lon="14.115448041284154"><ele>100.4</ele><time>2026-04-18T16:23:12Z</time></trkpt><trkpt lat="42.40500845091724" lon="14.115476121092149"><ele>101.19999999999999</ele><time>2026-04-18T16:23:13Z</time></trkpt><trkpt lat="42.40512588286867" lon="14.115495937160134"><ele>102.0</ele><time>2026-04-18T16:23:14Z</time></trkpt><trkpt lat="42.40525458977174" lon="14.115500283691393"><ele>102.0</ele><time>2026-04-18T16:23:15Z</time></trkpt><trkpt lat="42.40537613515752" lon="14.115492710723396"><ele>102.0</ele><time>2026-04-18T16:23:16Z</time></trkpt><trkpt lat="42.405483625504374" lon="14.115510571767118"><ele>102.0</ele><time>2026-04-18T16:23:17Z</time></trkpt><trkpt lat="42.40558920497632" lon="14.115510571764377"><ele>102.0</ele><time>2026-04-18T16:23:18Z</time></trkpt><trkpt lat="42.40568400129657" lon="14.115463751917797"><ele>102.0</ele><time>2026-04-18T16:23:19Z</time></trkpt><trkpt lat="42.40576393917357" lon="14.115434062825742"><ele>102.8</ele><time>2026-04-18T16:23:20Z</time></trkpt><trkpt lat="42.40583301085718" lon="14.115412447219887"><ele>103.6</ele><time>2026-04-18T16:23:21Z</time></trkpt><trkpt lat="42.40590207871128" lon="14.115525911402175"><ele>104.39999999999999</ele><time>2026-04-18T16:23:22Z</time></trkpt><trkpt lat="42.40599234269145" lon="14.115600565492205"><ele>105.19999999999999</ele><time>2026-04-18T16:23:23Z</time></trkpt><trkpt lat="42.40610317082015" lon="14.115667580153733"><ele>106.0</ele><time>2026-04-18T16:23:24Z</time></trkpt><trkpt lat="42.40620151424395" lon="14.115737536582094"><ele>106.0</ele><time>2026-04-18T16:23:25Z</time></trkpt><trkpt lat="42.40629726036686" lon="14.115789871850486"><ele>106.0</ele><time>2026-04-18T16:23:26Z</time></trkpt><trkpt lat="42.406374478092026" lon="14.11585174387933"><ele>106.0</ele><time>2026-04-18T16:23:27Z</time></trkpt><trkpt lat="42.40644710812699" lon="14.115893654527838"><ele>106.0</ele><time>2026-04-18T16:23:28Z</time></trkpt><trkpt lat="42.40654302970563" lon="14.115963228387498"><ele>106.0</ele><time>2026-04-18T16:23:29Z</time></trkpt><trkpt lat="42.40661865212072" lon="14.116028961611109"><ele>105.50000000000001</ele><time>2026-04-18T16:23:30Z</time></trkpt><trkpt lat="42.40669981196038" lon="14.116083858379406"><ele>105.0</ele><time>2026-04-18T16:23:31Z</time></trkpt><trkpt lat="42.40675313735941" lon="14.116142325082293"><ele>104.5</ele><time>2026-04-18T16:23:32Z</time></trkpt><trkpt lat="42.40681352575081" lon="14.11617107926132"><ele>104.0</ele><time>2026-04-18T16:23:33Z</time></trkpt><trkpt lat="42.40688419600312" lon="14.116253125912516"><ele>103.50000000000001</ele><time>2026-04-18T16:23:35Z</time></trkpt><trkpt lat="42.40695161623152" lon="14.116319187891412"><ele>103.0</ele><time>2026-04-18T16:23:38Z</time></trkpt><trkpt lat="42.406883841572686" lon="14.116248678496994"><ele>103.0</ele><time>2026-04-18T16:23:46.001Z</time></trkpt><trkpt lat="42.406830062395734" lon="14.116194132894634"><ele>103.0</ele><time>2026-04-18T16:23:47.001Z</time></trkpt><trkpt lat="42.40676569663127" lon="14.116141699205993"><ele>103.0</ele><time>2026-04-18T16:23:48.001Z</time></trkpt><trkpt lat="42.4067593796973" lon="14.116382925344098"><ele>103.0</ele><time>2026-04-18T16:23:49.001Z</time></trkpt><trkpt lat="42.4065058526055" lon="14.11640930215924"><ele>103.0</ele><time>2026-04-18T16:23:50.001Z</time></trkpt><trkpt lat="42.4064037017011" lon="14.11639599254165"><ele>103.0</ele><time>2026-04-18T16:23:51.001Z</time></trkpt><trkpt lat="42.40630870428781" lon="14.116431044086998"><ele>103.0</ele><time>2026-04-18T16:23:53.001Z</time></trkpt><trkpt lat="42.4062237016297" lon="14.116421785053973"><ele>103.0</ele><time>2026-04-18T16:23:54Z</time></trkpt><trkpt lat="42.40606845232742" lon="14.115638143087436"><ele>104.2</ele><time>2026-04-18T16:23:55Z</time></trkpt><trkpt lat="42.405985826699045" lon="14.115571292423367"><ele>105.4</ele><time>2026-04-18T16:23:56Z</time></trkpt><trkpt lat="42.40591917371958" lon="14.115513924415911"><ele>106.60000000000001</ele><time>2026-04-18T16:23:57Z</time></trkpt><trkpt lat="42.40583945464889" lon="14.115443952917271"><ele>107.80000000000001</ele><time>2026-04-18T16:23:59Z</time></trkpt><trkpt lat="42.405723964824396" lon="14.115422338926283"><ele>109.0</ele><time>2026-04-18T16:24:01Z</time></trkpt><trkpt lat="42.40561031622365" lon="14.115452309741531"><ele>107.25</ele><time>2026-04-18T16:24:02Z</time></trkpt><trkpt lat="42.405480085886765" lon="14.115484937317119"><ele>105.5</ele><time>2026-04-18T16:24:03Z</time></trkpt><trkpt lat="42.40534412819526" lon="14.115490818054523"><ele>103.75</ele><time>2026-04-18T16:24:04Z</time></trkpt><trkpt lat="42.405218778490855" lon="14.115483108415772"><ele>102.0</ele><time>2026-04-18T16:24:05Z</time></trkpt><trkpt lat="42.40510089680846" lon="14.115473519730429"><ele>102.0</ele><time>2026-04-18T16:24:06Z</time></trkpt><trkpt lat="42.40499441384092" lon="14.11545997609035"><ele>102.0</ele><time>2026-04-18T16:24:07Z</time></trkpt><trkpt lat="42.404896180947354" lon="14.115430624413866"><ele>102.0</ele><time>2026-04-18T16:24:08Z</time></trkpt><trkpt lat="42.404807346912946" lon="14.115333423343124"><ele>102.0</ele><time>2026-04-18T16:24:09Z</time></trkpt><trkpt lat="42.40468855901897" lon="14.115246096261679"><ele>101.0</ele><time>2026-04-18T16:24:10Z</time></trkpt><trkpt lat="42.404565806304866" lon="14.115148514869993"><ele>100.0</ele><time>2026-04-18T16:24:11Z</time></trkpt><trkpt lat="42.40443671872302" lon="14.115060656785714"><ele>99.0</ele><time>2026-04-18T16:24:12Z</time></trkpt><trkpt lat="42.40429951181853" lon="14.114944881876339"><ele>98.0</ele><time>2026-04-18T16:24:13Z</time></trkpt><trkpt lat="42.404179445167735" lon="14.11480894488487"><ele>98.0</ele><time>2026-04-18T16:24:14Z</time></trkpt><trkpt lat="42.40406202077862" lon="14.114698362187854"><ele>98.0</ele><time>2026-04-18T16:24:15Z</time></trkpt><trkpt lat="42.403939113191" lon="14.114605282415463"><ele>98.0</ele><time>2026-04-18T16:24:16Z</time></trkpt><trkpt lat="42.403824705578856" lon="14.114486020345868"><ele>98.0</ele><time>2026-04-18T16:24:17Z</time></trkpt><trkpt lat="42.40372401948314" lon="14.114339743333073"><ele>98.0</ele><time>2026-04-18T16:24:18Z</time></trkpt><trkpt lat="42.403635914177904" lon="14.114193280967921"><ele>98.0</ele><time>2026-04-18T16:24:19Z</time></trkpt><trkpt lat="42.40357609103847" lon="14.114016340482236"><ele>98.0</ele><time>2026-04-18T16:24:20Z</time></trkpt><trkpt lat="42.403499196950754" lon="14.113860853910502"><ele>98.0</ele><time>2026-04-18T16:24:21Z</time></trkpt><trkpt lat="42.40341828797173" lon="14.113706071808592"><ele>96.33333333333333</ele><time>2026-04-18T16:24:22Z</time></trkpt><trkpt lat="42.40332071749424" lon="14.113553379518075"><ele>94.66666666666666</ele><time>2026-04-18T16:24:23Z</time></trkpt><trkpt lat="42.403220216447174" lon="14.1134116312018"><ele>93.0</ele><time>2026-04-18T16:24:24Z</time></trkpt><trkpt lat="42.40309808970276" lon="14.11327014194414"><ele>90.66666666666667</ele><time>2026-04-18T16:24:25Z</time></trkpt><trkpt lat="42.40295434581834" lon="14.113106117376725"><ele>88.33333333333334</ele><time>2026-04-18T16:24:26Z</time></trkpt><trkpt lat="42.40281966893873" lon="14.112945744345417"><ele>86.0</ele><time>2026-04-18T16:24:27Z</time></trkpt><trkpt lat="42.40266205374273" lon="14.112769305156966"><ele>86.0</ele><time>2026-04-18T16:24:28.001Z</time></trkpt><trkpt lat="42.40252026384066" lon="14.112585148236727"><ele>86.0</ele><time>2026-04-18T16:24:29.001Z</time></trkpt><trkpt lat="42.402359396622224" lon="14.1124373830892"><ele>86.0</ele><time>2026-04-18T16:24:30.001Z</time></trkpt><trkpt lat="42.402214234023695" lon="14.112289720168421"><ele>85.66666666666667</ele><time>2026-04-18T16:24:31.001Z</time></trkpt><trkpt lat="42.40208472640989" lon="14.112157143341577"><ele>85.33333333333333</ele><time>2026-04-18T16:24:32.001Z</time></trkpt><trkpt lat="42.40195672228682" lon="14.112016827313175"><ele>85.0</ele><time>2026-04-18T16:24:33.001Z</time></trkpt><trkpt lat="42.40184516132576" lon="14.111898282478402"><ele>85.0</ele><time>2026-04-18T16:24:34.001Z</time></trkpt><trkpt lat="42.40174614531717" lon="14.111794889142205"><ele>85.0</ele><time>2026-04-18T16:24:35.001Z</time></trkpt><trkpt lat="42.40166026048961" lon="14.1117123969707"><ele>85.0</ele><time>2026-04-18T16:24:36.001Z</time></trkpt><trkpt lat="42.40157487368273" lon="14.111629618161576"><ele>85.0</ele><time>2026-04-18T16:24:37.001Z</time></trkpt><trkpt lat="42.40147922335148" lon="14.111558043673634"><ele>85.0</ele><time>2026-04-18T16:24:38.001Z</time></trkpt><trkpt lat="42.40138146087233" lon="14.111508036372129"><ele>83.0</ele><time>2026-04-18T16:24:39.001Z</time></trkpt><trkpt lat="42.40129160162336" lon="14.111438491660412"><ele>81.0</ele><time>2026-04-18T16:24:40.001Z</time></trkpt><trkpt lat="42.401208709004635" lon="14.11136962265508"><ele>79.0</ele><time>2026-04-18T16:24:41.001Z</time></trkpt><trkpt lat="42.401141598995665" lon="14.111302722019762"><ele>77.0</ele><time>2026-04-18T16:24:42.001Z</time></trkpt><trkpt lat="42.40108308860265" lon="14.111261366104113"><ele>75.0</ele><time>2026-04-18T16:24:43.001Z</time></trkpt><trkpt lat="42.40101013258542" lon="14.11123113583815"><ele>73.0</ele><time>2026-04-18T16:24:44.001Z</time></trkpt><trkpt lat="42.40092754548674" lon="14.111231672248957"><ele>73.0</ele><time>2026-04-18T16:24:45.001Z</time></trkpt><trkpt lat="42.400833355575486" lon="14.111262484878573"><ele>73.0</ele><time>2026-04-18T16:24:46.001Z</time></trkpt><trkpt lat="42.40073161266053" lon="14.111327734224847"><ele>73.0</ele><time>2026-04-18T16:24:47.001Z</time></trkpt><trkpt lat="42.40063176411311" lon="14.1114262290516"><ele>73.0</ele><time>2026-04-18T16:24:48.001Z</time></trkpt><trkpt lat="42.40051598810557" lon="14.111540810852732"><ele>71.5</ele><time>2026-04-18T16:24:49.001Z</time></trkpt><trkpt lat="42.40040235156138" lon="14.111676503303833"><ele>70.0</ele><time>2026-04-18T16:24:50.001Z</time></trkpt><trkpt lat="42.400300019466044" lon="14.11178624192699"><ele>68.5</ele><time>2026-04-18T16:24:51.001Z</time></trkpt><trkpt lat="42.400207776738675" lon="14.111876611144375"><ele>67.0</ele><time>2026-04-18T16:24:52.001Z</time></trkpt><trkpt lat="42.4001051346528" lon="14.111950705010024"><ele>67.0</ele><time>2026-04-18T16:24:53.001Z</time></trkpt><trkpt lat="42.399990829367695" lon="14.112020332179696"><ele>67.0</ele><time>2026-04-18T16:24:54.001Z</time></trkpt><trkpt lat="42.39988271839672" lon="14.11202886014216"><ele>67.0</ele><time>2026-04-18T16:24:55.001Z</time></trkpt><trkpt lat="42.39975676232736" lon="14.1120480802524"><ele>67.0</ele><time>2026-04-18T16:24:56.001Z</time></trkpt><trkpt lat="42.3996304229382" lon="14.112097016312626"><ele>66.5</ele><time>2026-04-18T16:24:57.001Z</time></trkpt><trkpt lat="42.39950409426122" lon="14.112142022025564"><ele>66.0</ele><time>2026-04-18T16:24:58.001Z</time></trkpt><trkpt lat="42.39936360019984" lon="14.112214888287077"><ele>65.5</ele><time>2026-04-18T16:24:59.001Z</time></trkpt><trkpt lat="42.39923911617181" lon="14.112297470861671"><ele>65.0</ele><time>2026-04-18T16:25:00.001Z</time></trkpt><trkpt lat="42.39913045178852" lon="14.112338069795712"><ele>65.0</ele><time>2026-04-18T16:25:01.001Z</time></trkpt><trkpt lat="42.39904335299848" lon="14.112374679580308"><ele>65.0</ele><time>2026-04-18T16:25:02.001Z</time></trkpt><trkpt lat="42.3989803593479" lon="14.112395641571897"><ele>65.0</ele><time>2026-04-18T16:25:03.001Z</time></trkpt><trkpt lat="42.39891794606807" lon="14.112409512507291"><ele>65.0</ele><time>2026-04-18T16:25:05.001Z</time></trkpt><trkpt lat="42.39888509773268" lon="14.112537912465932"><ele>65.0</ele><time>2026-04-18T16:25:07.001Z</time></trkpt><trkpt lat="42.398857578022195" lon="14.11267460736324"><ele>65.0</ele><time>2026-04-18T16:25:10.001Z</time></trkpt><trkpt lat="42.398837625834304" lon="14.112792449838528"><ele>64.8</ele><time>2026-04-18T16:25:12.001Z</time></trkpt><trkpt lat="42.39878845983389" lon="14.112961760914903"><ele>64.6</ele><time>2026-04-18T16:25:14.001Z</time></trkpt><trkpt lat="42.39873440230076" lon="14.11308871942126"><ele>64.4</ele><time>2026-04-18T16:25:15.001Z</time></trkpt><trkpt lat="42.398684325737094" lon="14.113217530143755"><ele>64.2</ele><time>2026-04-18T16:25:16.001Z</time></trkpt><trkpt lat="42.39865307057633" lon="14.11330692287031"><ele>64.0</ele><time>2026-04-18T16:25:17.001Z</time></trkpt><trkpt lat="42.398624144901845" lon="14.11340540493382"><ele>63.99999999999999</ele><time>2026-04-18T16:25:18.001Z</time></trkpt><trkpt lat="42.398610518819936" lon="14.113526266723575"><ele>64.0</ele><time>2026-04-18T16:25:19.001Z</time></trkpt><trkpt lat="42.39861516735316" lon="14.113650614747762"><ele>64.0</ele><time>2026-04-18T16:25:20.001Z</time></trkpt><trkpt lat="42.39861524567519" lon="14.113762873171831"><ele>64.0</ele><time>2026-04-18T16:25:21.001Z</time></trkpt><trkpt lat="42.398618144726704" lon="14.113876384242973"><ele>63.99999999999999</ele><time>2026-04-18T16:25:22.001Z</time></trkpt><trkpt lat="42.39863505754437" lon="14.113984224068956"><ele>64.0</ele><time>2026-04-18T16:25:23.001Z</time></trkpt><trkpt lat="42.39863630871497" lon="14.114083252474082"><ele>63.800000000000004</ele><time>2026-04-18T16:25:24.001Z</time></trkpt><trkpt lat="42.398671285974025" lon="14.114254661360572"><ele>63.60000000000001</ele><time>2026-04-18T16:25:26.001Z</time></trkpt><trkpt lat="42.39868525110395" lon="14.114369383935285"><ele>63.4</ele><time>2026-04-18T16:25:27.001Z</time></trkpt><trkpt lat="42.39872253560042" lon="14.114510930142382"><ele>63.2</ele><time>2026-04-18T16:25:28.001Z</time></trkpt><trkpt lat="42.39876901365603" lon="14.114660464837664"><ele>63.0</ele><time>2026-04-18T16:25:29.001Z</time></trkpt><trkpt lat="42.39881127758383" lon="14.114777776898043"><ele>65.2</ele><time>2026-04-18T16:25:30.001Z</time></trkpt><trkpt lat="42.39885479357348" lon="14.11489026810917"><ele>67.4</ele><time>2026-04-18T16:25:31.001Z</time></trkpt><trkpt lat="42.39890405506957" lon="14.11499647534697"><ele>69.60000000000001</ele><time>2026-04-18T16:25:32.001Z</time></trkpt><trkpt lat="42.398957135381295" lon="14.115094780751697"><ele>71.8</ele><time>2026-04-18T16:25:33.001Z</time></trkpt><trkpt lat="42.39902117706989" lon="14.115207100005875"><ele>74.0</ele><time>2026-04-18T16:25:34.001Z</time></trkpt><trkpt lat="42.399079203218655" lon="14.115350043787988"><ele>74.0</ele><time>2026-04-18T16:25:35.001Z</time></trkpt><trkpt lat="42.399138656606326" lon="14.115467031688432"><ele>74.0</ele><time>2026-04-18T16:25:36.001Z</time></trkpt><trkpt lat="42.39918527845516" lon="14.115565898901835"><ele>74.0</ele><time>2026-04-18T16:25:37.001Z</time></trkpt><trkpt lat="42.39922731430902" lon="14.115686820076636"><ele>74.0</ele><time>2026-04-18T16:25:38.001Z</time></trkpt><trkpt lat="42.399258385683055" lon="14.115843334701644"><ele>74.0</ele><time>2026-04-18T16:25:39.001Z</time></trkpt><trkpt lat="42.39925328775207" lon="14.115997440568231"><ele>72.16666666666667</ele><time>2026-04-18T16:25:40.001Z</time></trkpt><trkpt lat="42.39926517943173" lon="14.11608269942249"><ele>70.33333333333334</ele><time>2026-04-18T16:25:41.001Z</time></trkpt><trkpt lat="42.39928490429607" lon="14.11616925317929"><ele>68.5</ele><time>2026-04-18T16:25:42.001Z</time></trkpt><trkpt lat="42.399321377219415" lon="14.116251146650745"><ele>66.66666666666667</ele><time>2026-04-18T16:25:44.001Z</time></trkpt><trkpt lat="42.39942342103388" lon="14.116238893771207"><ele>64.83333333333333</ele><time>2026-04-18T16:25:46.001Z</time></trkpt><trkpt lat="42.399487901821715" lon="14.116230053855501"><ele>63.0</ele><time>2026-04-18T16:25:47.001Z</time></trkpt><trkpt lat="42.39957141450661" lon="14.116235455048697"><ele>63.0</ele><time>2026-04-18T16:25:48.001Z</time></trkpt><trkpt lat="42.39966697439941" lon="14.116202243841686"><ele>63.0</ele><time>2026-04-18T16:25:49.001Z</time></trkpt><trkpt lat="42.3997665894588" lon="14.116207407730762"><ele>63.0</ele><time>2026-04-18T16:25:50.001Z</time></trkpt><trkpt lat="42.39987707527379" lon="14.116206323525866"><ele>63.0</ele><time>2026-04-18T16:25:51.001Z</time></trkpt><trkpt lat="42.40000184247913" lon="14.116205370182021"><ele>63.0</ele><time>2026-04-18T16:25:52.001Z</time></trkpt><trkpt lat="42.400128100388244" lon="14.116212358601873"><ele>65.6</ele><time>2026-04-18T16:25:53.001Z</time></trkpt><trkpt lat="42.4002555735841" lon="14.116230696393888"><ele>68.19999999999999</ele><time>2026-04-18T16:25:54.001Z</time></trkpt><trkpt lat="42.40036093270377" lon="14.116260652863096"><ele>70.8</ele><time>2026-04-18T16:25:55.001Z</time></trkpt><trkpt lat="42.4004523208415" lon="14.116292220490465"><ele>73.39999999999999</ele><time>2026-04-18T16:25:56.001Z</time></trkpt><trkpt lat="42.40053265072889" lon="14.11631398432332"><ele>76.0</ele><time>2026-04-18T16:25:57.001Z</time></trkpt><trkpt lat="42.40059187738082" lon="14.116405453462091"><ele>77.0</ele><time>2026-04-18T16:25:58.001Z</time></trkpt><trkpt lat="42.40066652165212" lon="14.116498540417991"><ele>78.0</ele><time>2026-04-18T16:25:59.001Z</time></trkpt><trkpt lat="42.40074997805056" lon="14.11657292753346"><ele>79.0</ele><time>2026-04-18T16:26:00.001Z</time></trkpt><trkpt lat="42.40082076244131" lon="14.116671821394126"><ele>80.0</ele><time>2026-04-18T16:26:01.001Z</time></trkpt><trkpt lat="42.400899879912" lon="14.116768628504488"><ele>81.0</ele><time>2026-04-18T16:26:02.001Z</time></trkpt><trkpt lat="42.4009727871698" lon="14.11687295500993"><ele>81.0</ele><time>2026-04-18T16:26:03.001Z</time></trkpt><trkpt lat="42.40104004915379" lon="14.1169905309803"><ele>81.0</ele><time>2026-04-18T16:26:04.001Z</time></trkpt><trkpt lat="42.40110897443777" lon="14.117088312777009"><ele>81.0</ele><time>2026-04-18T16:26:05.001Z</time></trkpt><trkpt lat="42.40117985063973" lon="14.11719151035224"><ele>81.0</ele><time>2026-04-18T16:26:06.001Z</time></trkpt><trkpt lat="42.40125994519915" lon="14.117311379871785"><ele>81.0</ele><time>2026-04-18T16:26:07.001Z</time></trkpt><trkpt lat="42.40133859109112" lon="14.117429207799182"><ele>80.8</ele><time>2026-04-18T16:26:08.001Z</time></trkpt><trkpt lat="42.40141030764849" lon="14.117537056775598"><ele>80.6</ele><time>2026-04-18T16:26:09.001Z</time></trkpt><trkpt lat="42.40148862637892" lon="14.117617342410147"><ele>80.4</ele><time>2026-04-18T16:26:10.001Z</time></trkpt><trkpt lat="42.40155635159015" lon="14.117723186892327"><ele>80.2</ele><time>2026-04-18T16:26:11.001Z</time></trkpt><trkpt lat="42.40162436257787" lon="14.117816017847398"><ele>80.0</ele><time>2026-04-18T16:26:12.001Z</time></trkpt><trkpt lat="42.4016846488594" lon="14.117908907254929"><ele>80.0</ele><time>2026-04-18T16:26:13.001Z</time></trkpt><trkpt lat="42.401758827190385" lon="14.117968964050098"><ele>80.0</ele><time>2026-04-18T16:26:14.001Z</time></trkpt><trkpt lat="42.40182188970511" lon="14.118022629434119"><ele>80.0</ele><time>2026-04-18T16:26:15.001Z</time></trkpt><trkpt lat="42.40190805365083" lon="14.118097751432696"><ele>80.0</ele><time>2026-04-18T16:26:17.001Z</time></trkpt><trkpt lat="42.401968815645766" lon="14.118150726754292"><ele>80.0</ele><time>2026-04-18T16:26:19.001Z</time></trkpt><trkpt lat="42.40190106605142" lon="14.11843665816795"><ele>79.8</ele><time>2026-04-18T16:26:20.001Z</time></trkpt><trkpt lat="42.401953143755705" lon="14.118495376451603"><ele>79.6</ele><time>2026-04-18T16:26:21.001Z</time></trkpt><trkpt lat="42.402003642444974" lon="14.118563471158769"><ele>79.4</ele><time>2026-04-18T16:26:22.001Z</time></trkpt><trkpt lat="42.40208493117132" lon="14.118612568631875"><ele>79.2</ele><time>2026-04-18T16:26:23.001Z</time></trkpt><trkpt lat="42.40217862803377" lon="14.118658284728811"><ele>79.0</ele><time>2026-04-18T16:26:24.001Z</time></trkpt><trkpt lat="42.40229337620208" lon="14.118725081135493"><ele>79.0</ele><time>2026-04-18T16:26:25.001Z</time></trkpt><trkpt lat="42.402416570792724" lon="14.118797632074475"><ele>79.0</ele><time>2026-04-18T16:26:26.001Z</time></trkpt><trkpt lat="42.40253470716537" lon="14.118850036083852"><ele>79.0</ele><time>2026-04-18T16:26:27.001Z</time></trkpt><trkpt lat="42.402632525211544" lon="14.118914247725636"><ele>79.0</ele><time>2026-04-18T16:26:28.001Z</time></trkpt><trkpt lat="42.40272065601006" lon="14.118960850180166"><ele>79.0</ele><time>2026-04-18T16:26:29.001Z</time></trkpt><trkpt lat="42.40277216112991" lon="14.11902340527945"><ele>79.0</ele><time>2026-04-18T16:26:30.001Z</time></trkpt><trkpt lat="42.40283530795035" lon="14.119087897401906"><ele>79.0</ele><time>2026-04-18T16:26:35.001Z</time></trkpt><trkpt lat="42.402939444267524" lon="14.118927611252548"><ele>79.0</ele><time>2026-04-18T16:26:36.001Z</time></trkpt><trkpt lat="42.403004624326265" lon="14.118853583196564"><ele>79.0</ele><time>2026-04-18T16:26:38.001Z</time></trkpt><trkpt lat="42.40306907022041" lon="14.118748813725329"><ele>79.16666666666666</ele><time>2026-04-18T16:26:40.001Z</time></trkpt><trkpt lat="42.40313920076445" lon="14.118664509407058"><ele>79.33333333333333</ele><time>2026-04-18T16:26:42.001Z</time></trkpt><trkpt lat="42.40319365312213" lon="14.118603579776357"><ele>79.5</ele><time>2026-04-18T16:27:01.001Z</time></trkpt><trkpt lat="42.40324235763376" lon="14.118542343505284"><ele>79.66666666666667</ele><time>2026-04-18T16:27:02.001Z</time></trkpt><trkpt lat="42.40330890037658" lon="14.118453653710118"><ele>79.83333333333334</ele><time>2026-04-18T16:27:03.001Z</time></trkpt><trkpt lat="42.40337494632612" lon="14.118362352541165"><ele>80.0</ele><time>2026-04-18T16:27:04.001Z</time></trkpt><trkpt lat="42.403446835749904" lon="14.118276765733658"><ele>80.4</ele><time>2026-04-18T16:27:05.001Z</time></trkpt><trkpt lat="42.403536068164314" lon="14.11820103007281"><ele>80.8</ele><time>2026-04-18T16:27:06.001Z</time></trkpt><trkpt lat="42.40362091352494" lon="14.118100268165401"><ele>81.19999999999999</ele><time>2026-04-18T16:27:07.001Z</time></trkpt><trkpt lat="42.40370538757054" lon="14.117998783824316"><ele>81.6</ele><time>2026-04-18T16:27:08.001Z</time></trkpt><trkpt lat="42.4037787424979" lon="14.117910659283307"><ele>82.0</ele><time>2026-04-18T16:27:09.001Z</time></trkpt><trkpt lat="42.40385276149267" lon="14.117820948775094"><ele>82.75</ele><time>2026-04-18T16:27:10.001Z</time></trkpt><trkpt lat="42.40394351791808" lon="14.1177111361942"><ele>83.5</ele><time>2026-04-18T16:27:11.001Z</time></trkpt><trkpt lat="42.40403686359224" lon="14.11759819033055"><ele>84.25</ele><time>2026-04-18T16:27:12.001Z</time></trkpt><trkpt lat="42.404132891262876" lon="14.117481999709403"><ele>85.0</ele><time>2026-04-18T16:27:13.001Z</time></trkpt><trkpt lat="42.404228497566315" lon="14.117364688589463"><ele>86.0</ele><time>2026-04-18T16:27:14.001Z</time></trkpt><trkpt lat="42.40432730167252" lon="14.117242761383874"><ele>87.0</ele><time>2026-04-18T16:27:15.001Z</time></trkpt><trkpt lat="42.40440989766415" lon="14.117138984650964"><ele>88.0</ele><time>2026-04-18T16:27:16.001Z</time></trkpt><trkpt lat="42.40448261450023" lon="14.11704637863008"><ele>89.0</ele><time>2026-04-18T16:27:17.001Z</time></trkpt><trkpt lat="42.404549464113124" lon="14.116961244622372"><ele>90.0</ele><time>2026-04-18T16:27:18.001Z</time></trkpt><trkpt lat="42.40461118930556" lon="14.116882652702419"><ele>90.8</ele><time>2026-04-18T16:27:19.001Z</time></trkpt><trkpt lat="42.40466600165504" lon="14.116790627881182"><ele>91.6</ele><time>2026-04-18T16:27:20.001Z</time></trkpt><trkpt lat="42.404739695300364" lon="14.116701980657579"><ele>92.4</ele><time>2026-04-18T16:27:21.001Z</time></trkpt><trkpt lat="42.40481423133552" lon="14.11660869794109"><ele>93.2</ele><time>2026-04-18T16:27:22.001Z</time></trkpt><trkpt lat="42.40489536034735" lon="14.116513584005126"><ele>94.0</ele><time>2026-04-18T16:27:23.001Z</time></trkpt><trkpt lat="42.404965049243906" lon="14.116418146059813"><ele>95.6</ele><time>2026-04-18T16:27:24.001Z</time></trkpt><trkpt lat="42.405032161169025" lon="14.116334063910243"><ele>97.2</ele><time>2026-04-18T16:27:25.001Z</time></trkpt><trkpt lat="42.40510177621109" lon="14.116259606640005"><ele>98.8</ele><time>2026-04-18T16:27:26.001Z</time></trkpt><trkpt lat="42.40516465326938" lon="14.116185468812898"><ele>100.39999999999999</ele><time>2026-04-18T16:27:27.001Z</time></trkpt><trkpt lat="42.40524127536462" lon="14.116068266851217"><ele>102.0</ele><time>2026-04-18T16:27:29.001Z</time></trkpt><trkpt lat="42.40529194090511" lon="14.115985631000006"><ele>102.0</ele><time>2026-04-18T16:27:30.001Z</time></trkpt><trkpt lat="42.405338039860865" lon="14.115904036821066"><ele>102.0</ele><time>2026-04-18T16:27:31.001Z</time></trkpt><trkpt lat="42.40537396325047" lon="14.115819097369744"><ele>102.0</ele><time>2026-04-18T16:27:32.001Z</time></trkpt><trkpt lat="42.40540530498963" lon="14.11573613791443"><ele>102.0</ele><time>2026-04-18T16:27:33.001Z</time></trkpt><trkpt lat="42.4054507995062" lon="14.115608028736549"><ele>102.0</ele><time>2026-04-18T16:27:35.001Z</time></trkpt><trkpt lat="42.40553616813802" lon="14.11551329457353"><ele>102.0</ele><time>2026-04-18T16:27:37.001Z</time></trkpt><trkpt lat="42.405654234502336" lon="14.11548000258959"><ele>103.39999999999999</ele><time>2026-04-18T16:27:39.001Z</time></trkpt><trkpt lat="42.40576970930644" lon="14.11541519798659"><ele>104.8</ele><time>2026-04-18T16:27:41.001Z</time></trkpt><trkpt lat="42.4058239280291" lon="14.11534938460667"><ele>106.2</ele><time>2026-04-18T16:27:42.001Z</time></trkpt><trkpt lat="42.405862624138614" lon="14.11526199461478"><ele>107.6</ele><time>2026-04-18T16:27:43.001Z</time></trkpt><trkpt lat="42.405905316906704" lon="14.115147355005234"><ele>109.0</ele><time>2026-04-18T16:27:44.001Z</time></trkpt><trkpt lat="42.4059409120708" lon="14.115014810404396"><ele>108.80000000000001</ele><time>2026-04-18T16:27:45.001Z</time></trkpt><trkpt lat="42.4059699297323" lon="14.11487083696775"><ele>108.60000000000001</ele><time>2026-04-18T16:27:46.001Z</time></trkpt><trkpt lat="42.40600308433549" lon="14.114719027601435"><ele>108.4</ele><time>2026-04-18T16:27:47.001Z</time></trkpt><trkpt lat="42.40604085936973" lon="14.114573163724927"><ele>108.2</ele><time>2026-04-18T16:27:48.001Z</time></trkpt><trkpt lat="42.40607645924769" lon="14.114435377362705"><ele>108.0</ele><time>2026-04-18T16:27:49.001Z</time></trkpt><trkpt lat="42.40610528689783" lon="14.114292880820797"><ele>108.0</ele><time>2026-04-18T16:27:50.001Z</time></trkpt><trkpt lat="42.40613716080978" lon="14.114147781117058"><ele>108.00000000000001</ele><time>2026-04-18T16:27:51.001Z</time></trkpt><trkpt lat="42.40616140528619" lon="14.114016342752127"><ele>108.00000000000001</ele><time>2026-04-18T16:27:52.001Z</time></trkpt><trkpt lat="42.406204082619915" lon="14.113903344341892"><ele>108.0</ele><time>2026-04-18T16:27:53.001Z</time></trkpt><trkpt lat="42.406226514059554" lon="14.113793007530871"><ele>108.0</ele><time>2026-04-18T16:27:54.001Z</time></trkpt><trkpt lat="42.40624805726523" lon="14.113688139709035"><ele>108.28571428571428</ele><time>2026-04-18T16:27:55.001Z</time></trkpt><trkpt lat="42.4062691582959" lon="14.113585424119467"><ele>108.57142857142857</ele><time>2026-04-18T16:27:56.001Z</time></trkpt><trkpt lat="42.40627701584869" lon="14.113478092925638"><ele>108.85714285714286</ele><time>2026-04-18T16:27:57.001Z</time></trkpt><trkpt lat="42.40629603778344" lon="14.113384732516037"><ele>109.14285714285714</ele><time>2026-04-18T16:27:58.001Z</time></trkpt><trkpt lat="42.40631454268743" lon="14.113288426344115"><ele>109.42857142857143</ele><time>2026-04-18T16:27:59.001Z</time></trkpt><trkpt lat="42.406332823223536" lon="14.113204297038372"><ele>109.71428571428571</ele><time>2026-04-18T16:28:00.001Z</time></trkpt><trkpt lat="42.40635425069664" lon="14.113103460111821"><ele>110.0</ele><time>2026-04-18T16:28:01.001Z</time></trkpt><trkpt lat="42.406383641229894" lon="14.11299981478216"><ele>111.8</ele><time>2026-04-18T16:28:02.001Z</time></trkpt><trkpt lat="42.406428608539244" lon="14.1129173744808"><ele>113.6</ele><time>2026-04-18T16:28:03.001Z</time></trkpt><trkpt lat="42.40648896804698" lon="14.112792286885464"><ele>115.4</ele><time>2026-04-18T16:28:05.001Z</time></trkpt><trkpt lat="42.406584300301816" lon="14.112728058011733"><ele>117.2</ele><time>2026-04-18T16:28:07.001Z</time></trkpt><trkpt lat="42.406705868328636" lon="14.112701844489637"><ele>119.0</ele><time>2026-04-18T16:28:09.001Z</time></trkpt><trkpt lat="42.40678713745703" lon="14.112692428895741"><ele>119.0</ele><time>2026-04-18T16:28:10.001Z</time></trkpt><trkpt lat="42.40687875479609" lon="14.112674290493139"><ele>119.0</ele><time>2026-04-18T16:28:11.001Z</time></trkpt><trkpt lat="42.40696579305037" lon="14.112664825672194"><ele>119.0</ele><time>2026-04-18T16:28:12.001Z</time></trkpt><trkpt lat="42.407054743028056" lon="14.1126609632148"><ele>119.0</ele><time>2026-04-18T16:28:13.001Z</time></trkpt><trkpt lat="42.40714475269773" lon="14.112665951061079"><ele>119.0</ele><time>2026-04-18T16:28:14.001Z</time></trkpt><trkpt lat="42.407242911571736" lon="14.112655426609658"><ele>118.5</ele><time>2026-04-18T16:28:15.001Z</time></trkpt><trkpt lat="42.40736611956759" lon="14.112638466303247"><ele>118.0</ele><time>2026-04-18T16:28:16.001Z</time></trkpt><trkpt lat="42.4074997200927" lon="14.112622782155258"><ele>117.5</ele><time>2026-04-18T16:28:17.001Z</time></trkpt><trkpt lat="42.40762978238808" lon="14.112608909554158"><ele>117.0</ele><time>2026-04-18T16:28:18.001Z</time></trkpt><trkpt lat="42.40777125601437" lon="14.11261984179612"><ele>117.0</ele><time>2026-04-18T16:28:19.001Z</time></trkpt><trkpt lat="42.407905164324404" lon="14.112604131141472"><ele>117.0</ele><time>2026-04-18T16:28:20.001Z</time></trkpt><trkpt lat="42.40801988173778" lon="14.112605405562986"><ele>117.0</ele><time>2026-04-18T16:28:21.001Z</time></trkpt><trkpt lat="42.40812577239371" lon="14.112614282610203"><ele>117.0</ele><time>2026-04-18T16:28:22.001Z</time></trkpt><trkpt lat="42.40822157807505" lon="14.112626339109523"><ele>118.6</ele><time>2026-04-18T16:28:23.001Z</time></trkpt><trkpt lat="42.40830171879353" lon="14.112634173094795"><ele>120.19999999999999</ele><time>2026-04-18T16:28:24.001Z</time></trkpt><trkpt lat="42.40839028123905" lon="14.11266161623067"><ele>121.8</ele><time>2026-04-18T16:28:25.001Z</time></trkpt><trkpt lat="42.40849230062683" lon="14.112690592763535"><ele>123.4</ele><time>2026-04-18T16:28:26.001Z</time></trkpt><trkpt lat="42.40860086704752" lon="14.112718979864542"><ele>125.0</ele><time>2026-04-18T16:28:27.001Z</time></trkpt><trkpt lat="42.408716438348975" lon="14.112746048435662"><ele>123.75</ele><time>2026-04-18T16:28:28.001Z</time></trkpt><trkpt lat="42.408856843929925" lon="14.11276450163282"><ele>122.5</ele><time>2026-04-18T16:28:29.001Z</time></trkpt><trkpt lat="42.40901211112271" lon="14.112785052501192"><ele>121.25</ele><time>2026-04-18T16:28:30.001Z</time></trkpt><trkpt lat="42.40914897753959" lon="14.112804437428458"><ele>120.0</ele><time>2026-04-18T16:28:31.001Z</time></trkpt><trkpt lat="42.409281454524674" lon="14.112827376788504"><ele>120.0</ele><time>2026-04-18T16:28:32.001Z</time></trkpt><trkpt lat="42.409409932623184" lon="14.112846601360316"><ele>120.0</ele><time>2026-04-18T16:28:33.001Z</time></trkpt><trkpt lat="42.40953934745105" lon="14.11286555504244"><ele>120.0</ele><time>2026-04-18T16:28:34.001Z</time></trkpt><trkpt lat="42.409663062578716" lon="14.112891342185508"><ele>120.0</ele><time>2026-04-18T16:28:35.001Z</time></trkpt><trkpt lat="42.40978101149229" lon="14.112911700898742"><ele>119.0</ele><time>2026-04-18T16:28:36.001Z</time></trkpt><trkpt lat="42.40990191671205" lon="14.11292627887341"><ele>118.0</ele><time>2026-04-18T16:28:37.001Z</time></trkpt><trkpt lat="42.41002757296191" lon="14.11294154736373"><ele>117.0</ele><time>2026-04-18T16:28:38.001Z</time></trkpt><trkpt lat="42.41016122651754" lon="14.112950390867008"><ele>116.0</ele><time>2026-04-18T16:28:39.001Z</time></trkpt><trkpt lat="42.41029880919347" lon="14.112947895600554"><ele>116.0</ele><time>2026-04-18T16:28:40.001Z</time></trkpt><trkpt lat="42.410438068749386" lon="14.112946498304856"><ele>116.0</ele><time>2026-04-18T16:28:41.001Z</time></trkpt><trkpt lat="42.410585424946895" lon="14.112945788904964"><ele>116.0</ele><time>2026-04-18T16:28:42.001Z</time></trkpt><trkpt lat="42.41074164402321" lon="14.112947814764405"><ele>116.0</ele><time>2026-04-18T16:28:43.001Z</time></trkpt><trkpt lat="42.41088602902711" lon="14.112942289648638"><ele>117.5</ele><time>2026-04-18T16:28:44.001Z</time></trkpt><trkpt lat="42.41101707515621" lon="14.11294141176046"><ele>119.0</ele><time>2026-04-18T16:28:45.001Z</time></trkpt><trkpt lat="42.411140920137456" lon="14.112939092682034"><ele>120.5</ele><time>2026-04-18T16:28:46.001Z</time></trkpt><trkpt lat="42.411260975525124" lon="14.11294750628718"><ele>122.0</ele><time>2026-04-18T16:28:47.001Z</time></trkpt><trkpt lat="42.41136935508321" lon="14.112952974363052"><ele>123.49999999999999</ele><time>2026-04-18T16:28:48.001Z</time></trkpt><trkpt lat="42.41146712239169" lon="14.11295251333151"><ele>125.0</ele><time>2026-04-18T16:28:49.001Z</time></trkpt><trkpt lat="42.41156024137471" lon="14.112948016688941"><ele>126.5</ele><time>2026-04-18T16:28:50.001Z</time></trkpt><trkpt lat="42.41164264966685" lon="14.11293885488736"><ele>128.0</ele><time>2026-04-18T16:28:51.001Z</time></trkpt><trkpt lat="42.411715376378" lon="14.11294345660718"><ele>129.5</ele><time>2026-04-18T16:28:52.001Z</time></trkpt><trkpt lat="42.411797739241436" lon="14.112949184880856"><ele>131.0</ele><time>2026-04-18T16:28:53.001Z</time></trkpt><trkpt lat="42.41189040447406" lon="14.112950982340227"><ele>131.0</ele><time>2026-04-18T16:28:54.001Z</time></trkpt><trkpt lat="42.41199045984105" lon="14.11294747877556"><ele>131.0</ele><time>2026-04-18T16:28:55.001Z</time></trkpt><trkpt lat="42.41208528644531" lon="14.112940599129283"><ele>131.0</ele><time>2026-04-18T16:28:56.001Z</time></trkpt><trkpt lat="42.41218766768118" lon="14.112936118917633"><ele>131.0</ele><time>2026-04-18T16:28:57.001Z</time></trkpt><trkpt lat="42.4123004616807" lon="14.11293043293664"><ele>131.0</ele><time>2026-04-18T16:28:58.001Z</time></trkpt><trkpt lat="42.41242079487124" lon="14.11292078128799"><ele>130.75</ele><time>2026-04-18T16:28:59.001Z</time></trkpt><trkpt lat="42.41253814849726" lon="14.112908193930997"><ele>130.5</ele><time>2026-04-18T16:29:00.001Z</time></trkpt><trkpt lat="42.41266133099365" lon="14.112892948990044"><ele>130.25</ele><time>2026-04-18T16:29:01.001Z</time></trkpt><trkpt lat="42.41277724273963" lon="14.112877527642626"><ele>130.0</ele><time>2026-04-18T16:29:02.001Z</time></trkpt><trkpt lat="42.41290111346104" lon="14.112877319545733"><ele>129.6</ele><time>2026-04-18T16:29:03.001Z</time></trkpt><trkpt lat="42.4130150122534" lon="14.112873769237176"><ele>129.2</ele><time>2026-04-18T16:29:04.001Z</time></trkpt><trkpt lat="42.41312323731302" lon="14.112886949190548"><ele>128.8</ele><time>2026-04-18T16:29:05.001Z</time></trkpt><trkpt lat="42.41322097023012" lon="14.112888569648904"><ele>128.4</ele><time>2026-04-18T16:29:06.001Z</time></trkpt><trkpt lat="42.41331370643807" lon="14.112882913968175"><ele>128.0</ele><time>2026-04-18T16:29:07.001Z</time></trkpt><trkpt lat="42.413394911747275" lon="14.112889152649524"><ele>128.0</ele><time>2026-04-18T16:29:08.001Z</time></trkpt><trkpt lat="42.413518209366316" lon="14.112879589353533"><ele>128.0</ele><time>2026-04-18T16:29:10.001Z</time></trkpt><trkpt lat="42.41361691013729" lon="14.112878683143029"><ele>128.0</ele><time>2026-04-18T16:29:14.001Z</time></trkpt><trkpt lat="42.41366664573589" lon="14.112994287757996"><ele>128.0</ele><time>2026-04-18T16:29:15.001Z</time></trkpt><trkpt lat="42.41373195809087" lon="14.113107923792272"><ele>128.0</ele><time>2026-04-18T16:29:16.001Z</time></trkpt><trkpt lat="42.41381071504962" lon="14.113214788531327"><ele>126.75</ele><time>2026-04-18T16:29:17.001Z</time></trkpt><trkpt lat="42.41389983039798" lon="14.113328552705555"><ele>125.5</ele><time>2026-04-18T16:29:18.001Z</time></trkpt><trkpt lat="42.41399511959134" lon="14.11345609210957"><ele>124.25</ele><time>2026-04-18T16:29:19.001Z</time></trkpt><trkpt lat="42.41409528107499" lon="14.113592718431056"><ele>123.0</ele><time>2026-04-18T16:29:20.001Z</time></trkpt><trkpt lat="42.41419958325045" lon="14.113714648649454"><ele>123.0</ele><time>2026-04-18T16:29:21.001Z</time></trkpt><trkpt lat="42.41431834603309" lon="14.113830726550376"><ele>123.0</ele><time>2026-04-18T16:29:22.001Z</time></trkpt><trkpt lat="42.41443347975323" lon="14.113935439483871"><ele>123.0</ele><time>2026-04-18T16:29:23.001Z</time></trkpt><trkpt lat="42.414543564462456" lon="14.114044996165406"><ele>123.0</ele><time>2026-04-18T16:29:24.001Z</time></trkpt><trkpt lat="42.41464129472616" lon="14.114162008448409"><ele>122.25</ele><time>2026-04-18T16:29:25.001Z</time></trkpt><trkpt lat="42.41472941434195" lon="14.114291866388534"><ele>121.5</ele><time>2026-04-18T16:29:26.001Z</time></trkpt><trkpt lat="42.41480397388681" lon="14.114433238518384"><ele>120.75</ele><time>2026-04-18T16:29:27.001Z</time></trkpt><trkpt lat="42.41487621446795" lon="14.114591245209985"><ele>120.0</ele><time>2026-04-18T16:29:28.001Z</time></trkpt><trkpt lat="42.41495448612156" lon="14.114753190483173"><ele>119.25</ele><time>2026-04-18T16:29:29.001Z</time></trkpt><trkpt lat="42.41503732276816" lon="14.114923143820157"><ele>118.5</ele><time>2026-04-18T16:29:30.001Z</time></trkpt><trkpt lat="42.41512076559797" lon="14.115093877701048"><ele>117.75</ele><time>2026-04-18T16:29:31.001Z</time></trkpt><trkpt lat="42.41519980507913" lon="14.115256332911029"><ele>117.0</ele><time>2026-04-18T16:29:32.001Z</time></trkpt><trkpt lat="42.41526971212435" lon="14.115412414316909"><ele>117.0</ele><time>2026-04-18T16:29:33.001Z</time></trkpt><trkpt lat="42.41533520437482" lon="14.11554997341622"><ele>117.0</ele><time>2026-04-18T16:29:34.001Z</time></trkpt><trkpt lat="42.41540449225269" lon="14.1156914395879"><ele>117.0</ele><time>2026-04-18T16:29:35.001Z</time></trkpt><trkpt lat="42.41547981710885" lon="14.115838663045487"><ele>117.0</ele><time>2026-04-18T16:29:36.001Z</time></trkpt><trkpt lat="42.4155426500264" lon="14.116013411860314"><ele>115.66666666666666</ele><time>2026-04-18T16:29:37.001Z</time></trkpt><trkpt lat="42.415628722891384" lon="14.11619465874802"><ele>114.33333333333333</ele><time>2026-04-18T16:29:38.001Z</time></trkpt><trkpt lat="42.415703941494314" lon="14.116392379975432"><ele>113.0</ele><time>2026-04-18T16:29:39.001Z</time></trkpt><trkpt lat="42.41578423306215" lon="14.116598543429088"><ele>113.0</ele><time>2026-04-18T16:29:40.001Z</time></trkpt><trkpt lat="42.41586093384702" lon="14.116806507076204"><ele>113.0</ele><time>2026-04-18T16:29:41.001Z</time></trkpt><trkpt lat="42.41593500914449" lon="14.117000362544212"><ele>113.0</ele><time>2026-04-18T16:29:42.001Z</time></trkpt><trkpt lat="42.41600671763032" lon="14.117185219705133"><ele>113.0</ele><time>2026-04-18T16:29:43.001Z</time></trkpt><trkpt lat="42.41607520464179" lon="14.117368372208675"><ele>113.0</ele><time>2026-04-18T16:29:44.001Z</time></trkpt><trkpt lat="42.41614035542735" lon="14.117555041395606"><ele>113.0</ele><time>2026-04-18T16:29:45.001Z</time></trkpt><trkpt lat="42.41619773096391" lon="14.11775814451769"><ele>111.66666666666666</ele><time>2026-04-18T16:29:46.001Z</time></trkpt><trkpt lat="42.416244269058694" lon="14.117976684087905"><ele>110.33333333333334</ele><time>2026-04-18T16:29:47.001Z</time></trkpt><trkpt lat="42.41628175781685" lon="14.118211066956462"><ele>109.0</ele><time>2026-04-18T16:29:48.001Z</time></trkpt><trkpt lat="42.41631122296877" lon="14.118454685843878"><ele>107.66666666666667</ele><time>2026-04-18T16:29:49.001Z</time></trkpt><trkpt lat="42.41634277273684" lon="14.118698943161831"><ele>106.33333333333334</ele><time>2026-04-18T16:29:50.001Z</time></trkpt><trkpt lat="42.41637714660877" lon="14.118940000773177"><ele>105.0</ele><time>2026-04-18T16:29:51.001Z</time></trkpt><trkpt lat="42.41640974366815" lon="14.11916964893683"><ele>104.66666666666666</ele><time>2026-04-18T16:29:52.001Z</time></trkpt><trkpt lat="42.4164412171762" lon="14.119390305685778"><ele>104.33333333333333</ele><time>2026-04-18T16:29:53.001Z</time></trkpt><trkpt lat="42.41647001827427" lon="14.11960774235269"><ele>104.0</ele><time>2026-04-18T16:29:54.001Z</time></trkpt><trkpt lat="42.41649561979066" lon="14.119830374779905"><ele>103.33333333333333</ele><time>2026-04-18T16:29:55.001Z</time></trkpt><trkpt lat="42.416518120585785" lon="14.120058226870338"><ele>102.66666666666666</ele><time>2026-04-18T16:29:56.001Z</time></trkpt><trkpt lat="42.41652606404073" lon="14.120282930715494"><ele>102.0</ele><time>2026-04-18T16:29:57.001Z</time></trkpt><trkpt lat="42.416523994457975" lon="14.120512769828391"><ele>101.0</ele><time>2026-04-18T16:29:58.001Z</time></trkpt><trkpt lat="42.41651519566632" lon="14.120733807726753"><ele>100.0</ele><time>2026-04-18T16:29:59.001Z</time></trkpt><trkpt lat="42.416502081440846" lon="14.120964998309516"><ele>99.0</ele><time>2026-04-18T16:30:00.002Z</time></trkpt><trkpt lat="42.4164757074763" lon="14.121197441531267"><ele>99.0</ele><time>2026-04-18T16:30:01.002Z</time></trkpt><trkpt lat="42.416447566567484" lon="14.121425902290106"><ele>99.0</ele><time>2026-04-18T16:30:02.002Z</time></trkpt><trkpt lat="42.41641099035177" lon="14.121654736606802"><ele>99.0</ele><time>2026-04-18T16:30:03.002Z</time></trkpt><trkpt lat="42.41636485081636" lon="14.121872130915184"><ele>98.75</ele><time>2026-04-18T16:30:04.002Z</time></trkpt><trkpt lat="42.4163159407835" lon="14.122072302587885"><ele>98.5</ele><time>2026-04-18T16:30:05.002Z</time></trkpt><trkpt lat="42.416269284328955" lon="14.122239226490487"><ele>98.25</ele><time>2026-04-18T16:30:06.002Z</time></trkpt><trkpt lat="42.416233420046474" lon="14.122377913168247"><ele>98.0</ele><time>2026-04-18T16:30:07.002Z</time></trkpt><trkpt lat="42.41621051650104" lon="14.122522506445101"><ele>98.0</ele><time>2026-04-18T16:30:08.002Z</time></trkpt><trkpt lat="42.41621788319895" lon="14.122667807232151"><ele>98.0</ele><time>2026-04-18T16:30:09.001Z</time></trkpt><trkpt lat="42.41623947356787" lon="14.122791473768762"><ele>98.0</ele><time>2026-04-18T16:30:10.001Z</time></trkpt><trkpt lat="42.41624966226603" lon="14.122887098599486"><ele>98.0</ele><time>2026-04-18T16:30:11.001Z</time></trkpt><trkpt lat="42.41616704993211" lon="14.12297855534693"><ele>98.0</ele><time>2026-04-18T16:30:13.001Z</time></trkpt><trkpt lat="42.41608979742852" lon="14.123005082761619"><ele>97.99999999999999</ele><time>2026-04-18T16:30:14.001Z</time></trkpt><trkpt lat="42.41600631522723" lon="14.123038151907783"><ele>98.0</ele><time>2026-04-18T16:30:15.001Z</time></trkpt><trkpt lat="42.41593177447922" lon="14.123070039098117"><ele>98.0</ele><time>2026-04-18T16:30:16.001Z</time></trkpt><trkpt lat="42.41584484076644" lon="14.123096850800074"><ele>98.0</ele><time>2026-04-18T16:30:17.001Z</time></trkpt><trkpt lat="42.415747911433265" lon="14.12312483498886"><ele>97.99999999999999</ele><time>2026-04-18T16:30:18.001Z</time></trkpt><trkpt lat="42.41565490657854" lon="14.123153739705685"><ele>98.0</ele><time>2026-04-18T16:30:19.001Z</time></trkpt><trkpt lat="42.41557226393656" lon="14.123184396217242"><ele>96.60000000000001</ele><time>2026-04-18T16:30:20.001Z</time></trkpt><trkpt lat="42.41545651787617" lon="14.123253637738728"><ele>95.2</ele><time>2026-04-18T16:30:22.001Z</time></trkpt><trkpt lat="42.41541795578183" lon="14.123332897349998"><ele>93.8</ele><time>2026-04-18T16:30:23.001Z</time></trkpt><trkpt lat="42.41538290710962" lon="14.123412732570758"><ele>92.4</ele><time>2026-04-18T16:30:24.001Z</time></trkpt><trkpt lat="42.41543531512186" lon="14.123545862197648"><ele>91.0</ele><time>2026-04-18T16:30:25.001Z</time></trkpt><trkpt lat="42.415486516580295" lon="14.123663652998708"><ele>90.25</ele><time>2026-04-18T16:30:26.001Z</time></trkpt><trkpt lat="42.41556048240691" lon="14.12378680907537"><ele>89.5</ele><time>2026-04-18T16:30:27.001Z</time></trkpt><trkpt lat="42.41562903237847" lon="14.123913156133481"><ele>88.75</ele><time>2026-04-18T16:30:28.001Z</time></trkpt><trkpt lat="42.415681007514245" lon="14.124063017348861"><ele>88.0</ele><time>2026-04-18T16:30:29.001Z</time></trkpt><trkpt lat="42.415700295474" lon="14.124257511112518"><ele>88.0</ele><time>2026-04-18T16:30:30.001Z</time></trkpt><trkpt lat="42.41570212411473" lon="14.124385029390302"><ele>88.0</ele><time>2026-04-18T16:30:31.001Z</time></trkpt><trkpt lat="42.41566964600864" lon="14.124558612780325"><ele>88.0</ele><time>2026-04-18T16:30:32.001Z</time></trkpt><trkpt lat="42.415617431461726" lon="14.124759750004866"><ele>88.0</ele><time>2026-04-18T16:30:33.001Z</time></trkpt><trkpt lat="42.415563782444785" lon="14.1249676904211"><ele>86.0</ele><time>2026-04-18T16:30:34.001Z</time></trkpt><trkpt lat="42.415520635576584" lon="14.12519684373574"><ele>84.0</ele><time>2026-04-18T16:30:35.001Z</time></trkpt><trkpt lat="42.41545616911345" lon="14.12542329785619"><ele>82.0</ele><time>2026-04-18T16:30:36.001Z</time></trkpt><trkpt lat="42.41539985953262" lon="14.125655876090056"><ele>83.0</ele><time>2026-04-18T16:30:37.001Z</time></trkpt><trkpt lat="42.4153456969949" lon="14.125878665581453"><ele>84.0</ele><time>2026-04-18T16:30:38.001Z</time></trkpt><trkpt lat="42.41529326210896" lon="14.12609570510891"><ele>85.0</ele><time>2026-04-18T16:30:39.001Z</time></trkpt><trkpt lat="42.415241920769404" lon="14.126314244902455"><ele>85.0</ele><time>2026-04-18T16:30:40.001Z</time></trkpt><trkpt lat="42.415188635483894" lon="14.126510633525696"><ele>85.0</ele><time>2026-04-18T16:30:41.001Z</time></trkpt><trkpt lat="42.41513235199404" lon="14.126691056998643"><ele>85.0</ele><time>2026-04-18T16:30:42.001Z</time></trkpt><trkpt lat="42.415045412922645" lon="14.12685679881751"><ele>85.0</ele><time>2026-04-18T16:30:43.001Z</time></trkpt><trkpt lat="42.41495722153128" lon="14.127043689292313"><ele>84.66666666666666</ele><time>2026-04-18T16:30:44.001Z</time></trkpt><trkpt lat="42.414873291552446" lon="14.127232329211811"><ele>84.33333333333333</ele><time>2026-04-18T16:30:45.001Z</time></trkpt><trkpt lat="42.41477499329753" lon="14.127399114213395"><ele>84.0</ele><time>2026-04-18T16:30:46.001Z</time></trkpt><trkpt lat="42.41466824600897" lon="14.127580841773334"><ele>81.66666666666667</ele><time>2026-04-18T16:30:47.001Z</time></trkpt><trkpt lat="42.41456421246875" lon="14.127760877242808"><ele>79.33333333333334</ele><time>2026-04-18T16:30:48.001Z</time></trkpt><trkpt lat="42.414461971171924" lon="14.127935683605122"><ele>77.0</ele><time>2026-04-18T16:30:49.001Z</time></trkpt><trkpt lat="42.414371137833704" lon="14.128097693323118"><ele>76.5</ele><time>2026-04-18T16:30:50.001Z</time></trkpt><trkpt lat="42.41429846911289" lon="14.128258781612026"><ele>76.0</ele><time>2026-04-18T16:30:51.001Z</time></trkpt><trkpt lat="42.41424389412234" lon="14.128441759376905"><ele>75.5</ele><time>2026-04-18T16:30:52.001Z</time></trkpt><trkpt lat="42.414216742152824" lon="14.12864696425412"><ele>75.0</ele><time>2026-04-18T16:30:53.001Z</time></trkpt><trkpt lat="42.4142333995678" lon="14.128867266111664"><ele>74.66666666666667</ele><time>2026-04-18T16:30:54.001Z</time></trkpt><trkpt lat="42.414234211595875" lon="14.129074922343365"><ele>74.33333333333334</ele><time>2026-04-18T16:30:55.001Z</time></trkpt><trkpt lat="42.41418624008447" lon="14.129265161370748"><ele>74.0</ele><time>2026-04-18T16:30:56.001Z</time></trkpt><trkpt lat="42.41411967791245" lon="14.129457401661734"><ele>74.0</ele><time>2026-04-18T16:30:57.001Z</time></trkpt><trkpt lat="42.41403592523221" lon="14.12965149256839"><ele>74.0</ele><time>2026-04-18T16:30:58.001Z</time></trkpt><trkpt lat="42.41394803725968" lon="14.12984069046311"><ele>74.0</ele><time>2026-04-18T16:30:59.001Z</time></trkpt><trkpt lat="42.4138771075833" lon="14.130023147260328"><ele>72.75</ele><time>2026-04-18T16:31:00Z</time></trkpt><trkpt lat="42.4138103288117" lon="14.130179423599225"><ele>71.5</ele><time>2026-04-18T16:31:01Z</time></trkpt><trkpt lat="42.413759885633254" lon="14.130325794232895"><ele>70.25</ele><time>2026-04-18T16:31:02Z</time></trkpt><trkpt lat="42.41371609948656" lon="14.130479351813861"><ele>69.0</ele><time>2026-04-18T16:31:03Z</time></trkpt><trkpt lat="42.413745094670766" lon="14.130678253487577"><ele>69.0</ele><time>2026-04-18T16:31:04Z</time></trkpt><trkpt lat="42.4137847905825" lon="14.130883283226021"><ele>69.0</ele><time>2026-04-18T16:31:05Z</time></trkpt><trkpt lat="42.41385613850995" lon="14.131096430320227"><ele>69.0</ele><time>2026-04-18T16:31:06Z</time></trkpt><trkpt lat="42.413907825314844" lon="14.131303451557605"><ele>69.0</ele><time>2026-04-18T16:31:07Z</time></trkpt><trkpt lat="42.41397078882119" lon="14.131491541645639"><ele>69.0</ele><time>2026-04-18T16:31:08Z</time></trkpt><trkpt lat="42.41399512228814" lon="14.131685490535588"><ele>69.0</ele><time>2026-04-18T16:31:09Z</time></trkpt><trkpt lat="42.413975771824745" lon="14.131881887488957"><ele>69.0</ele><time>2026-04-18T16:31:10Z</time></trkpt><trkpt lat="42.41395689721447" lon="14.13210301892856"><ele>68.0</ele><time>2026-04-18T16:31:11Z</time></trkpt><trkpt lat="42.41394786899216" lon="14.132338488678926"><ele>67.0</ele><time>2026-04-18T16:31:12Z</time></trkpt><trkpt lat="42.41391052906905" lon="14.132578886453517"><ele>66.0</ele><time>2026-04-18T16:31:13Z</time></trkpt><trkpt lat="42.41388817448418" lon="14.132827980070005"><ele>65.33333333333333</ele><time>2026-04-18T16:31:14Z</time></trkpt><trkpt lat="42.41388332482602" lon="14.133070790971695"><ele>64.66666666666666</ele><time>2026-04-18T16:31:15Z</time></trkpt><trkpt lat="42.41386439305549" lon="14.133298084099529"><ele>64.0</ele><time>2026-04-18T16:31:16Z</time></trkpt><trkpt lat="42.413843787102465" lon="14.133521565373009"><ele>62.666666666666664</ele><time>2026-04-18T16:31:17Z</time></trkpt><trkpt lat="42.41382081288977" lon="14.133753169932264"><ele>61.33333333333333</ele><time>2026-04-18T16:31:18Z</time></trkpt><trkpt lat="42.41380155783217" lon="14.13398174779682"><ele>60.0</ele><time>2026-04-18T16:31:19Z</time></trkpt><trkpt lat="42.41378533527368" lon="14.134199366189387"><ele>59.75</ele><time>2026-04-18T16:31:20Z</time></trkpt><trkpt lat="42.413765578531084" lon="14.134410542905275"><ele>59.5</ele><time>2026-04-18T16:31:21Z</time></trkpt><trkpt lat="42.41374253914567" lon="14.134608484980092"><ele>59.25</ele><time>2026-04-18T16:31:22Z</time></trkpt><trkpt lat="42.413694970318815" lon="14.134789963456106"><ele>59.0</ele><time>2026-04-18T16:31:23Z</time></trkpt><trkpt lat="42.413655815154385" lon="14.134981532347803"><ele>59.0</ele><time>2026-04-18T16:31:24Z</time></trkpt><trkpt lat="42.413618652612875" lon="14.135192272071126"><ele>59.0</ele><time>2026-04-18T16:31:25Z</time></trkpt><trkpt lat="42.41356080144744" lon="14.135398451044562"><ele>59.0</ele><time>2026-04-18T16:31:26Z</time></trkpt><trkpt lat="42.41350613400788" lon="14.135594987214262"><ele>58.75</ele><time>2026-04-18T16:31:27Z</time></trkpt><trkpt lat="42.4134566579482" lon="14.135782328588247"><ele>58.5</ele><time>2026-04-18T16:31:28Z</time></trkpt><trkpt lat="42.4134207271235" lon="14.135964191867984"><ele>58.25</ele><time>2026-04-18T16:31:29Z</time></trkpt><trkpt lat="42.41340011192671" lon="14.136137480050351"><ele>58.0</ele><time>2026-04-18T16:31:30Z</time></trkpt><trkpt lat="42.413408570850635" lon="14.136306834452505"><ele>58.0</ele><time>2026-04-18T16:31:31Z</time></trkpt><trkpt lat="42.413450482366365" lon="14.136476105130251"><ele>58.0</ele><time>2026-04-18T16:31:32Z</time></trkpt><trkpt lat="42.41352818544078" lon="14.136637542025182"><ele>58.0</ele><time>2026-04-18T16:31:33Z</time></trkpt><trkpt lat="42.41363542715013" lon="14.13680271473018"><ele>58.0</ele><time>2026-04-18T16:31:34Z</time></trkpt><trkpt lat="42.41375682075177" lon="14.136964308512933"><ele>56.666666666666664</ele><time>2026-04-18T16:31:35Z</time></trkpt><trkpt lat="42.41388505902955" lon="14.137123518519942"><ele>55.33333333333333</ele><time>2026-04-18T16:31:36Z</time></trkpt><trkpt lat="42.41401097727308" lon="14.137290957432814"><ele>54.0</ele><time>2026-04-18T16:31:37Z</time></trkpt><trkpt lat="42.414128750993896" lon="14.137447439033885"><ele>54.0</ele><time>2026-04-18T16:31:38Z</time></trkpt><trkpt lat="42.41423503663224" lon="14.137594800689808"><ele>54.0</ele><time>2026-04-18T16:31:39Z</time></trkpt><trkpt lat="42.414361106503634" lon="14.137734873590652"><ele>54.0</ele><time>2026-04-18T16:31:40Z</time></trkpt><trkpt lat="42.414500367165054" lon="14.13785755713896"><ele>54.0</ele><time>2026-04-18T16:31:41Z</time></trkpt><trkpt lat="42.41463480860171" lon="14.13796561751095"><ele>54.0</ele><time>2026-04-18T16:31:42Z</time></trkpt><trkpt lat="42.41475992741921" lon="14.138081190946167"><ele>54.0</ele><time>2026-04-18T16:31:43Z</time></trkpt><trkpt lat="42.414877541323555" lon="14.13820733237246"><ele>53.33333333333333</ele><time>2026-04-18T16:31:44Z</time></trkpt><trkpt lat="42.41499008779356" lon="14.138340073687004"><ele>52.666666666666664</ele><time>2026-04-18T16:31:45Z</time></trkpt><trkpt lat="42.41510561272377" lon="14.138480905042206"><ele>52.0</ele><time>2026-04-18T16:31:46Z</time></trkpt><trkpt lat="42.41522524868363" lon="14.13862225565266"><ele>52.0</ele><time>2026-04-18T16:31:47Z</time></trkpt><trkpt lat="42.415338753995485" lon="14.138757993292502"><ele>52.0</ele><time>2026-04-18T16:31:48Z</time></trkpt><trkpt lat="42.41544632783061" lon="14.138890917483769"><ele>52.0</ele><time>2026-04-18T16:31:49Z</time></trkpt><trkpt lat="42.41555257961268" lon="14.139033947578273"><ele>52.0</ele><time>2026-04-18T16:31:50Z</time></trkpt><trkpt lat="42.41565969208033" lon="14.139188991992956"><ele>50.33333333333333</ele><time>2026-04-18T16:31:51Z</time></trkpt><trkpt lat="42.415765796402845" lon="14.139353616482834"><ele>48.666666666666664</ele><time>2026-04-18T16:31:52Z</time></trkpt><trkpt lat="42.4158705715325" lon="14.139530109469739"><ele>47.0</ele><time>2026-04-18T16:31:53Z</time></trkpt><trkpt lat="42.415967004633984" lon="14.139695734838101"><ele>47.0</ele><time>2026-04-18T16:31:54Z</time></trkpt><trkpt lat="42.41605739753704" lon="14.139853278446456"><ele>47.0</ele><time>2026-04-18T16:31:55Z</time></trkpt><trkpt lat="42.4161392512589" lon="14.139997071833083"><ele>47.0</ele><time>2026-04-18T16:31:56Z</time></trkpt><trkpt lat="42.416208731379946" lon="14.140138671457004"><ele>47.0</ele><time>2026-04-18T16:31:57Z</time></trkpt><trkpt lat="42.41625847743362" lon="14.140279833349055"><ele>47.25</ele><time>2026-04-18T16:31:58Z</time></trkpt><trkpt lat="42.41626939755917" lon="14.140439804125695"><ele>47.5</ele><time>2026-04-18T16:31:59Z</time></trkpt><trkpt lat="42.416270641144315" lon="14.14059741517092"><ele>47.75</ele><time>2026-04-18T16:32:00Z</time></trkpt><trkpt lat="42.41626771948381" lon="14.140756829083633"><ele>48.0</ele><time>2026-04-18T16:32:01Z</time></trkpt><trkpt lat="42.416225431631716" lon="14.140918928033596"><ele>48.0</ele><time>2026-04-18T16:32:02Z</time></trkpt><trkpt lat="42.41614180239314" lon="14.141067145283161"><ele>48.0</ele><time>2026-04-18T16:32:03Z</time></trkpt><trkpt lat="42.41608304619494" lon="14.141228880357493"><ele>48.0</ele><time>2026-04-18T16:32:04Z</time></trkpt><trkpt lat="42.41601178066728" lon="14.141372414695752"><ele>48.0</ele><time>2026-04-18T16:32:05Z</time></trkpt><trkpt lat="42.415955965082105" lon="14.141517561545777"><ele>47.25</ele><time>2026-04-18T16:32:06.001Z</time></trkpt><trkpt lat="42.41591812575636" lon="14.141652023675382"><ele>46.5</ele><time>2026-04-18T16:32:07.001Z</time></trkpt><trkpt lat="42.41588796533394" lon="14.141762002818906"><ele>45.75</ele><time>2026-04-18T16:32:08.001Z</time></trkpt><trkpt lat="42.41584994447714" lon="14.141888196725878"><ele>45.0</ele><time>2026-04-18T16:32:10.001Z</time></trkpt><trkpt lat="42.41600532389914" lon="14.141936772835152"><ele>45.0</ele><time>2026-04-18T16:32:13.001Z</time></trkpt><trkpt lat="42.41607132556385" lon="14.141921545692721"><ele>45.0</ele><time>2026-04-18T16:32:14.001Z</time></trkpt><trkpt lat="42.41614230694119" lon="14.141874211679385"><ele>45.0</ele><time>2026-04-18T16:32:15.001Z</time></trkpt><trkpt lat="42.416208800059174" lon="14.141796985416962"><ele>45.0</ele><time>2026-04-18T16:32:16.001Z</time></trkpt><trkpt lat="42.416278792625214" lon="14.14173326310001"><ele>45.0</ele><time>2026-04-18T16:32:17.001Z</time></trkpt><trkpt lat="42.416346908749624" lon="14.141698346077074"><ele>45.0</ele><time>2026-04-18T16:32:18.001Z</time></trkpt><trkpt lat="42.416408978966786" lon="14.141674729374863"><ele>45.0</ele><time>2026-04-18T16:32:19.001Z</time></trkpt><trkpt lat="42.41647169642742" lon="14.1416338704248"><ele>45.0</ele><time>2026-04-18T16:32:20.001Z</time></trkpt><trkpt lat="42.416534249381925" lon="14.141553254425862"><ele>45.0</ele><time>2026-04-18T16:32:21.001Z</time></trkpt><trkpt lat="42.41659084778069" lon="14.141448851807437"><ele>45.0</ele><time>2026-04-18T16:32:22.001Z</time></trkpt><trkpt lat="42.41666622789335" lon="14.141344185768906"><ele>45.0</ele><time>2026-04-18T16:32:23.001Z</time></trkpt><trkpt lat="42.41671421897769" lon="14.141221508422186"><ele>45.0</ele><time>2026-04-18T16:32:24Z</time></trkpt><trkpt lat="42.41679403593718" lon="14.141143224572643"><ele>45.0</ele><time>2026-04-18T16:32:25Z</time></trkpt><trkpt lat="42.41685623506733" lon="14.14106030757881"><ele>45.0</ele><time>2026-04-18T16:32:26Z</time></trkpt><trkpt lat="42.416920101566866" lon="14.140963562997287"><ele>45.0</ele><time>2026-04-18T16:32:27Z</time></trkpt><trkpt lat="42.41699479269578" lon="14.140865982636711"><ele>45.0</ele><time>2026-04-18T16:32:28Z</time></trkpt><trkpt lat="42.41706995295884" lon="14.140769401035453"><ele>44.75</ele><time>2026-04-18T16:32:29Z</time></trkpt><trkpt lat="42.41713682789113" lon="14.140658428645454"><ele>44.5</ele><time>2026-04-18T16:32:30Z</time></trkpt><trkpt lat="42.417210523390004" lon="14.140539296223691"><ele>44.25</ele><time>2026-04-18T16:32:31Z</time></trkpt><trkpt lat="42.417289319617836" lon="14.140415249754168"><ele>44.0</ele><time>2026-04-18T16:32:32Z</time></trkpt><trkpt lat="42.4173616401566" lon="14.14029487783339"><ele>41.800000000000004</ele><time>2026-04-18T16:32:33Z</time></trkpt><trkpt lat="42.41743213551003" lon="14.140186015532226"><ele>39.6</ele><time>2026-04-18T16:32:34Z</time></trkpt><trkpt lat="42.41749163833311" lon="14.140085507876318"><ele>37.4</ele><time>2026-04-18T16:32:35Z</time></trkpt><trkpt lat="42.41754111304762" lon="14.139987156554"><ele>35.2</ele><time>2026-04-18T16:32:36Z</time></trkpt><trkpt lat="42.4175883173611" lon="14.13989417380655"><ele>33.0</ele><time>2026-04-18T16:32:37Z</time></trkpt><trkpt lat="42.41762127251562" lon="14.139793312404676"><ele>33.0</ele><time>2026-04-18T16:32:38Z</time></trkpt><trkpt lat="42.417655893059724" lon="14.139689460204343"><ele>33.0</ele><time>2026-04-18T16:32:39Z</time></trkpt><trkpt lat="42.41768861419449" lon="14.139579681166621"><ele>33.0</ele><time>2026-04-18T16:32:40Z</time></trkpt><trkpt lat="42.41772667894528" lon="14.139459591343265"><ele>33.0</ele><time>2026-04-18T16:32:41Z</time></trkpt><trkpt lat="42.41776941992433" lon="14.139336361907407"><ele>33.0</ele><time>2026-04-18T16:32:42Z</time></trkpt><trkpt lat="42.41781057052999" lon="14.139214292431154"><ele>33.0</ele><time>2026-04-18T16:32:43Z</time></trkpt><trkpt lat="42.417856287334075" lon="14.139077171665045"><ele>33.0</ele><time>2026-04-18T16:32:44Z</time></trkpt><trkpt lat="42.417892615813415" lon="14.138947247119228"><ele>33.0</ele><time>2026-04-18T16:32:45Z</time></trkpt><trkpt lat="42.41793541568879" lon="14.138810266836614"><ele>33.0</ele><time>2026-04-18T16:32:46Z</time></trkpt><trkpt lat="42.417974804595225" lon="14.138676838029081"><ele>33.0</ele><time>2026-04-18T16:32:47Z</time></trkpt><trkpt lat="42.418010002878894" lon="14.13856180754891"><ele>32.0</ele><time>2026-04-18T16:32:48Z</time></trkpt><trkpt lat="42.41804417011232" lon="14.138435572708964"><ele>30.999999999999996</ele><time>2026-04-18T16:32:49Z</time></trkpt><trkpt lat="42.41807715925367" lon="14.138331017863141"><ele>29.999999999999996</ele><time>2026-04-18T16:32:50Z</time></trkpt><trkpt lat="42.41811715458839" lon="14.138204372722036"><ele>29.0</ele><time>2026-04-18T16:32:51Z</time></trkpt><trkpt lat="42.41815470838142" lon="14.138090060390347"><ele>28.0</ele><time>2026-04-18T16:32:52Z</time></trkpt><trkpt lat="42.41818277773636" lon="14.137983934837811"><ele>29.833333333333336</ele><time>2026-04-18T16:32:53Z</time></trkpt><trkpt lat="42.41820593319851" lon="14.13789684955413"><ele>31.666666666666668</ele><time>2026-04-18T16:32:54Z</time></trkpt><trkpt lat="42.418241988431525" lon="14.137782531458265"><ele>33.5</ele><time>2026-04-18T16:32:55Z</time></trkpt><trkpt lat="42.41827684342625" lon="14.137661722292101"><ele>35.333333333333336</ele><time>2026-04-18T16:32:56Z</time></trkpt><trkpt lat="42.41831285063861" lon="14.137550696673642"><ele>37.166666666666664</ele><time>2026-04-18T16:32:57Z</time></trkpt><trkpt lat="42.41834786349336" lon="14.137440011217036"><ele>39.0</ele><time>2026-04-18T16:32:58Z</time></trkpt><trkpt lat="42.41838336764509" lon="14.137307755225766"><ele>39.333333333333336</ele><time>2026-04-18T16:32:59Z</time></trkpt><trkpt lat="42.41842249406468" lon="14.137198427002184"><ele>39.666666666666664</ele><time>2026-04-18T16:33:00Z</time></trkpt><trkpt lat="42.418455142793405" lon="14.137093495415312"><ele>40.0</ele><time>2026-04-18T16:33:01Z</time></trkpt><trkpt lat="42.41849394042651" lon="14.136992351723714"><ele>40.33333333333333</ele><time>2026-04-18T16:33:02Z</time></trkpt><trkpt lat="42.41853287667582" lon="14.136895955964206"><ele>40.666666666666664</ele><time>2026-04-18T16:33:03Z</time></trkpt><trkpt lat="42.41856947294726" lon="14.136787009046955"><ele>41.0</ele><time>2026-04-18T16:33:04Z</time></trkpt><trkpt lat="42.41860679700663" lon="14.13669495078936"><ele>40.99999999999999</ele><time>2026-04-18T16:33:05Z</time></trkpt><trkpt lat="42.41863666493756" lon="14.13659199121416"><ele>41.0</ele><time>2026-04-18T16:33:06Z</time></trkpt><trkpt lat="42.41865765855738" lon="14.13650809630575"><ele>41.0</ele><time>2026-04-18T16:33:07Z</time></trkpt><trkpt lat="42.41867097105385" lon="14.13641490781424"><ele>41.0</ele><time>2026-04-18T16:33:08Z</time></trkpt><trkpt lat="42.418679367977774" lon="14.136319602361999"><ele>41.0</ele><time>2026-04-18T16:33:09Z</time></trkpt><trkpt lat="42.41868245813575" lon="14.136232227934258"><ele>40.99999999999999</ele><time>2026-04-18T16:33:10Z</time></trkpt><trkpt lat="42.418682905959535" lon="14.136146386256366"><ele>41.0</ele><time>2026-04-18T16:33:11Z</time></trkpt><trkpt lat="42.41867661033563" lon="14.136057014299324"><ele>40.599999999999994</ele><time>2026-04-18T16:33:12Z</time></trkpt><trkpt lat="42.418653481073" lon="14.135887491406562"><ele>40.199999999999996</ele><time>2026-04-18T16:33:14Z</time></trkpt><trkpt lat="42.41863805056168" lon="14.13577165609649"><ele>39.8</ele><time>2026-04-18T16:33:16Z</time></trkpt><trkpt lat="42.418610530049065" lon="14.135646105295185"><ele>39.4</ele><time>2026-04-18T16:33:18Z</time></trkpt><trkpt lat="42.41858958429959" lon="14.1355453733874"><ele>39.0</ele><time>2026-04-18T16:33:19Z</time></trkpt><trkpt lat="42.41857390152479" lon="14.135452626814692"><ele>39.0</ele><time>2026-04-18T16:33:20Z</time></trkpt><trkpt lat="42.418562693767825" lon="14.135359466056928"><ele>39.0</ele><time>2026-04-18T16:33:21Z</time></trkpt><trkpt lat="42.41853785949772" lon="14.135270763110242"><ele>39.0</ele><time>2026-04-18T16:33:22Z</time></trkpt><trkpt lat="42.41851806157794" lon="14.135176228311078"><ele>39.0</ele><time>2026-04-18T16:33:23Z</time></trkpt><trkpt lat="42.41849696234975" lon="14.135087046043774"><ele>39.0</ele><time>2026-04-18T16:33:24Z</time></trkpt><trkpt lat="42.41849254020558" lon="14.134989441132854"><ele>39.0</ele><time>2026-04-18T16:33:25Z</time></trkpt><trkpt lat="42.41848290949374" lon="14.13482758837618"><ele>39.0</ele><time>2026-04-18T16:33:27Z</time></trkpt><trkpt lat="42.41848026542154" lon="14.134740460198694"><ele>39.0</ele><time>2026-04-18T16:33:28Z</time></trkpt><trkpt lat="42.41849299294123" lon="14.13456655319087"><ele>39.0</ele><time>2026-04-18T16:33:30Z</time></trkpt><trkpt lat="42.41851324503584" lon="14.134471997031866"><ele>39.0</ele><time>2026-04-18T16:33:31Z</time></trkpt><trkpt lat="42.41854938068378" lon="14.134399823768021"><ele>39.0</ele><time>2026-04-18T16:33:32Z</time></trkpt><trkpt lat="42.41857964157002" lon="14.13429670620566"><ele>39.0</ele><time>2026-04-18T16:33:33Z</time></trkpt><trkpt lat="42.41860126155178" lon="14.134174892158448"><ele>39.0</ele><time>2026-04-18T16:33:34Z</time></trkpt><trkpt lat="42.41862487093464" lon="14.13407066234281"><ele>39.0</ele><time>2026-04-18T16:33:35Z</time></trkpt><trkpt lat="42.41864786688437" lon="14.133988801526117"><ele>39.0</ele><time>2026-04-18T16:33:36Z</time></trkpt><trkpt lat="42.41867099230444" lon="14.133904216988872"><ele>39.0</ele><time>2026-04-18T16:33:37Z</time></trkpt><trkpt lat="42.418707331647184" lon="14.133749307226022"><ele>39.0</ele><time>2026-04-18T16:33:39Z</time></trkpt><trkpt lat="42.41874148975904" lon="14.133586277875782"><ele>39.0</ele><time>2026-04-18T16:33:41Z</time></trkpt><trkpt lat="42.418769180219414" lon="14.133505675492673"><ele>39.0</ele><time>2026-04-18T16:33:42Z</time></trkpt><trkpt lat="42.41880371407772" lon="14.133347248589299"><ele>39.0</ele><time>2026-04-18T16:33:44Z</time></trkpt><trkpt lat="42.418837749343915" lon="14.133208302812019"><ele>39.0</ele><time>2026-04-18T16:33:46Z</time></trkpt><trkpt lat="42.41887686640967" lon="14.133071662567088"><ele>39.0</ele><time>2026-04-18T16:33:48Z</time></trkpt><trkpt lat="42.418930347838035" lon="14.132956081352273"><ele>39.0</ele><time>2026-04-18T16:33:50Z</time></trkpt><trkpt lat="42.419006671323295" lon="14.132822361836416"><ele>39.0</ele><time>2026-04-18T16:33:52Z</time></trkpt><trkpt lat="42.419040975354235" lon="14.132746466264718"><ele>39.0</ele><time>2026-04-18T16:33:53Z</time></trkpt><trkpt lat="42.41908317119697" lon="14.132653884459256"><ele>39.0</ele><time>2026-04-18T16:33:54Z</time></trkpt><trkpt lat="42.41913570057107" lon="14.132580087658512"><ele>39.0</ele><time>2026-04-18T16:33:55Z</time></trkpt><trkpt lat="42.41915282682029" lon="14.132489080104651"><ele>39.0</ele><time>2026-04-18T16:33:56Z</time></trkpt><trkpt lat="42.41918544252022" lon="14.132403681544345"><ele>40.2</ele><time>2026-04-18T16:33:57Z</time></trkpt><trkpt lat="42.419220926901644" lon="14.132322238653108"><ele>41.4</ele><time>2026-04-18T16:33:58Z</time></trkpt><trkpt lat="42.419252225819015" lon="14.132220230912386"><ele>42.6</ele><time>2026-04-18T16:33:59Z</time></trkpt><trkpt lat="42.41929714187394" lon="14.132084187507827"><ele>43.8</ele><time>2026-04-18T16:34:01Z</time></trkpt><trkpt lat="42.41935095450516" lon="14.131950682272073"><ele>45.0</ele><time>2026-04-18T16:34:03Z</time></trkpt><trkpt lat="42.41939503085923" lon="14.131840450130042"><ele>45.0</ele><time>2026-04-18T16:34:05Z</time></trkpt><trkpt lat="42.41946189972721" lon="14.131734737090495"><ele>45.0</ele><time>2026-04-18T16:34:07Z</time></trkpt><trkpt lat="42.41956385197883" lon="14.131630711616609"><ele>45.0</ele><time>2026-04-18T16:34:08.999Z</time></trkpt><trkpt lat="42.41961291521273" lon="14.131564989242962"><ele>45.0</ele><time>2026-04-18T16:34:09.999Z</time></trkpt><trkpt lat="42.419671270853634" lon="14.13149110037701"><ele>45.0</ele><time>2026-04-18T16:34:10.999Z</time></trkpt><trkpt lat="42.41973091543758" lon="14.131424331090521"><ele>43.166666666666664</ele><time>2026-04-18T16:34:12.001Z</time></trkpt><trkpt lat="42.41978422943797" lon="14.131357169713882"><ele>41.333333333333336</ele><time>2026-04-18T16:34:13.001Z</time></trkpt><trkpt lat="42.41984297363552" lon="14.131290663555333"><ele>39.5</ele><time>2026-04-18T16:34:14.001Z</time></trkpt><trkpt lat="42.419902345839674" lon="14.131228013174761"><ele>37.66666666666667</ele><time>2026-04-18T16:34:15.001Z</time></trkpt><trkpt lat="42.41996388932425" lon="14.131158444779661"><ele>35.833333333333336</ele><time>2026-04-18T16:34:16.001Z</time></trkpt><trkpt lat="42.42002234700613" lon="14.131081894706263"><ele>34.0</ele><time>2026-04-18T16:34:17.001Z</time></trkpt><trkpt lat="42.42008426270727" lon="14.131003992627347"><ele>34.0</ele><time>2026-04-18T16:34:18.001Z</time></trkpt><trkpt lat="42.42015879554307" lon="14.130928964739848"><ele>34.0</ele><time>2026-04-18T16:34:19.001Z</time></trkpt><trkpt lat="42.420223992767966" lon="14.130850222893528"><ele>34.0</ele><time>2026-04-18T16:34:20.001Z</time></trkpt><trkpt lat="42.42029936551156" lon="14.13077160597956"><ele>34.0</ele><time>2026-04-18T16:34:21.001Z</time></trkpt><trkpt lat="42.42036846061849" lon="14.130701146255626"><ele>34.0</ele><time>2026-04-18T16:34:22.001Z</time></trkpt><trkpt lat="42.42043571823802" lon="14.130637204870004"><ele>34.0</ele><time>2026-04-18T16:34:23.001Z</time></trkpt><trkpt lat="42.42050818192063" lon="14.13057871100313"><ele>34.0</ele><time>2026-04-18T16:34:24.001Z</time></trkpt><trkpt lat="42.420567801181484" lon="14.130516630031769"><ele>34.0</ele><time>2026-04-18T16:34:25.001Z</time></trkpt><trkpt lat="42.42062979653753" lon="14.130449194854677"><ele>34.0</ele><time>2026-04-18T16:34:26.001Z</time></trkpt><trkpt lat="42.42069040267135" lon="14.13037803283732"><ele>34.0</ele><time>2026-04-18T16:34:27.001Z</time></trkpt><trkpt lat="42.42073641863311" lon="14.130300156406559"><ele>34.0</ele><time>2026-04-18T16:34:28.001Z</time></trkpt><trkpt lat="42.42080443725925" lon="14.130258737020256"><ele>34.0</ele><time>2026-04-18T16:34:29.001Z</time></trkpt><trkpt lat="42.420888469013114" lon="14.130218140312984"><ele>34.0</ele><time>2026-04-18T16:34:30.001Z</time></trkpt><trkpt lat="42.420997875881106" lon="14.130204276097661"><ele>34.0</ele><time>2026-04-18T16:34:31.001Z</time></trkpt><trkpt lat="42.42110133800295" lon="14.130173936876377"><ele>34.0</ele><time>2026-04-18T16:34:32.001Z</time></trkpt><trkpt lat="42.421184247505025" lon="14.130123658934272"><ele>34.0</ele><time>2026-04-18T16:34:33.001Z</time></trkpt><trkpt lat="42.42127325421657" lon="14.13010029323989"><ele>34.0</ele><time>2026-04-18T16:34:34.001Z</time></trkpt><trkpt lat="42.421351380710725" lon="14.130076391867767"><ele>33.333333333333336</ele><time>2026-04-18T16:34:35.001Z</time></trkpt><trkpt lat="42.42142377182559" lon="14.130054324255745"><ele>32.66666666666667</ele><time>2026-04-18T16:34:36Z</time></trkpt><trkpt lat="42.42148588077435" lon="14.13003195933923"><ele>32.0</ele><time>2026-04-18T16:34:37Z</time></trkpt><trkpt lat="42.42160500304513" lon="14.129988571925614"><ele>31.333333333333336</ele><time>2026-04-18T16:34:39Z</time></trkpt><trkpt lat="42.421671811041435" lon="14.129961464389584"><ele>30.666666666666668</ele><time>2026-04-18T16:34:40Z</time></trkpt><trkpt lat="42.42174613141673" lon="14.129940952062714"><ele>30.0</ele><time>2026-04-18T16:34:41Z</time></trkpt><trkpt lat="42.42183248288289" lon="14.129907677048733"><ele>29.4</ele><time>2026-04-18T16:34:42Z</time></trkpt><trkpt lat="42.42191820566906" lon="14.129874738669644"><ele>28.8</ele><time>2026-04-18T16:34:43Z</time></trkpt><trkpt lat="42.422009695052544" lon="14.129850516518271"><ele>28.200000000000003</ele><time>2026-04-18T16:34:44Z</time></trkpt><trkpt lat="42.42210594366969" lon="14.129830687341338"><ele>27.6</ele><time>2026-04-18T16:34:45Z</time></trkpt><trkpt lat="42.42220188639722" lon="14.129817241806222"><ele>27.0</ele><time>2026-04-18T16:34:46Z</time></trkpt><trkpt lat="42.422296600126224" lon="14.129785322159496"><ele>27.0</ele><time>2026-04-18T16:34:47Z</time></trkpt><trkpt lat="42.422393021121344" lon="14.129762260246718"><ele>27.000000000000004</ele><time>2026-04-18T16:34:48Z</time></trkpt><trkpt lat="42.42246600361074" lon="14.129733794300705"><ele>27.000000000000004</ele><time>2026-04-18T16:34:49Z</time></trkpt><trkpt lat="42.4225725294423" lon="14.129709327778063"><ele>27.0</ele><time>2026-04-18T16:34:51Z</time></trkpt><trkpt lat="42.4226498597075" lon="14.12975638167785"><ele>27.0</ele><time>2026-04-18T16:34:53Z</time></trkpt><trkpt lat="42.42271719222838" lon="14.129836880856182"><ele>26.6</ele><time>2026-04-18T16:34:55Z</time></trkpt><trkpt lat="42.422773688816775" lon="14.129894556923944"><ele>26.200000000000003</ele><time>2026-04-18T16:34:56Z</time></trkpt><trkpt lat="42.42284393702368" lon="14.12996109197543"><ele>25.8</ele><time>2026-04-18T16:34:57Z</time></trkpt><trkpt lat="42.42291986179201" lon="14.130030756768033"><ele>25.4</ele><time>2026-04-18T16:34:58Z</time></trkpt><trkpt lat="42.423006181476794" lon="14.130117509151837"><ele>25.0</ele><time>2026-04-18T16:34:59Z</time></trkpt><trkpt lat="42.42309346087495" lon="14.13020792035054"><ele>26.000000000000004</ele><time>2026-04-18T16:35:00Z</time></trkpt><trkpt lat="42.423175098757895" lon="14.130261897857782"><ele>27.0</ele><time>2026-04-18T16:35:01Z</time></trkpt><trkpt lat="42.42323864635634" lon="14.130328483516994"><ele>28.0</ele><time>2026-04-18T16:35:02Z</time></trkpt><trkpt lat="42.423304614920276" lon="14.130399861094109"><ele>29.0</ele><time>2026-04-18T16:35:03Z</time></trkpt><trkpt lat="42.423362786666395" lon="14.130487924875165"><ele>30.000000000000004</ele><time>2026-04-18T16:35:04Z</time></trkpt><trkpt lat="42.423446221802855" lon="14.130553902790007"><ele>31.0</ele><time>2026-04-18T16:35:05Z</time></trkpt><trkpt lat="42.4235216950286" lon="14.130640608431316"><ele>31.000000000000004</ele><time>2026-04-18T16:35:06Z</time></trkpt><trkpt lat="42.42358868380224" lon="14.130714508000969"><ele>31.0</ele><time>2026-04-18T16:35:07Z</time></trkpt><trkpt lat="42.42364874905318" lon="14.130786703494923"><ele>31.0</ele><time>2026-04-18T16:35:08Z</time></trkpt><trkpt lat="42.42370742960329" lon="14.130848204756438"><ele>31.0</ele><time>2026-04-18T16:35:09Z</time></trkpt><trkpt lat="42.42376540707962" lon="14.130913869603823"><ele>31.000000000000004</ele><time>2026-04-18T16:35:10Z</time></trkpt><trkpt lat="42.42385890163166" lon="14.131019356395944"><ele>31.0</ele><time>2026-04-18T16:35:12Z</time></trkpt><trkpt lat="42.42393139440501" lon="14.13111335701028"><ele>32.4</ele><time>2026-04-18T16:35:14Z</time></trkpt><trkpt lat="42.42398201672199" lon="14.131177519014175"><ele>33.8</ele><time>2026-04-18T16:35:16Z</time></trkpt><trkpt lat="42.42404431367878" lon="14.131226710609463"><ele>35.199999999999996</ele><time>2026-04-18T16:38:30.999Z</time></trkpt><trkpt lat="42.424150556392526" lon="14.131049751664895"><ele>36.6</ele><time>2026-04-18T16:38:32.999Z</time></trkpt><trkpt lat="42.42418675248952" lon="14.1309322886782"><ele>38.0</ele><time>2026-04-18T16:38:33.999Z</time></trkpt><trkpt lat="42.424215646360956" lon="14.130807341536935"><ele>37.25</ele><time>2026-04-18T16:38:34.999Z</time></trkpt><trkpt lat="42.42426068495417" lon="14.130666886380117"><ele>36.5</ele><time>2026-04-18T16:38:35.999Z</time></trkpt><trkpt lat="42.42432778682183" lon="14.130516610870634"><ele>35.75</ele><time>2026-04-18T16:38:36.999Z</time></trkpt><trkpt lat="42.42442072825681" lon="14.130366777480129"><ele>35.0</ele><time>2026-04-18T16:38:37.999Z</time></trkpt><trkpt lat="42.42449111105991" lon="14.130206594861535"><ele>35.0</ele><time>2026-04-18T16:38:38.999Z</time></trkpt><trkpt lat="42.424575649451974" lon="14.130044368614882"><ele>35.0</ele><time>2026-04-18T16:38:39.999Z</time></trkpt><trkpt lat="42.42466381659087" lon="14.129877182334637"><ele>35.0</ele><time>2026-04-18T16:38:40.999Z</time></trkpt><trkpt lat="42.42475598762853" lon="14.1296975651054"><ele>35.33333333333333</ele><time>2026-04-18T16:38:41.999Z</time></trkpt><trkpt lat="42.42484996906547" lon="14.129514004989398"><ele>35.666666666666664</ele><time>2026-04-18T16:38:42.999Z</time></trkpt><trkpt lat="42.42493821066996" lon="14.129343566667977"><ele>36.0</ele><time>2026-04-18T16:38:43.999Z</time></trkpt><trkpt lat="42.42502303623593" lon="14.129176975594486"><ele>35.0</ele><time>2026-04-18T16:38:44.999Z</time></trkpt><trkpt lat="42.425111892442594" lon="14.12900552314854"><ele>34.0</ele><time>2026-04-18T16:38:45.999Z</time></trkpt><trkpt lat="42.4251959432344" lon="14.128831697856286"><ele>33.0</ele><time>2026-04-18T16:38:46.999Z</time></trkpt><trkpt lat="42.42528382305439" lon="14.128656495306195"><ele>33.0</ele><time>2026-04-18T16:38:47.999Z</time></trkpt><trkpt lat="42.42537282598266" lon="14.128478183797247"><ele>33.0</ele><time>2026-04-18T16:38:48.999Z</time></trkpt><trkpt lat="42.42545693902859" lon="14.128309493219517"><ele>33.0</ele><time>2026-04-18T16:38:49.999Z</time></trkpt><trkpt lat="42.42553361955925" lon="14.128146383777418"><ele>34.0</ele><time>2026-04-18T16:38:50.999Z</time></trkpt><trkpt lat="42.425617567511324" lon="14.127979323541387"><ele>35.0</ele><time>2026-04-18T16:38:51.999Z</time></trkpt><trkpt lat="42.42570082931272" lon="14.127808516117957"><ele>36.0</ele><time>2026-04-18T16:38:52.999Z</time></trkpt><trkpt lat="42.42578573611088" lon="14.127641974072462"><ele>36.0</ele><time>2026-04-18T16:38:53.999Z</time></trkpt><trkpt lat="42.42586669683968" lon="14.127474868525459"><ele>36.0</ele><time>2026-04-18T16:38:54.999Z</time></trkpt><trkpt lat="42.425951661923726" lon="14.127310440112073"><ele>36.0</ele><time>2026-04-18T16:38:55.999Z</time></trkpt><trkpt lat="42.42603993555694" lon="14.127139062311532"><ele>36.333333333333336</ele><time>2026-04-18T16:38:56.999Z</time></trkpt><trkpt lat="42.42613037905602" lon="14.126963153261588"><ele>36.66666666666667</ele><time>2026-04-18T16:38:57.999Z</time></trkpt><trkpt lat="42.42621978457266" lon="14.126792621795758"><ele>37.0</ele><time>2026-04-18T16:38:58.999Z</time></trkpt><trkpt lat="42.42629798273539" lon="14.126635539619075"><ele>37.75</ele><time>2026-04-18T16:38:59.999Z</time></trkpt><trkpt lat="42.42637362136268" lon="14.126486253556742"><ele>38.5</ele><time>2026-04-18T16:39:00.999Z</time></trkpt><trkpt lat="42.42644633143934" lon="14.126342070511102"><ele>39.25</ele><time>2026-04-18T16:39:01.999Z</time></trkpt><trkpt lat="42.42651708846504" lon="14.126196139931269"><ele>40.0</ele><time>2026-04-18T16:39:02.999Z</time></trkpt><trkpt lat="42.42657782686526" lon="14.126063435853315"><ele>40.0</ele><time>2026-04-18T16:39:03.999Z</time></trkpt><trkpt lat="42.42663321823795" lon="14.125947056660175"><ele>40.0</ele><time>2026-04-18T16:39:04.999Z</time></trkpt><trkpt lat="42.42668141669127" lon="14.125842656651962"><ele>40.0</ele><time>2026-04-18T16:39:05.999Z</time></trkpt><trkpt lat="42.42671488818498" lon="14.125759801815233"><ele>40.0</ele><time>2026-04-18T16:39:06.999Z</time></trkpt><trkpt lat="42.42671244355877" lon="14.12563254681987"><ele>40.0</ele><time>2026-04-18T16:39:08.999Z</time></trkpt><trkpt lat="42.42678320882364" lon="14.125608434421585"><ele>40.0</ele><time>2026-04-18T16:39:11.999Z</time></trkpt><trkpt lat="42.42685573006975" lon="14.12562433397842"><ele>39.2</ele><time>2026-04-18T16:39:14.999Z</time></trkpt><trkpt lat="42.426949475161344" lon="14.125713002037235"><ele>38.4</ele><time>2026-04-18T16:39:16.999Z</time></trkpt><trkpt lat="42.427070516804505" lon="14.125726774277812"><ele>37.6</ele><time>2026-04-18T16:39:18.999Z</time></trkpt><trkpt lat="42.427158605184985" lon="14.12575444729225"><ele>36.8</ele><time>2026-04-18T16:39:20.999Z</time></trkpt><trkpt lat="42.42725519293439" lon="14.125774523176919"><ele>36.0</ele><time>2026-04-18T16:39:22.999Z</time></trkpt><trkpt lat="42.42737107474107" lon="14.125817617752974"><ele>37.8</ele><time>2026-04-18T16:39:24.999Z</time></trkpt><trkpt lat="42.427483748427605" lon="14.125876048739617"><ele>39.6</ele><time>2026-04-18T16:39:26.999Z</time></trkpt><trkpt lat="42.427596932688274" lon="14.125922328084627"><ele>41.4</ele><time>2026-04-18T16:39:28.999Z</time></trkpt><trkpt lat="42.427694969887675" lon="14.125994445005908"><ele>43.2</ele><time>2026-04-18T16:39:30.999Z</time></trkpt><trkpt lat="42.427758794056416" lon="14.126021359760054"><ele>45.0</ele><time>2026-04-18T16:39:31.999Z</time></trkpt><trkpt lat="42.427828889702376" lon="14.12604853048683"><ele>45.0</ele><time>2026-04-18T16:39:32.999Z</time></trkpt><trkpt lat="42.42789759556678" lon="14.126068250216557"><ele>45.0</ele><time>2026-04-18T16:39:33.999Z</time></trkpt><trkpt lat="42.427972409792936" lon="14.126082070965987"><ele>45.0</ele><time>2026-04-18T16:39:34.999Z</time></trkpt><trkpt lat="42.428101981523575" lon="14.126072442873586"><ele>45.0</ele><time>2026-04-18T16:39:36.999Z</time></trkpt><trkpt lat="42.4282198327628" lon="14.126058895704615"><ele>45.0</ele><time>2026-04-18T16:39:38.999Z</time></trkpt><trkpt lat="42.42832733145343" lon="14.12608324416777"><ele>46.75</ele><time>2026-04-18T16:39:40.999Z</time></trkpt><trkpt lat="42.42843609042739" lon="14.126131070925556"><ele>48.5</ele><time>2026-04-18T16:39:42.999Z</time></trkpt><trkpt lat="42.42852766015288" lon="14.126219966231558"><ele>50.25</ele><time>2026-04-18T16:39:44.999Z</time></trkpt><trkpt lat="42.428604910558384" lon="14.126360119814448"><ele>52.0</ele><time>2026-04-18T16:39:46.999Z</time></trkpt><trkpt lat="42.428652474829555" lon="14.126510150246053"><ele>53.166666666666664</ele><time>2026-04-18T16:39:48.999Z</time></trkpt><trkpt lat="42.42872427166157" lon="14.126637872063142"><ele>54.33333333333333</ele><time>2026-04-18T16:39:50.999Z</time></trkpt><trkpt lat="42.42879317157228" lon="14.12673509747548"><ele>55.5</ele><time>2026-04-18T16:39:52.999Z</time></trkpt><trkpt lat="42.42885863501373" lon="14.126782426882889"><ele>56.66666666666667</ele><time>2026-04-18T16:39:53.999Z</time></trkpt><trkpt lat="42.42893353602191" lon="14.126816674346372"><ele>57.833333333333336</ele><time>2026-04-18T16:39:54.999Z</time></trkpt><trkpt lat="42.42900144355997" lon="14.12684261752424"><ele>59.0</ele><time>2026-04-18T16:39:55.999Z</time></trkpt><trkpt lat="42.429064666323896" lon="14.1268491768965"><ele>60.14285714285714</ele><time>2026-04-18T16:39:56.999Z</time></trkpt><trkpt lat="42.42913096965225" lon="14.126880839372406"><ele>61.28571428571429</ele><time>2026-04-18T16:39:57.999Z</time></trkpt><trkpt lat="42.429203938390195" lon="14.126893294815769"><ele>62.42857142857143</ele><time>2026-04-18T16:39:58.999Z</time></trkpt><trkpt lat="42.42928345385355" lon="14.12690123825093"><ele>63.57142857142857</ele><time>2026-04-18T16:39:59.999Z</time></trkpt><trkpt lat="42.42936751569166" lon="14.126907337647454"><ele>64.71428571428571</ele><time>2026-04-18T16:40:00.999Z</time></trkpt><trkpt lat="42.42943711993422" lon="14.126910751387806"><ele>65.85714285714286</ele><time>2026-04-18T16:40:01.999Z</time></trkpt><trkpt lat="42.429504030538865" lon="14.126902229314862"><ele>67.0</ele><time>2026-04-18T16:40:02.999Z</time></trkpt><trkpt lat="42.429579064305486" lon="14.126895967462014"><ele>69.0</ele><time>2026-04-18T16:40:03.999Z</time></trkpt><trkpt lat="42.429652825736" lon="14.126900435008013"><ele>71.0</ele><time>2026-04-18T16:40:04.999Z</time></trkpt><trkpt lat="42.42971640229273" lon="14.126864289900377"><ele>73.0</ele><time>2026-04-18T16:40:05.999Z</time></trkpt><trkpt lat="42.42979332262634" lon="14.126865460915267"><ele>75.0</ele><time>2026-04-18T16:40:06.999Z</time></trkpt><trkpt lat="42.42987077776011" lon="14.126840380487367"><ele>77.0</ele><time>2026-04-18T16:40:07.999Z</time></trkpt><trkpt lat="42.4299487435505" lon="14.126817113587828"><ele>79.0</ele><time>2026-04-18T16:40:08.999Z</time></trkpt><trkpt lat="42.430013918297995" lon="14.126802659824381"><ele>81.0</ele><time>2026-04-18T16:40:09.999Z</time></trkpt><trkpt lat="42.43008721509634" lon="14.1267874930502"><ele>81.0</ele><time>2026-04-18T16:40:10.999Z</time></trkpt><trkpt lat="42.43018936368576" lon="14.126763903599308"><ele>81.0</ele><time>2026-04-18T16:40:12.999Z</time></trkpt><trkpt lat="42.43025762136676" lon="14.12676514225083"><ele>81.0</ele><time>2026-04-18T16:40:14.999Z</time></trkpt><trkpt lat="42.43032200615806" lon="14.126890667098627"><ele>81.0</ele><time>2026-04-18T16:41:04.999Z</time></trkpt><trkpt lat="42.43038860455995" lon="14.12693708799671"><ele>81.0</ele><time>2026-04-18T16:41:06.999Z</time></trkpt><trkpt lat="42.43048318109009" lon="14.126952899179422"><ele>80.0</ele><time>2026-04-18T16:41:08.999Z</time></trkpt><trkpt lat="42.43058475805954" lon="14.126904354871792"><ele>79.0</ele><time>2026-04-18T16:41:10.999Z</time></trkpt><trkpt lat="42.43063878641611" lon="14.126802286206452"><ele>78.0</ele><time>2026-04-18T16:41:12.999Z</time></trkpt><trkpt lat="42.43073119429667" lon="14.126710907840277"><ele>77.0</ele><time>2026-04-18T16:41:14.999Z</time></trkpt><trkpt lat="42.43080677971739" lon="14.126649205980188"><ele>76.0</ele><time>2026-04-18T16:41:16.999Z</time></trkpt><trkpt lat="42.43087676274001" lon="14.126594279642028"><ele>75.2</ele><time>2026-04-18T16:41:18.999Z</time></trkpt><trkpt lat="42.43095025207068" lon="14.126541971616092"><ele>74.39999999999999</ele><time>2026-04-18T16:41:20.999Z</time></trkpt><trkpt lat="42.43103652927745" lon="14.126487328231676"><ele>73.6</ele><time>2026-04-18T16:41:22.999Z</time></trkpt><trkpt lat="42.43112503342102" lon="14.126445345094169"><ele>72.8</ele><time>2026-04-18T16:41:24.999Z</time></trkpt><trkpt lat="42.431238758213425" lon="14.126410868792117"><ele>72.0</ele><time>2026-04-18T16:41:26.999Z</time></trkpt><trkpt lat="42.431340440531635" lon="14.12637540149021"><ele>72.0</ele><time>2026-04-18T16:41:28.999Z</time></trkpt><trkpt lat="42.43143271910433" lon="14.126324586786083"><ele>72.0</ele><time>2026-04-18T16:41:30.999Z</time></trkpt><trkpt lat="42.43150966508013" lon="14.126310893627666"><ele>72.0</ele><time>2026-04-18T16:41:32.999Z</time></trkpt><trkpt lat="42.43158993017101" lon="14.126309276233355"><ele>72.0</ele><time>2026-04-18T16:41:34.999Z</time></trkpt><trkpt lat="42.431675577613454" lon="14.126305659798257"><ele>72.0</ele><time>2026-04-18T16:41:36.999Z</time></trkpt><trkpt lat="42.43175662343449" lon="14.126293916878122"><ele>72.0</ele><time>2026-04-18T16:41:38.999Z</time></trkpt><trkpt lat="42.43183375585681" lon="14.126267799022498"><ele>72.0</ele><time>2026-04-18T16:41:40.999Z</time></trkpt><trkpt lat="42.431906904097396" lon="14.126248207382725"><ele>72.0</ele><time>2026-04-18T16:41:42.999Z</time></trkpt><trkpt lat="42.43200424671427" lon="14.126193897897407"><ele>72.0</ele><time>2026-04-18T16:41:44.999Z</time></trkpt><trkpt lat="42.43210068066224" lon="14.126156116629483"><ele>72.0</ele><time>2026-04-18T16:41:46.999Z</time></trkpt><trkpt lat="42.4321952688369" lon="14.126079420873095"><ele>72.0</ele><time>2026-04-18T16:41:48.999Z</time></trkpt><trkpt lat="42.43230103612045" lon="14.126007090920993"><ele>73.25</ele><time>2026-04-18T16:41:50.999Z</time></trkpt><trkpt lat="42.43241478206486" lon="14.125941479064172"><ele>74.5</ele><time>2026-04-18T16:41:52.999Z</time></trkpt><trkpt lat="42.4325185461367" lon="14.125886414044405"><ele>75.75</ele><time>2026-04-18T16:41:54.999Z</time></trkpt><trkpt lat="42.43260600038407" lon="14.125804787509876"><ele>77.0</ele><time>2026-04-18T16:41:56.999Z</time></trkpt><trkpt lat="42.43268268346763" lon="14.125687061594114"><ele>77.0</ele><time>2026-04-18T16:41:58.999Z</time></trkpt><trkpt lat="42.432808846081016" lon="14.125603674585964"><ele>77.0</ele><time>2026-04-18T16:42:00.999Z</time></trkpt><trkpt lat="42.43286774338379" lon="14.125554986406947"><ele>77.0</ele><time>2026-04-18T16:42:01.999Z</time></trkpt><trkpt lat="42.432968992543145" lon="14.125456575222719"><ele>77.0</ele><time>2026-04-18T16:42:03.999Z</time></trkpt><trkpt lat="42.43302883241659" lon="14.125412208989953"><ele>77.0</ele><time>2026-04-18T16:42:04.999Z</time></trkpt><trkpt lat="42.43312856807087" lon="14.125337538297808"><ele>74.33333333333334</ele><time>2026-04-18T16:42:06.999Z</time></trkpt><trkpt lat="42.433212094388495" lon="14.125265006912409"><ele>71.66666666666667</ele><time>2026-04-18T16:42:08.999Z</time></trkpt><trkpt lat="42.43328718801773" lon="14.125202163010643"><ele>69.0</ele><time>2026-04-18T16:42:10.999Z</time></trkpt><trkpt lat="42.43336071289313" lon="14.125135023633897"><ele>66.33333333333333</ele><time>2026-04-18T16:42:13.999Z</time></trkpt><trkpt lat="42.433424658338765" lon="14.125125585016546"><ele>63.666666666666664</ele><time>2026-04-18T16:42:21.999Z</time></trkpt><trkpt lat="42.43349172314103" lon="14.125226450420701"><ele>61.0</ele><time>2026-04-18T16:42:23.999Z</time></trkpt><trkpt lat="42.433536010237454" lon="14.125299438996002"><ele>61.0</ele><time>2026-04-18T16:42:24.999Z</time></trkpt><trkpt lat="42.43359243105291" lon="14.125416427013729"><ele>60.99999999999999</ele><time>2026-04-18T16:42:26.999Z</time></trkpt><trkpt lat="42.433657154301706" lon="14.12543474802032"><ele>60.99999999999999</ele><time>2026-04-18T16:42:27.999Z</time></trkpt><trkpt lat="42.43370679605863" lon="14.125501177848648"><ele>61.0</ele><time>2026-04-18T16:42:32.999Z</time></trkpt><trkpt lat="42.43383325021697" lon="14.125370442552878"><ele>61.0</ele><time>2026-04-18T16:42:34.999Z</time></trkpt><trkpt lat="42.43389553103876" lon="14.125272823431589"><ele>61.599999999999994</ele><time>2026-04-18T16:42:36Z</time></trkpt><trkpt lat="42.433948368761" lon="14.12519627660597"><ele>62.199999999999996</ele><time>2026-04-18T16:42:37Z</time></trkpt><trkpt lat="42.43401703339384" lon="14.125101616066818"><ele>62.800000000000004</ele><time>2026-04-18T16:42:38Z</time></trkpt><trkpt lat="42.43409590223863" lon="14.124991602334033"><ele>63.400000000000006</ele><time>2026-04-18T16:42:39Z</time></trkpt><trkpt lat="42.43418029330831" lon="14.124870421245273"><ele>64.0</ele><time>2026-04-18T16:42:40Z</time></trkpt><trkpt lat="42.43426484948815" lon="14.124753252380556"><ele>64.0</ele><time>2026-04-18T16:42:41Z</time></trkpt><trkpt lat="42.43435511477492" lon="14.124628231977045"><ele>64.0</ele><time>2026-04-18T16:42:42Z</time></trkpt><trkpt lat="42.43444794592158" lon="14.12449448179909"><ele>64.0</ele><time>2026-04-18T16:42:43Z</time></trkpt><trkpt lat="42.43454168654597" lon="14.124360605291233"><ele>64.0</ele><time>2026-04-18T16:42:44Z</time></trkpt><trkpt lat="42.43463203199965" lon="14.124235308946883"><ele>64.5</ele><time>2026-04-18T16:42:45Z</time></trkpt><trkpt lat="42.4347159919794" lon="14.124125461542206"><ele>65.0</ele><time>2026-04-18T16:42:46Z</time></trkpt><trkpt lat="42.4348009172531" lon="14.12401631912497"><ele>65.5</ele><time>2026-04-18T16:42:47Z</time></trkpt><trkpt lat="42.434886166665336" lon="14.123907837430268"><ele>66.0</ele><time>2026-04-18T16:42:48Z</time></trkpt><trkpt lat="42.434975494434134" lon="14.123792906608946"><ele>66.0</ele><time>2026-04-18T16:42:49Z</time></trkpt><trkpt lat="42.435068694972045" lon="14.123678231223872"><ele>66.0</ele><time>2026-04-18T16:42:50Z</time></trkpt><trkpt lat="42.43516365749695" lon="14.123567874827195"><ele>66.0</ele><time>2026-04-18T16:42:51Z</time></trkpt><trkpt lat="42.43525811053785" lon="14.123454564617147"><ele>66.0</ele><time>2026-04-18T16:42:52Z</time></trkpt><trkpt lat="42.43534340867032" lon="14.123350299750053"><ele>66.0</ele><time>2026-04-18T16:42:53Z</time></trkpt><trkpt lat="42.4354189091948" lon="14.123263597528638"><ele>66.0</ele><time>2026-04-18T16:42:54Z</time></trkpt><trkpt lat="42.43548856767787" lon="14.123185521336191"><ele>66.0</ele><time>2026-04-18T16:42:55Z</time></trkpt><trkpt lat="42.43555947795079" lon="14.12312289634615"><ele>66.0</ele><time>2026-04-18T16:42:56Z</time></trkpt><trkpt lat="42.435641233284024" lon="14.123083534054125"><ele>66.0</ele><time>2026-04-18T16:42:57Z</time></trkpt><trkpt lat="42.43573144076954" lon="14.123068845398215"><ele>65.5</ele><time>2026-04-18T16:42:58Z</time></trkpt><trkpt lat="42.43583724648339" lon="14.123082010756178"><ele>65.0</ele><time>2026-04-18T16:42:59Z</time></trkpt><trkpt lat="42.43595743732813" lon="14.12312589843387"><ele>64.5</ele><time>2026-04-18T16:43:00Z</time></trkpt><trkpt lat="42.43607141770908" lon="14.123172366419588"><ele>64.0</ele><time>2026-04-18T16:43:01Z</time></trkpt><trkpt lat="42.436174300637084" lon="14.123215029161475"><ele>62.800000000000004</ele><time>2026-04-18T16:43:02Z</time></trkpt><trkpt lat="42.43626739184517" lon="14.123248372404259"><ele>61.60000000000001</ele><time>2026-04-18T16:43:03Z</time></trkpt><trkpt lat="42.43636051214673" lon="14.123272906832495"><ele>60.4</ele><time>2026-04-18T16:43:04Z</time></trkpt><trkpt lat="42.43645303407412" lon="14.123288490922342"><ele>59.2</ele><time>2026-04-18T16:43:05Z</time></trkpt><trkpt lat="42.43655309122619" lon="14.123293605339372"><ele>58.0</ele><time>2026-04-18T16:43:06Z</time></trkpt><trkpt lat="42.436659227180016" lon="14.123316627382136"><ele>58.0</ele><time>2026-04-18T16:43:07Z</time></trkpt><trkpt lat="42.436779218643366" lon="14.12336523726038"><ele>58.0</ele><time>2026-04-18T16:43:08Z</time></trkpt><trkpt lat="42.436894581225054" lon="14.123411739075616"><ele>58.0</ele><time>2026-04-18T16:43:09Z</time></trkpt><trkpt lat="42.43699501818569" lon="14.123462265657984"><ele>58.0</ele><time>2026-04-18T16:43:10Z</time></trkpt><trkpt lat="42.43707308359492" lon="14.12353870390677"><ele>58.0</ele><time>2026-04-18T16:43:11Z</time></trkpt><trkpt lat="42.437153012472464" lon="14.123581166910729"><ele>59.666666666666664</ele><time>2026-04-18T16:43:12Z</time></trkpt><trkpt lat="42.437209413681494" lon="14.123633640147629"><ele>61.33333333333333</ele><time>2026-04-18T16:43:13Z</time></trkpt><trkpt lat="42.43728137635748" lon="14.123673493456273"><ele>63.0</ele><time>2026-04-18T16:43:14Z</time></trkpt><trkpt lat="42.437367433825585" lon="14.123680863152256"><ele>64.66666666666667</ele><time>2026-04-18T16:43:15Z</time></trkpt><trkpt lat="42.43746641296664" lon="14.123678335029357"><ele>66.33333333333334</ele><time>2026-04-18T16:43:16Z</time></trkpt><trkpt lat="42.43755906720085" lon="14.123749798841766"><ele>68.0</ele><time>2026-04-18T16:43:17Z</time></trkpt><trkpt lat="42.4376671749939" lon="14.12377708821908"><ele>68.0</ele><time>2026-04-18T16:43:18Z</time></trkpt><trkpt lat="42.437769587781624" lon="14.12377773257006"><ele>68.0</ele><time>2026-04-18T16:43:19Z</time></trkpt><trkpt lat="42.43788687407103" lon="14.12375041378487"><ele>68.0</ele><time>2026-04-18T16:43:20Z</time></trkpt><trkpt lat="42.43799332466283" lon="14.123712836763493"><ele>68.0</ele><time>2026-04-18T16:43:21Z</time></trkpt><trkpt lat="42.43810816980833" lon="14.123685774508234"><ele>68.0</ele><time>2026-04-18T16:43:22Z</time></trkpt><trkpt lat="42.438224330843276" lon="14.12365254548216"><ele>68.2</ele><time>2026-04-18T16:43:23Z</time></trkpt><trkpt lat="42.438333398637845" lon="14.123615038972472"><ele>68.4</ele><time>2026-04-18T16:43:24Z</time></trkpt><trkpt lat="42.43842952314093" lon="14.123576366006297"><ele>68.60000000000001</ele><time>2026-04-18T16:43:25Z</time></trkpt><trkpt lat="42.438527764401215" lon="14.123565973748768"><ele>68.8</ele><time>2026-04-18T16:43:26Z</time></trkpt><trkpt lat="42.4386310019872" lon="14.123546613375709"><ele>69.0</ele><time>2026-04-18T16:43:27Z</time></trkpt><trkpt lat="42.4387451065092" lon="14.123534146634535"><ele>71.75</ele><time>2026-04-18T16:43:28Z</time></trkpt><trkpt lat="42.43886401726024" lon="14.123523906421926"><ele>74.5</ele><time>2026-04-18T16:43:29Z</time></trkpt><trkpt lat="42.438983336659476" lon="14.123497472454268"><ele>77.25</ele><time>2026-04-18T16:43:30Z</time></trkpt><trkpt lat="42.43910383730593" lon="14.123484780740723"><ele>80.0</ele><time>2026-04-18T16:43:31Z</time></trkpt><trkpt lat="42.439223419612404" lon="14.12344877689261"><ele>80.0</ele><time>2026-04-18T16:43:32Z</time></trkpt><trkpt lat="42.439344934516846" lon="14.12338686264638"><ele>80.0</ele><time>2026-04-18T16:43:33Z</time></trkpt><trkpt lat="42.439466770471796" lon="14.123316591740886"><ele>80.0</ele><time>2026-04-18T16:43:34Z</time></trkpt><trkpt lat="42.4395896992214" lon="14.123263911236997"><ele>80.0</ele><time>2026-04-18T16:43:35Z</time></trkpt><trkpt lat="42.43970776823472" lon="14.123228505080373"><ele>83.8</ele><time>2026-04-18T16:43:36Z</time></trkpt><trkpt lat="42.43981318563391" lon="14.12322354751694"><ele>87.6</ele><time>2026-04-18T16:43:37Z</time></trkpt><trkpt lat="42.439911415008204" lon="14.123243265693555"><ele>91.4</ele><time>2026-04-18T16:43:38Z</time></trkpt><trkpt lat="42.440011311940154" lon="14.123254602223414"><ele>95.2</ele><time>2026-04-18T16:43:39Z</time></trkpt><trkpt lat="42.4401156898151" lon="14.123250484360256"><ele>99.0</ele><time>2026-04-18T16:43:40Z</time></trkpt><trkpt lat="42.44021807426193" lon="14.123274552880114"><ele>99.0</ele><time>2026-04-18T16:43:41Z</time></trkpt><trkpt lat="42.440323532753546" lon="14.123285927184913"><ele>99.0</ele><time>2026-04-18T16:43:42Z</time></trkpt><trkpt lat="42.44043267188172" lon="14.123305569819046"><ele>99.0</ele><time>2026-04-18T16:43:43Z</time></trkpt><trkpt lat="42.44053233614626" lon="14.123336937252233"><ele>99.0</ele><time>2026-04-18T16:43:44Z</time></trkpt><trkpt lat="42.44062265739063" lon="14.123377425424454"><ele>99.0</ele><time>2026-04-18T16:43:45Z</time></trkpt><trkpt lat="42.44070798345614" lon="14.123423643190973"><ele>100.4</ele><time>2026-04-18T16:43:46Z</time></trkpt><trkpt lat="42.44080014634111" lon="14.123483313992665"><ele>101.80000000000001</ele><time>2026-04-18T16:43:47Z</time></trkpt><trkpt lat="42.44089564728548" lon="14.123550335201296"><ele>103.19999999999999</ele><time>2026-04-18T16:43:48Z</time></trkpt><trkpt lat="42.440994797023905" lon="14.123617510088337"><ele>104.6</ele><time>2026-04-18T16:43:49Z</time></trkpt><trkpt lat="42.44109482001711" lon="14.12367566385159"><ele>106.0</ele><time>2026-04-18T16:43:50Z</time></trkpt><trkpt lat="42.441194909562995" lon="14.123736086906707"><ele>106.0</ele><time>2026-04-18T16:43:51Z</time></trkpt><trkpt lat="42.441294283349606" lon="14.123797299674216"><ele>106.0</ele><time>2026-04-18T16:43:52Z</time></trkpt><trkpt lat="42.441390101416985" lon="14.12386183899013"><ele>106.0</ele><time>2026-04-18T16:43:53Z</time></trkpt><trkpt lat="42.441494056757335" lon="14.123889169618213"><ele>106.0</ele><time>2026-04-18T16:43:54Z</time></trkpt><trkpt lat="42.441590109517584" lon="14.123908134371812"><ele>106.0</ele><time>2026-04-18T16:43:55Z</time></trkpt><trkpt lat="42.4416966603207" lon="14.123923588789353"><ele>105.75</ele><time>2026-04-18T16:43:56Z</time></trkpt><trkpt lat="42.44180648051789" lon="14.123939489267615"><ele>105.5</ele><time>2026-04-18T16:43:57Z</time></trkpt><trkpt lat="42.44191705944475" lon="14.123952649561641"><ele>105.25</ele><time>2026-04-18T16:43:58Z</time></trkpt><trkpt lat="42.442033149474874" lon="14.12395605926398"><ele>105.0</ele><time>2026-04-18T16:43:59Z</time></trkpt><trkpt lat="42.44215384330843" lon="14.12394539151299"><ele>105.0</ele><time>2026-04-18T16:44:00Z</time></trkpt><trkpt lat="42.4422813464087" lon="14.123924957249574"><ele>105.0</ele><time>2026-04-18T16:44:01Z</time></trkpt><trkpt lat="42.44241549850037" lon="14.123891101340762"><ele>105.0</ele><time>2026-04-18T16:44:02Z</time></trkpt><trkpt lat="42.44254734502829" lon="14.123852204069715"><ele>105.0</ele><time>2026-04-18T16:44:03Z</time></trkpt><trkpt lat="42.44268233456905" lon="14.123827298871937"><ele>105.0</ele><time>2026-04-18T16:44:04Z</time></trkpt><trkpt lat="42.44280870312334" lon="14.123788426228922"><ele>105.0</ele><time>2026-04-18T16:44:05Z</time></trkpt><trkpt lat="42.442929787952394" lon="14.123744739124604"><ele>105.0</ele><time>2026-04-18T16:44:06Z</time></trkpt><trkpt lat="42.44305910537619" lon="14.123697124800694"><ele>105.0</ele><time>2026-04-18T16:44:07Z</time></trkpt><trkpt lat="42.44318388094594" lon="14.123652680863069"><ele>106.5</ele><time>2026-04-18T16:44:08Z</time></trkpt><trkpt lat="42.44330833230116" lon="14.123604582275702"><ele>108.0</ele><time>2026-04-18T16:44:09Z</time></trkpt><trkpt lat="42.443434148006666" lon="14.123568866114418"><ele>109.5</ele><time>2026-04-18T16:44:10Z</time></trkpt><trkpt lat="42.44355487306835" lon="14.123536473408883"><ele>111.0</ele><time>2026-04-18T16:44:11Z</time></trkpt><trkpt lat="42.44366320209448" lon="14.123507948435684"><ele>111.0</ele><time>2026-04-18T16:44:12Z</time></trkpt><trkpt lat="42.44375882893715" lon="14.123473915738312"><ele>111.0</ele><time>2026-04-18T16:44:13Z</time></trkpt><trkpt lat="42.44384338593237" lon="14.12344631347823"><ele>111.0</ele><time>2026-04-18T16:44:14Z</time></trkpt><trkpt lat="42.44393289250152" lon="14.123432401199118"><ele>111.0</ele><time>2026-04-18T16:44:15Z</time></trkpt><trkpt lat="42.44402432042692" lon="14.123443256377039"><ele>111.0</ele><time>2026-04-18T16:44:16Z</time></trkpt><trkpt lat="42.44412026373647" lon="14.123467163535732"><ele>111.19999999999999</ele><time>2026-04-18T16:44:17Z</time></trkpt><trkpt lat="42.44421555741752" lon="14.123469708933307"><ele>111.39999999999999</ele><time>2026-04-18T16:44:18Z</time></trkpt><trkpt lat="42.444311042613336" lon="14.12342527091196"><ele>111.6</ele><time>2026-04-18T16:44:19Z</time></trkpt><trkpt lat="42.44441280684774" lon="14.123346414393085"><ele>111.8</ele><time>2026-04-18T16:44:20Z</time></trkpt><trkpt lat="42.44450633249867" lon="14.12322265273266"><ele>112.0</ele><time>2026-04-18T16:44:21Z</time></trkpt><trkpt lat="42.4445958876357" lon="14.12307797001912"><ele>114.8</ele><time>2026-04-18T16:44:22Z</time></trkpt><trkpt lat="42.44468937532863" lon="14.122973520257748"><ele>117.6</ele><time>2026-04-18T16:44:23Z</time></trkpt><trkpt lat="42.44475873860117" lon="14.122861515358178"><ele>120.39999999999999</ele><time>2026-04-18T16:44:24Z</time></trkpt><trkpt lat="42.444843838818606" lon="14.122789316831337"><ele>123.19999999999999</ele><time>2026-04-18T16:44:25Z</time></trkpt><trkpt lat="42.44495410908219" lon="14.12275491184574"><ele>126.0</ele><time>2026-04-18T16:44:26Z</time></trkpt><trkpt lat="42.445055531014624" lon="14.122678757707433"><ele>126.0</ele><time>2026-04-18T16:44:27Z</time></trkpt><trkpt lat="42.44515730169638" lon="14.122621697488233"><ele>126.0</ele><time>2026-04-18T16:44:27.999Z</time></trkpt><trkpt lat="42.44526254446411" lon="14.122556579773969"><ele>126.0</ele><time>2026-04-18T16:44:28.999Z</time></trkpt><trkpt lat="42.44536406951036" lon="14.122464417897211"><ele>126.0</ele><time>2026-04-18T16:44:29.999Z</time></trkpt><trkpt lat="42.44546193209435" lon="14.122344410351158"><ele>126.4</ele><time>2026-04-18T16:44:30.999Z</time></trkpt><trkpt lat="42.44553967916974" lon="14.122225301018478"><ele>126.8</ele><time>2026-04-18T16:44:31.999Z</time></trkpt><trkpt lat="42.44561220560429" lon="14.1221226210688"><ele>127.20000000000002</ele><time>2026-04-18T16:44:32.999Z</time></trkpt><trkpt lat="42.44569931117929" lon="14.122049195800656"><ele>127.60000000000001</ele><time>2026-04-18T16:44:33.999Z</time></trkpt><trkpt lat="42.44578067162651" lon="14.121987279067838"><ele>128.0</ele><time>2026-04-18T16:44:34.999Z</time></trkpt><trkpt lat="42.44586128023648" lon="14.121920510645742"><ele>128.0</ele><time>2026-04-18T16:44:35.999Z</time></trkpt><trkpt lat="42.445966200437205" lon="14.12191225170457"><ele>128.0</ele><time>2026-04-18T16:44:36.999Z</time></trkpt><trkpt lat="42.446069061276795" lon="14.121889615139157"><ele>128.0</ele><time>2026-04-18T16:44:37.999Z</time></trkpt><trkpt lat="42.446179946776006" lon="14.121869499107026"><ele>128.0</ele><time>2026-04-18T16:44:38.999Z</time></trkpt><trkpt lat="42.44627579597772" lon="14.121831027704703"><ele>128.0</ele><time>2026-04-18T16:44:39.999Z</time></trkpt><trkpt lat="42.44636767727677" lon="14.121807113096915"><ele>128.8</ele><time>2026-04-18T16:44:41.001Z</time></trkpt><trkpt lat="42.44645616413169" lon="14.121777001566384"><ele>129.60000000000002</ele><time>2026-04-18T16:44:42.001Z</time></trkpt><trkpt lat="42.44655399261499" lon="14.121750352540467"><ele>130.39999999999998</ele><time>2026-04-18T16:44:43.001Z</time></trkpt><trkpt lat="42.4466576631574" lon="14.121729954050906"><ele>131.2</ele><time>2026-04-18T16:44:44.001Z</time></trkpt><trkpt lat="42.446769000165" lon="14.1217159667426"><ele>132.0</ele><time>2026-04-18T16:44:45.001Z</time></trkpt><trkpt lat="42.44688482301843" lon="14.121746744054363"><ele>132.0</ele><time>2026-04-18T16:44:46.001Z</time></trkpt><trkpt lat="42.446997067454646" lon="14.12176248567172"><ele>132.0</ele><time>2026-04-18T16:44:47.001Z</time></trkpt><trkpt lat="42.44709871107786" lon="14.121761977203851"><ele>132.0</ele><time>2026-04-18T16:44:48.001Z</time></trkpt><trkpt lat="42.447200300709824" lon="14.121774417306177"><ele>132.0</ele><time>2026-04-18T16:44:49.001Z</time></trkpt><trkpt lat="42.44730135744758" lon="14.121791836459515"><ele>132.0</ele><time>2026-04-18T16:44:50.001Z</time></trkpt><trkpt lat="42.447392453660946" lon="14.121799108452786"><ele>132.5</ele><time>2026-04-18T16:44:51.001Z</time></trkpt><trkpt lat="42.44747039325502" lon="14.121821779457578"><ele>133.0</ele><time>2026-04-18T16:44:52.001Z</time></trkpt><trkpt lat="42.44754308387382" lon="14.12186365320957"><ele>133.5</ele><time>2026-04-18T16:44:53.001Z</time></trkpt><trkpt lat="42.44760702164953" lon="14.121925337262226"><ele>134.0</ele><time>2026-04-18T16:44:54.001Z</time></trkpt><trkpt lat="42.447674995153534" lon="14.121976735158222"><ele>134.5</ele><time>2026-04-18T16:44:55.001Z</time></trkpt><trkpt lat="42.44775030879715" lon="14.122030327159061"><ele>135.0</ele><time>2026-04-18T16:44:56.001Z</time></trkpt><trkpt lat="42.4478310266501" lon="14.122066049309202"><ele>135.0</ele><time>2026-04-18T16:44:57.001Z</time></trkpt><trkpt lat="42.447908702333834" lon="14.12212481217341"><ele>135.0</ele><time>2026-04-18T16:44:58.001Z</time></trkpt><trkpt lat="42.44798857077511" lon="14.12218259095154"><ele>135.0</ele><time>2026-04-18T16:44:59.001Z</time></trkpt><trkpt lat="42.44807187199268" lon="14.122240940956898"><ele>135.0</ele><time>2026-04-18T16:45:00.001Z</time></trkpt><trkpt lat="42.44815598103003" lon="14.122303506458595"><ele>135.0</ele><time>2026-04-18T16:45:01.001Z</time></trkpt><trkpt lat="42.448238548512364" lon="14.122352447062102"><ele>134.0</ele><time>2026-04-18T16:45:02.001Z</time></trkpt><trkpt lat="42.44831925142404" lon="14.122405262470943"><ele>133.0</ele><time>2026-04-18T16:45:03.001Z</time></trkpt><trkpt lat="42.44840230995376" lon="14.12245412385799"><ele>132.0</ele><time>2026-04-18T16:45:04.001Z</time></trkpt><trkpt lat="42.44849343402593" lon="14.122505243785174"><ele>131.0</ele><time>2026-04-18T16:45:05.001Z</time></trkpt><trkpt lat="42.44858395286896" lon="14.12255775062983"><ele>130.0</ele><time>2026-04-18T16:45:06.001Z</time></trkpt><trkpt lat="42.44867178448078" lon="14.122598849555311"><ele>130.0</ele><time>2026-04-18T16:45:07.001Z</time></trkpt><trkpt lat="42.44876210742601" lon="14.122622654301143"><ele>130.0</ele><time>2026-04-18T16:45:08.001Z</time></trkpt><trkpt lat="42.44884917110133" lon="14.122629665879371"><ele>130.0</ele><time>2026-04-18T16:45:09.001Z</time></trkpt><trkpt lat="42.44893532090313" lon="14.122645216186427"><ele>130.0</ele><time>2026-04-18T16:45:10.001Z</time></trkpt><trkpt lat="42.44903712168535" lon="14.122675717426626"><ele>130.0</ele><time>2026-04-18T16:45:12.001Z</time></trkpt><trkpt lat="42.44905328001932" lon="14.122851535266246"><ele>130.33333333333334</ele><time>2026-04-18T16:45:14.001Z</time></trkpt><trkpt lat="42.44909620228223" lon="14.122937059199817"><ele>130.66666666666669</ele><time>2026-04-18T16:45:15.001Z</time></trkpt><trkpt lat="42.44914264487971" lon="14.123021643025732"><ele>131.0</ele><time>2026-04-18T16:45:16.001Z</time></trkpt><trkpt lat="42.44920998905703" lon="14.123106035307215"><ele>131.33333333333334</ele><time>2026-04-18T16:45:17.001Z</time></trkpt><trkpt lat="42.44927930639378" lon="14.123191234533598"><ele>131.66666666666666</ele><time>2026-04-18T16:45:18Z</time></trkpt><trkpt lat="42.44934973356726" lon="14.123276182058065"><ele>132.0</ele><time>2026-04-18T16:45:19Z</time></trkpt><trkpt lat="42.4494197956287" lon="14.12336087041851"><ele>130.83333333333334</ele><time>2026-04-18T16:45:20Z</time></trkpt><trkpt lat="42.449494574403516" lon="14.123444484552389"><ele>129.66666666666666</ele><time>2026-04-18T16:45:21Z</time></trkpt><trkpt lat="42.449554248789156" lon="14.123514349628643"><ele>128.5</ele><time>2026-04-18T16:45:22Z</time></trkpt><trkpt lat="42.44959488652854" lon="14.123596185572158"><ele>127.33333333333333</ele><time>2026-04-18T16:45:23Z</time></trkpt><trkpt lat="42.44964450852891" lon="14.123678657925293"><ele>126.16666666666666</ele><time>2026-04-18T16:45:24Z</time></trkpt><trkpt lat="42.449703672237824" lon="14.123760401694936"><ele>125.0</ele><time>2026-04-18T16:45:25Z</time></trkpt><trkpt lat="42.4497539832524" lon="14.123860000267001"><ele>125.0</ele><time>2026-04-18T16:45:26Z</time></trkpt><trkpt lat="42.44980203509198" lon="14.123961615606284"><ele>125.0</ele><time>2026-04-18T16:45:27Z</time></trkpt><trkpt lat="42.4498530437944" lon="14.1240661197039"><ele>125.0</ele><time>2026-04-18T16:45:28Z</time></trkpt><trkpt lat="42.44988809754164" lon="14.124185158572569"><ele>125.0</ele><time>2026-04-18T16:45:29Z</time></trkpt><trkpt lat="42.44993723126891" lon="14.124296630538728"><ele>125.0</ele><time>2026-04-18T16:45:30Z</time></trkpt><trkpt lat="42.44999649841048" lon="14.124388884740908"><ele>124.2</ele><time>2026-04-18T16:45:31Z</time></trkpt><trkpt lat="42.45003960237819" lon="14.124498934768026"><ele>123.4</ele><time>2026-04-18T16:45:32Z</time></trkpt><trkpt lat="42.45010023344877" lon="14.124597397930149"><ele>122.6</ele><time>2026-04-18T16:45:33Z</time></trkpt><trkpt lat="42.45015900582236" lon="14.124703029613674"><ele>121.8</ele><time>2026-04-18T16:45:34Z</time></trkpt><trkpt lat="42.45021192964601" lon="14.124830101794444"><ele>121.0</ele><time>2026-04-18T16:45:35Z</time></trkpt><trkpt lat="42.45027867776911" lon="14.124910535085835"><ele>118.83333333333334</ele><time>2026-04-18T16:45:36Z</time></trkpt><trkpt lat="42.45033025115851" lon="14.124997838794846"><ele>116.66666666666667</ele><time>2026-04-18T16:45:37Z</time></trkpt><trkpt lat="42.4503848079704" lon="14.125077514635064"><ele>114.5</ele><time>2026-04-18T16:45:38Z</time></trkpt><trkpt lat="42.450437349713546" lon="14.125144960824898"><ele>112.33333333333334</ele><time>2026-04-18T16:45:39Z</time></trkpt><trkpt lat="42.4505002126663" lon="14.125263601037833"><ele>110.16666666666667</ele><time>2026-04-18T16:45:41Z</time></trkpt><trkpt lat="42.45053494619359" lon="14.12534638932354"><ele>108.0</ele><time>2026-04-18T16:45:49Z</time></trkpt><trkpt lat="42.450623747707105" lon="14.125439143991784"><ele>107.66666666666666</ele><time>2026-04-18T16:45:51Z</time></trkpt><trkpt lat="42.45067500334214" lon="14.12550033054609"><ele>107.33333333333333</ele><time>2026-04-18T16:45:53Z</time></trkpt><trkpt lat="42.45094653618191" lon="14.125358957191146"><ele>107.0</ele><time>2026-04-18T16:45:55Z</time></trkpt><trkpt lat="42.45103966080938" lon="14.125420422529901"><ele>107.0</ele><time>2026-04-18T16:45:57Z</time></trkpt><trkpt lat="42.45112910524068" lon="14.125497389710644"><ele>106.99999999999999</ele><time>2026-04-18T16:45:59Z</time></trkpt><trkpt lat="42.45117789035695" lon="14.125557712267367"><ele>106.99999999999999</ele><time>2026-04-18T16:46:00Z</time></trkpt><trkpt lat="42.451246004305574" lon="14.125669101777698"><ele>107.0</ele><time>2026-04-18T16:46:02Z</time></trkpt><trkpt lat="42.45131672285485" lon="14.125770943627813"><ele>107.0</ele><time>2026-04-18T16:46:04Z</time></trkpt><trkpt lat="42.45140293512421" lon="14.125848552832887"><ele>106.39999999999999</ele><time>2026-04-18T16:46:06Z</time></trkpt><trkpt lat="42.45149801853689" lon="14.12591485239004"><ele>105.79999999999998</ele><time>2026-04-18T16:46:08Z</time></trkpt><trkpt lat="42.451611337470375" lon="14.125988687478527"><ele>105.2</ele><time>2026-04-18T16:46:10Z</time></trkpt><trkpt lat="42.45169873660714" lon="14.126027439167794"><ele>104.6</ele><time>2026-04-18T16:46:12Z</time></trkpt><trkpt lat="42.451762478656164" lon="14.126069848475787"><ele>104.0</ele><time>2026-04-18T16:46:14Z</time></trkpt><trkpt lat="42.451772056431786" lon="14.126169040643937"><ele>104.0</ele><time>2026-04-18T16:46:16Z</time></trkpt><trkpt lat="42.45179634742159" lon="14.126254489908519"><ele>104.0</ele><time>2026-04-18T16:46:18Z</time></trkpt><trkpt lat="42.451901871499956" lon="14.126346523845966"><ele>104.0</ele><time>2026-04-18T16:46:20Z</time></trkpt><trkpt lat="42.45198637041298" lon="14.12644406794134"><ele>104.0</ele><time>2026-04-18T16:46:22Z</time></trkpt><trkpt lat="42.452046854862445" lon="14.126532827773019"><ele>104.0</ele><time>2026-04-18T16:46:24Z</time></trkpt><trkpt lat="42.45209936002931" lon="14.126626398447591"><ele>104.16666666666666</ele><time>2026-04-18T16:46:26Z</time></trkpt><trkpt lat="42.452130656360985" lon="14.126730449218659"><ele>104.33333333333333</ele><time>2026-04-18T16:46:28Z</time></trkpt><trkpt lat="42.45219660284256" lon="14.12682394025169"><ele>104.5</ele><time>2026-04-18T16:46:31Z</time></trkpt><trkpt lat="42.45227709884257" lon="14.126818650275139"><ele>104.66666666666666</ele><time>2026-04-18T16:46:33Z</time></trkpt><trkpt lat="42.45236663194322" lon="14.126808831203782"><ele>104.83333333333333</ele><time>2026-04-18T16:46:35Z</time></trkpt><trkpt lat="42.45242782177674" lon="14.126831352001293"><ele>105.0</ele><time>2026-04-18T16:46:37Z</time></trkpt><trkpt lat="42.452535697768056" lon="14.126922247724385"><ele>105.0</ele><time>2026-04-18T16:46:39Z</time></trkpt><trkpt lat="42.4525863786183" lon="14.126973894481473"><ele>105.0</ele><time>2026-04-18T16:46:40Z</time></trkpt><trkpt lat="42.452669704586704" lon="14.127089778322826"><ele>105.0</ele><time>2026-04-18T16:46:42Z</time></trkpt><trkpt lat="42.45274148047967" lon="14.12719661497136"><ele>105.0</ele><time>2026-04-18T16:46:44Z</time></trkpt><trkpt lat="42.45282296304069" lon="14.127325586113662"><ele>105.0</ele><time>2026-04-18T16:46:46Z</time></trkpt><trkpt lat="42.45285544388058" lon="14.127398755153274"><ele>106.16666666666667</ele><time>2026-04-18T16:46:47.001Z</time></trkpt><trkpt lat="42.45289369977381" lon="14.12747252586356"><ele>107.33333333333334</ele><time>2026-04-18T16:46:48.001Z</time></trkpt><trkpt lat="42.452936303598925" lon="14.127544844972693"><ele>108.5</ele><time>2026-04-18T16:46:49.001Z</time></trkpt><trkpt lat="42.45297347792551" lon="14.127616529414375"><ele>109.66666666666667</ele><time>2026-04-18T16:46:50.001Z</time></trkpt><trkpt lat="42.45303709928917" lon="14.127751098015777"><ele>110.83333333333334</ele><time>2026-04-18T16:46:52.001Z</time></trkpt><trkpt lat="42.453079132399054" lon="14.12782514836958"><ele>112.0</ele><time>2026-04-18T16:46:53.001Z</time></trkpt><trkpt lat="42.453127832696055" lon="14.127893280468223"><ele>112.28571428571428</ele><time>2026-04-18T16:46:54.001Z</time></trkpt><trkpt lat="42.45317517435206" lon="14.127961627028846"><ele>112.57142857142857</ele><time>2026-04-18T16:46:55.001Z</time></trkpt><trkpt lat="42.45321818757792" lon="14.128028504347801"><ele>112.85714285714286</ele><time>2026-04-18T16:46:56.001Z</time></trkpt><trkpt lat="42.45326226781184" lon="14.128100759008795"><ele>113.14285714285714</ele><time>2026-04-18T16:46:57.001Z</time></trkpt><trkpt lat="42.45330607603743" lon="14.128171452985868"><ele>113.42857142857142</ele><time>2026-04-18T16:46:58.001Z</time></trkpt><trkpt lat="42.453349806460956" lon="14.12823655400634"><ele>113.71428571428571</ele><time>2026-04-18T16:46:59.001Z</time></trkpt><trkpt lat="42.453392685720566" lon="14.128303549355094"><ele>114.0</ele><time>2026-04-18T16:47:00.001Z</time></trkpt><trkpt lat="42.453470632592236" lon="14.128422801635164"><ele>114.2</ele><time>2026-04-18T16:47:02.001Z</time></trkpt><trkpt lat="42.453514234499636" lon="14.1284883229778"><ele>114.4</ele><time>2026-04-18T16:47:03.001Z</time></trkpt><trkpt lat="42.45359589592132" lon="14.12860804569122"><ele>114.6</ele><time>2026-04-18T16:47:05.001Z</time></trkpt><trkpt lat="42.45369882467892" lon="14.12870828152952"><ele>114.8</ele><time>2026-04-18T16:47:07.001Z</time></trkpt><trkpt lat="42.45379323708074" lon="14.128816402300378"><ele>115.0</ele><time>2026-04-18T16:47:09.001Z</time></trkpt><trkpt lat="42.453842561244855" lon="14.128869574037786"><ele>116.00000000000001</ele><time>2026-04-18T16:47:10.001Z</time></trkpt><trkpt lat="42.4538998369054" lon="14.128924730007553"><ele>117.0</ele><time>2026-04-18T16:47:11.001Z</time></trkpt><trkpt lat="42.45395630210859" lon="14.12898289301997"><ele>118.0</ele><time>2026-04-18T16:47:12.001Z</time></trkpt><trkpt lat="42.454012845098134" lon="14.12902922493841"><ele>119.0</ele><time>2026-04-18T16:47:13.001Z</time></trkpt><trkpt lat="42.454077749380346" lon="14.129083654380002"><ele>120.00000000000001</ele><time>2026-04-18T16:47:14.001Z</time></trkpt><trkpt lat="42.454150712289184" lon="14.129147012962354"><ele>121.0</ele><time>2026-04-18T16:47:15.001Z</time></trkpt><trkpt lat="42.45422200807129" lon="14.129204401545913"><ele>121.00000000000001</ele><time>2026-04-18T16:47:16.001Z</time></trkpt><trkpt lat="42.45428706409042" lon="14.129262047904463"><ele>121.0</ele><time>2026-04-18T16:47:17.001Z</time></trkpt><trkpt lat="42.45436040145462" lon="14.12932844331784"><ele>121.0</ele><time>2026-04-18T16:47:18.001Z</time></trkpt><trkpt lat="42.45443158187438" lon="14.129399378274522"><ele>121.0</ele><time>2026-04-18T16:47:19.001Z</time></trkpt><trkpt lat="42.45450893606281" lon="14.129474000334614"><ele>121.00000000000001</ele><time>2026-04-18T16:47:20.001Z</time></trkpt><trkpt lat="42.454586814523616" lon="14.129548591909261"><ele>121.0</ele><time>2026-04-18T16:47:21.001Z</time></trkpt><trkpt lat="42.45465601736299" lon="14.1296269813475"><ele>123.19999999999999</ele><time>2026-04-18T16:47:22.001Z</time></trkpt><trkpt lat="42.45472740299527" lon="14.129731865620549"><ele>125.39999999999999</ele><time>2026-04-18T16:47:23.001Z</time></trkpt><trkpt lat="42.45479735728669" lon="14.129826579898488"><ele>127.6</ele><time>2026-04-18T16:47:24.001Z</time></trkpt><trkpt lat="42.454862619506976" lon="14.12992400502881"><ele>129.79999999999998</ele><time>2026-04-18T16:47:25.001Z</time></trkpt><trkpt lat="42.454932520951125" lon="14.130043305274183"><ele>132.0</ele><time>2026-04-18T16:47:26.001Z</time></trkpt><trkpt lat="42.45499753432466" lon="14.130167597715047"><ele>132.0</ele><time>2026-04-18T16:47:27.001Z</time></trkpt><trkpt lat="42.45505277548153" lon="14.13027976737018"><ele>132.0</ele><time>2026-04-18T16:47:28.001Z</time></trkpt><trkpt lat="42.45511485824245" lon="14.13040068497525"><ele>132.0</ele><time>2026-04-18T16:47:29.001Z</time></trkpt><trkpt lat="42.45517450369376" lon="14.130497075630466"><ele>132.0</ele><time>2026-04-18T16:47:30.001Z</time></trkpt><trkpt lat="42.45524763135103" lon="14.1305915677009"><ele>132.0</ele><time>2026-04-18T16:47:31.001Z</time></trkpt><trkpt lat="42.45531214507148" lon="14.130687277599948"><ele>133.79999999999998</ele><time>2026-04-18T16:47:32.001Z</time></trkpt><trkpt lat="42.455368464477985" lon="14.13079113923362"><ele>135.6</ele><time>2026-04-18T16:47:33.001Z</time></trkpt><trkpt lat="42.45542461639657" lon="14.13089965215642"><ele>137.39999999999998</ele><time>2026-04-18T16:47:34.001Z</time></trkpt><trkpt lat="42.45548574040361" lon="14.130991333569863"><ele>139.2</ele><time>2026-04-18T16:47:35.001Z</time></trkpt><trkpt lat="42.45554340212679" lon="14.131081831486886"><ele>141.0</ele><time>2026-04-18T16:47:36.001Z</time></trkpt><trkpt lat="42.45560432753202" lon="14.131171988263198"><ele>142.6</ele><time>2026-04-18T16:47:37.001Z</time></trkpt><trkpt lat="42.45567431116067" lon="14.131264530831428"><ele>144.2</ele><time>2026-04-18T16:47:38.001Z</time></trkpt><trkpt lat="42.455755546772565" lon="14.131360804281995"><ele>145.8</ele><time>2026-04-18T16:47:39.001Z</time></trkpt><trkpt lat="42.4558268510308" lon="14.13146353690446"><ele>147.4</ele><time>2026-04-18T16:47:40.001Z</time></trkpt><trkpt lat="42.45588825848907" lon="14.131537721058626"><ele>149.0</ele><time>2026-04-18T16:47:41.001Z</time></trkpt><trkpt lat="42.45596144423179" lon="14.131636663936538"><ele>150.2</ele><time>2026-04-18T16:47:42.001Z</time></trkpt><trkpt lat="42.456012494479275" lon="14.131743877858751"><ele>151.4</ele><time>2026-04-18T16:47:43.001Z</time></trkpt><trkpt lat="42.45604105844188" lon="14.13188291640328"><ele>152.6</ele><time>2026-04-18T16:47:44.001Z</time></trkpt><trkpt lat="42.45609807934441" lon="14.131994814083216"><ele>153.8</ele><time>2026-04-18T16:47:45.001Z</time></trkpt><trkpt lat="42.45617177677288" lon="14.13211140222963"><ele>155.0</ele><time>2026-04-18T16:47:46Z</time></trkpt><trkpt lat="42.45623611696012" lon="14.132219916424969"><ele>155.0</ele><time>2026-04-18T16:47:47Z</time></trkpt><trkpt lat="42.456272546897374" lon="14.132328831518077"><ele>155.0</ele><time>2026-04-18T16:47:48Z</time></trkpt><trkpt lat="42.45631478341169" lon="14.132417112503258"><ele>155.0</ele><time>2026-04-18T16:47:49Z</time></trkpt><trkpt lat="42.456343217911964" lon="14.132500112735407"><ele>155.0</ele><time>2026-04-18T16:47:50Z</time></trkpt><trkpt lat="42.45632503585441" lon="14.132592269410363"><ele>155.0</ele><time>2026-04-18T16:47:54Z</time></trkpt><trkpt lat="42.45639499307891" lon="14.132690330966366"><ele>155.0</ele><time>2026-04-18T16:47:57Z</time></trkpt><trkpt lat="42.45651520432018" lon="14.132726835963338"><ele>157.2</ele><time>2026-04-18T16:47:58Z</time></trkpt><trkpt lat="42.456592149889005" lon="14.13277203959069"><ele>159.4</ele><time>2026-04-18T16:47:59Z</time></trkpt><trkpt lat="42.45664832657409" lon="14.132816273441678"><ele>161.60000000000002</ele><time>2026-04-18T16:48:00Z</time></trkpt><trkpt lat="42.45673603484387" lon="14.13288810163078"><ele>163.8</ele><time>2026-04-18T16:48:02Z</time></trkpt><trkpt lat="42.45680249497738" lon="14.132936703640747"><ele>166.0</ele><time>2026-04-18T16:48:14Z</time></trkpt><trkpt lat="42.45676986308662" lon="14.133206766882715"><ele>166.5</ele><time>2026-04-18T16:48:16Z</time></trkpt><trkpt lat="42.45675211783947" lon="14.133330333663098"><ele>167.0</ele><time>2026-04-18T16:48:17Z</time></trkpt><trkpt lat="42.45674042099932" lon="14.133476225001878"><ele>167.5</ele><time>2026-04-18T16:48:18Z</time></trkpt><trkpt lat="42.45670557256459" lon="14.133661125634776"><ele>168.0</ele><time>2026-04-18T16:48:19Z</time></trkpt><trkpt lat="42.45665846358237" lon="14.133844025589605"><ele>168.0</ele><time>2026-04-18T16:48:20Z</time></trkpt><trkpt lat="42.456620812427715" lon="14.13400227492184"><ele>168.0</ele><time>2026-04-18T16:48:21Z</time></trkpt><trkpt lat="42.45657324137145" lon="14.134186256252626"><ele>168.0</ele><time>2026-04-18T16:48:22Z</time></trkpt><trkpt lat="42.45652253508588" lon="14.134337131327642"><ele>168.0</ele><time>2026-04-18T16:48:23Z</time></trkpt><trkpt lat="42.45647736055445" lon="14.134469412604263"><ele>168.0</ele><time>2026-04-18T16:48:24Z</time></trkpt><trkpt lat="42.456434118693515" lon="14.134590672076419"><ele>168.0</ele><time>2026-04-18T16:48:25Z</time></trkpt><trkpt lat="42.45639845297266" lon="14.134730535286334"><ele>168.0</ele><time>2026-04-18T16:48:26Z</time></trkpt><trkpt lat="42.45635544466373" lon="14.134865516816612"><ele>168.0</ele><time>2026-04-18T16:48:27Z</time></trkpt><trkpt lat="42.45631751593122" lon="14.134994460709985"><ele>168.0</ele><time>2026-04-18T16:48:28Z</time></trkpt><trkpt lat="42.456285895135665" lon="14.135111856197849"><ele>172.33333333333334</ele><time>2026-04-18T16:48:29Z</time></trkpt><trkpt lat="42.45625379070943" lon="14.135223363879696"><ele>176.66666666666669</ele><time>2026-04-18T16:48:30Z</time></trkpt><trkpt lat="42.4562217989188" lon="14.135323698879315"><ele>181.0</ele><time>2026-04-18T16:48:31Z</time></trkpt><trkpt lat="42.45619045562758" lon="14.135418780130689"><ele>185.33333333333334</ele><time>2026-04-18T16:48:32Z</time></trkpt><trkpt lat="42.4561613571848" lon="14.135510924195017"><ele>189.66666666666669</ele><time>2026-04-18T16:48:33Z</time></trkpt><trkpt lat="42.456132957417545" lon="14.135591857819506"><ele>194.0</ele><time>2026-04-18T16:48:34Z</time></trkpt><trkpt lat="42.45607767156" lon="14.135667486830751"><ele>191.2</ele><time>2026-04-18T16:48:36Z</time></trkpt><trkpt lat="42.456043493428" lon="14.135766207273903"><ele>188.39999999999998</ele><time>2026-04-18T16:48:38Z</time></trkpt><trkpt lat="42.455990434517304" lon="14.135844149914025"><ele>185.6</ele><time>2026-04-18T16:48:40Z</time></trkpt><trkpt lat="42.45592782342443" lon="14.135925689836867"><ele>182.8</ele><time>2026-04-18T16:48:42Z</time></trkpt><trkpt lat="42.4558648040698" lon="14.13597703208447"><ele>180.0</ele><time>2026-04-18T16:48:44Z</time></trkpt><trkpt lat="42.45598106977188" lon="14.136090275543365"><ele>180.0</ele><time>2026-04-18T16:48:46Z</time></trkpt><trkpt lat="42.45607311673684" lon="14.136114063955006"><ele>180.0</ele><time>2026-04-18T16:48:47Z</time></trkpt><trkpt lat="42.45622276613914" lon="14.136164378186622"><ele>180.0</ele><time>2026-04-18T16:48:48Z</time></trkpt><trkpt lat="42.456359403225" lon="14.136225842010884"><ele>180.0</ele><time>2026-04-18T16:48:49Z</time></trkpt><trkpt lat="42.45649838111322" lon="14.136283400989454"><ele>177.4</ele><time>2026-04-18T16:48:50Z</time></trkpt><trkpt lat="42.456618452329465" lon="14.136306760925422"><ele>174.8</ele><time>2026-04-18T16:48:51Z</time></trkpt><trkpt lat="42.45672797196573" lon="14.136303203530895"><ele>172.2</ele><time>2026-04-18T16:48:52Z</time></trkpt><trkpt lat="42.45682597491537" lon="14.136268534278184"><ele>169.6</ele><time>2026-04-18T16:48:53.001Z</time></trkpt><trkpt lat="42.456920403782" lon="14.136231633971146"><ele>167.0</ele><time>2026-04-18T16:48:54.001Z</time></trkpt><trkpt lat="42.457002934016856" lon="14.136212725083123"><ele>167.0</ele><time>2026-04-18T16:48:55.001Z</time></trkpt><trkpt lat="42.45709315736981" lon="14.136212904314533"><ele>167.0</ele><time>2026-04-18T16:48:56.001Z</time></trkpt><trkpt lat="42.457181379016504" lon="14.136214773318104"><ele>167.0</ele><time>2026-04-18T16:48:57.001Z</time></trkpt><trkpt lat="42.457265339566376" lon="14.136223003453582"><ele>167.0</ele><time>2026-04-18T16:48:58.001Z</time></trkpt><trkpt lat="42.45734056714652" lon="14.136221741156916"><ele>167.0</ele><time>2026-04-18T16:48:59.001Z</time></trkpt><trkpt lat="42.45741099628351" lon="14.136211575433352"><ele>167.0</ele><time>2026-04-18T16:49:00.001Z</time></trkpt><trkpt lat="42.45747975349114" lon="14.136198139790599"><ele>165.5</ele><time>2026-04-18T16:49:01.001Z</time></trkpt><trkpt lat="42.45760053180608" lon="14.136162795048893"><ele>164.0</ele><time>2026-04-18T16:49:03.001Z</time></trkpt><trkpt lat="42.45770959530781" lon="14.136140411121001"><ele>162.5</ele><time>2026-04-18T16:49:05.001Z</time></trkpt><trkpt lat="42.45778059817165" lon="14.136155468160979"><ele>161.0</ele><time>2026-04-18T16:49:08.001Z</time></trkpt><trkpt lat="42.45771044143411" lon="14.136173929414133"><ele>159.5</ele><time>2026-04-18T16:49:16.001Z</time></trkpt><trkpt lat="42.45778034286718" lon="14.136165627124901"><ele>158.0</ele><time>2026-04-18T16:50:13Z</time></trkpt><trkpt lat="42.45775356497123" lon="14.136292113849471"><ele>158.00000000000003</ele><time>2026-04-18T16:50:30Z</time></trkpt><trkpt lat="42.45769444154818" lon="14.136246737861514"><ele>158.0</ele><time>2026-04-18T16:51:35Z</time></trkpt><trkpt lat="42.45769508244578" lon="14.136335233241601"><ele>158.0</ele><time>2026-04-18T16:51:39Z</time></trkpt><trkpt lat="42.457623573763634" lon="14.136293454176355"><ele>158.0</ele><time>2026-04-18T16:52:37.016Z</time></trkpt><trkpt lat="42.4575716322552" lon="14.136224793308296"><ele>158.0</ele><time>2026-04-18T16:52:39.017Z</time></trkpt><trkpt lat="42.4576323464171" lon="14.136165465453745"><ele>158.00000000000003</ele><time>2026-04-18T16:52:42.016Z</time></trkpt><trkpt lat="42.45768899444507" lon="14.136236009188996"><ele>158.0</ele><time>2026-04-18T16:52:44.016Z</time></trkpt><trkpt lat="42.4577504048219" lon="14.136296635697594"><ele>158.0</ele><time>2026-04-18T16:52:46.016Z</time></trkpt><trkpt lat="42.45767589013126" lon="14.136261436844768"><ele>158.0</ele><time>2026-04-18T16:52:48.999Z</time></trkpt><trkpt lat="42.45772659729424" lon="14.136322075949646"><ele>158.0</ele><time>2026-04-18T16:52:51.999Z</time></trkpt><trkpt lat="42.457781221451896" lon="14.136373963455235"><ele>158.0</ele><time>2026-04-18T16:52:56.046Z</time></trkpt><trkpt lat="42.4578291973548" lon="14.13644146319071"><ele>158.0</ele><time>2026-04-18T16:53:00.046Z</time></trkpt><trkpt lat="42.45780660528257" lon="14.136297593925217"><ele>158.0</ele><time>2026-04-18T16:53:22.26Z</time></trkpt><trkpt lat="42.457704363510125" lon="14.136277487337905"><ele>158.0</ele><time>2026-04-18T16:53:28.016Z</time></trkpt><trkpt lat="42.45777066326751" lon="14.136255775570993"><ele>158.0</ele><time>2026-04-18T16:53:31.999Z</time></trkpt><trkpt lat="42.457814055769845" lon="14.13631957363882"><ele>158.0</ele><time>2026-04-18T16:53:47Z</time></trkpt><trkpt lat="42.457812696742664" lon="14.13642578356002"><ele>158.0</ele><time>2026-04-18T16:53:50Z</time></trkpt><trkpt lat="42.45781264723749" lon="14.136516113238867"><ele>158.0</ele><time>2026-04-18T16:53:51Z</time></trkpt><trkpt lat="42.45780996058293" lon="14.136717463368017"><ele>158.0</ele><time>2026-04-18T16:53:52Z</time></trkpt><trkpt lat="42.45781129057926" lon="14.136271987708769"><ele>158.0</ele><time>2026-04-18T16:54:13.281Z</time></trkpt><trkpt lat="42.4578569738131" lon="14.136172611955466"><ele>158.0</ele><time>2026-04-18T16:54:14.158Z</time></trkpt><trkpt lat="42.457750605656685" lon="14.136179502067703"><ele>158.0</ele><time>2026-04-18T16:54:35.999Z</time></trkpt><trkpt lat="42.457614542033824" lon="14.136142226000812"><ele>158.0</ele><time>2026-04-18T16:59:46.998Z</time></trkpt><trkpt lat="42.457512871621105" lon="14.13616658746083"><ele>158.0</ele><time>2026-04-18T16:59:47.998Z</time></trkpt><trkpt lat="42.4574129396358" lon="14.136191179669344"><ele>158.0</ele><time>2026-04-18T16:59:48.998Z</time></trkpt><trkpt lat="42.45728935783374" lon="14.136205334887213"><ele>158.0</ele><time>2026-04-18T16:59:49.998Z</time></trkpt><trkpt lat="42.45715019777558" lon="14.136179299589328"><ele>158.0</ele><time>2026-04-18T16:59:50.998Z</time></trkpt><trkpt lat="42.45703707526546" lon="14.136181229186262"><ele>158.0</ele><time>2026-04-18T16:59:51.998Z</time></trkpt><trkpt lat="42.45694778710873" lon="14.136203054885167"><ele>159.5</ele><time>2026-04-18T16:59:52.998Z</time></trkpt><trkpt lat="42.45686164231969" lon="14.136220453357065"><ele>161.0</ele><time>2026-04-18T16:59:53.998Z</time></trkpt><trkpt lat="42.456786873622306" lon="14.136220328093266"><ele>162.5</ele><time>2026-04-18T16:59:55Z</time></trkpt><trkpt lat="42.45671629553106" lon="14.13623368070842"><ele>164.0</ele><time>2026-04-18T16:59:56Z</time></trkpt><trkpt lat="42.45664601034283" lon="14.136241621707828"><ele>165.5</ele><time>2026-04-18T16:59:57Z</time></trkpt><trkpt lat="42.45655777472655" lon="14.136235912836483"><ele>167.0</ele><time>2026-04-18T16:59:58Z</time></trkpt><trkpt lat="42.45644698399186" lon="14.136214107503264"><ele>167.0</ele><time>2026-04-18T16:59:59Z</time></trkpt><trkpt lat="42.456327319664" lon="14.136177322512436"><ele>167.0</ele><time>2026-04-18T17:00:00Z</time></trkpt><trkpt lat="42.4562106630734" lon="14.136137065533395"><ele>167.0</ele><time>2026-04-18T17:00:01Z</time></trkpt><trkpt lat="42.4561110271525" lon="14.136089391768119"><ele>167.0</ele><time>2026-04-18T17:00:02Z</time></trkpt><trkpt lat="42.45603796939571" lon="14.13604903869096"><ele>167.0</ele><time>2026-04-18T17:00:03Z</time></trkpt><trkpt lat="42.45596813083685" lon="14.135992535097449"><ele>170.25</ele><time>2026-04-18T17:00:05Z</time></trkpt><trkpt lat="42.45604891745534" lon="14.13578810322523"><ele>173.5</ele><time>2026-04-18T17:00:08Z</time></trkpt><trkpt lat="42.456106032312746" lon="14.135665629159067"><ele>176.75</ele><time>2026-04-18T17:00:09Z</time></trkpt><trkpt lat="42.45616808377582" lon="14.135524420437216"><ele>180.0</ele><time>2026-04-18T17:00:10Z</time></trkpt><trkpt lat="42.45623369143439" lon="14.135338623749098"><ele>176.0</ele><time>2026-04-18T17:00:11Z</time></trkpt><trkpt lat="42.45629089247385" lon="14.135139042322367"><ele>172.0</ele><time>2026-04-18T17:00:12Z</time></trkpt><trkpt lat="42.45635405152135" lon="14.134924413973476"><ele>168.0</ele><time>2026-04-18T17:00:13Z</time></trkpt><trkpt lat="42.456427260473774" lon="14.134701421074576"><ele>168.0</ele><time>2026-04-18T17:00:14Z</time></trkpt><trkpt lat="42.45650095788115" lon="14.134478583974554"><ele>168.0</ele><time>2026-04-18T17:00:15Z</time></trkpt><trkpt lat="42.45657611355823" lon="14.134242731054744"><ele>168.0</ele><time>2026-04-18T17:00:16Z</time></trkpt><trkpt lat="42.45665266925451" lon="14.133987021137127"><ele>168.0</ele><time>2026-04-18T17:00:17Z</time></trkpt><trkpt lat="42.456716466585775" lon="14.133742479155691"><ele>168.0</ele><time>2026-04-18T17:00:18Z</time></trkpt><trkpt lat="42.45676283718039" lon="14.133498835762545"><ele>168.0</ele><time>2026-04-18T17:00:19Z</time></trkpt><trkpt lat="42.45679482488458" lon="14.133241811342064"><ele>167.33333333333334</ele><time>2026-04-18T17:00:20Z</time></trkpt><trkpt lat="42.4568215748665" lon="14.132980486085412"><ele>166.66666666666669</ele><time>2026-04-18T17:00:21Z</time></trkpt><trkpt lat="42.4568548790444" lon="14.132739771410206"><ele>166.0</ele><time>2026-04-18T17:00:22Z</time></trkpt><trkpt lat="42.45690791002421" lon="14.13251274676533"><ele>166.0</ele><time>2026-04-18T17:00:23Z</time></trkpt><trkpt lat="42.456985205002304" lon="14.132276619353899"><ele>166.0</ele><time>2026-04-18T17:00:24Z</time></trkpt><trkpt lat="42.45707676318873" lon="14.132034335737515"><ele>166.0</ele><time>2026-04-18T17:00:25Z</time></trkpt><trkpt lat="42.45718566453355" lon="14.1317786205"><ele>164.0</ele><time>2026-04-18T17:00:26Z</time></trkpt><trkpt lat="42.45729944156465" lon="14.131529121802112"><ele>162.0</ele><time>2026-04-18T17:00:27Z</time></trkpt><trkpt lat="42.45739770400729" lon="14.131298080701152"><ele>160.0</ele><time>2026-04-18T17:00:28Z</time></trkpt><trkpt lat="42.457487331623994" lon="14.13108681817025"><ele>160.0</ele><time>2026-04-18T17:00:29Z</time></trkpt><trkpt lat="42.45757449389803" lon="14.130887965194042"><ele>160.0</ele><time>2026-04-18T17:00:30Z</time></trkpt><trkpt lat="42.457671834122564" lon="14.130705467203025"><ele>160.0</ele><time>2026-04-18T17:00:31Z</time></trkpt><trkpt lat="42.457779939631955" lon="14.130545994829557"><ele>160.33333333333334</ele><time>2026-04-18T17:00:32Z</time></trkpt><trkpt lat="42.4579253973924" lon="14.130426076174244"><ele>160.66666666666666</ele><time>2026-04-18T17:00:33Z</time></trkpt><trkpt lat="42.45806690894288" lon="14.130257277008521"><ele>161.0</ele><time>2026-04-18T17:00:34Z</time></trkpt><trkpt lat="42.458220672053244" lon="14.130108279762233"><ele>160.66666666666666</ele><time>2026-04-18T17:00:35Z</time></trkpt><trkpt lat="42.4583545386839" lon="14.129946759136503"><ele>160.33333333333334</ele><time>2026-04-18T17:00:36Z</time></trkpt><trkpt lat="42.458464070467755" lon="14.129770236169636"><ele>160.0</ele><time>2026-04-18T17:00:37Z</time></trkpt><trkpt lat="42.458550906784915" lon="14.129574129845134"><ele>160.0</ele><time>2026-04-18T17:00:38Z</time></trkpt><trkpt lat="42.458632659312194" lon="14.129352272920315"><ele>160.0</ele><time>2026-04-18T17:00:39Z</time></trkpt><trkpt lat="42.45868806872321" lon="14.129139725274802"><ele>160.0</ele><time>2026-04-18T17:00:40Z</time></trkpt><trkpt lat="42.45872496654205" lon="14.12893977275112"><ele>158.33333333333334</ele><time>2026-04-18T17:00:41Z</time></trkpt><trkpt lat="42.458734332254885" lon="14.128736801541598"><ele>156.66666666666666</ele><time>2026-04-18T17:00:42Z</time></trkpt><trkpt lat="42.45871492160134" lon="14.128503760960813"><ele>155.0</ele><time>2026-04-18T17:00:43Z</time></trkpt><trkpt lat="42.45866605687325" lon="14.128270231243954"><ele>157.66666666666666</ele><time>2026-04-18T17:00:44Z</time></trkpt><trkpt lat="42.45858464064724" lon="14.128033799144694"><ele>160.33333333333334</ele><time>2026-04-18T17:00:45Z</time></trkpt><trkpt lat="42.45848694871816" lon="14.127812066686186"><ele>163.0</ele><time>2026-04-18T17:00:45.999Z</time></trkpt><trkpt lat="42.45839688508056" lon="14.127606499548426"><ele>163.0</ele><time>2026-04-18T17:00:46.999Z</time></trkpt><trkpt lat="42.45832658129143" lon="14.127429938302894"><ele>163.0</ele><time>2026-04-18T17:00:47.999Z</time></trkpt><trkpt lat="42.45824059239378" lon="14.12727195635547"><ele>163.0</ele><time>2026-04-18T17:00:48.999Z</time></trkpt><trkpt lat="42.458117368915275" lon="14.127126651308625"><ele>160.66666666666669</ele><time>2026-04-18T17:00:49.999Z</time></trkpt><trkpt lat="42.45797311553494" lon="14.12700406741748"><ele>158.33333333333334</ele><time>2026-04-18T17:00:50.999Z</time></trkpt><trkpt lat="42.45787295041951" lon="14.12684517575622"><ele>156.0</ele><time>2026-04-18T17:00:51.999Z</time></trkpt><trkpt lat="42.45777505507022" lon="14.126657055429408"><ele>159.66666666666666</ele><time>2026-04-18T17:00:52.999Z</time></trkpt><trkpt lat="42.45766964236657" lon="14.126450208049887"><ele>163.33333333333331</ele><time>2026-04-18T17:00:53.999Z</time></trkpt><trkpt lat="42.45755809357043" lon="14.12626469220909"><ele>167.0</ele><time>2026-04-18T17:00:54.999Z</time></trkpt><trkpt lat="42.45747361410988" lon="14.126084882655022"><ele>167.0</ele><time>2026-04-18T17:00:55.999Z</time></trkpt><trkpt lat="42.457393184631506" lon="14.12590015720702"><ele>167.0</ele><time>2026-04-18T17:00:56.999Z</time></trkpt><trkpt lat="42.45732992326078" lon="14.125718505570504"><ele>167.0</ele><time>2026-04-18T17:00:57.999Z</time></trkpt><trkpt lat="42.45728292371888" lon="14.125530566906209"><ele>168.0</ele><time>2026-04-18T17:00:58.999Z</time></trkpt><trkpt lat="42.457248066195206" lon="14.125337611254468"><ele>169.0</ele><time>2026-04-18T17:00:59.999Z</time></trkpt><trkpt lat="42.45722674278112" lon="14.125151767472376"><ele>170.0</ele><time>2026-04-18T17:01:00.999Z</time></trkpt><trkpt lat="42.4572175279888" lon="14.124953378358088"><ele>171.0</ele><time>2026-04-18T17:01:01.999Z</time></trkpt><trkpt lat="42.45723212592923" lon="14.124738466772536"><ele>171.0</ele><time>2026-04-18T17:01:02.999Z</time></trkpt><trkpt lat="42.457261744828855" lon="14.124513603400128"><ele>171.0</ele><time>2026-04-18T17:01:03.999Z</time></trkpt><trkpt lat="42.45729842181964" lon="14.12428251658856"><ele>171.0</ele><time>2026-04-18T17:01:04.999Z</time></trkpt><trkpt lat="42.45735095978002" lon="14.124064334041842"><ele>168.66666666666666</ele><time>2026-04-18T17:01:05.999Z</time></trkpt><trkpt lat="42.45741369806526" lon="14.123833504352369"><ele>166.33333333333331</ele><time>2026-04-18T17:01:06.999Z</time></trkpt><trkpt lat="42.45748203739737" lon="14.123590314532825"><ele>164.0</ele><time>2026-04-18T17:01:07.999Z</time></trkpt><trkpt lat="42.45755920858673" lon="14.123328549743865"><ele>163.33333333333331</ele><time>2026-04-18T17:01:08.999Z</time></trkpt><trkpt lat="42.45764275039183" lon="14.123060086117395"><ele>162.66666666666666</ele><time>2026-04-18T17:01:09.999Z</time></trkpt><trkpt lat="42.45771638724212" lon="14.122815933035477"><ele>162.0</ele><time>2026-04-18T17:01:10.999Z</time></trkpt><trkpt lat="42.4577872136699" lon="14.122591204046973"><ele>161.33333333333334</ele><time>2026-04-18T17:01:11.999Z</time></trkpt><trkpt lat="42.45785669027467" lon="14.122383794217823"><ele>160.66666666666669</ele><time>2026-04-18T17:01:12.999Z</time></trkpt><trkpt lat="42.45794614003115" lon="14.12218812295234"><ele>160.0</ele><time>2026-04-18T17:01:13.999Z</time></trkpt><trkpt lat="42.458060654962736" lon="14.121989083681585"><ele>160.0</ele><time>2026-04-18T17:01:14.999Z</time></trkpt><trkpt lat="42.45819706727403" lon="14.121800474807342"><ele>160.0</ele><time>2026-04-18T17:01:15.999Z</time></trkpt><trkpt lat="42.45836067507751" lon="14.121620855974314"><ele>160.0</ele><time>2026-04-18T17:01:16.999Z</time></trkpt><trkpt lat="42.45852483014212" lon="14.121449209504586"><ele>160.0</ele><time>2026-04-18T17:01:17.999Z</time></trkpt><trkpt lat="42.458703588895574" lon="14.121272259709713"><ele>160.0</ele><time>2026-04-18T17:01:18.999Z</time></trkpt><trkpt lat="42.458868268634376" lon="14.121105315291803"><ele>160.0</ele><time>2026-04-18T17:01:19.999Z</time></trkpt><trkpt lat="42.45901544351253" lon="14.120945523117424"><ele>160.0</ele><time>2026-04-18T17:01:20.999Z</time></trkpt><trkpt lat="42.4591580230672" lon="14.120790373040913"><ele>160.0</ele><time>2026-04-18T17:01:21.999Z</time></trkpt><trkpt lat="42.45929517260947" lon="14.120645210596182"><ele>160.0</ele><time>2026-04-18T17:01:22.999Z</time></trkpt><trkpt lat="42.45942856004443" lon="14.1205029983856"><ele>160.0</ele><time>2026-04-18T17:01:23.999Z</time></trkpt><trkpt lat="42.45955559084253" lon="14.120371146480444"><ele>160.0</ele><time>2026-04-18T17:01:24.999Z</time></trkpt><trkpt lat="42.45966609328073" lon="14.120262612707256"><ele>160.0</ele><time>2026-04-18T17:01:25.999Z</time></trkpt><trkpt lat="42.45976319302694" lon="14.120169392043131"><ele>160.0</ele><time>2026-04-18T17:01:26.999Z</time></trkpt><trkpt lat="42.45985519317423" lon="14.120093555056714"><ele>160.0</ele><time>2026-04-18T17:01:27.999Z</time></trkpt><trkpt lat="42.45995238287866" lon="14.120051798300674"><ele>160.0</ele><time>2026-04-18T17:01:28.999Z</time></trkpt><trkpt lat="42.46004454484079" lon="14.120039178566802"><ele>160.0</ele><time>2026-04-18T17:01:29.999Z</time></trkpt><trkpt lat="42.46011974179386" lon="14.119999450511896"><ele>160.0</ele><time>2026-04-18T17:01:30.999Z</time></trkpt><trkpt lat="42.46016216563932" lon="14.11991901802929"><ele>160.0</ele><time>2026-04-18T17:01:31.999Z</time></trkpt><trkpt lat="42.46017808642542" lon="14.119819196595762"><ele>160.0</ele><time>2026-04-18T17:01:32.999Z</time></trkpt><trkpt lat="42.46018098993134" lon="14.119689354800526"><ele>160.0</ele><time>2026-04-18T17:01:33.999Z</time></trkpt><trkpt lat="42.46019847369495" lon="14.119533998302211"><ele>160.0</ele><time>2026-04-18T17:01:34.999Z</time></trkpt><trkpt lat="42.4602462829181" lon="14.1193752558329"><ele>160.0</ele><time>2026-04-18T17:01:35.999Z</time></trkpt><trkpt lat="42.4603290735941" lon="14.119200325325748"><ele>160.0</ele><time>2026-04-18T17:01:36.999Z</time></trkpt><trkpt lat="42.460402277134484" lon="14.119011231490417"><ele>160.25</ele><time>2026-04-18T17:01:37.999Z</time></trkpt><trkpt lat="42.46046079601283" lon="14.118819466513026"><ele>160.5</ele><time>2026-04-18T17:01:38.999Z</time></trkpt><trkpt lat="42.460493921946174" lon="14.118634428850534"><ele>160.75</ele><time>2026-04-18T17:01:39.999Z</time></trkpt><trkpt lat="42.46051694592874" lon="14.118452031277657"><ele>161.0</ele><time>2026-04-18T17:01:40.999Z</time></trkpt><trkpt lat="42.460521115473696" lon="14.118273188193927"><ele>160.75</ele><time>2026-04-18T17:01:41.999Z</time></trkpt><trkpt lat="42.46049701474572" lon="14.118099049977223"><ele>160.5</ele><time>2026-04-18T17:01:42.999Z</time></trkpt><trkpt lat="42.46043612160602" lon="14.117940788148758"><ele>160.25</ele><time>2026-04-18T17:01:43.999Z</time></trkpt><trkpt lat="42.46034477685194" lon="14.117806311504548"><ele>160.0</ele><time>2026-04-18T17:01:44.999Z</time></trkpt><trkpt lat="42.460227366447945" lon="14.117707669527492"><ele>160.0</ele><time>2026-04-18T17:01:45.998Z</time></trkpt><trkpt lat="42.4600962695334" lon="14.11761750042083"><ele>160.0</ele><time>2026-04-18T17:01:46.998Z</time></trkpt><trkpt lat="42.459956948074705" lon="14.117513718380135"><ele>160.0</ele><time>2026-04-18T17:01:47.998Z</time></trkpt><trkpt lat="42.459820655691445" lon="14.11740392945515"><ele>160.33333333333334</ele><time>2026-04-18T17:01:48.998Z</time></trkpt><trkpt lat="42.45967420547814" lon="14.117284661034223"><ele>160.66666666666666</ele><time>2026-04-18T17:01:49.998Z</time></trkpt><trkpt lat="42.459527139469245" lon="14.117164847467166"><ele>161.0</ele><time>2026-04-18T17:01:50.998Z</time></trkpt><trkpt lat="42.45937855727604" lon="14.11704194704875"><ele>161.5</ele><time>2026-04-18T17:01:51.998Z</time></trkpt><trkpt lat="42.45926215044137" lon="14.116946385022562"><ele>162.0</ele><time>2026-04-18T17:01:52.998Z</time></trkpt><trkpt lat="42.45914811026524" lon="14.116847611828423"><ele>162.5</ele><time>2026-04-18T17:01:53.998Z</time></trkpt><trkpt lat="42.45904567489379" lon="14.116759155139635"><ele>163.0</ele><time>2026-04-18T17:01:54.998Z</time></trkpt><trkpt lat="42.45894592661056" lon="14.116670656676378"><ele>164.0</ele><time>2026-04-18T17:01:55.998Z</time></trkpt><trkpt lat="42.45884340726399" lon="14.11656414130779"><ele>165.0</ele><time>2026-04-18T17:01:56.998Z</time></trkpt><trkpt lat="42.458741502498576" lon="14.116464202200621"><ele>166.0</ele><time>2026-04-18T17:01:57.998Z</time></trkpt><trkpt lat="42.45864495850687" lon="14.116356396438608"><ele>167.0</ele><time>2026-04-18T17:01:58.998Z</time></trkpt><trkpt lat="42.45855530243152" lon="14.116248403610395"><ele>167.0</ele><time>2026-04-18T17:02:00Z</time></trkpt><trkpt lat="42.45846492753512" lon="14.116142193031449"><ele>167.0</ele><time>2026-04-18T17:02:01Z</time></trkpt><trkpt lat="42.458370182087776" lon="14.116029809515924"><ele>167.0</ele><time>2026-04-18T17:02:02Z</time></trkpt><trkpt lat="42.45827407945043" lon="14.11591054957758"><ele>167.0</ele><time>2026-04-18T17:02:03Z</time></trkpt><trkpt lat="42.458177511162" lon="14.115797007699047"><ele>167.0</ele><time>2026-04-18T17:02:04Z</time></trkpt><trkpt lat="42.45807623896582" lon="14.115689821181782"><ele>167.0</ele><time>2026-04-18T17:02:05Z</time></trkpt><trkpt lat="42.457982216721376" lon="14.11560477475288"><ele>167.0</ele><time>2026-04-18T17:02:06Z</time></trkpt><trkpt lat="42.45790295571698" lon="14.11551988344661"><ele>167.0</ele><time>2026-04-18T17:02:07Z</time></trkpt><trkpt lat="42.45784334452779" lon="14.115417010124288"><ele>167.0</ele><time>2026-04-18T17:02:08Z</time></trkpt><trkpt lat="42.457808068726195" lon="14.115302165986558"><ele>167.0</ele><time>2026-04-18T17:02:09Z</time></trkpt><trkpt lat="42.457795020019525" lon="14.115170401837226"><ele>167.0</ele><time>2026-04-18T17:02:10Z</time></trkpt><trkpt lat="42.45781479721705" lon="14.115035825414385"><ele>167.0</ele><time>2026-04-18T17:02:11Z</time></trkpt><trkpt lat="42.45784763154117" lon="14.114887161596434"><ele>167.0</ele><time>2026-04-18T17:02:12Z</time></trkpt><trkpt lat="42.45788859528122" lon="14.114748737836768"><ele>167.0</ele><time>2026-04-18T17:02:13Z</time></trkpt><trkpt lat="42.457921926824895" lon="14.114611776363946"><ele>167.2</ele><time>2026-04-18T17:02:14Z</time></trkpt><trkpt lat="42.45794183288841" lon="14.114463303953"><ele>167.39999999999998</ele><time>2026-04-18T17:02:15Z</time></trkpt><trkpt lat="42.45794667100856" lon="14.114309639034632"><ele>167.60000000000002</ele><time>2026-04-18T17:02:16Z</time></trkpt><trkpt lat="42.457934235228706" lon="14.114153813683664"><ele>167.8</ele><time>2026-04-18T17:02:17Z</time></trkpt><trkpt lat="42.457923495305764" lon="14.114012962954943"><ele>168.0</ele><time>2026-04-18T17:02:18Z</time></trkpt><trkpt lat="42.457917960434834" lon="14.113881839854235"><ele>170.4</ele><time>2026-04-18T17:02:19Z</time></trkpt><trkpt lat="42.45791872424605" lon="14.113792538198211"><ele>172.8</ele><time>2026-04-18T17:02:20Z</time></trkpt><trkpt lat="42.45794307324648" lon="14.113657280291408"><ele>175.2</ele><time>2026-04-18T17:02:22Z</time></trkpt><trkpt lat="42.45781688183835" lon="14.11358570666412"><ele>177.6</ele><time>2026-04-18T17:02:23Z</time></trkpt><trkpt lat="42.45772622173295" lon="14.113507115652212"><ele>180.0</ele><time>2026-04-18T17:02:24Z</time></trkpt><trkpt lat="42.45762030781047" lon="14.113416970567958"><ele>180.0</ele><time>2026-04-18T17:02:25Z</time></trkpt><trkpt lat="42.45751543200428" lon="14.113323413788297"><ele>180.0</ele><time>2026-04-18T17:02:26Z</time></trkpt><trkpt lat="42.457400543918354" lon="14.11322740840465"><ele>180.0</ele><time>2026-04-18T17:02:27Z</time></trkpt><trkpt lat="42.457273481090446" lon="14.113125219764004"><ele>180.0</ele><time>2026-04-18T17:02:28Z</time></trkpt><trkpt lat="42.45713930451758" lon="14.113022732074107"><ele>178.75</ele><time>2026-04-18T17:02:29Z</time></trkpt><trkpt lat="42.457009358420734" lon="14.112932612858119"><ele>177.5</ele><time>2026-04-18T17:02:30Z</time></trkpt><trkpt lat="42.45687842808557" lon="14.112854530153784"><ele>176.25</ele><time>2026-04-18T17:02:31Z</time></trkpt><trkpt lat="42.45675586047876" lon="14.112777143211858"><ele>175.0</ele><time>2026-04-18T17:02:32Z</time></trkpt><trkpt lat="42.456638765984486" lon="14.112715382244645"><ele>175.0</ele><time>2026-04-18T17:02:33Z</time></trkpt><trkpt lat="42.45652673680337" lon="14.112673055822166"><ele>175.0</ele><time>2026-04-18T17:02:34Z</time></trkpt><trkpt lat="42.456405924937684" lon="14.112642765133108"><ele>175.0</ele><time>2026-04-18T17:02:35Z</time></trkpt><trkpt lat="42.45627676181507" lon="14.112628245546576"><ele>175.0</ele><time>2026-04-18T17:02:36Z</time></trkpt><trkpt lat="42.45613897769701" lon="14.112605780490195"><ele>174.33333333333334</ele><time>2026-04-18T17:02:37Z</time></trkpt><trkpt lat="42.45597665251051" lon="14.112588543459271"><ele>173.66666666666666</ele><time>2026-04-18T17:02:38Z</time></trkpt><trkpt lat="42.455793438751286" lon="14.112561915416354"><ele>173.0</ele><time>2026-04-18T17:02:39Z</time></trkpt><trkpt lat="42.45562100720054" lon="14.112532779863264"><ele>173.0</ele><time>2026-04-18T17:02:40Z</time></trkpt><trkpt lat="42.455466788372966" lon="14.11252054703849"><ele>173.0</ele><time>2026-04-18T17:02:41Z</time></trkpt><trkpt lat="42.455291124230044" lon="14.112551001703372"><ele>173.0</ele><time>2026-04-18T17:02:42Z</time></trkpt><trkpt lat="42.455097797495" lon="14.112606152704702"><ele>172.66666666666666</ele><time>2026-04-18T17:02:43Z</time></trkpt><trkpt lat="42.45490680682767" lon="14.11268300683515"><ele>172.33333333333334</ele><time>2026-04-18T17:02:44Z</time></trkpt><trkpt lat="42.454737106772015" lon="14.112738138980644"><ele>172.0</ele><time>2026-04-18T17:02:45Z</time></trkpt><trkpt lat="42.454540547441" lon="14.11274196479149"><ele>170.33333333333334</ele><time>2026-04-18T17:02:46Z</time></trkpt><trkpt lat="42.454346298964985" lon="14.112757605256213"><ele>168.66666666666666</ele><time>2026-04-18T17:02:47Z</time></trkpt><trkpt lat="42.45417176093667" lon="14.112792750753535"><ele>167.0</ele><time>2026-04-18T17:02:48Z</time></trkpt><trkpt lat="42.454007130442584" lon="14.112786652902534"><ele>167.0</ele><time>2026-04-18T17:02:49Z</time></trkpt><trkpt lat="42.45385557080192" lon="14.112743361302696"><ele>167.0</ele><time>2026-04-18T17:02:49.999Z</time></trkpt><trkpt lat="42.45371831822833" lon="14.112660734471758"><ele>167.0</ele><time>2026-04-18T17:02:50.999Z</time></trkpt><trkpt lat="42.45360116932579" lon="14.11249706407174"><ele>163.66666666666666</ele><time>2026-04-18T17:02:51.999Z</time></trkpt><trkpt lat="42.45345117363184" lon="14.112344665327798"><ele>160.33333333333334</ele><time>2026-04-18T17:02:52.999Z</time></trkpt><trkpt lat="42.45329680873386" lon="14.112210058863774"><ele>157.0</ele><time>2026-04-18T17:02:53.999Z</time></trkpt><trkpt lat="42.45316420157244" lon="14.112080976635294"><ele>157.0</ele><time>2026-04-18T17:02:54.999Z</time></trkpt><trkpt lat="42.45304109677756" lon="14.11197599632099"><ele>157.0</ele><time>2026-04-18T17:02:55.999Z</time></trkpt><trkpt lat="42.45290871319863" lon="14.11188280769924"><ele>157.0</ele><time>2026-04-18T17:02:56.999Z</time></trkpt><trkpt lat="42.45276323877366" lon="14.11180242332151"><ele>159.66666666666669</ele><time>2026-04-18T17:02:57.999Z</time></trkpt><trkpt lat="42.45261367668846" lon="14.111728488518565"><ele>162.33333333333334</ele><time>2026-04-18T17:02:58.999Z</time></trkpt><trkpt lat="42.452467393052935" lon="14.11167094882551"><ele>165.0</ele><time>2026-04-18T17:02:59.999Z</time></trkpt><trkpt lat="42.452317451912066" lon="14.11163205398331"><ele>165.0</ele><time>2026-04-18T17:03:00.999Z</time></trkpt><trkpt lat="42.452159903339954" lon="14.11162209483571"><ele>165.0</ele><time>2026-04-18T17:03:01.999Z</time></trkpt><trkpt lat="42.45198728579072" lon="14.111627770850186"><ele>165.0</ele><time>2026-04-18T17:03:02.999Z</time></trkpt><trkpt lat="42.451807027294876" lon="14.111642506829822"><ele>163.66666666666666</ele><time>2026-04-18T17:03:03.999Z</time></trkpt><trkpt lat="42.45163660408732" lon="14.111654994930726"><ele>162.33333333333331</ele><time>2026-04-18T17:03:04.999Z</time></trkpt><trkpt lat="42.451459722098114" lon="14.111674638694687"><ele>161.0</ele><time>2026-04-18T17:03:05.999Z</time></trkpt><trkpt lat="42.45128870516514" lon="14.111708506370933"><ele>160.66666666666666</ele><time>2026-04-18T17:03:06.999Z</time></trkpt><trkpt lat="42.45112814672954" lon="14.11176250017378"><ele>160.33333333333334</ele><time>2026-04-18T17:03:07.999Z</time></trkpt><trkpt lat="42.4509821049651" lon="14.111810052728497"><ele>160.0</ele><time>2026-04-18T17:03:08.999Z</time></trkpt><trkpt lat="42.450839295424316" lon="14.111852414522675"><ele>160.0</ele><time>2026-04-18T17:03:09.999Z</time></trkpt><trkpt lat="42.45070052304336" lon="14.111892325032429"><ele>160.0</ele><time>2026-04-18T17:03:10.999Z</time></trkpt><trkpt lat="42.450564823829964" lon="14.111938261446129"><ele>160.0</ele><time>2026-04-18T17:03:11.999Z</time></trkpt><trkpt lat="42.45043475161242" lon="14.111983253521085"><ele>160.0</ele><time>2026-04-18T17:03:12.999Z</time></trkpt><trkpt lat="42.45030897414894" lon="14.11202499149259"><ele>158.75</ele><time>2026-04-18T17:03:13.999Z</time></trkpt><trkpt lat="42.45018467266049" lon="14.112059317844917"><ele>157.5</ele><time>2026-04-18T17:03:14.999Z</time></trkpt><trkpt lat="42.45006058987921" lon="14.112098272176357"><ele>156.25</ele><time>2026-04-18T17:03:15.999Z</time></trkpt><trkpt lat="42.449937590343325" lon="14.112143967473362"><ele>155.0</ele><time>2026-04-18T17:03:16.999Z</time></trkpt><trkpt lat="42.449813467847626" lon="14.112195393143404"><ele>155.0</ele><time>2026-04-18T17:03:17.999Z</time></trkpt><trkpt lat="42.44968761789248" lon="14.112245522669657"><ele>155.0</ele><time>2026-04-18T17:03:18.999Z</time></trkpt><trkpt lat="42.44955976258703" lon="14.112288787647831"><ele>155.0</ele><time>2026-04-18T17:03:19.999Z</time></trkpt><trkpt lat="42.44944083669024" lon="14.112329306452548"><ele>155.0</ele><time>2026-04-18T17:03:20.999Z</time></trkpt><trkpt lat="42.449326136435516" lon="14.112350584811255"><ele>154.5</ele><time>2026-04-18T17:03:21.999Z</time></trkpt><trkpt lat="42.44920915124679" lon="14.112342023551895"><ele>154.0</ele><time>2026-04-18T17:03:22.999Z</time></trkpt><trkpt lat="42.449098743708724" lon="14.112296759151532"><ele>153.5</ele><time>2026-04-18T17:03:23.999Z</time></trkpt><trkpt lat="42.44900631926354" lon="14.112207523916407"><ele>153.0</ele><time>2026-04-18T17:03:24.999Z</time></trkpt><trkpt lat="42.44890919643735" lon="14.11211234075502"><ele>153.0</ele><time>2026-04-18T17:03:25.999Z</time></trkpt><trkpt lat="42.44879478424712" lon="14.112016513994512"><ele>153.0</ele><time>2026-04-18T17:03:26.999Z</time></trkpt><trkpt lat="42.44870412108007" lon="14.111883217623518"><ele>153.0</ele><time>2026-04-18T17:03:27.999Z</time></trkpt><trkpt lat="42.44860483119462" lon="14.111790007393466"><ele>153.0</ele><time>2026-04-18T17:03:28.999Z</time></trkpt><trkpt lat="42.448532200459454" lon="14.111678482271387"><ele>153.0</ele><time>2026-04-18T17:03:29.999Z</time></trkpt><trkpt lat="42.44847596154666" lon="14.111577397491534"><ele>153.0</ele><time>2026-04-18T17:03:30.999Z</time></trkpt><trkpt lat="42.448408681647976" lon="14.11146221933063"><ele>153.0</ele><time>2026-04-18T17:03:32.999Z</time></trkpt><trkpt lat="42.44826752190748" lon="14.111490973656627"><ele>153.0</ele><time>2026-04-18T17:03:35.999Z</time></trkpt><trkpt lat="42.44825205592609" lon="14.111632429191925"><ele>153.0</ele><time>2026-04-18T17:03:37.999Z</time></trkpt><trkpt lat="42.44823844934857" lon="14.111719587098847"><ele>153.0</ele><time>2026-04-18T17:03:38.999Z</time></trkpt><trkpt lat="42.448235258491806" lon="14.111833892375182"><ele>153.0</ele><time>2026-04-18T17:03:39.999Z</time></trkpt><trkpt lat="42.44823113166818" lon="14.111981726656499"><ele>153.0</ele><time>2026-04-18T17:03:40.999Z</time></trkpt><trkpt lat="42.44821954353229" lon="14.11214414703743"><ele>153.0</ele><time>2026-04-18T17:03:41.999Z</time></trkpt><trkpt lat="42.44821037409712" lon="14.112335443542674"><ele>152.75</ele><time>2026-04-18T17:03:42.999Z</time></trkpt><trkpt lat="42.44818679965538" lon="14.112534777274943"><ele>152.5</ele><time>2026-04-18T17:03:43.999Z</time></trkpt><trkpt lat="42.44816317082228" lon="14.1127230130315"><ele>152.25</ele><time>2026-04-18T17:03:44.999Z</time></trkpt><trkpt lat="42.44815448051527" lon="14.112894853965642"><ele>152.0</ele><time>2026-04-18T17:03:45.999Z</time></trkpt><trkpt lat="42.448154617497295" lon="14.113037295397252"><ele>152.0</ele><time>2026-04-18T17:03:46.999Z</time></trkpt><trkpt lat="42.44815573948385" lon="14.11316334443396"><ele>152.0</ele><time>2026-04-18T17:03:47.998Z</time></trkpt><trkpt lat="42.44815014689345" lon="14.113285377779386"><ele>152.0</ele><time>2026-04-18T17:03:48.998Z</time></trkpt><trkpt lat="42.448128544863195" lon="14.113407152236213"><ele>152.0</ele><time>2026-04-18T17:03:49.998Z</time></trkpt><trkpt lat="42.448095877021395" lon="14.113518930520524"><ele>152.0</ele><time>2026-04-18T17:03:50.998Z</time></trkpt><trkpt lat="42.44803935758685" lon="14.11361408683841"><ele>147.5</ele><time>2026-04-18T17:03:51.998Z</time></trkpt><trkpt lat="42.44794482160724" lon="14.113709044427091"><ele>143.0</ele><time>2026-04-18T17:03:52.998Z</time></trkpt><trkpt lat="42.447828118808474" lon="14.113772047900463"><ele>138.5</ele><time>2026-04-18T17:03:53.998Z</time></trkpt><trkpt lat="42.447707543256044" lon="14.113826181005527"><ele>134.0</ele><time>2026-04-18T17:03:54.998Z</time></trkpt><trkpt lat="42.44757901906425" lon="14.113882710610541"><ele>134.0</ele><time>2026-04-18T17:03:55.998Z</time></trkpt><trkpt lat="42.447423848540694" lon="14.113899061426773"><ele>134.0</ele><time>2026-04-18T17:03:56.998Z</time></trkpt><trkpt lat="42.44727452202307" lon="14.113919672575188"><ele>134.0</ele><time>2026-04-18T17:03:57.998Z</time></trkpt><trkpt lat="42.44713148072571" lon="14.113929486853674"><ele>134.0</ele><time>2026-04-18T17:03:58.998Z</time></trkpt><trkpt lat="42.446997249680145" lon="14.113939703032724"><ele>133.5</ele><time>2026-04-18T17:03:59.998Z</time></trkpt><trkpt lat="42.44687817943633" lon="14.113948413694846"><ele>133.0</ele><time>2026-04-18T17:04:00.998Z</time></trkpt><trkpt lat="42.44676654141915" lon="14.113970197077107"><ele>132.5</ele><time>2026-04-18T17:04:01.998Z</time></trkpt><trkpt lat="42.44665825275111" lon="14.114020403112285"><ele>132.0</ele><time>2026-04-18T17:04:02.998Z</time></trkpt><trkpt lat="42.44655427392661" lon="14.114099550038585"><ele>132.0</ele><time>2026-04-18T17:04:03.998Z</time></trkpt><trkpt lat="42.446469333395704" lon="14.114211937767013"><ele>132.0</ele><time>2026-04-18T17:04:04.998Z</time></trkpt><trkpt lat="42.44640246726544" lon="14.114332952394095"><ele>132.0</ele><time>2026-04-18T17:04:06Z</time></trkpt><trkpt lat="42.446349131206894" lon="14.114462726026266"><ele>132.0</ele><time>2026-04-18T17:04:07Z</time></trkpt><trkpt lat="42.44628432548065" lon="14.114596035720322"><ele>131.5</ele><time>2026-04-18T17:04:08Z</time></trkpt><trkpt lat="42.44621713328248" lon="14.114749636890402"><ele>131.0</ele><time>2026-04-18T17:04:09Z</time></trkpt><trkpt lat="42.44614927871725" lon="14.114905140175996"><ele>130.5</ele><time>2026-04-18T17:04:10Z</time></trkpt><trkpt lat="42.44608504178563" lon="14.115050279587052"><ele>130.0</ele><time>2026-04-18T17:04:11Z</time></trkpt><trkpt lat="42.44603764192036" lon="14.11518526063809"><ele>129.2</ele><time>2026-04-18T17:04:12Z</time></trkpt><trkpt lat="42.44596861942369" lon="14.115281919780644"><ele>128.4</ele><time>2026-04-18T17:04:13Z</time></trkpt><trkpt lat="42.44590582344939" lon="14.115374671157177"><ele>127.6</ele><time>2026-04-18T17:04:14Z</time></trkpt><trkpt lat="42.44582304417821" lon="14.115465206874854"><ele>126.8</ele><time>2026-04-18T17:04:15Z</time></trkpt><trkpt lat="42.44571379600955" lon="14.115553339753696"><ele>126.0</ele><time>2026-04-18T17:04:16Z</time></trkpt><trkpt lat="42.44559422652159" lon="14.115637530795723"><ele>126.0</ele><time>2026-04-18T17:04:17Z</time></trkpt><trkpt lat="42.445477103786274" lon="14.115707715192993"><ele>126.0</ele><time>2026-04-18T17:04:18Z</time></trkpt><trkpt lat="42.44537371523556" lon="14.115752360040366"><ele>126.0</ele><time>2026-04-18T17:04:19Z</time></trkpt><trkpt lat="42.445276384516575" lon="14.115775229297027"><ele>126.0</ele><time>2026-04-18T17:04:20Z</time></trkpt><trkpt lat="42.445169322650145" lon="14.11579542723621"><ele>126.0</ele><time>2026-04-18T17:04:21Z</time></trkpt><trkpt lat="42.44504781865408" lon="14.115807686321011"><ele>123.6</ele><time>2026-04-18T17:04:22Z</time></trkpt><trkpt lat="42.44492870087376" lon="14.115821012677307"><ele>121.19999999999999</ele><time>2026-04-18T17:04:23Z</time></trkpt><trkpt lat="42.44482108315663" lon="14.115835785434824"><ele>118.80000000000001</ele><time>2026-04-18T17:04:24Z</time></trkpt><trkpt lat="42.44472613266254" lon="14.115856688627105"><ele>116.4</ele><time>2026-04-18T17:04:25Z</time></trkpt><trkpt lat="42.44464188399485" lon="14.115883195464443"><ele>114.0</ele><time>2026-04-18T17:04:26Z</time></trkpt><trkpt lat="42.44454625927125" lon="14.115920180173706"><ele>114.0</ele><time>2026-04-18T17:04:28Z</time></trkpt><trkpt lat="42.44446566954048" lon="14.115952436553828"><ele>114.0</ele><time>2026-04-18T17:04:43Z</time></trkpt><trkpt lat="42.444530293208544" lon="14.115926570657415"><ele>114.0</ele><time>2026-04-18T17:06:44Z</time></trkpt><trkpt lat="42.444524083595" lon="14.116020249639654"><ele>114.0</ele><time>2026-04-18T17:13:30.999Z</time></trkpt><trkpt lat="42.44456608400945" lon="14.115950486264797"><ele>114.0</ele><time>2026-04-18T17:15:13.999Z</time></trkpt><trkpt lat="42.44465538320593" lon="14.115907810988167"><ele>114.0</ele><time>2026-04-18T17:15:16.999Z</time></trkpt><trkpt lat="42.44473057042469" lon="14.115880450490259"><ele>113.83333333333333</ele><time>2026-04-18T17:15:18.999Z</time></trkpt><trkpt lat="42.44482412180252" lon="14.115874772343227"><ele>113.66666666666666</ele><time>2026-04-18T17:15:19.999Z</time></trkpt><trkpt lat="42.44489689105345" lon="14.115864879120101"><ele>113.5</ele><time>2026-04-18T17:15:20.999Z</time></trkpt><trkpt lat="42.44502808364027" lon="14.1158467174335"><ele>113.33333333333333</ele><time>2026-04-18T17:15:22.999Z</time></trkpt><trkpt lat="42.4450979786021" lon="14.11583814312358"><ele>113.16666666666666</ele><time>2026-04-18T17:15:23.999Z</time></trkpt><trkpt lat="42.44517436724908" lon="14.11582825748227"><ele>113.0</ele><time>2026-04-18T17:15:24.999Z</time></trkpt><trkpt lat="42.445255104344795" lon="14.115822580396664"><ele>112.99999999999999</ele><time>2026-04-18T17:15:25.999Z</time></trkpt><trkpt lat="42.44532329848843" lon="14.115810747754377"><ele>113.0</ele><time>2026-04-18T17:15:26.999Z</time></trkpt><trkpt lat="42.445390823517606" lon="14.115791328091591"><ele>113.0</ele><time>2026-04-18T17:15:27.999Z</time></trkpt><trkpt lat="42.44545894626371" lon="14.115756164836268"><ele>113.0</ele><time>2026-04-18T17:15:28.999Z</time></trkpt><trkpt lat="42.445536446965995" lon="14.115713324667578"><ele>112.99999999999999</ele><time>2026-04-18T17:15:29.999Z</time></trkpt><trkpt lat="42.44561001583955" lon="14.115662300166708"><ele>113.0</ele><time>2026-04-18T17:15:30.999Z</time></trkpt><trkpt lat="42.445682716082835" lon="14.115613946934277"><ele>114.85714285714286</ele><time>2026-04-18T17:15:31.999Z</time></trkpt><trkpt lat="42.44574752191359" lon="14.115563684058388"><ele>116.71428571428571</ele><time>2026-04-18T17:15:32.999Z</time></trkpt><trkpt lat="42.44581560523476" lon="14.115513326279277"><ele>118.57142857142857</ele><time>2026-04-18T17:15:33.999Z</time></trkpt><trkpt lat="42.445875279416" lon="14.115461618122351"><ele>120.42857142857143</ele><time>2026-04-18T17:15:34.999Z</time></trkpt><trkpt lat="42.445931192785686" lon="14.115403239022857"><ele>122.28571428571428</ele><time>2026-04-18T17:15:35.999Z</time></trkpt><trkpt lat="42.445977591590065" lon="14.115330296734625"><ele>124.14285714285714</ele><time>2026-04-18T17:15:36.999Z</time></trkpt><trkpt lat="42.4460149150539" lon="14.115252214599279"><ele>126.0</ele><time>2026-04-18T17:15:37.999Z</time></trkpt><trkpt lat="42.44605149722396" lon="14.115175243342145"><ele>126.0</ele><time>2026-04-18T17:15:38.999Z</time></trkpt><trkpt lat="42.44609045086895" lon="14.115100004906058"><ele>126.0</ele><time>2026-04-18T17:15:39.999Z</time></trkpt><trkpt lat="42.44612777794426" lon="14.115016542439186"><ele>126.0</ele><time>2026-04-18T17:15:40.999Z</time></trkpt><trkpt lat="42.446164447343904" lon="14.114939141746328"><ele>126.0</ele><time>2026-04-18T17:15:41.999Z</time></trkpt><trkpt lat="42.446201624164104" lon="14.114854991601554"><ele>126.0</ele><time>2026-04-18T17:15:42.999Z</time></trkpt><trkpt lat="42.44624139380692" lon="14.114760165688685"><ele>126.0</ele><time>2026-04-18T17:15:43.999Z</time></trkpt><trkpt lat="42.44628948265804" lon="14.114657435440769"><ele>127.0</ele><time>2026-04-18T17:15:44.999Z</time></trkpt><trkpt lat="42.44633808401605" lon="14.114545437957734"><ele>128.0</ele><time>2026-04-18T17:15:45.999Z</time></trkpt><trkpt lat="42.446389048110774" lon="14.114428401741208"><ele>129.0</ele><time>2026-04-18T17:15:46.999Z</time></trkpt><trkpt lat="42.446434038236134" lon="14.114339966087767"><ele>130.0</ele><time>2026-04-18T17:15:47.999Z</time></trkpt><trkpt lat="42.44648863700387" lon="14.114246345395207"><ele>131.0</ele><time>2026-04-18T17:15:48.999Z</time></trkpt><trkpt lat="42.44653902819138" lon="14.114164313625608"><ele>132.0</ele><time>2026-04-18T17:15:49.999Z</time></trkpt><trkpt lat="42.446605099765996" lon="14.114093761279644"><ele>130.6</ele><time>2026-04-18T17:15:50.999Z</time></trkpt><trkpt lat="42.446673929319765" lon="14.114035818829313"><ele>129.2</ele><time>2026-04-18T17:15:51.999Z</time></trkpt><trkpt lat="42.44674978606341" lon="14.11399124488855"><ele>127.8</ele><time>2026-04-18T17:15:52.999Z</time></trkpt><trkpt lat="42.446833656258654" lon="14.113962885620118"><ele>126.4</ele><time>2026-04-18T17:15:53.999Z</time></trkpt><trkpt lat="42.4469335161055" lon="14.113974387109554"><ele>125.0</ele><time>2026-04-18T17:15:54.999Z</time></trkpt><trkpt lat="42.447038737681694" lon="14.113942544881493"><ele>126.8</ele><time>2026-04-18T17:15:55.999Z</time></trkpt><trkpt lat="42.44714430397429" lon="14.113940793747481"><ele>128.6</ele><time>2026-04-18T17:15:56.999Z</time></trkpt><trkpt lat="42.4472507303138" lon="14.113928478438465"><ele>130.4</ele><time>2026-04-18T17:15:57.999Z</time></trkpt><trkpt lat="42.44736082089243" lon="14.113924263568109"><ele>132.2</ele><time>2026-04-18T17:15:58.999Z</time></trkpt><trkpt lat="42.447475877139865" lon="14.11391460711574"><ele>134.0</ele><time>2026-04-18T17:15:59.999Z</time></trkpt><trkpt lat="42.44759499146258" lon="14.11389333717194"><ele>134.0</ele><time>2026-04-18T17:16:00.999Z</time></trkpt><trkpt lat="42.4477054152587" lon="14.11386651025569"><ele>134.0</ele><time>2026-04-18T17:16:01.999Z</time></trkpt><trkpt lat="42.4478097914621" lon="14.113819780120354"><ele>134.0</ele><time>2026-04-18T17:16:02.999Z</time></trkpt><trkpt lat="42.44791143209777" lon="14.11376320113914"><ele>134.0</ele><time>2026-04-18T17:16:03.999Z</time></trkpt><trkpt lat="42.4479987049763" lon="14.11368454062858"><ele>134.0</ele><time>2026-04-18T17:16:04.998Z</time></trkpt><trkpt lat="42.44806745726997" lon="14.113595049109195"><ele>136.2</ele><time>2026-04-18T17:16:05.998Z</time></trkpt><trkpt lat="42.448124981246174" lon="14.1134947785144"><ele>138.4</ele><time>2026-04-18T17:16:06.998Z</time></trkpt><trkpt lat="42.44815915819524" lon="14.113380192817848"><ele>140.6</ele><time>2026-04-18T17:16:07.998Z</time></trkpt><trkpt lat="42.44816827970419" lon="14.11324244980007"><ele>142.8</ele><time>2026-04-18T17:16:08.998Z</time></trkpt><trkpt lat="42.448163737413566" lon="14.113084954671013"><ele>145.0</ele><time>2026-04-18T17:16:09.998Z</time></trkpt><trkpt lat="42.44815870977265" lon="14.11291620368727"><ele>146.75</ele><time>2026-04-18T17:16:10.998Z</time></trkpt><trkpt lat="42.448170536778974" lon="14.11274097884105"><ele>148.5</ele><time>2026-04-18T17:16:11.998Z</time></trkpt><trkpt lat="42.448194819576955" lon="14.112562642641404"><ele>150.25</ele><time>2026-04-18T17:16:12.998Z</time></trkpt><trkpt lat="42.44821954491437" lon="14.112375446665075"><ele>152.0</ele><time>2026-04-18T17:16:13.998Z</time></trkpt><trkpt lat="42.44823947773362" lon="14.112193680900807"><ele>152.2</ele><time>2026-04-18T17:16:14.998Z</time></trkpt><trkpt lat="42.44825510547041" lon="14.112032650319728"><ele>152.39999999999998</ele><time>2026-04-18T17:16:15.998Z</time></trkpt><trkpt lat="42.44826573277392" lon="14.111886120251581"><ele>152.60000000000002</ele><time>2026-04-18T17:16:16.998Z</time></trkpt><trkpt lat="42.448270365010394" lon="14.111756033332329"><ele>152.8</ele><time>2026-04-18T17:16:17.998Z</time></trkpt><trkpt lat="42.44827023314475" lon="14.111659849633872"><ele>153.0</ele><time>2026-04-18T17:16:18.998Z</time></trkpt><trkpt lat="42.448279733433985" lon="14.111523320541233"><ele>153.0</ele><time>2026-04-18T17:16:20.998Z</time></trkpt><trkpt lat="42.44834007695777" lon="14.111467129139397"><ele>153.0</ele><time>2026-04-18T17:16:22.998Z</time></trkpt><trkpt lat="42.448428232974344" lon="14.111566435440366"><ele>153.0</ele><time>2026-04-18T17:16:25.998Z</time></trkpt><trkpt lat="42.448481020672" lon="14.111653738706753"><ele>153.0</ele><time>2026-04-18T17:16:26.998Z</time></trkpt><trkpt lat="42.44853450689879" lon="14.111729961236922"><ele>153.0</ele><time>2026-04-18T17:16:27.998Z</time></trkpt><trkpt lat="42.448601317707904" lon="14.111801356106989"><ele>153.0</ele><time>2026-04-18T17:16:28.998Z</time></trkpt><trkpt lat="42.44866338544947" lon="14.111888676198625"><ele>153.0</ele><time>2026-04-18T17:16:29.998Z</time></trkpt><trkpt lat="42.44874300149873" lon="14.11198484987147"><ele>153.0</ele><time>2026-04-18T17:16:30.998Z</time></trkpt><trkpt lat="42.44881726788561" lon="14.112067823405198"><ele>153.0</ele><time>2026-04-18T17:16:31.998Z</time></trkpt><trkpt lat="42.44889806000955" lon="14.112148641438495"><ele>153.0</ele><time>2026-04-18T17:16:32.998Z</time></trkpt><trkpt lat="42.44897902971306" lon="14.112229230994346"><ele>153.0</ele><time>2026-04-18T17:16:33.998Z</time></trkpt><trkpt lat="42.4490627550985" lon="14.112296506546684"><ele>153.0</ele><time>2026-04-18T17:16:34.998Z</time></trkpt><trkpt lat="42.44914268050795" lon="14.112340625580572"><ele>153.0</ele><time>2026-04-18T17:16:35.998Z</time></trkpt><trkpt lat="42.449231484389195" lon="14.112366588283146"><ele>153.0</ele><time>2026-04-18T17:16:36.998Z</time></trkpt><trkpt lat="42.449321205879365" lon="14.11237496996878"><ele>153.0</ele><time>2026-04-18T17:16:37.998Z</time></trkpt><trkpt lat="42.449414178937154" lon="14.112351120372507"><ele>153.0</ele><time>2026-04-18T17:16:38.998Z</time></trkpt><trkpt lat="42.44951754755237" lon="14.112332913954134"><ele>153.0</ele><time>2026-04-18T17:16:39.998Z</time></trkpt><trkpt lat="42.449617634422665" lon="14.112290579090024"><ele>153.0</ele><time>2026-04-18T17:16:40.998Z</time></trkpt><trkpt lat="42.44972712646684" lon="14.11227422679807"><ele>153.0</ele><time>2026-04-18T17:16:42Z</time></trkpt><trkpt lat="42.44983247032531" lon="14.11223631706073"><ele>153.0</ele><time>2026-04-18T17:16:43Z</time></trkpt><trkpt lat="42.449938076731485" lon="14.112197707638543"><ele>153.0</ele><time>2026-04-18T17:16:44Z</time></trkpt><trkpt lat="42.45004698360997" lon="14.112157891668106"><ele>153.5</ele><time>2026-04-18T17:16:45Z</time></trkpt><trkpt lat="42.450153107283306" lon="14.112099561746389"><ele>154.0</ele><time>2026-04-18T17:16:46Z</time></trkpt><trkpt lat="42.45026589911599" lon="14.11206569087602"><ele>154.5</ele><time>2026-04-18T17:16:47Z</time></trkpt><trkpt lat="42.45037294067525" lon="14.112025725985717"><ele>155.0</ele><time>2026-04-18T17:16:48Z</time></trkpt><trkpt lat="42.450478098379044" lon="14.111987886247032"><ele>156.25</ele><time>2026-04-18T17:16:49Z</time></trkpt><trkpt lat="42.45058805694601" lon="14.111953284040055"><ele>157.5</ele><time>2026-04-18T17:16:50Z</time></trkpt><trkpt lat="42.4506966586149" lon="14.111923370726288"><ele>158.75</ele><time>2026-04-18T17:16:51Z</time></trkpt><trkpt lat="42.45081873197594" lon="14.111880815609561"><ele>160.0</ele><time>2026-04-18T17:16:52Z</time></trkpt><trkpt lat="42.4509358492682" lon="14.111842568430987"><ele>160.0</ele><time>2026-04-18T17:16:53Z</time></trkpt><trkpt lat="42.45105467924386" lon="14.111806607355362"><ele>160.0</ele><time>2026-04-18T17:16:54Z</time></trkpt><trkpt lat="42.451184873428154" lon="14.111764188128971"><ele>160.0</ele><time>2026-04-18T17:16:55Z</time></trkpt><trkpt lat="42.451316344503724" lon="14.111728265125715"><ele>160.0</ele><time>2026-04-18T17:16:56Z</time></trkpt><trkpt lat="42.45144086864636" lon="14.111712225415136"><ele>160.33333333333334</ele><time>2026-04-18T17:16:57Z</time></trkpt><trkpt lat="42.451575317142236" lon="14.111692424239457"><ele>160.66666666666666</ele><time>2026-04-18T17:16:58Z</time></trkpt><trkpt lat="42.45172786045659" lon="14.111675862235936"><ele>161.0</ele><time>2026-04-18T17:16:59Z</time></trkpt><trkpt lat="42.45189373752448" lon="14.111661383584183"><ele>161.0</ele><time>2026-04-18T17:17:00Z</time></trkpt><trkpt lat="42.452037827716715" lon="14.111660431322191"><ele>161.0</ele><time>2026-04-18T17:17:01Z</time></trkpt><trkpt lat="42.45217637700651" lon="14.111657646792809"><ele>161.0</ele><time>2026-04-18T17:17:02Z</time></trkpt><trkpt lat="42.452306489927146" lon="14.111659427298267"><ele>161.0</ele><time>2026-04-18T17:17:03Z</time></trkpt><trkpt lat="42.45244247714333" lon="14.111706583423041"><ele>162.0</ele><time>2026-04-18T17:17:04Z</time></trkpt><trkpt lat="42.45258482334923" lon="14.111758365942768"><ele>163.0</ele><time>2026-04-18T17:17:05Z</time></trkpt><trkpt lat="42.45273202439141" lon="14.111806474239048"><ele>164.0</ele><time>2026-04-18T17:17:06Z</time></trkpt><trkpt lat="42.45286417726828" lon="14.111877126387245"><ele>165.0</ele><time>2026-04-18T17:17:07Z</time></trkpt><trkpt lat="42.452994531906164" lon="14.111957962648818"><ele>163.0</ele><time>2026-04-18T17:17:08Z</time></trkpt><trkpt lat="42.45311949848415" lon="14.112061581255091"><ele>161.0</ele><time>2026-04-18T17:17:09Z</time></trkpt><trkpt lat="42.453230038829446" lon="14.112169682318724"><ele>159.0</ele><time>2026-04-18T17:17:10Z</time></trkpt><trkpt lat="42.45333417103792" lon="14.112270639512017"><ele>157.0</ele><time>2026-04-18T17:17:11Z</time></trkpt><trkpt lat="42.45343121061897" lon="14.11236123827173"><ele>159.5</ele><time>2026-04-18T17:17:12Z</time></trkpt><trkpt lat="42.453522386394354" lon="14.112452267559188"><ele>162.0</ele><time>2026-04-18T17:17:13Z</time></trkpt><trkpt lat="42.45362507346278" lon="14.112557603072966"><ele>164.5</ele><time>2026-04-18T17:17:14Z</time></trkpt><trkpt lat="42.45372151282415" lon="14.112652483282263"><ele>167.0</ele><time>2026-04-18T17:17:15Z</time></trkpt><trkpt lat="42.45381136115766" lon="14.112734742385493"><ele>167.0</ele><time>2026-04-18T17:17:16Z</time></trkpt><trkpt lat="42.4539178708609" lon="14.112793509161468"><ele>167.0</ele><time>2026-04-18T17:17:17Z</time></trkpt><trkpt lat="42.45405271032208" lon="14.112821125426443"><ele>167.0</ele><time>2026-04-18T17:17:18Z</time></trkpt><trkpt lat="42.454198671464205" lon="14.112816834382947"><ele>167.0</ele><time>2026-04-18T17:17:19Z</time></trkpt><trkpt lat="42.45435229894846" lon="14.112800446642757"><ele>167.0</ele><time>2026-04-18T17:17:19.999Z</time></trkpt><trkpt lat="42.45449309560432" lon="14.112780880557464"><ele>167.0</ele><time>2026-04-18T17:17:20.999Z</time></trkpt><trkpt lat="42.45462753905809" lon="14.112771216511652"><ele>167.0</ele><time>2026-04-18T17:17:21.999Z</time></trkpt><trkpt lat="42.45475931203801" lon="14.112753355419901"><ele>167.0</ele><time>2026-04-18T17:17:22.999Z</time></trkpt><trkpt lat="42.45489131298508" lon="14.112722494176573"><ele>168.25</ele><time>2026-04-18T17:17:23.999Z</time></trkpt><trkpt lat="42.45502444080882" lon="14.112679699730181"><ele>169.5</ele><time>2026-04-18T17:17:24.999Z</time></trkpt><trkpt lat="42.45515856216453" lon="14.112629839501162"><ele>170.75</ele><time>2026-04-18T17:17:25.999Z</time></trkpt><trkpt lat="42.45528859299329" lon="14.112579468826665"><ele>172.0</ele><time>2026-04-18T17:17:26.999Z</time></trkpt><trkpt lat="42.45542205503608" lon="14.112544849710874"><ele>172.25</ele><time>2026-04-18T17:17:27.999Z</time></trkpt><trkpt lat="42.45556385832895" lon="14.112543485701286"><ele>172.5</ele><time>2026-04-18T17:17:28.999Z</time></trkpt><trkpt lat="42.45571169563096" lon="14.112566990756594"><ele>172.75</ele><time>2026-04-18T17:17:29.999Z</time></trkpt><trkpt lat="42.45586210677469" lon="14.11259310880172"><ele>173.0</ele><time>2026-04-18T17:17:30.999Z</time></trkpt><trkpt lat="42.45601837548093" lon="14.112614854663272"><ele>173.0</ele><time>2026-04-18T17:17:31.999Z</time></trkpt><trkpt lat="42.456182600904874" lon="14.112642266604924"><ele>173.0</ele><time>2026-04-18T17:17:32.999Z</time></trkpt><trkpt lat="42.456323950033116" lon="14.112666176042184"><ele>173.0</ele><time>2026-04-18T17:17:33.999Z</time></trkpt><trkpt lat="42.456473817556" lon="14.112698470864316"><ele>173.66666666666666</ele><time>2026-04-18T17:17:34.999Z</time></trkpt><trkpt lat="42.456626015160865" lon="14.112733864099125"><ele>174.33333333333334</ele><time>2026-04-18T17:17:35.999Z</time></trkpt><trkpt lat="42.45677748138508" lon="14.112799637599881"><ele>175.0</ele><time>2026-04-18T17:17:36.999Z</time></trkpt><trkpt lat="42.45691340461348" lon="14.11288888664351"><ele>175.0</ele><time>2026-04-18T17:17:37.999Z</time></trkpt><trkpt lat="42.45703838255189" lon="14.11298088921627"><ele>175.0</ele><time>2026-04-18T17:17:38.999Z</time></trkpt><trkpt lat="42.45715600347915" lon="14.113061376734233"><ele>175.0</ele><time>2026-04-18T17:17:39.999Z</time></trkpt><trkpt lat="42.45727094626202" lon="14.113136182518641"><ele>175.0</ele><time>2026-04-18T17:17:40.999Z</time></trkpt><trkpt lat="42.457376922737325" lon="14.11321993198451"><ele>176.0</ele><time>2026-04-18T17:17:41.999Z</time></trkpt><trkpt lat="42.45747289950018" lon="14.113314093576149"><ele>177.0</ele><time>2026-04-18T17:17:42.999Z</time></trkpt><trkpt lat="42.4575630458779" lon="14.113399922131249"><ele>178.0</ele><time>2026-04-18T17:17:43.999Z</time></trkpt><trkpt lat="42.45765282577291" lon="14.113476030239426"><ele>179.0</ele><time>2026-04-18T17:17:44.999Z</time></trkpt><trkpt lat="42.4577311791965" lon="14.113540547036873"><ele>180.0</ele><time>2026-04-18T17:17:45.999Z</time></trkpt><trkpt lat="42.45781942583063" lon="14.113623382929765"><ele>180.0</ele><time>2026-04-18T17:17:47.999Z</time></trkpt><trkpt lat="42.45787044407296" lon="14.113683336918271"><ele>180.0</ele><time>2026-04-18T17:17:49.999Z</time></trkpt><trkpt lat="42.457896360474315" lon="14.113825919317934"><ele>180.0</ele><time>2026-04-18T17:17:51.999Z</time></trkpt><trkpt lat="42.457907461878996" lon="14.113944831993601"><ele>180.0</ele><time>2026-04-18T17:17:52.999Z</time></trkpt><trkpt lat="42.4579099283059" lon="14.114069874941334"><ele>180.0</ele><time>2026-04-18T17:17:53.999Z</time></trkpt><trkpt lat="42.4579211856823" lon="14.114228655741616"><ele>177.0</ele><time>2026-04-18T17:17:54.999Z</time></trkpt><trkpt lat="42.457921561366625" lon="14.114413099449084"><ele>174.0</ele><time>2026-04-18T17:17:55.999Z</time></trkpt><trkpt lat="42.45789550604258" lon="14.114598638527278"><ele>171.0</ele><time>2026-04-18T17:17:56.999Z</time></trkpt><trkpt lat="42.45786786704885" lon="14.11471415620929"><ele>168.0</ele><time>2026-04-18T17:17:57.999Z</time></trkpt><trkpt lat="42.457829159388396" lon="14.114877231435782"><ele>167.8</ele><time>2026-04-18T17:17:58.999Z</time></trkpt><trkpt lat="42.45779641305401" lon="14.115015191469004"><ele>167.60000000000002</ele><time>2026-04-18T17:17:59.999Z</time></trkpt><trkpt lat="42.45778706988108" lon="14.115150650898855"><ele>167.39999999999998</ele><time>2026-04-18T17:18:00.999Z</time></trkpt><trkpt lat="42.4577787647658" lon="14.115292675633116"><ele>167.2</ele><time>2026-04-18T17:18:01.999Z</time></trkpt><trkpt lat="42.45780320497151" lon="14.11542629355053"><ele>167.0</ele><time>2026-04-18T17:18:02.999Z</time></trkpt><trkpt lat="42.45786301255563" lon="14.115557483736453"><ele>167.0</ele><time>2026-04-18T17:18:03.999Z</time></trkpt><trkpt lat="42.4579572562272" lon="14.115685934348317"><ele>167.0</ele><time>2026-04-18T17:18:04.999Z</time></trkpt><trkpt lat="42.458079371866454" lon="14.115798870159686"><ele>167.0</ele><time>2026-04-18T17:18:05.999Z</time></trkpt><trkpt lat="42.45821400699616" lon="14.115919475250749"><ele>167.0</ele><time>2026-04-18T17:18:06.999Z</time></trkpt><trkpt lat="42.45833743215108" lon="14.116058247418652"><ele>167.0</ele><time>2026-04-18T17:18:07.999Z</time></trkpt><trkpt lat="42.45845728394872" lon="14.11618971154793"><ele>167.0</ele><time>2026-04-18T17:18:08.999Z</time></trkpt><trkpt lat="42.458589907362864" lon="14.11635257035228"><ele>167.0</ele><time>2026-04-18T17:18:09.999Z</time></trkpt><trkpt lat="42.4587293371411" lon="14.116504739192592"><ele>165.66666666666666</ele><time>2026-04-18T17:18:10.999Z</time></trkpt><trkpt lat="42.45885947541827" lon="14.1166318784477"><ele>164.33333333333334</ele><time>2026-04-18T17:18:11.999Z</time></trkpt><trkpt lat="42.458986531492044" lon="14.116751256584411"><ele>163.0</ele><time>2026-04-18T17:18:12.999Z</time></trkpt><trkpt lat="42.459121328072236" lon="14.116868968199817"><ele>163.0</ele><time>2026-04-18T17:18:13.999Z</time></trkpt><trkpt lat="42.45926010688905" lon="14.116972358575083"><ele>163.0</ele><time>2026-04-18T17:18:14.999Z</time></trkpt><trkpt lat="42.459392939570705" lon="14.117079803270416"><ele>163.0</ele><time>2026-04-18T17:18:15.999Z</time></trkpt><trkpt lat="42.45952025859011" lon="14.11718205972408"><ele>162.33333333333334</ele><time>2026-04-18T17:18:16.999Z</time></trkpt><trkpt lat="42.45965470734867" lon="14.117287893115185"><ele>161.66666666666666</ele><time>2026-04-18T17:18:17.999Z</time></trkpt><trkpt lat="42.45979720353979" lon="14.117405500117092"><ele>161.0</ele><time>2026-04-18T17:18:18.999Z</time></trkpt><trkpt lat="42.45992915385534" lon="14.117508530665436"><ele>160.8</ele><time>2026-04-18T17:18:19.999Z</time></trkpt><trkpt lat="42.46003813646581" lon="14.117624588474143"><ele>160.60000000000002</ele><time>2026-04-18T17:18:20.999Z</time></trkpt><trkpt lat="42.460138668540786" lon="14.117708925777675"><ele>160.4</ele><time>2026-04-18T17:18:21.999Z</time></trkpt><trkpt lat="42.460226054769024" lon="14.117783165972524"><ele>160.2</ele><time>2026-04-18T17:18:22.999Z</time></trkpt><trkpt lat="42.460297435853825" lon="14.117847392511301"><ele>160.0</ele><time>2026-04-18T17:18:23.999Z</time></trkpt><trkpt lat="42.460350704628304" lon="14.117900929473707"><ele>160.0</ele><time>2026-04-18T17:18:24.999Z</time></trkpt><trkpt lat="42.46040956985432" lon="14.117969275914794"><ele>160.0</ele><time>2026-04-18T17:18:26.999Z</time></trkpt><trkpt lat="42.460491673075865" lon="14.11786594935711"><ele>160.0</ele><time>2026-04-18T17:18:28.999Z</time></trkpt><trkpt lat="42.46042077191589" lon="14.117749662366455"><ele>160.0</ele><time>2026-04-18T17:18:30.999Z</time></trkpt><trkpt lat="42.46034177585367" lon="14.117694131266946"><ele>160.0</ele><time>2026-04-18T17:18:31.999Z</time></trkpt><trkpt lat="42.46025978379293" lon="14.117650017449442"><ele>160.0</ele><time>2026-04-18T17:18:32.999Z</time></trkpt><trkpt lat="42.46017840176334" lon="14.117596228183917"><ele>160.0</ele><time>2026-04-18T17:18:34.999Z</time></trkpt><trkpt lat="42.460197570224366" lon="14.117495259247749"><ele>160.0</ele><time>2026-04-18T17:18:37.999Z</time></trkpt><trkpt lat="42.460232089416515" lon="14.117568231685121"><ele>160.0</ele><time>2026-04-18T17:20:02.999Z</time></trkpt><trkpt lat="42.460198631405206" lon="14.117488913859859"><ele>160.0</ele><time>2026-04-18T17:20:40.999Z</time></trkpt><trkpt lat="42.460289144138066" lon="14.117398733760158"><ele>160.0</ele><time>2026-04-18T17:31:17.999Z</time></trkpt><trkpt lat="42.460355680085186" lon="14.117463025830203"><ele>160.0</ele><time>2026-04-18T17:31:19.999Z</time></trkpt><trkpt lat="42.460397423915545" lon="14.117535245230288"><ele>160.0</ele><time>2026-04-18T17:31:21.998Z</time></trkpt><trkpt lat="42.460396675067905" lon="14.117634927264755"><ele>160.0</ele><time>2026-04-18T17:31:24Z</time></trkpt><trkpt lat="42.46038928662901" lon="14.117727794119782"><ele>160.0</ele><time>2026-04-18T17:31:26Z</time></trkpt><trkpt lat="42.46044377382198" lon="14.117809643677449"><ele>160.0</ele><time>2026-04-18T17:31:29Z</time></trkpt><trkpt lat="42.460451243489835" lon="14.117897098384306"><ele>160.0</ele><time>2026-04-18T17:31:32Z</time></trkpt><trkpt lat="42.46046141816452" lon="14.118019815560773"><ele>160.0</ele><time>2026-04-18T17:31:34Z</time></trkpt><trkpt lat="42.46047683573532" lon="14.118201950846917"><ele>160.2</ele><time>2026-04-18T17:31:36Z</time></trkpt><trkpt lat="42.460484913338355" lon="14.118294543966886"><ele>160.4</ele><time>2026-04-18T17:31:37Z</time></trkpt><trkpt lat="42.46048764025974" lon="14.118400148225694"><ele>160.60000000000002</ele><time>2026-04-18T17:31:38Z</time></trkpt><trkpt lat="42.460483673789795" lon="14.11852656098204"><ele>160.8</ele><time>2026-04-18T17:31:39Z</time></trkpt><trkpt lat="42.460463283920426" lon="14.118668214376024"><ele>161.0</ele><time>2026-04-18T17:31:40Z</time></trkpt><trkpt lat="42.460431964995784" lon="14.118809832906836"><ele>160.83333333333331</ele><time>2026-04-18T17:31:41Z</time></trkpt><trkpt lat="42.460395783688284" lon="14.118930842594162"><ele>160.66666666666666</ele><time>2026-04-18T17:31:42Z</time></trkpt><trkpt lat="42.46035716557845" lon="14.119051250841311"><ele>160.5</ele><time>2026-04-18T17:31:43Z</time></trkpt><trkpt lat="42.46032105985766" lon="14.119154769967322"><ele>160.33333333333334</ele><time>2026-04-18T17:31:44Z</time></trkpt><trkpt lat="42.460283555865935" lon="14.11925333814127"><ele>160.16666666666669</ele><time>2026-04-18T17:31:45Z</time></trkpt><trkpt lat="42.4602426901268" lon="14.119348510249228"><ele>160.0</ele><time>2026-04-18T17:31:46Z</time></trkpt><trkpt lat="42.46019773442945" lon="14.119439815523709"><ele>160.0</ele><time>2026-04-18T17:31:47Z</time></trkpt><trkpt lat="42.460148401503226" lon="14.119529388357375"><ele>160.0</ele><time>2026-04-18T17:31:48Z</time></trkpt><trkpt lat="42.46009042237669" lon="14.119610981859791"><ele>160.0</ele><time>2026-04-18T17:31:49Z</time></trkpt><trkpt lat="42.46000598192242" lon="14.119648536275637"><ele>160.0</ele><time>2026-04-18T17:31:50Z</time></trkpt><trkpt lat="42.45994624591635" lon="14.11974605354428"><ele>160.0</ele><time>2026-04-18T17:31:51Z</time></trkpt><trkpt lat="42.45987242903419" lon="14.119812886113728"><ele>160.0</ele><time>2026-04-18T17:31:52Z</time></trkpt><trkpt lat="42.459839729217215" lon="14.119957865584832"><ele>160.0</ele><time>2026-04-18T17:31:53Z</time></trkpt><trkpt lat="42.45978873215862" lon="14.120079423686555"><ele>160.0</ele><time>2026-04-18T17:31:54Z</time></trkpt><trkpt lat="42.45971234511147" lon="14.12019008199158"><ele>160.0</ele><time>2026-04-18T17:31:55Z</time></trkpt><trkpt lat="42.459614859613716" lon="14.120285533494398"><ele>160.0</ele><time>2026-04-18T17:31:56Z</time></trkpt><trkpt lat="42.45951514272021" lon="14.120384381688911"><ele>160.0</ele><time>2026-04-18T17:31:57Z</time></trkpt><trkpt lat="42.459417889541186" lon="14.120479129367327"><ele>160.0</ele><time>2026-04-18T17:31:58Z</time></trkpt><trkpt lat="42.45932142115552" lon="14.12056922989475"><ele>160.0</ele><time>2026-04-18T17:31:59Z</time></trkpt><trkpt lat="42.45921927601104" lon="14.120672298599"><ele>160.0</ele><time>2026-04-18T17:32:00Z</time></trkpt><trkpt lat="42.459112519951894" lon="14.120792405614871"><ele>160.0</ele><time>2026-04-18T17:32:01Z</time></trkpt><trkpt lat="42.45900711080289" lon="14.1209158640783"><ele>160.0</ele><time>2026-04-18T17:32:02Z</time></trkpt><trkpt lat="42.45889768957368" lon="14.121034454289898"><ele>160.0</ele><time>2026-04-18T17:32:03Z</time></trkpt><trkpt lat="42.458784918745316" lon="14.12114840787758"><ele>160.0</ele><time>2026-04-18T17:32:04Z</time></trkpt><trkpt lat="42.45866915483971" lon="14.121265208450446"><ele>160.0</ele><time>2026-04-18T17:32:05Z</time></trkpt><trkpt lat="42.458557983225134" lon="14.121378570610442"><ele>160.0</ele><time>2026-04-18T17:32:06Z</time></trkpt><trkpt lat="42.458450290521725" lon="14.12149316800567"><ele>160.0</ele><time>2026-04-18T17:32:07Z</time></trkpt><trkpt lat="42.458340041426716" lon="14.121607877786763"><ele>160.0</ele><time>2026-04-18T17:32:08Z</time></trkpt><trkpt lat="42.45823348075907" lon="14.121722005479484"><ele>160.0</ele><time>2026-04-18T17:32:09Z</time></trkpt><trkpt lat="42.45812864978857" lon="14.121846613879026"><ele>160.0</ele><time>2026-04-18T17:32:10Z</time></trkpt><trkpt lat="42.4580290540354" lon="14.121980849470722"><ele>160.0</ele><time>2026-04-18T17:32:11Z</time></trkpt><trkpt lat="42.45793517431239" lon="14.122134832633462"><ele>160.0</ele><time>2026-04-18T17:32:12Z</time></trkpt><trkpt lat="42.45785422990503" lon="14.122300335509353"><ele>160.66666666666669</ele><time>2026-04-18T17:32:13Z</time></trkpt><trkpt lat="42.45778838939846" lon="14.122478739849496"><ele>161.33333333333334</ele><time>2026-04-18T17:32:14Z</time></trkpt><trkpt lat="42.45772740586449" lon="14.122677529572433"><ele>162.0</ele><time>2026-04-18T17:32:15Z</time></trkpt><trkpt lat="42.45767420961587" lon="14.122877363416583"><ele>162.0</ele><time>2026-04-18T17:32:16Z</time></trkpt><trkpt lat="42.457612268135286" lon="14.123084151053456"><ele>162.0</ele><time>2026-04-18T17:32:17Z</time></trkpt><trkpt lat="42.45755343082897" lon="14.123286622645399"><ele>162.0</ele><time>2026-04-18T17:32:18Z</time></trkpt><trkpt lat="42.457496649292196" lon="14.123482210925447"><ele>162.5</ele><time>2026-04-18T17:32:19Z</time></trkpt><trkpt lat="42.45743726897406" lon="14.123667954712516"><ele>163.0</ele><time>2026-04-18T17:32:20Z</time></trkpt><trkpt lat="42.457378749269154" lon="14.123856032494173"><ele>163.5</ele><time>2026-04-18T17:32:21Z</time></trkpt><trkpt lat="42.45732287634546" lon="14.1240399968464"><ele>164.0</ele><time>2026-04-18T17:32:22Z</time></trkpt><trkpt lat="42.45727486825653" lon="14.124203922185059"><ele>165.75</ele><time>2026-04-18T17:32:23Z</time></trkpt><trkpt lat="42.457222872558496" lon="14.124353549790627"><ele>167.5</ele><time>2026-04-18T17:32:23.999Z</time></trkpt><trkpt lat="42.45717931149407" lon="14.124514542830326"><ele>169.25</ele><time>2026-04-18T17:32:24.999Z</time></trkpt><trkpt lat="42.457147349834145" lon="14.124678256643461"><ele>171.0</ele><time>2026-04-18T17:32:25.999Z</time></trkpt><trkpt lat="42.457136407974666" lon="14.124853248193771"><ele>171.75</ele><time>2026-04-18T17:32:26.999Z</time></trkpt><trkpt lat="42.45715199160526" lon="14.125033117351679"><ele>172.5</ele><time>2026-04-18T17:32:27.999Z</time></trkpt><trkpt lat="42.45717851185422" lon="14.125224334566674"><ele>173.25</ele><time>2026-04-18T17:32:28.999Z</time></trkpt><trkpt lat="42.45722043908464" lon="14.125422030738653"><ele>174.0</ele><time>2026-04-18T17:32:29.999Z</time></trkpt><trkpt lat="42.45727574490568" lon="14.12561962972842"><ele>172.25</ele><time>2026-04-18T17:32:30.999Z</time></trkpt><trkpt lat="42.45733455959577" lon="14.12580093317779"><ele>170.5</ele><time>2026-04-18T17:32:31.999Z</time></trkpt><trkpt lat="42.45739613941349" lon="14.125972229630445"><ele>168.75</ele><time>2026-04-18T17:32:32.999Z</time></trkpt><trkpt lat="42.457468110007284" lon="14.126128766484552"><ele>167.0</ele><time>2026-04-18T17:32:33.999Z</time></trkpt><trkpt lat="42.457543547073755" lon="14.12627209548703"><ele>167.0</ele><time>2026-04-18T17:32:34.999Z</time></trkpt><trkpt lat="42.457616246337416" lon="14.126404831430184"><ele>167.0</ele><time>2026-04-18T17:32:35.999Z</time></trkpt><trkpt lat="42.457688688317475" lon="14.126532156099694"><ele>167.0</ele><time>2026-04-18T17:32:36.999Z</time></trkpt><trkpt lat="42.45774961219368" lon="14.12665768115165"><ele>167.0</ele><time>2026-04-18T17:32:37.999Z</time></trkpt><trkpt lat="42.457806875448085" lon="14.126783985917488"><ele>167.8</ele><time>2026-04-18T17:32:38.999Z</time></trkpt><trkpt lat="42.45785811180534" lon="14.126907531711849"><ele>168.6</ele><time>2026-04-18T17:32:39.999Z</time></trkpt><trkpt lat="42.45793160478144" lon="14.127022005621006"><ele>169.4</ele><time>2026-04-18T17:32:40.999Z</time></trkpt><trkpt lat="42.458019754486614" lon="14.127115304241572"><ele>170.20000000000002</ele><time>2026-04-18T17:32:41.999Z</time></trkpt><trkpt lat="42.45811613746937" lon="14.12719069285265"><ele>171.0</ele><time>2026-04-18T17:32:42.999Z</time></trkpt><trkpt lat="42.458207785853425" lon="14.127272399660425"><ele>171.0</ele><time>2026-04-18T17:32:43.999Z</time></trkpt><trkpt lat="42.45827251643612" lon="14.127391330945295"><ele>171.0</ele><time>2026-04-18T17:32:44.999Z</time></trkpt><trkpt lat="42.45833597716172" lon="14.127523783552931"><ele>171.0</ele><time>2026-04-18T17:32:45.999Z</time></trkpt><trkpt lat="42.45840429002963" lon="14.127663627575082"><ele>171.0</ele><time>2026-04-18T17:32:46.999Z</time></trkpt><trkpt lat="42.45845181958295" lon="14.127802068445234"><ele>169.4</ele><time>2026-04-18T17:32:47.999Z</time></trkpt><trkpt lat="42.45849889830261" lon="14.127935148047515"><ele>167.8</ele><time>2026-04-18T17:32:48.999Z</time></trkpt><trkpt lat="42.458548590925155" lon="14.128061214096732"><ele>166.20000000000002</ele><time>2026-04-18T17:32:49.999Z</time></trkpt><trkpt lat="42.45860227162127" lon="14.128193219725489"><ele>164.60000000000002</ele><time>2026-04-18T17:32:50.999Z</time></trkpt><trkpt lat="42.45863727349095" lon="14.128349399584213"><ele>163.0</ele><time>2026-04-18T17:32:51.999Z</time></trkpt><trkpt lat="42.45866933838129" lon="14.12850189938018"><ele>162.4</ele><time>2026-04-18T17:32:52.999Z</time></trkpt><trkpt lat="42.45868918231654" lon="14.128648988560636"><ele>161.8</ele><time>2026-04-18T17:32:53.999Z</time></trkpt><trkpt lat="42.4586976823272" lon="14.1287970440666"><ele>161.2</ele><time>2026-04-18T17:32:54.999Z</time></trkpt><trkpt lat="42.458685739460016" lon="14.128947046211492"><ele>160.6</ele><time>2026-04-18T17:32:55.999Z</time></trkpt><trkpt lat="42.45866630477782" lon="14.129078053778768"><ele>160.0</ele><time>2026-04-18T17:32:56.999Z</time></trkpt><trkpt lat="42.45864760295173" lon="14.129223521463054"><ele>160.0</ele><time>2026-04-18T17:32:57.999Z</time></trkpt><trkpt lat="42.45859983371711" lon="14.12936615356605"><ele>160.0</ele><time>2026-04-18T17:32:58.999Z</time></trkpt><trkpt lat="42.45855796082399" lon="14.12950148764433"><ele>160.0</ele><time>2026-04-18T17:32:59.999Z</time></trkpt><trkpt lat="42.45849004260302" lon="14.129616413862715"><ele>160.0</ele><time>2026-04-18T17:33:00.999Z</time></trkpt><trkpt lat="42.45842510732951" lon="14.12974534152157"><ele>160.0</ele><time>2026-04-18T17:33:01.999Z</time></trkpt><trkpt lat="42.45835327916409" lon="14.129863838046104"><ele>159.33333333333334</ele><time>2026-04-18T17:33:02.999Z</time></trkpt><trkpt lat="42.45826724857269" lon="14.12998425733157"><ele>158.66666666666666</ele><time>2026-04-18T17:33:03.999Z</time></trkpt><trkpt lat="42.45815892742982" lon="14.130119168221723"><ele>158.0</ele><time>2026-04-18T17:33:04.999Z</time></trkpt><trkpt lat="42.45801785891188" lon="14.130275471167806"><ele>158.66666666666666</ele><time>2026-04-18T17:33:05.999Z</time></trkpt><trkpt lat="42.45786668338314" lon="14.130428310672986"><ele>159.33333333333334</ele><time>2026-04-18T17:33:06.999Z</time></trkpt><trkpt lat="42.45773474848068" lon="14.130570179167202"><ele>160.0</ele><time>2026-04-18T17:33:07.999Z</time></trkpt><trkpt lat="42.457629996112416" lon="14.130739555289674"><ele>160.0</ele><time>2026-04-18T17:33:08.999Z</time></trkpt><trkpt lat="42.45752805356792" lon="14.130918881918117"><ele>160.0</ele><time>2026-04-18T17:33:09.999Z</time></trkpt><trkpt lat="42.45743217932561" lon="14.13114161210248"><ele>160.0</ele><time>2026-04-18T17:33:10.999Z</time></trkpt><trkpt lat="42.457337116955074" lon="14.131378527415176"><ele>158.0</ele><time>2026-04-18T17:33:11.999Z</time></trkpt><trkpt lat="42.457224566330545" lon="14.131612360629052"><ele>156.0</ele><time>2026-04-18T17:33:12.999Z</time></trkpt><trkpt lat="42.45711818035953" lon="14.131869126353276"><ele>154.0</ele><time>2026-04-18T17:33:13.999Z</time></trkpt><trkpt lat="42.45701513308314" lon="14.132119152804094"><ele>158.0</ele><time>2026-04-18T17:33:14.999Z</time></trkpt><trkpt lat="42.45692387836825" lon="14.132346622366862"><ele>162.0</ele><time>2026-04-18T17:33:15.999Z</time></trkpt><trkpt lat="42.45687041618126" lon="14.13256800250381"><ele>166.0</ele><time>2026-04-18T17:33:16.999Z</time></trkpt><trkpt lat="42.456818840394654" lon="14.132786054661107"><ele>166.0</ele><time>2026-04-18T17:33:17.999Z</time></trkpt><trkpt lat="42.45678585793356" lon="14.133023978076434"><ele>166.0</ele><time>2026-04-18T17:33:18.999Z</time></trkpt><trkpt lat="42.456762781286315" lon="14.133282041321417"><ele>166.0</ele><time>2026-04-18T17:33:19.999Z</time></trkpt><trkpt lat="42.45673153030445" lon="14.133544079990175"><ele>166.66666666666669</ele><time>2026-04-18T17:33:20.999Z</time></trkpt><trkpt lat="42.456677347062495" lon="14.133821898880248"><ele>167.33333333333334</ele><time>2026-04-18T17:33:21.999Z</time></trkpt><trkpt lat="42.45659218996447" lon="14.134087445209396"><ele>168.0</ele><time>2026-04-18T17:33:22.999Z</time></trkpt><trkpt lat="42.45652825576916" lon="14.134338574270718"><ele>168.0</ele><time>2026-04-18T17:33:23.998Z</time></trkpt><trkpt lat="42.45644987808675" lon="14.13455887384408"><ele>168.0</ele><time>2026-04-18T17:33:24.998Z</time></trkpt><trkpt lat="42.45637435964106" lon="14.13479896998286"><ele>168.0</ele><time>2026-04-18T17:33:25.998Z</time></trkpt><trkpt lat="42.45630351821284" lon="14.135063515522056"><ele>176.66666666666669</ele><time>2026-04-18T17:33:26.998Z</time></trkpt><trkpt lat="42.45623191557623" lon="14.135300175888208"><ele>185.33333333333334</ele><time>2026-04-18T17:33:27.998Z</time></trkpt><trkpt lat="42.45616711435987" lon="14.135493722832269"><ele>194.0</ele><time>2026-04-18T17:33:29Z</time></trkpt><trkpt lat="42.45609840039706" lon="14.135625364847607"><ele>191.2</ele><time>2026-04-18T17:33:30Z</time></trkpt><trkpt lat="42.456044129369424" lon="14.135732957157089"><ele>188.39999999999998</ele><time>2026-04-18T17:33:31Z</time></trkpt><trkpt lat="42.455995015012874" lon="14.135815374353232"><ele>185.6</ele><time>2026-04-18T17:33:32Z</time></trkpt><trkpt lat="42.45591421893357" lon="14.13591842045499"><ele>182.8</ele><time>2026-04-18T17:33:34Z</time></trkpt><trkpt lat="42.45597210449007" lon="14.136080690695675"><ele>180.0</ele><time>2026-04-18T17:33:37Z</time></trkpt><trkpt lat="42.45604400120617" lon="14.136106728177069"><ele>180.0</ele><time>2026-04-18T17:33:39Z</time></trkpt><trkpt lat="42.45613932692111" lon="14.136145239231405"><ele>180.0</ele><time>2026-04-18T17:33:42Z</time></trkpt><trkpt lat="42.45624472714001" lon="14.136194481157668"><ele>180.0</ele><time>2026-04-18T17:33:44Z</time></trkpt><trkpt lat="42.45632538518647" lon="14.136216638945314"><ele>180.0</ele><time>2026-04-18T17:33:45Z</time></trkpt><trkpt lat="42.45642527065651" lon="14.136263227859102"><ele>180.0</ele><time>2026-04-18T17:33:46Z</time></trkpt><trkpt lat="42.456555545628525" lon="14.136294887262423"><ele>177.4</ele><time>2026-04-18T17:33:47Z</time></trkpt><trkpt lat="42.45667423542526" lon="14.136297210925797"><ele>174.8</ele><time>2026-04-18T17:33:48Z</time></trkpt><trkpt lat="42.45677957039775" lon="14.136280717930179"><ele>172.2</ele><time>2026-04-18T17:33:49Z</time></trkpt><trkpt lat="42.45687241019972" lon="14.13623986292965"><ele>169.6</ele><time>2026-04-18T17:33:50Z</time></trkpt><trkpt lat="42.45695537361019" lon="14.136233868603409"><ele>167.0</ele><time>2026-04-18T17:33:51Z</time></trkpt><trkpt lat="42.45702769302807" lon="14.136225768987345"><ele>167.0</ele><time>2026-04-18T17:33:52Z</time></trkpt><trkpt lat="42.457099863348496" lon="14.136204629915538"><ele>167.0</ele><time>2026-04-18T17:33:53Z</time></trkpt><trkpt lat="42.45717459045722" lon="14.136209275401628"><ele>167.0</ele><time>2026-04-18T17:33:54Z</time></trkpt><trkpt lat="42.45724279438903" lon="14.136210442322483"><ele>167.0</ele><time>2026-04-18T17:33:55Z</time></trkpt><trkpt lat="42.45735830502318" lon="14.136199104077237"><ele>167.0</ele><time>2026-04-18T17:33:57Z</time></trkpt><trkpt lat="42.457466468388745" lon="14.136191762497843"><ele>167.0</ele><time>2026-04-18T17:33:59Z</time></trkpt><trkpt lat="42.45756372926545" lon="14.136172183132707"><ele>165.71428571428572</ele><time>2026-04-18T17:34:01Z</time></trkpt><trkpt lat="42.457650033316085" lon="14.13615425785221"><ele>164.42857142857144</ele><time>2026-04-18T17:34:03Z</time></trkpt><trkpt lat="42.45771867495441" lon="14.136142589254273"><ele>163.14285714285717</ele><time>2026-04-18T17:34:05Z</time></trkpt><trkpt lat="42.45778377801957" lon="14.13615477729812"><ele>161.85714285714286</ele><time>2026-04-18T17:34:09Z</time></trkpt><trkpt lat="42.45779596357594" lon="14.13627948768977"><ele>160.57142857142858</ele><time>2026-04-18T17:39:25.998Z</time></trkpt><trkpt lat="42.45778210910043" lon="14.136188917392507"><ele>159.2857142857143</ele><time>2026-04-18T17:39:29.998Z</time></trkpt><trkpt lat="42.457822141563014" lon="14.136118393645967"><ele>158.0</ele><time>2026-04-18T17:46:22Z</time></trkpt><trkpt lat="42.457803533396465" lon="14.136025038827402"><ele>158.0</ele><time>2026-04-18T17:46:24Z</time></trkpt><trkpt lat="42.45780547141631" lon="14.136114267693422"><ele>158.0</ele><time>2026-04-18T17:46:26Z</time></trkpt><trkpt lat="42.45783188833623" lon="14.136202637175192"><ele>158.0</ele><time>2026-04-18T17:46:33Z</time></trkpt><trkpt lat="42.457839189585314" lon="14.13630069370707"><ele>158.0</ele><time>2026-04-18T17:46:49.999Z</time></trkpt><trkpt lat="42.45782717559262" lon="14.136167899962178"><ele>158.0</ele><time>2026-04-18T17:46:52.999Z</time></trkpt><trkpt lat="42.4576681913997" lon="14.13653720798004"><ele>158.0</ele><time>2026-04-18T17:47:06.999Z</time></trkpt><trkpt lat="42.45786570070593" lon="14.136115085752188"><ele>158.0</ele><time>2026-04-18T17:47:08.999Z</time></trkpt><trkpt lat="42.45780217097701" lon="14.136149206186971"><ele>158.0</ele><time>2026-04-18T17:47:46.998Z</time></trkpt><trkpt lat="42.45773201767548" lon="14.136143910149949"><ele>158.0</ele><time>2026-04-18T17:47:54.998Z</time></trkpt><trkpt lat="42.45771534701563" lon="14.136369202222262"><ele>158.0</ele><time>2026-04-18T17:48:20Z</time></trkpt><trkpt lat="42.45778505594285" lon="14.136393757624996"><ele>158.0</ele><time>2026-04-18T17:48:36.446Z</time></trkpt><trkpt lat="42.45772082980065" lon="14.136357075554692"><ele>158.0</ele><time>2026-04-18T17:48:40.033Z</time></trkpt><trkpt lat="42.45778659358883" lon="14.136314429015487"><ele>158.0</ele><time>2026-04-18T17:48:49Z</time></trkpt><trkpt lat="42.45785727613061" lon="14.136284447152457"><ele>158.0</ele><time>2026-04-18T17:48:51.047Z</time></trkpt><trkpt lat="42.457927575827185" lon="14.136241411230104"><ele>158.0</ele><time>2026-04-18T17:48:57.043Z</time></trkpt><trkpt lat="42.45799554225849" lon="14.136244146301001"><ele>158.0</ele><time>2026-04-18T17:49:00.049Z</time></trkpt><trkpt lat="42.45791966084063" lon="14.136272736458908"><ele>158.0</ele><time>2026-04-18T17:49:13.999Z</time></trkpt><trkpt lat="42.45785675925512" lon="14.136278707355567"><ele>158.0</ele><time>2026-04-18T17:49:17.999Z</time></trkpt><trkpt lat="42.45775044834266" lon="14.13629737703056"><ele>158.0</ele><time>2026-04-18T17:49:20.999Z</time></trkpt><trkpt lat="42.45773561114202" lon="14.136151134213383"><ele>158.0</ele><time>2026-04-18T18:03:01Z</time></trkpt><trkpt lat="42.45781124436076" lon="14.136155736060392"><ele>158.0</ele><time>2026-04-18T18:03:05Z</time></trkpt><trkpt lat="42.457744062088345" lon="14.136176722358368"><ele>158.0</ele><time>2026-04-18T18:03:34.999Z</time></trkpt><trkpt lat="42.45770670223552" lon="14.136281625528815"><ele>158.0</ele><time>2026-04-18T18:03:37.999Z</time></trkpt><trkpt lat="42.45771283144238" lon="14.136375796779182"><ele>158.0</ele><time>2026-04-18T18:03:41.999Z</time></trkpt><trkpt lat="42.4577590844935" lon="14.13625269661834"><ele>158.0</ele><time>2026-04-18T18:04:07.468Z</time></trkpt><trkpt lat="42.457780035419006" lon="14.136126901534347"><ele>158.00000000000003</ele><time>2026-04-18T18:04:12.999Z</time></trkpt><trkpt lat="42.457722046950416" lon="14.136161895635944"><ele>158.0</ele><time>2026-04-18T18:04:25.998Z</time></trkpt><trkpt lat="42.457652977643626" lon="14.136191939685192"><ele>158.0</ele><time>2026-04-18T18:04:34.998Z</time></trkpt><trkpt lat="42.457583355600974" lon="14.136212455974642"><ele>158.0</ele><time>2026-04-18T18:04:42.998Z</time></trkpt><trkpt lat="42.45751986435168" lon="14.136172344530893"><ele>158.0</ele><time>2026-04-18T18:04:52.998Z</time></trkpt><trkpt lat="42.45745899198856" lon="14.136141480872507"><ele>158.00000000000003</ele><time>2026-04-18T18:05:03Z</time></trkpt><trkpt lat="42.45739526538727" lon="14.136135629003194"><ele>158.0</ele><time>2026-04-18T18:05:14Z</time></trkpt><trkpt lat="42.45732864206162" lon="14.136177273869226"><ele>158.00000000000003</ele><time>2026-04-18T18:05:26Z</time></trkpt><trkpt lat="42.45726452400448" lon="14.136190166777151"><ele>158.0</ele><time>2026-04-18T18:05:30.999Z</time></trkpt><trkpt lat="42.45720150159838" lon="14.13618875854215"><ele>158.0</ele><time>2026-04-18T18:06:05.999Z</time></trkpt><trkpt lat="42.457128265780355" lon="14.136169292365011"><ele>158.0</ele><time>2026-04-18T18:06:12.999Z</time></trkpt><trkpt lat="42.45705218763205" lon="14.136196361706794"><ele>158.0</ele><time>2026-04-18T18:06:20.999Z</time></trkpt><trkpt lat="42.45698873607442" lon="14.136224925161494"><ele>158.00000000000003</ele><time>2026-04-18T18:06:24.999Z</time></trkpt><trkpt lat="42.456919804155355" lon="14.136229760442733"><ele>158.0</ele><time>2026-04-18T18:06:29.999Z</time></trkpt><trkpt lat="42.45684221115795" lon="14.136237914691147"><ele>159.2857142857143</ele><time>2026-04-18T18:06:35.998Z</time></trkpt><trkpt lat="42.45677431655892" lon="14.136251114369461"><ele>160.57142857142858</ele><time>2026-04-18T18:06:40.998Z</time></trkpt><trkpt lat="42.45669998134046" lon="14.136266392057363"><ele>161.85714285714286</ele><time>2026-04-18T18:06:49.998Z</time></trkpt><trkpt lat="42.4566314992678" lon="14.136286501423193"><ele>163.14285714285717</ele><time>2026-04-18T18:06:54.998Z</time></trkpt><trkpt lat="42.45656699733972" lon="14.136301275453492"><ele>164.42857142857144</ele><time>2026-04-18T18:07:03Z</time></trkpt><trkpt lat="42.45650343213008" lon="14.136284352336606"><ele>165.71428571428572</ele><time>2026-04-18T18:07:15Z</time></trkpt><trkpt lat="42.45643698451768" lon="14.136267983936104"><ele>167.0</ele><time>2026-04-18T18:07:21Z</time></trkpt><trkpt lat="42.456376412849956" lon="14.136204512649453"><ele>167.0</ele><time>2026-04-18T18:07:27Z</time></trkpt><trkpt lat="42.456312166478085" lon="14.136175613780665"><ele>167.0</ele><time>2026-04-18T18:07:33Z</time></trkpt><trkpt lat="42.45624886366297" lon="14.136159504367525"><ele>167.0</ele><time>2026-04-18T18:07:39Z</time></trkpt><trkpt lat="42.45618504417467" lon="14.136132669751046"><ele>167.0</ele><time>2026-04-18T18:08:21.999Z</time></trkpt><trkpt lat="42.456114446049696" lon="14.136110535541759"><ele>167.0</ele><time>2026-04-18T18:08:27.999Z</time></trkpt><trkpt lat="42.45605057123924" lon="14.136104114015208"><ele>167.0</ele><time>2026-04-18T18:08:34.999Z</time></trkpt><trkpt lat="42.45601238377279" lon="14.13602647367097"><ele>167.0</ele><time>2026-04-18T18:08:41.999Z</time></trkpt><trkpt lat="42.456034677995504" lon="14.135945593966495"><ele>168.85714285714286</ele><time>2026-04-18T18:08:46.999Z</time></trkpt><trkpt lat="42.45604956305374" lon="14.135856746077842"><ele>170.71428571428572</ele><time>2026-04-18T18:08:52.998Z</time></trkpt><trkpt lat="42.45600332520739" lon="14.135970704835819"><ele>172.57142857142856</ele><time>2026-04-18T18:09:02.998Z</time></trkpt><trkpt lat="42.455945296144854" lon="14.136026599227165"><ele>174.42857142857144</ele><time>2026-04-18T18:09:08Z</time></trkpt><trkpt lat="42.4558822532714" lon="14.136072497040598"><ele>176.2857142857143</ele><time>2026-04-18T18:09:17Z</time></trkpt><trkpt lat="42.45581937382194" lon="14.13610261758387"><ele>178.14285714285714</ele><time>2026-04-18T18:09:23Z</time></trkpt><trkpt lat="42.45576003136898" lon="14.136136588869242"><ele>180.0</ele><time>2026-04-18T18:09:29Z</time></trkpt><trkpt lat="42.45569495829131" lon="14.136165502322905"><ele>180.0</ele><time>2026-04-18T18:09:47Z</time></trkpt><trkpt lat="42.45563197209006" lon="14.136173282742861"><ele>180.0</ele><time>2026-04-18T18:10:04.999Z</time></trkpt><trkpt lat="42.45561789614609" lon="14.136087685690585"><ele>180.0</ele><time>2026-04-18T18:10:09.999Z</time></trkpt><trkpt lat="42.455676348453956" lon="14.136036392005531"><ele>180.0</ele><time>2026-04-18T18:10:16.999Z</time></trkpt><trkpt lat="42.45574138652734" lon="14.136021823432442"><ele>180.0</ele><time>2026-04-18T18:10:24.999Z</time></trkpt><trkpt lat="42.455808582660744" lon="14.135972652019412"><ele>180.0</ele><time>2026-04-18T18:10:30.999Z</time></trkpt><trkpt lat="42.455864425416394" lon="14.135917656006036"><ele>180.0</ele><time>2026-04-18T18:10:35.999Z</time></trkpt><trkpt lat="42.455926340132656" lon="14.135870485472429"><ele>180.0</ele><time>2026-04-18T18:10:40.999Z</time></trkpt><trkpt lat="42.45597733789816" lon="14.135810471561017"><ele>180.0</ele><time>2026-04-18T18:10:45.999Z</time></trkpt><trkpt lat="42.45602534747414" lon="14.135741323462453"><ele>180.0</ele><time>2026-04-18T18:10:51.999Z</time></trkpt><trkpt lat="42.45609003095552" lon="14.135739794242872"><ele>180.0</ele><time>2026-04-18T18:10:56.999Z</time></trkpt><trkpt lat="42.45613536530929" lon="14.135679251015507"><ele>180.0</ele><time>2026-04-18T18:11:01.999Z</time></trkpt><trkpt lat="42.45615152913877" lon="14.135591503255387"><ele>180.0</ele><time>2026-04-18T18:11:07.998Z</time></trkpt><trkpt lat="42.456187150598964" lon="14.135505205548958"><ele>180.0</ele><time>2026-04-18T18:11:15Z</time></trkpt><trkpt lat="42.45621013571287" lon="14.13542095961265"><ele>178.28571428571428</ele><time>2026-04-18T18:11:21Z</time></trkpt><trkpt lat="42.4562525647015" lon="14.135352114222567"><ele>176.57142857142858</ele><time>2026-04-18T18:11:29Z</time></trkpt><trkpt lat="42.45626455886777" lon="14.13526238027665"><ele>174.85714285714286</ele><time>2026-04-18T18:11:38Z</time></trkpt><trkpt lat="42.456282767585705" lon="14.135173925663073"><ele>173.14285714285714</ele><time>2026-04-18T18:11:44Z</time></trkpt><trkpt lat="42.456320215615825" lon="14.13507846421667"><ele>171.42857142857144</ele><time>2026-04-18T18:11:52Z</time></trkpt><trkpt lat="42.456361699566735" lon="14.135002829129473"><ele>169.71428571428572</ele><time>2026-04-18T18:11:57Z</time></trkpt><trkpt lat="42.45638789815109" lon="14.134922743912549"><ele>168.0</ele><time>2026-04-18T18:12:01.999Z</time></trkpt><trkpt lat="42.45641412720498" lon="14.134829457267042"><ele>168.0</ele><time>2026-04-18T18:12:07.999Z</time></trkpt><trkpt lat="42.456438819238976" lon="14.134748258974"><ele>168.0</ele><time>2026-04-18T18:12:14.999Z</time></trkpt><trkpt lat="42.45646935191759" lon="14.134672040433161"><ele>168.0</ele><time>2026-04-18T18:12:42.999Z</time></trkpt><trkpt lat="42.45649500840975" lon="14.134578409838136"><ele>168.0</ele><time>2026-04-18T18:12:48.999Z</time></trkpt><trkpt lat="42.45652910672594" lon="14.134504688057795"><ele>168.0</ele><time>2026-04-18T18:13:05.998Z</time></trkpt><trkpt lat="42.45655343239447" lon="14.13442323609201"><ele>168.0</ele><time>2026-04-18T18:13:10.998Z</time></trkpt><trkpt lat="42.45657697837019" lon="14.13433874942018"><ele>168.0</ele><time>2026-04-18T18:13:15.998Z</time></trkpt><trkpt lat="42.456558413650946" lon="14.13442478849313"><ele>168.0</ele><time>2026-04-18T18:13:24Z</time></trkpt><trkpt lat="42.45651946520961" lon="14.13450879260765"><ele>168.0</ele><time>2026-04-18T18:13:30Z</time></trkpt><trkpt lat="42.456500249945776" lon="14.134593155270604"><ele>168.0</ele><time>2026-04-18T18:13:35Z</time></trkpt><trkpt lat="42.45647831525411" lon="14.1346770380583"><ele>168.0</ele><time>2026-04-18T18:13:40Z</time></trkpt><trkpt lat="42.45645479973657" lon="14.134769684850992"><ele>168.0</ele><time>2026-04-18T18:13:47Z</time></trkpt><trkpt lat="42.45642787003326" lon="14.134858321750947"><ele>168.0</ele><time>2026-04-18T18:13:53Z</time></trkpt><trkpt lat="42.4564059507517" lon="14.134952552054173"><ele>168.0</ele><time>2026-04-18T18:13:59Z</time></trkpt><trkpt lat="42.456382228284596" lon="14.13504259711788"><ele>167.71428571428572</ele><time>2026-04-18T18:14:07Z</time></trkpt><trkpt lat="42.45635455649381" lon="14.135121693973465"><ele>167.42857142857144</ele><time>2026-04-18T18:14:13Z</time></trkpt><trkpt lat="42.4563202668754" lon="14.135209440892293"><ele>167.14285714285714</ele><time>2026-04-18T18:14:17.999Z</time></trkpt><trkpt lat="42.45629561001216" lon="14.135297714492653"><ele>166.85714285714286</ele><time>2026-04-18T18:14:23.999Z</time></trkpt><trkpt lat="42.45626139707881" lon="14.13538522362643"><ele>166.57142857142858</ele><time>2026-04-18T18:14:31.999Z</time></trkpt><trkpt lat="42.456231316376545" lon="14.135463556725744"><ele>166.28571428571428</ele><time>2026-04-18T18:14:39.999Z</time></trkpt><trkpt lat="42.45620537574113" lon="14.135549575007726"><ele>166.0</ele><time>2026-04-18T18:14:49.999Z</time></trkpt><trkpt lat="42.45615982928518" lon="14.135628078015571"><ele>168.0</ele><time>2026-04-18T18:14:55.999Z</time></trkpt><trkpt lat="42.456129414903536" lon="14.135709480514759"><ele>170.0</ele><time>2026-04-18T18:15:02.999Z</time></trkpt><trkpt lat="42.45609643215788" lon="14.135796038899128"><ele>172.0</ele><time>2026-04-18T18:15:10.999Z</time></trkpt><trkpt lat="42.4560655194901" lon="14.135877857024141"><ele>174.0</ele><time>2026-04-18T18:15:17.999Z</time></trkpt><trkpt lat="42.456029473328236" lon="14.135956142798287"><ele>176.0</ele><time>2026-04-18T18:15:22.998Z</time></trkpt><trkpt lat="42.456061659656285" lon="14.136040528848453"><ele>178.0</ele><time>2026-04-18T18:15:30Z</time></trkpt><trkpt lat="42.45612339498742" lon="14.136077321223071"><ele>180.0</ele><time>2026-04-18T18:15:37Z</time></trkpt><trkpt lat="42.4561858888709" lon="14.13610801763717"><ele>180.0</ele><time>2026-04-18T18:15:47Z</time></trkpt><trkpt lat="42.456225124194006" lon="14.136180367918255"><ele>180.0</ele><time>2026-04-18T18:15:53Z</time></trkpt><trkpt lat="42.45629663770594" lon="14.136205743009926"><ele>180.0</ele><time>2026-04-18T18:15:59Z</time></trkpt><trkpt lat="42.45636225031719" lon="14.136235458246393"><ele>180.0</ele><time>2026-04-18T18:16:09Z</time></trkpt><trkpt lat="42.45642894988788" lon="14.136251994292762"><ele>180.0</ele><time>2026-04-18T18:16:17Z</time></trkpt><trkpt lat="42.456502179664284" lon="14.136255791115481"><ele>180.0</ele><time>2026-04-18T18:16:23Z</time></trkpt><trkpt lat="42.456573719039994" lon="14.13626949173642"><ele>180.0</ele><time>2026-04-18T18:16:28.999Z</time></trkpt><trkpt lat="42.45664008532718" lon="14.136277459135353"><ele>178.14285714285714</ele><time>2026-04-18T18:16:34.999Z</time></trkpt><trkpt lat="42.45671263464324" lon="14.13628076586413"><ele>176.2857142857143</ele><time>2026-04-18T18:16:45.999Z</time></trkpt><trkpt lat="42.45678309393655" lon="14.136265577489658"><ele>174.42857142857144</ele><time>2026-04-18T18:16:51.999Z</time></trkpt><trkpt lat="42.45684803809429" lon="14.136251974373646"><ele>172.57142857142856</ele><time>2026-04-18T18:16:57.999Z</time></trkpt><trkpt lat="42.45692216084248" lon="14.136234704750324"><ele>170.71428571428572</ele><time>2026-04-18T18:17:03.999Z</time></trkpt><trkpt lat="42.45698808296443" lon="14.13623202871075"><ele>168.85714285714286</ele><time>2026-04-18T18:17:11.999Z</time></trkpt><trkpt lat="42.45705442642783" lon="14.136223097689216"><ele>167.0</ele><time>2026-04-18T18:17:21.999Z</time></trkpt><trkpt lat="42.457118470144565" lon="14.136227133380727"><ele>165.71428571428572</ele><time>2026-04-18T18:17:29.998Z</time></trkpt><trkpt lat="42.45718247172059" lon="14.136226170055957"><ele>164.42857142857144</ele><time>2026-04-18T18:17:38Z</time></trkpt><trkpt lat="42.45724738062307" lon="14.13621249353702"><ele>163.14285714285717</ele><time>2026-04-18T18:17:45Z</time></trkpt><trkpt lat="42.457315045004705" lon="14.136198922630209"><ele>161.85714285714286</ele><time>2026-04-18T18:17:56Z</time></trkpt><trkpt lat="42.45738685852819" lon="14.136204096411019"><ele>160.57142857142858</ele><time>2026-04-18T18:18:02Z</time></trkpt><trkpt lat="42.45745732144547" lon="14.136184945335128"><ele>159.2857142857143</ele><time>2026-04-18T18:18:08Z</time></trkpt><trkpt lat="42.457527534240256" lon="14.136173111489844"><ele>158.0</ele><time>2026-04-18T18:18:13Z</time></trkpt><trkpt lat="42.45759486234152" lon="14.136153559637608"><ele>158.0</ele><time>2026-04-18T18:18:19Z</time></trkpt><trkpt lat="42.45765940016277" lon="14.136125834142216"><ele>158.0</ele><time>2026-04-18T18:18:25Z</time></trkpt><trkpt lat="42.45772225832894" lon="14.136115837524805"><ele>158.0</ele><time>2026-04-18T18:18:31Z</time></trkpt><trkpt lat="42.457767844579536" lon="14.136200931445119"><ele>158.0</ele><time>2026-04-18T18:19:03.999Z</time></trkpt><trkpt lat="42.457869590982" lon="14.136328574664425"><ele>158.0</ele><time>2026-04-18T18:19:12.999Z</time></trkpt><trkpt lat="42.45792713309092" lon="14.136373462983459"><ele>158.0</ele><time>2026-04-18T18:19:13.999Z</time></trkpt><trkpt lat="42.458005537542014" lon="14.13647475382244"><ele>158.0</ele><time>2026-04-18T18:19:14.999Z</time></trkpt><trkpt lat="42.45779301048173" lon="14.136198323155917"><ele>158.0</ele><time>2026-04-18T18:19:19.047Z</time></trkpt><trkpt lat="42.45755801917437" lon="14.136864027092495"><ele>158.0</ele><time>2026-04-18T18:19:31.051Z</time></trkpt><trkpt lat="42.45769812504081" lon="14.13679786445369"><ele>158.0</ele><time>2026-04-18T18:19:51.044Z</time></trkpt><trkpt lat="42.45777993797218" lon="14.13638356576361"><ele>158.0</ele><time>2026-04-18T18:19:53.998Z</time></trkpt><trkpt lat="42.45788500664662" lon="14.136357661585734"><ele>158.0</ele><time>2026-04-18T18:19:54.998Z</time></trkpt><trkpt lat="42.457805215443344" lon="14.136386223340306"><ele>158.0</ele><time>2026-04-18T18:19:56.998Z</time></trkpt><trkpt lat="42.45772976941445" lon="14.136393818681363"><ele>158.0</ele><time>2026-04-18T18:20:04Z</time></trkpt><trkpt lat="42.4577226469571" lon="14.136290046112762"><ele>158.0</ele><time>2026-04-18T18:30:19.998Z</time></trkpt></trkseg></trk></gpx>